U21974 / G-UZLM 7700 Squawk Report (19th of May, 2022)

Time Lat Lon Altitude Heading Speed Vertical Rate
2022-05-20 00:47:51 GMT 53.362392 -2.279330 0 87 0 0
2022-05-20 00:47:43 GMT 53.362389 -2.279320 0 87 0 0
2022-05-20 00:47:33 GMT 53.362392 -2.279330 0 87 0 0
2022-05-20 00:47:23 GMT 53.362392 -2.279369 0 87 2 0
2022-05-20 00:47:13 GMT 53.362389 -2.279542 0 87 4 0
2022-05-20 00:47:03 GMT 53.362377 -2.279845 0 87 5 0
2022-05-20 00:46:43 GMT 53.362358 -2.280722 0 28 6 0
2022-05-20 00:46:26 GMT 53.361935 -2.280612 0 315 11 0
2022-05-20 00:46:21 GMT 53.361786 -2.280350 0 315 14 0
2022-05-20 00:46:04 GMT 53.360886 -2.278815 0 320 19 0
2022-05-20 00:46:03 GMT 53.360813 -2.278721 0 323 19 0
2022-05-20 00:45:47 GMT 53.359512 -2.278391 0 5 22 0
2022-05-20 00:45:41 GMT 53.358955 -2.278492 0 5 21 0
2022-05-20 00:45:37 GMT 53.358570 -2.278564 0 5 21 0
2022-05-20 00:45:33 GMT 53.358135 -2.278643 0 5 21 0
2022-05-20 00:45:29 GMT 53.357849 -2.278682 0 5 20 0
2022-05-20 00:45:15 GMT 53.356663 -2.278875 0 5 16 0
2022-05-20 00:45:12 GMT 53.356453 -2.278936 0 22 15 0
2022-05-20 00:45:00 GMT 53.355835 -2.279899 0 50 21 0
2022-05-20 00:44:50 GMT 53.355206 -2.280997 0 25 19 0
2022-05-20 00:44:37 GMT 53.354141 -2.281605 0 11 18 0
2022-05-20 00:44:32 GMT 53.353832 -2.281684 0 11 16 0
2022-05-20 00:44:14 GMT 53.352894 -2.282213 0 14 11 0
2022-05-20 00:44:11 GMT 53.352745 -2.282272 0 348 12 0
2022-05-20 00:44:02 GMT 53.352367 -2.281905 0 281 12 0
2022-05-20 00:43:52 GMT 53.352379 -2.281017 0 261 18 0
2022-05-20 00:43:40 GMT 53.352551 -2.279153 0 250 36 0
2022-05-20 00:43:31 GMT 53.352962 -2.277054 0 244 36 0
2022-05-20 00:43:21 GMT 53.353985 -2.274513 0 230 84 0
2022-05-20 00:43:11 GMT 53.356201 -2.269932 75 232 110 -192
2022-05-20 00:43:01 GMT 53.359589 -2.262948 100 231 128 -192
2022-05-20 00:42:55 GMT 53.362061 -2.257847 175 231 127 -640
2022-05-20 00:42:51 GMT 53.363297 -2.255258 200 232 127 -640
2022-05-20 00:42:47 GMT 53.364880 -2.251955 250 231 128 -768
2022-05-20 00:42:44 GMT 53.365814 -2.250000 300 231 128 -704
2022-05-20 00:42:40 GMT 53.368511 -2.244523 450 232 129 0
2022-05-20 00:42:37 GMT 53.368511 -2.244523 450 231 128 -704
2022-05-20 00:42:34 GMT 53.369488 -2.242503 475 232 129 -704
2022-05-20 00:42:31 GMT 53.370884 -2.239515 450 231 128 -576
2022-05-20 00:42:27 GMT 53.372177 -2.236895 475 232 129 -640
2022-05-20 00:42:23 GMT 53.374794 -2.231517 625 231 130 -768
2022-05-20 00:42:20 GMT 53.376022 -2.228891 575 231 130 -768
2022-05-20 00:42:17 GMT 53.376022 -2.228891 625 231 130 -768
2022-05-20 00:42:14 GMT 53.377167 -2.226536 650 231 130 -768
2022-05-20 00:42:11 GMT 53.378494 -2.223790 700 232 129 -768
2022-05-20 00:42:07 GMT 53.380966 -2.218610 0 232 129 0
2022-05-20 00:42:04 GMT 53.380966 -2.218610 775 232 129 -640
2022-05-20 00:42:00 GMT 53.383640 -2.213180 825 231 129 -640
2022-05-20 00:41:57 GMT 53.383640 -2.213180 900 231 128 -640
2022-05-20 00:41:54 GMT 53.384674 -2.210920 1,225 231 128 -640
2022-05-20 00:41:50 GMT 53.387329 -2.205505 1,275 232 146 -704
2022-05-20 00:41:47 GMT 53.387329 -2.205505 950 232 128 -704
2022-05-20 00:41:44 GMT 53.388435 -2.203163 1,025 231 128 -704
2022-05-20 00:41:40 GMT 53.389877 -2.200174 1,025 231 128 -704
2022-05-20 00:41:34 GMT 53.392227 -2.195304 1,125 231 130 -640
2022-05-20 00:41:30 GMT 53.393742 -2.192176 1,150 232 130 -704
2022-05-20 00:41:24 GMT 53.397186 -2.185068 1,225 232 135 -896
2022-05-20 00:41:21 GMT 53.398407 -2.182513 1,325 232 142 -512
2022-05-20 00:41:18 GMT 53.398407 -2.182513 1,325 232 142 -512
2022-05-20 00:41:15 GMT 53.400024 -2.179090 1,350 232 144 -704
2022-05-20 00:41:11 GMT 53.402161 -2.174665 1,400 232 145 -640
2022-05-20 00:41:08 GMT 53.402161 -2.174665 1,425 232 147 -768
2022-05-20 00:41:05 GMT 53.403854 -2.171212 1,475 232 148 -832
2022-05-20 00:41:02 GMT 53.404682 -2.169477 1,500 232 150 -832
2022-05-20 00:41:00 GMT 53.405983 -2.166730 1,625 232 156 -896
2022-05-20 00:40:57 GMT 53.406921 -2.164777 1,625 232 156 -896
2022-05-20 00:40:54 GMT 53.408451 -2.161560 1,625 232 156 -896
2022-05-20 00:40:51 GMT 53.409943 -2.158421 1,650 232 156 -896
2022-05-20 00:40:49 GMT 53.410641 -2.157117 1,675 232 156 -832
2022-05-20 00:40:47 GMT 53.411591 -2.155047 1,700 232 157 -832
2022-05-20 00:40:45 GMT 53.412315 -2.153563 1,725 232 157 -896
2022-05-20 00:40:44 GMT 53.412968 -2.152189 1,750 232 157 -960
2022-05-20 00:40:43 GMT 53.413422 -2.151280 1,750 232 157 -960
2022-05-20 00:40:41 GMT 53.414268 -2.149524 1,800 231 158 -960
2022-05-20 00:40:39 GMT 53.415154 -2.147746 1,825 231 158 -960
2022-05-20 00:40:38 GMT 53.415573 -2.146777 1,825 231 158 -960
2022-05-20 00:40:36 GMT 53.416489 -2.144924 1,875 231 158 -832
2022-05-20 00:40:35 GMT 53.416969 -2.143950 1,875 231 158 -896
2022-05-20 00:40:33 GMT 53.417862 -2.142099 1,900 232 157 -896
2022-05-20 00:40:31 GMT 53.418823 -2.140058 1,950 232 156 -832
2022-05-20 00:40:30 GMT 53.420044 -2.137568 1,975 232 155 -832
2022-05-20 00:40:27 GMT 53.420509 -2.136598 2,000 232 155 -832
2022-05-20 00:40:26 GMT 53.420925 -2.135710 2,000 232 155 -768
2022-05-20 00:40:25 GMT 53.422417 -2.132559 2,050 232 155 -896
2022-05-20 00:40:23 GMT 53.423813 -2.129651 2,075 232 155 0
2022-05-20 00:40:20 GMT 53.423813 -2.129651 2,075 232 155 -832
2022-05-20 00:40:19 GMT 53.424271 -2.128836 2,100 232 155 -896
2022-05-20 00:40:18 GMT 53.424744 -2.127793 2,125 232 154 -896
2022-05-20 00:40:16 GMT 53.425690 -2.125776 2,150 232 154 -896
2022-05-20 00:40:14 GMT 53.426422 -2.124239 2,175 232 154 -960
2022-05-20 00:40:13 GMT 53.427120 -2.122866 2,200 232 153 -896
2022-05-20 00:40:11 GMT 53.427979 -2.121068 2,225 232 153 -832
2022-05-20 00:40:08 GMT 53.429306 -2.118261 2,275 232 153 -768
2022-05-20 00:40:07 GMT 53.430656 -2.115434 2,300 232 152 -768
2022-05-20 00:40:05 GMT 53.430656 -2.115434 2,325 232 152 -832
2022-05-20 00:40:04 GMT 53.432194 -2.112283 2,350 232 152 -896
2022-05-20 00:40:02 GMT 53.432194 -2.112283 2,375 231 152 -896
2022-05-20 00:39:59 GMT 53.433517 -2.109532 2,425 232 151 -768
2022-05-20 00:39:56 GMT 53.434662 -2.107194 2,450 232 151 -768
2022-05-20 00:39:53 GMT 53.436401 -2.103489 2,500 232 152 -768
2022-05-20 00:39:50 GMT 53.437271 -2.101763 2,550 232 152 -832
2022-05-20 00:39:47 GMT 53.438553 -2.099016 2,575 232 152 -896
2022-05-20 00:39:44 GMT 53.440060 -2.095884 2,625 232 152 -896
2022-05-20 00:39:41 GMT 53.441132 -2.093623 2,675 232 152 -896
2022-05-20 00:39:38 GMT 53.442760 -2.090230 2,700 232 153 -896
2022-05-20 00:39:35 GMT 53.444138 -2.087324 2,750 232 153 -896
2022-05-20 00:39:32 GMT 53.445133 -2.085221 2,800 232 154 -832
2022-05-20 00:39:29 GMT 53.446766 -2.081909 2,850 232 155 -832
2022-05-20 00:39:26 GMT 53.447880 -2.079486 2,900 232 155 -832
2022-05-20 00:39:23 GMT 53.449265 -2.076573 2,925 233 154 -832
2022-05-20 00:39:20 GMT 53.450626 -2.073589 2,950 233 154 -832
2022-05-20 00:39:17 GMT 53.451885 -2.071004 3,050 233 154 -768
2022-05-20 00:39:13 GMT 53.453838 -2.066722 3,100 234 154 -832
2022-05-20 00:39:10 GMT 53.454987 -2.064331 3,100 234 154 -832
2022-05-20 00:39:07 GMT 53.457504 -2.058524 3,175 238 154 -704
2022-05-20 00:39:04 GMT 53.457504 -2.058524 3,175 238 154 -704
2022-05-20 00:39:02 GMT 53.458603 -2.055856 3,275 239 154 -704
2022-05-20 00:38:59 GMT 53.459381 -2.053797 3,225 244 154 -576
2022-05-20 00:38:56 GMT 53.460800 -2.049186 3,250 255 157 -512
2022-05-20 00:38:53 GMT 53.461845 -2.043134 3,300 260 159 -512
2022-05-20 00:38:50 GMT 53.461845 -2.043134 3,325 269 161 -576
2022-05-20 00:38:47 GMT 53.462036 -2.039455 3,350 274 163 -512
2022-05-20 00:38:44 GMT 53.461987 -2.036510 3,350 274 163 -512
2022-05-20 00:38:43 GMT 53.461945 -2.035374 3,375 274 163 -512
2022-05-20 00:38:42 GMT 53.461891 -2.034167 3,375 274 163 -512
2022-05-20 00:38:41 GMT 53.461853 -2.032785 3,375 274 163 -512
2022-05-20 00:38:40 GMT 53.461761 -2.030273 3,400 274 164 -512
2022-05-20 00:38:38 GMT 53.461708 -2.028836 3,400 274 164 -512
2022-05-20 00:38:37 GMT 53.461670 -2.027605 3,425 274 165 -512
2022-05-20 00:38:35 GMT 53.461567 -2.025039 3,425 274 165 -512
2022-05-20 00:38:34 GMT 53.461521 -2.023908 3,450 274 165 -512
2022-05-20 00:38:33 GMT 53.461395 -2.021484 3,450 274 165 -512
2022-05-20 00:38:31 GMT 53.461334 -2.019142 3,475 275 165 -512
2022-05-20 00:38:29 GMT 53.461212 -2.016541 3,500 275 166 -512
2022-05-20 00:38:28 GMT 53.461147 -2.015183 3,500 275 166 -512
2022-05-20 00:38:26 GMT 53.460983 -2.011440 3,525 275 168 -512
2022-05-20 00:38:24 GMT 53.460915 -2.010013 3,525 275 168 -512
2022-05-20 00:38:23 GMT 53.460869 -2.008640 3,550 275 168 -512
2022-05-20 00:38:21 GMT 53.460777 -2.006701 3,575 276 170 -576
2022-05-20 00:38:18 GMT 53.460590 -2.002501 3,600 276 170 -576
2022-05-20 00:38:15 GMT 53.460434 -1.999669 3,600 276 172 -576
2022-05-20 00:38:13 GMT 53.460171 -1.995473 3,650 278 175 -576
2022-05-20 00:38:10 GMT 53.459839 -1.990723 3,675 280 177 -448
2022-05-20 00:38:09 GMT 53.459839 -1.990723 3,675 281 177 -448
2022-05-20 00:38:08 GMT 53.459705 -1.989252 3,675 282 179 -512
2022-05-20 00:38:07 GMT 53.459564 -1.987798 3,675 285 180 -640
2022-05-20 00:38:05 GMT 53.459198 -1.984994 3,700 287 181 -704
2022-05-20 00:38:04 GMT 53.459015 -1.983503 3,725 289 182 -768
2022-05-20 00:38:03 GMT 53.458832 -1.982247 3,725 291 183 -768
2022-05-20 00:38:01 GMT 53.458263 -1.979478 3,750 297 186 -896
2022-05-20 00:37:59 GMT 53.457779 -1.977539 3,775 309 190 -1472
2022-05-20 00:37:58 GMT 53.457413 -1.976362 3,800 309 190 -1472
2022-05-20 00:37:56 GMT 53.456543 -1.973694 3,850 309 190 -1472
2022-05-20 00:37:55 GMT 53.455994 -1.972360 3,875 309 190 -1472
2022-05-20 00:37:54 GMT 53.455467 -1.971157 3,900 314 192 -1536
2022-05-20 00:37:53 GMT 53.454391 -1.968907 3,950 316 193 -1472
2022-05-20 00:37:51 GMT 53.453838 -1.967845 3,975 318 193 -1472
2022-05-20 00:37:50 GMT 53.452862 -1.966230 4,000 320 195 -1536
2022-05-20 00:37:48 GMT 53.451828 -1.964748 4,050 324 196 -1408
2022-05-20 00:37:47 GMT 53.450729 -1.963257 4,075 325 198 -1280
2022-05-20 00:37:46 GMT 53.449265 -1.961452 4,125 326 199 -1024
2022-05-20 00:37:44 GMT 53.448486 -1.960575 4,150 326 200 -832
2022-05-20 00:37:43 GMT 53.447754 -1.959726 4,150 326 200 -704
2022-05-20 00:37:41 GMT 53.446159 -1.957909 4,175 326 203 -512
2022-05-20 00:37:40 GMT 53.445415 -1.957020 4,175 326 203 -448
2022-05-20 00:37:39 GMT 53.444717 -1.956213 4,200 326 204 -512
2022-05-20 00:37:37 GMT 53.443176 -1.954546 4,200 326 204 -768
2022-05-20 00:37:36 GMT 53.442387 -1.953547 4,225 326 205 -896
2022-05-20 00:37:35 GMT 53.441689 -1.952739 4,225 326 206 -896
2022-05-20 00:37:32 GMT 53.439377 -1.950073 4,275 326 207 -768
2022-05-20 00:37:31 GMT 53.438507 -1.949132 4,300 326 209 -768
2022-05-20 00:37:29 GMT 53.436813 -1.947170 4,325 326 210 -704
2022-05-20 00:37:28 GMT 53.436008 -1.946196 4,325 326 211 -768
2022-05-20 00:37:26 GMT 53.434242 -1.944176 4,350 326 213 -768
2022-05-20 00:37:25 GMT 53.433590 -1.943449 4,375 326 214 -768
2022-05-20 00:37:24 GMT 53.432144 -1.941753 4,400 326 215 -768
2022-05-20 00:37:22 GMT 53.431137 -1.940578 4,400 325 216 -768
2022-05-20 00:37:21 GMT 53.430405 -1.939715 4,425 325 217 -768
2022-05-20 00:37:19 GMT 53.428608 -1.937633 4,450 326 219 -768
2022-05-20 00:37:18 GMT 53.427841 -1.936733 4,450 326 219 -768
2022-05-20 00:37:16 GMT 53.426102 -1.934692 4,475 326 221 -768
2022-05-20 00:37:15 GMT 53.425304 -1.933755 4,500 326 223 -768
2022-05-20 00:37:14 GMT 53.424408 -1.932731 4,500 326 223 -832
2022-05-20 00:37:13 GMT 53.422623 -1.930612 4,550 326 225 -832
2022-05-20 00:37:11 GMT 53.421890 -1.929749 4,550 326 226 -832
2022-05-20 00:37:10 GMT 53.420242 -1.927865 4,575 326 227 -896
2022-05-20 00:37:08 GMT 53.419418 -1.926845 4,600 326 228 -896
2022-05-20 00:37:07 GMT 53.418648 -1.926000 4,600 326 229 -832
2022-05-20 00:37:06 GMT 53.416901 -1.923941 4,625 326 231 -832
2022-05-20 00:37:04 GMT 53.415939 -1.922764 4,650 327 231 -832
2022-05-20 00:37:03 GMT 53.415108 -1.921880 4,650 327 232 -832
2022-05-20 00:37:01 GMT 53.413193 -1.919704 4,700 327 233 -896
2022-05-20 00:37:00 GMT 53.412369 -1.918762 4,700 328 234 -896
2022-05-20 00:36:59 GMT 53.410492 -1.916722 4,725 329 235 -896
2022-05-20 00:36:57 GMT 53.409668 -1.915859 4,750 329 235 -896
2022-05-20 00:36:56 GMT 53.408684 -1.914772 4,775 330 236 -896
2022-05-20 00:36:54 GMT 53.407608 -1.913740 4,775 331 237 -896
2022-05-20 00:36:53 GMT 53.406693 -1.912798 4,800 333 239 -960
2022-05-20 00:36:52 GMT 53.404728 -1.910894 4,825 335 240 -960
2022-05-20 00:36:50 GMT 53.403671 -1.910052 4,875 338 242 -960
2022-05-20 00:36:49 GMT 53.402351 -1.908875 4,875 340 243 -960
2022-05-20 00:36:47 GMT 53.400879 -1.907776 4,900 340 243 -960
2022-05-20 00:36:46 GMT 53.399792 -1.907097 4,950 346 247 -1024
2022-05-20 00:36:44 GMT 53.397232 -1.905562 4,950 347 248 -960
2022-05-20 00:36:41 GMT 53.394150 -1.904245 5,000 349 250 -896
2022-05-20 00:36:39 GMT 53.391972 -1.903381 5,025 349 251 -896
2022-05-20 00:36:37 GMT 53.388153 -1.902126 5,100 349 252 -960
2022-05-20 00:36:34 GMT 53.386002 -1.901341 5,100 349 253 -1024
2022-05-20 00:36:33 GMT 53.383713 -1.900556 5,150 349 253 -1088
2022-05-20 00:36:30 GMT 53.381195 -1.899693 5,175 349 254 -1024
2022-05-20 00:36:29 GMT 53.378998 -1.898987 5,200 349 257 -960
2022-05-20 00:36:26 GMT 53.376709 -1.898202 5,225 349 259 -896
2022-05-20 00:36:25 GMT 53.375519 -1.897731 5,250 349 259 -896
2022-05-20 00:36:23 GMT 53.372887 -1.896838 5,275 349 260 -896
2022-05-20 00:36:20 GMT 53.369347 -1.895546 5,325 349 263 -896
2022-05-20 00:36:18 GMT 53.366276 -1.894495 5,375 349 265 -832
2022-05-20 00:36:16 GMT 53.364532 -1.893886 5,400 349 267 -768
2022-05-20 00:36:15 GMT 53.363297 -1.893445 5,400 349 268 -704
2022-05-20 00:36:13 GMT 53.360092 -1.892317 5,425 349 270 -640
2022-05-20 00:36:12 GMT 53.360092 -1.892317 5,425 349 271 -576
2022-05-20 00:36:09 GMT 53.356220 -1.890941 5,450 349 273 -704
2022-05-20 00:36:08 GMT 53.354961 -1.890537 5,475 349 274 -768
2022-05-20 00:36:06 GMT 53.352264 -1.889568 5,500 349 276 -896
2022-05-20 00:36:05 GMT 53.351074 -1.889099 5,525 348 277 -896
2022-05-20 00:36:03 GMT 53.346489 -1.887467 5,575 348 280 -960
2022-05-20 00:36:01 GMT 53.346489 -1.887467 5,575 348 280 -960
2022-05-20 00:36:00 GMT 53.342377 -1.886039 5,625 348 282 -960
2022-05-20 00:35:58 GMT 53.342377 -1.886039 5,625 348 283 -960
2022-05-20 00:35:57 GMT 53.341095 -1.885568 5,650 348 284 -960
2022-05-20 00:35:55 GMT 53.338531 -1.884626 5,675 348 286 -1024
2022-05-20 00:35:54 GMT 53.337250 -1.884155 5,700 348 287 -1024
2022-05-20 00:35:53 GMT 53.336018 -1.883671 5,700 348 287 -1088
2022-05-20 00:35:51 GMT 53.333454 -1.882701 5,750 348 289 -1216
2022-05-20 00:35:50 GMT 53.331638 -1.882055 5,775 348 290 -1536
2022-05-20 00:35:48 GMT 53.329544 -1.881247 5,825 348 290 -1536
2022-05-20 00:35:46 GMT 53.326309 -1.879996 5,900 347 290 -2048
2022-05-20 00:35:45 GMT 53.324284 -1.879228 5,950 347 290 -2304
2022-05-20 00:35:42 GMT 53.321732 -1.878270 6,025 347 290 -2368
2022-05-20 00:35:41 GMT 53.320450 -1.877720 6,075 347 290 -2432
2022-05-20 00:35:40 GMT 53.319073 -1.877208 6,125 347 290 -2496
2022-05-20 00:35:38 GMT 53.316376 -1.876151 6,200 347 290 -2496
2022-05-20 00:35:37 GMT 53.315022 -1.875592 6,250 347 290 -2496
2022-05-20 00:35:36 GMT 53.312412 -1.874623 6,325 347 290 -2432
2022-05-20 00:35:34 GMT 53.311249 -1.874138 6,350 347 290 -2368
2022-05-20 00:35:32 GMT 53.308502 -1.873088 6,450 347 290 -2432
2022-05-20 00:35:31 GMT 53.307293 -1.872603 6,475 347 290 -2432
2022-05-20 00:35:30 GMT 53.304749 -1.871599 6,575 347 290 -2496
2022-05-20 00:35:28 GMT 53.303383 -1.871069 6,600 347 290 -2496
2022-05-20 00:35:27 GMT 53.302139 -1.870579 6,650 347 290 -2432
2022-05-20 00:35:24 GMT 53.298309 -1.869049 6,775 347 290 -2304
2022-05-20 00:35:22 GMT 53.295593 -1.868068 6,850 347 291 -2240
2022-05-20 00:35:21 GMT 53.294258 -1.867514 6,875 347 291 -2240
2022-05-20 00:35:20 GMT 53.291607 -1.866464 6,950 348 291 -2176
2022-05-20 00:35:18 GMT 53.290100 -1.865871 7,000 348 291 -2112
2022-05-20 00:35:16 GMT 53.287697 -1.864929 7,125 348 291 -2112
2022-05-20 00:35:14 GMT 53.285320 -1.864041 7,125 348 292 -2176
2022-05-20 00:35:13 GMT 53.283691 -1.863438 7,175 348 292 -2176
2022-05-20 00:35:12 GMT 53.280899 -1.862418 7,250 348 293 -2176
2022-05-20 00:35:10 GMT 53.279690 -1.861940 7,275 348 293 -2176
2022-05-20 00:35:09 GMT 53.276894 -1.860890 7,350 348 293 -2112
2022-05-20 00:35:06 GMT 53.272938 -1.859436 7,450 348 294 -1856
2022-05-20 00:35:03 GMT 53.270798 -1.858628 7,500 348 294 -1792
2022-05-20 00:35:00 GMT 53.266281 -1.857013 7,600 348 295 -1984
2022-05-20 00:34:59 GMT 53.265072 -1.856528 7,650 349 295 -2112
2022-05-20 00:34:56 GMT 53.261066 -1.855155 7,750 349 295 -2560
2022-05-20 00:34:54 GMT 53.258331 -1.854178 7,850 349 295 -2816
2022-05-20 00:34:53 GMT 53.257004 -1.853707 7,900 349 295 -2816
2022-05-20 00:34:52 GMT 53.254303 -1.852844 8,000 349 294 -2944
2022-05-20 00:34:49 GMT 53.251572 -1.851843 8,100 349 293 -2752
2022-05-20 00:34:46 GMT 53.248123 -1.850631 8,200 348 293 -2432
2022-05-20 00:34:45 GMT 53.246750 -1.850176 8,250 348 294 -2304
2022-05-20 00:34:43 GMT 53.244030 -1.849177 8,325 348 293 -2048
2022-05-20 00:34:42 GMT 53.242630 -1.848685 8,375 347 293 -1984
2022-05-20 00:34:41 GMT 53.239563 -1.847508 8,450 347 294 -1920
2022-05-20 00:34:39 GMT 53.238209 -1.846915 8,475 346 294 -1920
2022-05-20 00:34:38 GMT 53.236954 -1.846409 8,500 346 294 -1856
2022-05-20 00:34:36 GMT 53.234344 -1.845380 8,575 344 294 -1856
2022-05-20 00:34:35 GMT 53.233044 -1.844734 8,600 343 295 -1856
2022-05-20 00:34:33 GMT 53.230774 -1.843663 8,650 341 295 -1920
2022-05-20 00:34:32 GMT 53.229504 -1.843037 8,675 339 294 -1920
2022-05-20 00:34:31 GMT 53.226944 -1.841583 8,750 336 294 -2048
2022-05-20 00:34:29 GMT 53.225739 -1.840838 8,775 334 293 -2112
2022-05-20 00:34:28 GMT 53.223999 -1.839582 8,825 333 293 -2176
2022-05-20 00:34:26 GMT 53.221664 -1.837699 8,900 329 292 -2304
2022-05-20 00:34:25 GMT 53.220379 -1.836575 8,925 328 292 -2368
2022-05-20 00:34:24 GMT 53.218098 -1.834313 9,000 324 290 -2432
2022-05-20 00:34:22 GMT 53.216812 -1.832833 9,050 323 290 -2432
2022-05-20 00:34:21 GMT 53.214752 -1.830322 9,125 320 289 -2368
2022-05-20 00:34:19 GMT 53.213631 -1.828901 9,175 318 288 -2368
2022-05-20 00:34:17 GMT 53.211723 -1.826154 9,225 316 287 -2304
2022-05-20 00:34:16 GMT 53.210838 -1.824781 9,300 314 287 -2112
2022-05-20 00:34:15 GMT 53.209908 -1.823246 9,325 313 286 -2048
2022-05-20 00:34:14 GMT 53.207794 -1.819493 9,400 311 287 -1792
2022-05-20 00:34:12 GMT 53.207298 -1.818560 9,400 311 286 -1536
2022-05-20 00:34:11 GMT 53.206375 -1.816825 9,425 310 286 -1408
2022-05-20 00:34:09 GMT 53.204647 -1.813390 9,450 310 287 -1344
2022-05-20 00:34:08 GMT 53.203949 -1.811881 9,500 310 289 -1216
2022-05-20 00:34:07 GMT 53.202988 -1.809998 9,525 310 291 -1152
2022-05-20 00:34:06 GMT 53.202084 -1.808220 9,550 310 291 -1088
2022-05-20 00:34:05 GMT 53.199478 -1.802808 9,575 310 294 -896
2022-05-20 00:34:03 GMT 53.199478 -1.802808 9,575 310 294 -832
2022-05-20 00:34:02 GMT 53.198547 -1.800973 9,600 310 296 -768
2022-05-20 00:34:00 GMT 53.197083 -1.797991 9,625 310 298 -768
2022-05-20 00:33:59 GMT 53.196175 -1.796184 9,625 310 300 -896
2022-05-20 00:33:57 GMT 53.194309 -1.792387 9,675 310 302 -1024
2022-05-20 00:33:56 GMT 53.193474 -1.790610 9,700 310 302 -1216
2022-05-20 00:33:54 GMT 53.191727 -1.787162 9,725 310 302 -1536
2022-05-20 00:33:53 GMT 53.190765 -1.785121 9,775 310 302 -1728
2022-05-20 00:33:52 GMT 53.188866 -1.781320 9,825 310 302 -1920
2022-05-20 00:33:49 GMT 53.187374 -1.778250 9,875 310 301 -1792
2022-05-20 00:33:47 GMT 53.185604 -1.774615 9,950 310 303 -1536
2022-05-20 00:33:45 GMT 53.182983 -1.769348 10,025 310 303 -1472
2022-05-20 00:33:42 GMT 53.180859 -1.765164 10,075 310 303 -1600
2022-05-20 00:33:40 GMT 53.179047 -1.761422 10,125 310 303 -1600
2022-05-20 00:33:38 GMT 53.177181 -1.757732 10,175 310 304 -1472
2022-05-20 00:33:37 GMT 53.176296 -1.755955 10,200 310 304 -1472
2022-05-20 00:33:36 GMT 53.175797 -1.754987 10,225 310 304 -1472
2022-05-20 00:33:35 GMT 53.173687 -1.750704 10,275 310 306 -1472
2022-05-20 00:33:33 GMT 53.172806 -1.748926 10,300 310 306 -1472
2022-05-20 00:33:32 GMT 53.170895 -1.745130 10,350 310 306 -1536
2022-05-20 00:33:30 GMT 53.170010 -1.743272 10,375 310 306 -1536
2022-05-20 00:33:28 GMT 53.168194 -1.739637 10,425 310 307 -1600
2022-05-20 00:33:26 GMT 53.166458 -1.736075 10,475 310 308 -1664
2022-05-20 00:33:23 GMT 53.163681 -1.730508 10,575 310 308 -1920
2022-05-20 00:33:22 GMT 53.161011 -1.725167 10,650 310 308 -2240
2022-05-20 00:33:20 GMT 53.161011 -1.725167 10,675 310 307 -2304
2022-05-20 00:33:19 GMT 53.160141 -1.723399 10,725 310 307 -2368
2022-05-20 00:33:17 GMT 53.158356 -1.719831 10,800 310 306 -2304
2022-05-20 00:33:16 GMT 53.157440 -1.718026 10,825 310 306 -2304
2022-05-20 00:33:15 GMT 53.155563 -1.714260 10,925 310 306 -2304
2022-05-20 00:33:13 GMT 53.154602 -1.712332 10,950 310 306 -2176
2022-05-20 00:33:12 GMT 53.153671 -1.710555 10,975 310 306 -2048
2022-05-20 00:33:11 GMT 53.152786 -1.708778 11,025 310 306 -1920
2022-05-20 00:33:09 GMT 53.151764 -1.706648 11,075 310 306 -1728
2022-05-20 00:33:08 GMT 53.149715 -1.702558 11,125 310 307 -1280
2022-05-20 00:33:05 GMT 53.147713 -1.698599 11,150 310 309 -1088
2022-05-20 00:33:02 GMT 53.145401 -1.693935 11,225 310 309 -1088
2022-05-20 00:33:00 GMT 53.143661 -1.690360 11,225 310 310 -1152
2022-05-20 00:32:59 GMT 53.142700 -1.688363 11,275 310 311 -1216
2022-05-20 00:32:58 GMT 53.140915 -1.684786 11,300 310 311 -1344
2022-05-20 00:32:56 GMT 53.139954 -1.682870 11,325 310 311 -1408
2022-05-20 00:32:55 GMT 53.139008 -1.680908 11,350 310 312 -1536
2022-05-20 00:32:53 GMT 53.137192 -1.677192 11,400 310 311 -1600
2022-05-20 00:32:52 GMT 53.136383 -1.675650 11,425 310 311 -1664
2022-05-20 00:32:50 GMT 53.134552 -1.671962 11,450 310 312 -1792
2022-05-20 00:32:49 GMT 53.133327 -1.669437 11,550 310 312 -1728
2022-05-20 00:32:48 GMT 53.132305 -1.667418 11,550 310 313 -1664
2022-05-20 00:32:47 GMT 53.130905 -1.664671 11,650 310 313 -1472
2022-05-20 00:32:44 GMT 53.127602 -1.657966 11,675 310 313 -1472
2022-05-20 00:32:41 GMT 53.126083 -1.654933 11,725 310 313 -1472
2022-05-20 00:32:40 GMT 53.125179 -1.653200 11,750 310 314 -1600
2022-05-20 00:32:39 GMT 53.124344 -1.651504 11,775 310 314 -1600
2022-05-20 00:32:37 GMT 53.122341 -1.647384 11,850 310 313 -1856
2022-05-20 00:32:36 GMT 53.121368 -1.645438 11,875 310 313 -2048
2022-05-20 00:32:34 GMT 53.119453 -1.641648 12,025 310 313 -2304
2022-05-20 00:32:32 GMT 53.117386 -1.637434 12,025 310 311 -2560
2022-05-20 00:32:30 GMT 53.115463 -1.633589 12,125 310 311 -2560
2022-05-20 00:32:29 GMT 53.113724 -1.630057 12,175 310 311 -2432
2022-05-20 00:32:27 GMT 53.112797 -1.628158 12,250 310 310 -2368
2022-05-20 00:32:26 GMT 53.111801 -1.626212 12,275 310 310 -2304
2022-05-20 00:32:24 GMT 53.109924 -1.622288 12,375 310 310 -2176
2022-05-20 00:32:23 GMT 53.109402 -1.621291 12,375 310 310 -2176
2022-05-20 00:32:22 GMT 53.108093 -1.618679 12,425 310 309 -2176
2022-05-20 00:32:21 GMT 53.107212 -1.616929 12,475 310 309 -2176
2022-05-20 00:32:19 GMT 53.105583 -1.613617 12,525 310 309 -2048
2022-05-20 00:32:18 GMT 53.104607 -1.611517 12,575 310 309 -1984
2022-05-20 00:32:16 GMT 53.102921 -1.608163 12,625 309 310 -1920
2022-05-20 00:32:15 GMT 53.101959 -1.606123 12,675 309 310 -1792
2022-05-20 00:32:14 GMT 53.099995 -1.602146 12,725 309 310 -1728
2022-05-20 00:32:12 GMT 53.099167 -1.600394 12,750 309 310 -1664
2022-05-20 00:32:11 GMT 53.097336 -1.596706 12,800 309 312 -1600
2022-05-20 00:32:09 GMT 53.096512 -1.594979 12,825 309 311 -1536
2022-05-20 00:32:08 GMT 53.095669 -1.593260 12,850 309 311 -1600
2022-05-20 00:32:06 GMT 53.093620 -1.588937 12,925 309 312 -1664
2022-05-20 00:32:05 GMT 53.092690 -1.587054 12,950 309 313 -1536
2022-05-20 00:32:03 GMT 53.090778 -1.583130 13,000 309 314 -1472
2022-05-20 00:32:01 GMT 53.088135 -1.577606 13,075 309 315 -1600
2022-05-20 00:31:58 GMT 53.086670 -1.574554 13,125 309 315 -1600
2022-05-20 00:31:57 GMT 53.084747 -1.570663 13,175 309 315 -1792
2022-05-20 00:31:55 GMT 53.083797 -1.568691 13,225 309 315 -1856
2022-05-20 00:31:54 GMT 53.082867 -1.566807 13,250 309 315 -1920
2022-05-20 00:31:53 GMT 53.080811 -1.562576 13,325 309 314 -2112
2022-05-20 00:31:50 GMT 53.079437 -1.559677 13,375 309 314 -2176
2022-05-20 00:31:48 GMT 53.078018 -1.556702 13,450 309 314 -2048
2022-05-20 00:31:46 GMT 53.076115 -1.552839 13,500 309 314 -2048
2022-05-20 00:31:45 GMT 53.075272 -1.551056 13,525 309 315 -2048
2022-05-20 00:31:44 GMT 53.074265 -1.548996 13,575 309 315 -2048
2022-05-20 00:31:42 GMT 53.072296 -1.544992 13,650 309 314 -2176
2022-05-20 00:31:41 GMT 53.071320 -1.542873 13,675 309 314 -2176
2022-05-20 00:31:40 GMT 53.070389 -1.540989 13,725 309 313 -2304
2022-05-20 00:31:38 GMT 53.068573 -1.537301 13,800 309 312 -2432
2022-05-20 00:31:37 GMT 53.067642 -1.535418 13,850 309 312 -2496
2022-05-20 00:31:36 GMT 53.066803 -1.533661 13,875 309 312 -2560
2022-05-20 00:31:35 GMT 53.064194 -1.528244 14,000 309 311 -2368
2022-05-20 00:31:33 GMT 53.064194 -1.528244 14,000 309 311 -2240
2022-05-20 00:31:31 GMT 53.062271 -1.524277 14,075 309 311 -1984
2022-05-20 00:31:30 GMT 53.061310 -1.522217 14,100 309 311 -1856
2022-05-20 00:31:29 GMT 53.060474 -1.520429 14,125 309 311 -1728
2022-05-20 00:31:27 GMT 53.058701 -1.516800 14,200 309 311 -1600
2022-05-20 00:31:25 GMT 53.056980 -1.513131 14,250 309 313 -1536
2022-05-20 00:31:23 GMT 53.055130 -1.509247 14,275 309 313 -1536
2022-05-20 00:31:22 GMT 53.054188 -1.507246 14,325 309 313 -1408
2022-05-20 00:31:21 GMT 53.053303 -1.505362 14,350 309 313 -1344
2022-05-20 00:31:18 GMT 53.050552 -1.499634 14,400 309 315 -1152
2022-05-20 00:31:17 GMT 53.049728 -1.497955 14,425 309 315 -1152
2022-05-20 00:31:15 GMT 53.047852 -1.493912 14,450 309 316 -1088
2022-05-20 00:31:14 GMT 53.047028 -1.492233 14,475 309 317 -1024
2022-05-20 00:31:12 GMT 53.045250 -1.488569 14,500 309 318 -1024
2022-05-20 00:31:10 GMT 53.043388 -1.484724 14,550 310 319 -960
2022-05-20 00:31:09 GMT 53.041618 -1.481114 14,575 310 321 -896
2022-05-20 00:31:07 GMT 53.040619 -1.479111 14,600 310 321 -896
2022-05-20 00:31:06 GMT 53.039703 -1.477203 14,600 310 322 -960
2022-05-20 00:31:04 GMT 53.037735 -1.473236 14,650 310 324 -1152
2022-05-20 00:31:03 GMT 53.036732 -1.471226 14,650 310 324 -1216
2022-05-20 00:31:01 GMT 53.034729 -1.467224 14,700 311 324 -1344
2022-05-20 00:31:00 GMT 53.033752 -1.465262 14,725 311 326 -1536
2022-05-20 00:30:59 GMT 53.032059 -1.462021 14,775 312 326 -1728
2022-05-20 00:30:56 GMT 53.029934 -1.457886 14,850 312 325 -2240
2022-05-20 00:30:55 GMT 53.026886 -1.452255 14,975 312 325 -2496
2022-05-20 00:30:53 GMT 53.026886 -1.452255 14,975 313 324 -2624
2022-05-20 00:30:52 GMT 53.025841 -1.450274 15,025 313 324 -2816
2022-05-20 00:30:50 GMT 53.024277 -1.447449 15,100 313 323 -2880
2022-05-20 00:30:49 GMT 53.022812 -1.444781 15,200 314 321 -2944
2022-05-20 00:30:48 GMT 53.021759 -1.442871 15,225 314 321 -3008
2022-05-20 00:30:47 GMT 53.019608 -1.439133 15,325 314 320 -2944
2022-05-20 00:30:44 GMT 53.017227 -1.434971 15,500 314 318 -2880
2022-05-20 00:30:41 GMT 53.014851 -1.430891 15,550 315 318 -2752
2022-05-20 00:30:39 GMT 53.012650 -1.427155 15,625 315 317 -2752
2022-05-20 00:30:37 GMT 53.010571 -1.423514 15,750 315 316 -2240
2022-05-20 00:30:35 GMT 53.008987 -1.420898 15,850 315 317 -2176
2022-05-20 00:30:33 GMT 53.006287 -1.416397 15,875 315 317 -1728
2022-05-20 00:30:31 GMT 53.004379 -1.413156 15,925 315 318 -1600
2022-05-20 00:30:30 GMT 53.003262 -1.411272 15,950 315 318 -1600
2022-05-20 00:30:29 GMT 53.002167 -1.409454 15,975 315 318 -1600
2022-05-20 00:30:28 GMT 53.001022 -1.407547 16,025 315 318 -1600
2022-05-20 00:30:27 GMT 52.998917 -1.404114 16,075 315 318 -1600
2022-05-20 00:30:25 GMT 52.997910 -1.402435 16,100 315 318 -1664
2022-05-20 00:30:24 GMT 52.995441 -1.398324 16,175 315 318 -1856
2022-05-20 00:30:21 GMT 52.993927 -1.395874 16,200 315 319 -1856
2022-05-20 00:30:18 GMT 52.989075 -1.387711 16,350 315 318 -1920
2022-05-20 00:30:16 GMT 52.988022 -1.385956 16,400 315 318 -1984
2022-05-20 00:30:14 GMT 52.986465 -1.383362 16,450 315 318 -1984
2022-05-20 00:30:12 GMT 52.984547 -1.380118 16,500 315 318 -2048
2022-05-20 00:30:10 GMT 52.982574 -1.376724 16,575 315 318 -2048
2022-05-20 00:30:09 GMT 52.981056 -1.374233 16,625 315 318 -2048
2022-05-20 00:30:08 GMT 52.980103 -1.372604 16,650 315 318 -2048
2022-05-20 00:30:06 GMT 52.978455 -1.369781 16,700 315 318 -2048
2022-05-20 00:30:05 GMT 52.977890 -1.368818 16,750 315 318 -1984
2022-05-20 00:30:04 GMT 52.976727 -1.366935 16,800 315 318 -1920
2022-05-20 00:30:03 GMT 52.974747 -1.363525 16,800 315 318 -1920
2022-05-20 00:30:01 GMT 52.973236 -1.361049 16,875 315 318 -1920
2022-05-20 00:30:00 GMT 52.972275 -1.359329 16,900 315 318 -1920
2022-05-20 00:29:59 GMT 52.971371 -1.357832 16,925 315 318 -1920
2022-05-20 00:29:57 GMT 52.968475 -1.352921 17,000 315 318 -2112
2022-05-20 00:29:56 GMT 52.968475 -1.352921 17,025 315 318 -2112
2022-05-20 00:29:55 GMT 52.967369 -1.351083 17,050 315 318 -2176
2022-05-20 00:29:53 GMT 52.965229 -1.347395 17,125 315 318 -2240
2022-05-20 00:29:52 GMT 52.964203 -1.345668 17,175 315 317 -2240
2022-05-20 00:29:51 GMT 52.963272 -1.344099 17,200 315 316 -2176
2022-05-20 00:29:49 GMT 52.961105 -1.340332 17,325 315 316 -2176
2022-05-20 00:29:47 GMT 52.958954 -1.336670 17,325 315 317 -1984
2022-05-20 00:29:46 GMT 52.957947 -1.334991 17,375 314 316 -1728
2022-05-20 00:29:45 GMT 52.956894 -1.333237 17,400 314 316 -1664
2022-05-20 00:29:43 GMT 52.955128 -1.330209 17,450 314 317 -1536
2022-05-20 00:29:42 GMT 52.954056 -1.328354 17,475 314 317 -1536
2022-05-20 00:29:41 GMT 52.951950 -1.324615 17,550 314 316 -1472
2022-05-20 00:29:38 GMT 52.949890 -1.321106 17,575 314 316 -1472
2022-05-20 00:29:37 GMT 52.947819 -1.317575 17,625 314 318 -1472
2022-05-20 00:29:35 GMT 52.946701 -1.315613 17,675 314 318 -1472
2022-05-20 00:29:34 GMT 52.945633 -1.313782 17,700 314 318 -1472
2022-05-20 00:29:32 GMT 52.943939 -1.310806 17,725 314 318 -1472
2022-05-20 00:29:31 GMT 52.943024 -1.309204 17,750 314 318 -1472
2022-05-20 00:29:29 GMT 52.941021 -1.305804 17,825 314 318 -1472
2022-05-20 00:29:27 GMT 52.938461 -1.301409 17,875 314 319 -1536
2022-05-20 00:29:24 GMT 52.934830 -1.295166 17,950 314 321 -1536
2022-05-20 00:29:21 GMT 52.932266 -1.290741 18,050 314 321 -1536
2022-05-20 00:29:18 GMT 52.928825 -1.284851 18,150 313 320 -1600
2022-05-20 00:29:15 GMT 52.926086 -1.280136 18,175 311 318 -1664
2022-05-20 00:29:12 GMT 52.923611 -1.275434 18,325 306 314 -1856
2022-05-20 00:29:09 GMT 52.918854 -1.264648 18,375 301 311 -1728
2022-05-20 00:29:07 GMT 52.918854 -1.264648 18,425 301 311 -1728
2022-05-20 00:29:04 GMT 52.916428 -1.257858 18,500 300 310 -1664
2022-05-20 00:29:01 GMT 52.912994 -1.247711 18,575 300 311 -1600
2022-05-20 00:28:59 GMT 52.912994 -1.247711 18,700 299 311 -1600
2022-05-20 00:28:56 GMT 52.911831 -1.244280 18,700 299 311 -1600
2022-05-20 00:28:54 GMT 52.909744 -1.237946 18,800 300 312 -1600
2022-05-20 00:28:51 GMT 52.906998 -1.229782 18,875 300 313 -1600
2022-05-20 00:28:48 GMT 52.904430 -1.222151 18,950 300 313 -1664
2022-05-20 00:28:46 GMT 52.904430 -1.222151 19,000 300 313 -1664
2022-05-20 00:28:44 GMT 52.902969 -1.217880 19,050 300 314 -1664
2022-05-20 00:28:42 GMT 52.901077 -1.212341 19,125 300 314 -1664
2022-05-20 00:28:39 GMT 52.899353 -1.207199 19,175 300 315 -1664
2022-05-20 00:28:37 GMT 52.895584 -1.195940 19,250 300 315 -1664
2022-05-20 00:28:34 GMT 52.895584 -1.195940 19,325 300 316 -1600
2022-05-20 00:28:31 GMT 52.893402 -1.189499 19,400 300 316 -1536
2022-05-20 00:28:28 GMT 52.891582 -1.184169 19,450 300 316 -1600
2022-05-20 00:28:26 GMT 52.890198 -1.180038 19,700 300 317 -1600
2022-05-20 00:28:24 GMT 52.888687 -1.175613 19,600 300 317 -1536
2022-05-20 00:28:22 GMT 52.885017 -1.164708 19,650 300 317 -1536
2022-05-20 00:28:19 GMT 52.883560 -1.160355 19,725 300 318 -1536
2022-05-20 00:28:17 GMT 52.883560 -1.160355 19,800 300 319 -1664
2022-05-20 00:28:14 GMT 52.881546 -1.154404 19,850 300 319 -1664
2022-05-20 00:28:11 GMT 52.879433 -1.148150 19,900 300 319 -1792
2022-05-20 00:28:08 GMT 52.877476 -1.142421 19,975 300 319 -1856
2022-05-20 00:28:06 GMT 52.875660 -1.137085 20,100 300 319 -1856
2022-05-20 00:28:04 GMT 52.874268 -1.132965 20,150 300 319 -1856
2022-05-20 00:28:02 GMT 52.872940 -1.129074 20,250 300 319 -1856
2022-05-20 00:27:59 GMT 52.870422 -1.121674 20,300 300 319 -1920
2022-05-20 00:27:57 GMT 52.868866 -1.116943 20,400 300 319 -1920
2022-05-20 00:27:54 GMT 52.867096 -1.111738 20,450 300 319 -1920
2022-05-20 00:27:52 GMT 52.863976 -1.102557 20,550 300 319 -1856
2022-05-20 00:27:50 GMT 52.863976 -1.102557 20,625 300 319 -1792
2022-05-20 00:27:47 GMT 52.861507 -1.095337 20,700 300 319 -1728
2022-05-20 00:27:44 GMT 52.860065 -1.091099 20,750 300 319 -1728
2022-05-20 00:27:42 GMT 52.858246 -1.085663 20,875 300 320 -1792
2022-05-20 00:27:39 GMT 52.855957 -1.078796 20,925 300 321 -1792
2022-05-20 00:27:36 GMT 52.854080 -1.073303 21,050 300 321 -1792
2022-05-20 00:27:33 GMT 52.852154 -1.067636 21,375 300 321 -1856
2022-05-20 00:27:31 GMT 52.850235 -1.061935 21,150 300 321 -1856
2022-05-20 00:27:28 GMT 52.848007 -1.055472 21,300 300 321 -1728
2022-05-20 00:27:25 GMT 52.846115 -1.049805 21,375 300 321 -1856
2022-05-20 00:27:22 GMT 52.843819 -1.042995 21,525 300 323 -1856
2022-05-20 00:27:20 GMT 52.839615 -1.030655 21,525 300 322 -1920
2022-05-20 00:27:17 GMT 52.839615 -1.030655 21,600 300 330 -1920
2022-05-20 00:27:14 GMT 52.837627 -1.024789 21,725 300 323 -1920
2022-05-20 00:27:11 GMT 52.835487 -1.018590 21,825 300 323 -1920
2022-05-20 00:27:08 GMT 52.833710 -1.013336 21,850 300 323 -1920
2022-05-20 00:27:06 GMT 52.831810 -1.007839 21,975 300 323 -1920
2022-05-20 00:27:03 GMT 52.829544 -1.001282 22,075 300 325 -1920
2022-05-20 00:27:00 GMT 52.827385 -0.994890 22,125 300 325 -1856
2022-05-20 00:26:57 GMT 52.825607 -0.989609 22,200 300 325 -1856
2022-05-20 00:26:55 GMT 52.823730 -0.984192 22,350 300 326 -1856
2022-05-20 00:26:52 GMT 52.821945 -0.979004 22,375 300 326 -1920
2022-05-20 00:26:50 GMT 52.820080 -0.973546 22,475 300 327 -1856
2022-05-20 00:26:47 GMT 52.818497 -0.968994 22,500 300 327 -1792
2022-05-20 00:26:45 GMT 52.815125 -0.959091 22,625 300 328 -1792
2022-05-20 00:26:43 GMT 52.815125 -0.959091 22,625 300 328 -1792
2022-05-20 00:26:41 GMT 52.812534 -0.951573 22,675 300 328 -1792
2022-05-20 00:26:38 GMT 52.811790 -0.949376 22,800 300 329 -1728
2022-05-20 00:26:36 GMT 52.807571 -0.936966 22,875 300 330 -1856
2022-05-20 00:26:33 GMT 52.806427 -0.933685 22,975 300 330 -1920
2022-05-20 00:26:31 GMT 52.806427 -0.933685 23,050 300 331 -1920
2022-05-20 00:26:28 GMT 52.803818 -0.925980 23,100 300 331 -1920
2022-05-20 00:26:26 GMT 52.802673 -0.922699 23,150 300 331 -1984
2022-05-20 00:26:24 GMT 52.800945 -0.917751 23,225 300 333 -1920
2022-05-20 00:26:22 GMT 52.799316 -0.912885 23,300 300 333 -1920
2022-05-20 00:26:19 GMT 52.796940 -0.906058 23,400 300 334 -1984
2022-05-20 00:26:17 GMT 52.795918 -0.902998 23,525 300 334 -1920
2022-05-20 00:26:15 GMT 52.794289 -0.898289 23,525 300 334 -1984
2022-05-20 00:26:13 GMT 52.792332 -0.892561 23,600 300 334 -1984
2022-05-20 00:26:11 GMT 52.791588 -0.890363 23,625 300 335 -1984
2022-05-20 00:26:09 GMT 52.788208 -0.880432 23,725 300 335 -1920
2022-05-20 00:26:07 GMT 52.788208 -0.880432 23,800 300 336 -1920
2022-05-20 00:26:05 GMT 52.786285 -0.874863 23,850 300 336 -1920
2022-05-20 00:26:02 GMT 52.784046 -0.868312 23,950 300 336 -1920
2022-05-20 00:26:00 GMT 52.782806 -0.864639 24,025 300 337 -1920
2022-05-20 00:25:57 GMT 52.780151 -0.856781 24,100 300 337 -1920
2022-05-20 00:25:55 GMT 52.779053 -0.853653 24,175 300 338 -1920
2022-05-20 00:25:52 GMT 52.774109 -0.839081 24,325 300 339 -1984
2022-05-20 00:25:49 GMT 52.774109 -0.839081 24,375 300 339 -1920
2022-05-20 00:25:47 GMT 52.771042 -0.830078 24,425 300 344 -1984
2022-05-20 00:25:45 GMT 52.771042 -0.830078 24,500 300 339 -1984
2022-05-20 00:25:42 GMT 52.768158 -0.821686 24,875 300 342 -1984
2022-05-20 00:25:39 GMT 52.767056 -0.818403 24,875 300 342 -1984
2022-05-20 00:25:37 GMT 52.765053 -0.812517 24,750 300 341 -1984
2022-05-20 00:25:35 GMT 52.763535 -0.808105 24,950 300 341 -1984
2022-05-20 00:25:32 GMT 52.761467 -0.802159 24,900 300 342 -1984
2022-05-20 00:25:30 GMT 52.759838 -0.797372 24,975 300 343 -1984
2022-05-20 00:25:27 GMT 52.757401 -0.790176 25,075 300 343 -1984
2022-05-20 00:25:25 GMT 52.755753 -0.785446 25,150 300 343 -1984
2022-05-20 00:25:22 GMT 52.753277 -0.778303 25,275 300 344 -1984
2022-05-20 00:25:19 GMT 52.751266 -0.772476 25,325 300 344 -1984
2022-05-20 00:25:17 GMT 52.749599 -0.767552 25,550 300 346 -1920
2022-05-20 00:25:15 GMT 52.747921 -0.762765 25,500 300 346 -1920
2022-05-20 00:25:12 GMT 52.746002 -0.757141 25,800 300 347 -1984
2022-05-20 00:25:10 GMT 52.743622 -0.750275 25,675 300 347 -1984
2022-05-20 00:25:07 GMT 52.741684 -0.744638 25,850 300 347 -1984
2022-05-20 00:25:04 GMT 52.738937 -0.736633 25,925 300 348 -1984
2022-05-20 00:25:01 GMT 52.736145 -0.728551 25,975 300 348 -1984
2022-05-20 00:24:58 GMT 52.734512 -0.723801 26,075 300 349 -2048
2022-05-20 00:24:55 GMT 52.732094 -0.716779 26,150 300 349 -2048
2022-05-20 00:24:52 GMT 52.727371 -0.703049 26,275 300 349 -2048
2022-05-20 00:24:49 GMT 52.727371 -0.703049 26,300 300 350 -1984
2022-05-20 00:24:47 GMT 52.725807 -0.698495 26,425 300 350 -1984
2022-05-20 00:24:45 GMT 52.724258 -0.693970 26,525 300 352 -1920
2022-05-20 00:24:43 GMT 52.722691 -0.689471 26,525 300 352 -1920
2022-05-20 00:24:41 GMT 52.720642 -0.683517 26,775 300 352 -1920
2022-05-20 00:24:38 GMT 52.718502 -0.677386 26,750 300 353 -1920
2022-05-20 00:24:35 GMT 52.715710 -0.669224 26,800 300 354 -1920
2022-05-20 00:24:32 GMT 52.713547 -0.662994 26,900 300 354 -1984
2022-05-20 00:24:30 GMT 52.712082 -0.658798 27,025 300 354 -2048
2022-05-20 00:24:27 GMT 52.709152 -0.650330 27,150 300 355 -2048
2022-05-20 00:24:24 GMT 52.707138 -0.644455 27,225 300 356 -2048
2022-05-20 00:24:21 GMT 52.704941 -0.638123 27,500 300 356 -2048
2022-05-20 00:24:18 GMT 52.702652 -0.631561 27,350 300 357 -2048
2022-05-20 00:24:16 GMT 52.700409 -0.624924 27,900 300 362 -1984
2022-05-20 00:24:13 GMT 52.697830 -0.617510 27,600 300 358 -2048
2022-05-20 00:24:10 GMT 52.695328 -0.610275 27,675 300 358 -2048
2022-05-20 00:24:08 GMT 52.693588 -0.605316 27,725 300 358 -2112
2022-05-20 00:24:05 GMT 52.692013 -0.600717 27,850 300 360 -2112
2022-05-20 00:24:03 GMT 52.690247 -0.595627 27,875 300 360 -2112
2022-05-20 00:24:01 GMT 52.688568 -0.590751 28,225 300 360 -2176
2022-05-20 00:23:59 GMT 52.684517 -0.579058 28,100 300 360 -2112
2022-05-20 00:23:56 GMT 52.682049 -0.571917 28,175 300 361 -2176
2022-05-20 00:23:54 GMT 52.682049 -0.571917 28,250 300 361 -2176
2022-05-20 00:23:51 GMT 52.680313 -0.566788 28,325 300 361 -2176
2022-05-20 00:23:47 GMT 52.675114 -0.551906 28,475 300 362 -2048
2022-05-20 00:23:45 GMT 52.675114 -0.551906 28,575 300 362 -1984
2022-05-20 00:23:42 GMT 52.673080 -0.546036 28,650 300 363 -1984
2022-05-20 00:23:40 GMT 52.671295 -0.540920 28,675 300 363 -1984
2022-05-20 00:23:38 GMT 52.668831 -0.533700 28,775 300 365 -1984
2022-05-20 00:23:35 GMT 52.666443 -0.526886 28,875 300 365 -2048
2022-05-20 00:23:32 GMT 52.662357 -0.515180 29,000 300 366 -2048
2022-05-20 00:23:30 GMT 52.662357 -0.515180 29,050 300 367 -2112
2022-05-20 00:23:28 GMT 52.659428 -0.506705 29,125 300 367 -2048
2022-05-20 00:23:26 GMT 52.659428 -0.506705 29,175 300 367 -2048
2022-05-20 00:23:24 GMT 52.658077 -0.502860 29,225 300 368 -2048
2022-05-20 00:23:22 GMT 52.656353 -0.497759 29,300 300 368 -2048
2022-05-20 00:23:20 GMT 52.652721 -0.487322 29,425 300 369 -2048
2022-05-20 00:23:18 GMT 52.652721 -0.487322 29,450 300 369 -2112
2022-05-20 00:23:16 GMT 52.650951 -0.482221 29,525 300 369 -2112
2022-05-20 00:23:14 GMT 52.649185 -0.477219 29,650 300 370 -2176
2022-05-20 00:23:11 GMT 52.646626 -0.469744 29,700 300 370 -2176
2022-05-20 00:23:09 GMT 52.644333 -0.463257 29,725 300 371 -2112
2022-05-20 00:23:06 GMT 52.642620 -0.458287 29,875 300 372 -2176
2022-05-20 00:23:03 GMT 52.639641 -0.449733 30,175 300 372 -2176
2022-05-20 00:23:00 GMT 52.635727 -0.438538 30,100 300 372 -2176
2022-05-20 00:22:58 GMT 52.635727 -0.438538 30,225 300 372 -2176
2022-05-20 00:22:55 GMT 52.632751 -0.430115 30,325 300 374 -2176
2022-05-20 00:22:53 GMT 52.631104 -0.425339 30,350 300 374 -2176
2022-05-20 00:22:51 GMT 52.629364 -0.420380 30,550 300 374 -2240
2022-05-20 00:22:48 GMT 52.627167 -0.414106 30,525 300 374 -2240
2022-05-20 00:22:46 GMT 52.624969 -0.407867 30,625 300 374 -2240
2022-05-20 00:22:44 GMT 52.623302 -0.403041 30,700 300 374 -2240
2022-05-20 00:22:41 GMT 52.620693 -0.395665 30,800 300 376 -2240
2022-05-20 00:22:38 GMT 52.618599 -0.389779 30,875 301 375 -2240
2022-05-20 00:22:35 GMT 52.615631 -0.381241 31,025 301 375 -2240
2022-05-20 00:22:33 GMT 52.613850 -0.376203 31,150 300 376 -2240
2022-05-20 00:22:30 GMT 52.611568 -0.369768 31,175 300 376 -2240
2022-05-20 00:22:28 GMT 52.608765 -0.361786 31,325 301 376 -2240
2022-05-20 00:22:25 GMT 52.606869 -0.356428 31,400 301 376 -2304
2022-05-20 00:22:23 GMT 52.605011 -0.351105 31,800 301 376 -2304
2022-05-20 00:22:20 GMT 52.601933 -0.342381 31,550 301 376 -2304
2022-05-20 00:22:17 GMT 52.599609 -0.335770 31,750 301 377 -2240
2022-05-20 00:22:14 GMT 52.597466 -0.329747 32,025 301 377 -2304
2022-05-20 00:22:11 GMT 52.594894 -0.322418 32,000 301 377 -2240
2022-05-20 00:22:09 GMT 52.592789 -0.316467 32,050 301 377 -2304
2022-05-20 00:22:06 GMT 52.589676 -0.307541 32,175 301 377 -2304
2022-05-20 00:22:03 GMT 52.587936 -0.302582 32,225 300 378 -2304
2022-05-20 00:22:01 GMT 52.582672 -0.287704 32,325 300 378 -2240
2022-05-20 00:21:58 GMT 52.582672 -0.287704 32,450 301 377 -2240
2022-05-20 00:21:55 GMT 52.580799 -0.282349 32,525 300 378 -2240
2022-05-20 00:21:53 GMT 52.579056 -0.277252 32,600 300 378 -2240
2022-05-20 00:21:50 GMT 52.574051 -0.262966 32,750 300 378 -2176
2022-05-20 00:21:47 GMT 52.574051 -0.262966 32,800 300 378 -2176
2022-05-20 00:21:45 GMT 52.572144 -0.257645 32,900 300 378 -2176
2022-05-20 00:21:43 GMT 52.570278 -0.252293 33,000 300 378 -2368
2022-05-20 00:21:41 GMT 52.568619 -0.247498 33,050 300 378 -2496
2022-05-20 00:21:39 GMT 52.567291 -0.243759 33,175 300 378 -2560
2022-05-20 00:21:37 GMT 52.564365 -0.235421 33,275 300 378 -2560
2022-05-20 00:21:34 GMT 52.562737 -0.230713 33,350 300 378 -2560
2022-05-20 00:21:32 GMT 52.560883 -0.225372 33,425 300 378 -2560
2022-05-20 00:21:30 GMT 52.558685 -0.219193 33,575 300 378 -2560
2022-05-20 00:21:27 GMT 52.556625 -0.213242 33,675 300 378 -2560
2022-05-20 00:21:24 GMT 52.554127 -0.206151 33,725 300 378 -2560
2022-05-20 00:21:22 GMT 52.552494 -0.201442 34,375 301 377 -2496
2022-05-20 00:21:20 GMT 52.551098 -0.197440 33,900 300 378 -2560
2022-05-20 00:21:18 GMT 52.548569 -0.190125 34,050 300 377 -2560
2022-05-20 00:21:15 GMT 52.546188 -0.183487 34,250 300 377 -2560
2022-05-20 00:21:13 GMT 52.543976 -0.177115 34,275 301 377 -2560
2022-05-20 00:21:10 GMT 52.541611 -0.170364 34,375 301 377 -2496
2022-05-20 00:21:08 GMT 52.539780 -0.165100 34,600 301 379 -2496
2022-05-20 00:21:05 GMT 52.537086 -0.157575 34,600 301 378 -2432
2022-05-20 00:21:03 GMT 52.536255 -0.155182 34,600 301 379 -2432
2022-05-20 00:21:01 GMT 52.534386 -0.149885 34,775 301 379 -2496
2022-05-20 00:20:59 GMT 52.531593 -0.141959 34,875 301 379 -2496
2022-05-20 00:20:56 GMT 52.529434 -0.135880 34,950 301 379 -2496
2022-05-20 00:20:54 GMT 52.528107 -0.132141 35,050 301 379 -2496
2022-05-20 00:20:52 GMT 52.526001 -0.126190 35,250 301 379 -2432
2022-05-20 00:20:50 GMT 52.523666 -0.119781 35,250 301 380 -2432
2022-05-20 00:20:47 GMT 52.521538 -0.113708 35,300 301 380 -2432
2022-05-20 00:20:44 GMT 52.518932 -0.106489 35,425 301 379 -2432
2022-05-20 00:20:42 GMT 52.517536 -0.102565 35,525 301 380 -2496
2022-05-20 00:20:40 GMT 52.515289 -0.096207 35,600 301 380 -2496
2022-05-20 00:20:38 GMT 52.513870 -0.092239 35,650 301 380 -2496
2022-05-20 00:20:36 GMT 52.510365 -0.082397 35,800 301 380 -2560
2022-05-20 00:20:34 GMT 52.510365 -0.082397 35,950 301 380 -2496
2022-05-20 00:20:32 GMT 52.508652 -0.077591 35,900 301 381 -2176
2022-05-20 00:20:30 GMT 52.506546 -0.071564 36,000 301 381 -2048
2022-05-20 00:20:28 GMT 52.504761 -0.066605 36,300 301 379 -2304
2022-05-20 00:20:25 GMT 52.501694 -0.057831 36,225 301 382 -2240
2022-05-20 00:20:22 GMT 52.498913 -0.049988 36,350 301 383 0
2022-05-20 00:20:19 GMT 52.496540 -0.043161 36,475 301 383 -2624
2022-05-20 00:20:16 GMT 52.492310 -0.031281 36,600 300 382 -2816
2022-05-20 00:20:14 GMT 52.492310 -0.031281 36,650 300 382 -2944
2022-05-20 00:20:12 GMT 52.490440 -0.025896 36,750 300 382 -2944
2022-05-20 00:20:09 GMT 52.488209 -0.019618 36,850 301 381 -2944
2022-05-20 00:20:07 GMT 52.485992 -0.013275 37,075 301 381 -2816
2022-05-20 00:20:04 GMT 52.483658 -0.006790 37,125 301 381 -2624
2022-05-20 00:20:02 GMT 52.481598 -0.000942 37,300 301 381 -2560
2022-05-20 00:19:59 GMT 52.479130 0.006042 37,975 301 375 0
2022-05-20 00:19:56 GMT 52.476337 0.013811 37,500 301 380 -2752
2022-05-20 00:19:53 GMT 52.474457 0.019150 37,600 301 380 -2432
2022-05-20 00:19:51 GMT 52.472672 0.024109 37,725 301 379 -2304
2022-05-20 00:19:49 GMT 52.470016 0.031586 37,775 301 379 -1920
2022-05-20 00:19:46 GMT 52.467636 0.038223 37,850 301 378 -1536
2022-05-20 00:19:44 GMT 52.465897 0.043182 37,950 301 377 -768
2022-05-20 00:19:42 GMT 52.464233 0.047791 37,950 301 377 -832
2022-05-20 00:19:40 GMT 52.462509 0.052734 37,950 301 377 -640
2022-05-20 00:19:38 GMT 52.460770 0.057526 37,975 301 377 -192
2022-05-20 00:19:35 GMT 52.457520 0.066605 37,975 301 376 0
2022-05-20 00:19:32 GMT 52.454910 0.074005 37,975 301 376 0
2022-05-20 00:19:30 GMT 52.453712 0.077375 37,975 301 376 0
2022-05-20 00:19:28 GMT 52.452499 0.080750 37,975 301 376 0
2022-05-20 00:19:26 GMT 52.449921 0.088043 37,975 301 376 0
2022-05-20 00:19:24 GMT 52.447521 0.094796 37,975 301 376 0
2022-05-20 00:19:21 GMT 52.443695 0.105438 37,975 301 376 0
2022-05-20 00:19:19 GMT 52.443695 0.105438 37,975 301 376 0
2022-05-20 00:19:16 GMT 52.441589 0.111313 37,975 301 375 0
2022-05-20 00:19:14 GMT 52.439560 0.117083 37,975 301 375 0
2022-05-20 00:19:12 GMT 52.437279 0.123439 37,975 301 375 0
2022-05-20 00:19:09 GMT 52.435135 0.129471 37,975 301 375 0
2022-05-20 00:19:07 GMT 52.433228 0.134739 37,975 301 375 0
2022-05-20 00:19:04 GMT 52.430531 0.142351 37,975 301 375 -64
2022-05-20 00:19:02 GMT 52.427261 0.151520 37,975 301 375 -64
2022-05-20 00:19:00 GMT 52.427261 0.151520 37,975 301 375 -64
2022-05-20 00:18:58 GMT 52.423782 0.161362 37,975 301 375 0
2022-05-20 00:18:56 GMT 52.423782 0.161362 37,975 301 375 0
2022-05-20 00:18:54 GMT 52.421860 0.166702 37,975 301 375 0
2022-05-20 00:18:52 GMT 52.420441 0.170670 37,975 301 375 0
2022-05-20 00:18:50 GMT 52.417740 0.178223 37,975 301 375 0
2022-05-20 00:18:47 GMT 52.415958 0.183236 37,975 301 375 0
2022-05-20 00:18:45 GMT 52.413391 0.190430 37,975 301 375 0
2022-05-20 00:18:42 GMT 52.410324 0.198975 37,975 301 375 0
2022-05-20 00:18:39 GMT 52.408630 0.203629 37,975 301 375 0
2022-05-20 00:18:37 GMT 52.404282 0.215836 37,975 301 375 0
2022-05-20 00:18:34 GMT 52.404282 0.215836 37,975 301 375 0
2022-05-20 00:18:32 GMT 52.402908 0.219803 37,975 301 375 0
2022-05-20 00:18:30 GMT 52.401108 0.224749 37,975 301 375 0
2022-05-20 00:18:28 GMT 52.399338 0.229693 37,975 301 375 0
2022-05-20 00:18:26 GMT 52.395905 0.239334 37,975 301 375 0
2022-05-20 00:18:24 GMT 52.395905 0.239334 37,975 301 375 0
2022-05-20 00:18:22 GMT 52.394218 0.244053 37,975 301 375 0
2022-05-20 00:18:20 GMT 52.392124 0.249939 37,975 301 374 0
2022-05-20 00:18:17 GMT 52.389935 0.255981 37,975 301 374 0
2022-05-20 00:18:15 GMT 52.387234 0.263593 37,975 301 374 0
2022-05-20 00:18:12 GMT 52.385468 0.268459 37,975 301 374 0
2022-05-20 00:18:10 GMT 52.383957 0.272675 37,975 301 374 0
2022-05-20 00:18:08 GMT 52.381275 0.280151 37,975 301 374 0
2022-05-20 00:18:05 GMT 52.378857 0.286979 37,975 301 374 0
2022-05-20 00:18:02 GMT 52.377087 0.291844 37,975 301 374 0
2022-05-20 00:18:00 GMT 52.374802 0.298309 37,975 301 374 0
2022-05-20 00:17:57 GMT 52.372604 0.304337 37,975 301 374 -64
2022-05-20 00:17:55 GMT 52.370865 0.309219 37,975 301 374 -64
2022-05-20 00:17:53 GMT 52.368382 0.316171 38,000 301 374 -64
2022-05-20 00:17:50 GMT 52.365784 0.323334 37,975 301 374 -64
2022-05-20 00:17:47 GMT 52.363541 0.329666 38,000 301 374 0
2022-05-20 00:17:45 GMT 52.359909 0.339791 38,000 301 374 0
2022-05-20 00:17:43 GMT 52.359909 0.339791 38,000 301 374 0
2022-05-20 00:17:40 GMT 52.357315 0.346909 38,000 301 373 0
2022-05-20 00:17:38 GMT 52.355026 0.353241 38,000 301 373 0
2022-05-20 00:17:35 GMT 52.352417 0.360565 37,975 301 373 0
2022-05-20 00:17:32 GMT 52.349854 0.367584 38,000 301 373 0
2022-05-20 00:17:29 GMT 52.348598 0.371102 38,000 301 373 0
2022-05-20 00:17:27 GMT 52.346317 0.377380 38,000 301 373 0
2022-05-20 00:17:25 GMT 52.343994 0.383835 38,000 301 373 -64
2022-05-20 00:17:22 GMT 52.341568 0.390625 38,000 301 373 -64
2022-05-20 00:17:19 GMT 52.338135 0.400085 38,000 301 373 -64
2022-05-20 00:17:16 GMT 52.335796 0.406494 38,000 301 373 -64
2022-05-20 00:17:13 GMT 52.331093 0.419678 38,025 301 373 -64
2022-05-20 00:17:10 GMT 52.331093 0.419678 38,000 301 373 -64
2022-05-20 00:17:08 GMT 52.329418 0.424229 38,000 301 373 -64
2022-05-20 00:17:06 GMT 52.325089 0.436249 38,000 301 373 -64
2022-05-20 00:17:03 GMT 52.325089 0.436249 38,025 301 373 -64
2022-05-20 00:17:01 GMT 52.322945 0.442200 38,025 301 373 -64
2022-05-20 00:16:58 GMT 52.320236 0.449829 38,025 301 373 0
2022-05-20 00:16:55 GMT 52.317451 0.457424 38,025 301 373 0
2022-05-20 00:16:52 GMT 52.316055 0.461347 38,025 301 373 0
2022-05-20 00:16:50 GMT 52.311127 0.475006 38,025 301 373 0
2022-05-20 00:16:48 GMT 52.311127 0.475006 38,025 301 373 64
2022-05-20 00:16:45 GMT 52.307304 0.485517 38,025 301 373 0
2022-05-20 00:16:43 GMT 52.307304 0.485517 38,025 301 373 0
2022-05-20 00:16:40 GMT 52.304626 0.492859 38,000 301 373 64
2022-05-20 00:16:38 GMT 52.302979 0.497513 38,025 301 373 64
2022-05-20 00:16:35 GMT 52.297623 0.512238 38,025 301 373 0
2022-05-20 00:16:32 GMT 52.297623 0.512238 38,025 301 373 0
2022-05-20 00:16:30 GMT 52.295898 0.516985 38,025 301 373 0
2022-05-20 00:16:28 GMT 52.294235 0.521698 38,025 301 373 0
2022-05-20 00:16:25 GMT 52.291523 0.529070 38,025 301 373 0
2022-05-20 00:16:22 GMT 52.289383 0.535113 38,000 301 373 64
2022-05-20 00:16:19 GMT 52.286316 0.543442 38,000 301 373 64
2022-05-20 00:16:16 GMT 52.284073 0.549698 38,000 301 373 64
2022-05-20 00:16:14 GMT 52.281967 0.555496 38,000 301 373 64
2022-05-20 00:16:11 GMT 52.276768 0.569877 38,000 301 373 64
2022-05-20 00:16:08 GMT 52.276768 0.569877 38,000 301 373 64
2022-05-20 00:16:06 GMT 52.274506 0.576019 38,000 301 373 64
2022-05-20 00:16:03 GMT 52.272675 0.581055 38,000 301 373 64
2022-05-20 00:16:01 GMT 52.270569 0.586853 38,000 301 373 64
2022-05-20 00:15:58 GMT 52.267876 0.594203 38,000 301 373 64
2022-05-20 00:15:55 GMT 52.264755 0.602798 38,000 301 373 64
2022-05-20 00:15:52 GMT 52.262054 0.610199 37,975 301 373 0
2022-05-20 00:15:49 GMT 52.260727 0.613861 37,975 301 373 0
2022-05-20 00:15:47 GMT 52.258518 0.620021 37,975 301 371 0
2022-05-20 00:15:45 GMT 52.256844 0.624573 37,975 301 371 0
2022-05-20 00:15:43 GMT 52.255234 0.629044 37,975 301 371 0
2022-05-20 00:15:41 GMT 52.253445 0.633990 37,975 301 371 0
2022-05-20 00:15:38 GMT 52.250324 0.642622 37,975 301 371 -64
2022-05-20 00:15:35 GMT 52.248093 0.648804 38,000 301 371 -64
2022-05-20 00:15:33 GMT 52.246445 0.653381 38,000 301 371 -64
2022-05-20 00:15:31 GMT 52.243576 0.661142 38,000 301 371 0
2022-05-20 00:15:28 GMT 52.241821 0.666122 38,000 301 371 -64
2022-05-20 00:15:25 GMT 52.237572 0.677778 38,000 301 371 0
2022-05-20 00:15:23 GMT 52.237572 0.677778 38,000 301 370 0
2022-05-20 00:15:21 GMT 52.235870 0.682449 38,000 301 370 0
2022-05-20 00:15:18 GMT 52.233055 0.690255 38,000 301 370 0
2022-05-20 00:15:15 GMT 52.230469 0.697327 38,000 301 370 0
2022-05-20 00:15:13 GMT 52.228912 0.701599 38,000 301 370 0
2022-05-20 00:15:11 GMT 52.226768 0.707520 38,000 301 370 0
2022-05-20 00:15:08 GMT 52.225067 0.712128 38,000 301 369 0
2022-05-20 00:15:06 GMT 52.222672 0.718741 38,000 301 369 64
2022-05-20 00:15:03 GMT 52.220112 0.725647 38,000 301 369 64
2022-05-20 00:15:01 GMT 52.218887 0.729141 37,975 301 369 64
2022-05-20 00:14:59 GMT 52.216507 0.735550 37,975 301 370 0
2022-05-20 00:14:56 GMT 52.214294 0.741656 37,975 301 370 0
2022-05-20 00:14:54 GMT 52.212479 0.746536 37,975 301 370 0
2022-05-20 00:14:51 GMT 52.208847 0.756487 37,975 301 370 0
2022-05-20 00:14:48 GMT 52.207077 0.761337 37,975 301 369 64
2022-05-20 00:14:46 GMT 52.205246 0.766373 37,975 301 369 64
2022-05-20 00:14:44 GMT 52.201904 0.775452 37,975 301 369 64
2022-05-20 00:14:42 GMT 52.201904 0.775452 37,975 301 369 64
2022-05-20 00:14:39 GMT 52.199303 0.782462 37,975 301 369 64
2022-05-20 00:14:36 GMT 52.196045 0.791397 37,975 301 369 0
2022-05-20 00:14:33 GMT 52.192413 0.801217 37,975 301 369 0
2022-05-20 00:14:31 GMT 52.192413 0.801217 37,975 301 369 0
2022-05-20 00:14:29 GMT 52.190228 0.807181 37,975 301 369 64
2022-05-20 00:14:26 GMT 52.188171 0.812759 37,975 302 368 64
2022-05-20 00:14:24 GMT 52.185383 0.820286 37,950 302 368 64
2022-05-20 00:14:21 GMT 52.183685 0.824890 37,950 302 368 0
2022-05-20 00:14:19 GMT 52.181988 0.829546 37,950 302 368 0
2022-05-20 00:14:17 GMT 52.180252 0.834198 37,950 302 368 0
2022-05-20 00:14:15 GMT 52.176224 0.845108 37,975 302 368 0
2022-05-20 00:14:13 GMT 52.174072 0.850891 37,950 302 368 -64
2022-05-20 00:14:11 GMT 52.174072 0.850891 37,950 302 368 0
2022-05-20 00:14:08 GMT 52.169697 0.862741 37,950 302 367 64
2022-05-20 00:14:06 GMT 52.169697 0.862741 37,950 302 367 0
2022-05-20 00:14:03 GMT 52.165413 0.874355 37,975 302 367 0
2022-05-20 00:14:00 GMT 52.165413 0.874355 37,975 302 367 0
2022-05-20 00:13:58 GMT 52.164047 0.877991 37,950 302 367 -64
2022-05-20 00:13:56 GMT 52.161270 0.885498 37,975 302 367 0
2022-05-20 00:13:54 GMT 52.159363 0.890677 37,950 302 367 0
2022-05-20 00:13:51 GMT 52.156708 0.897740 37,950 302 367 0
2022-05-20 00:13:48 GMT 52.154289 0.904332 37,950 302 367 0
2022-05-20 00:13:45 GMT 52.150143 0.915475 37,950 301 367 0
2022-05-20 00:13:43 GMT 52.148514 0.919948 37,950 301 367 0
2022-05-20 00:13:41 GMT 52.148514 0.919948 37,950 301 367 0
2022-05-20 00:13:39 GMT 52.146606 0.924988 37,950 302 366 0
2022-05-20 00:13:37 GMT 52.145069 0.929129 37,950 302 366 0
2022-05-20 00:13:35 GMT 52.143021 0.934780 37,950 301 365 64
2022-05-20 00:13:33 GMT 52.141205 0.939636 37,950 302 366 0
2022-05-20 00:13:31 GMT 52.139439 0.944432 37,950 301 365 64
2022-05-20 00:13:28 GMT 52.136765 0.951614 37,950 301 365 64
2022-05-20 00:13:26 GMT 52.135342 0.955497 37,950 301 365 64
2022-05-20 00:13:24 GMT 52.133247 0.961147 37,950 301 365 64
2022-05-20 00:13:21 GMT 52.130917 0.967503 37,950 301 365 64
2022-05-20 00:13:19 GMT 52.129166 0.972366 37,925 301 365 64
2022-05-20 00:13:17 GMT 52.127930 0.975647 37,950 301 365 64
2022-05-20 00:13:15 GMT 52.126282 0.980148 37,950 301 365 0
2022-05-20 00:13:13 GMT 52.123749 0.987043 37,925 301 365 0
2022-05-20 00:13:11 GMT 52.121933 0.991987 37,925 301 365 0
2022-05-20 00:13:08 GMT 52.119644 0.998230 37,925 301 365 0
2022-05-20 00:13:05 GMT 52.115555 1.009487 37,925 301 365 0
2022-05-20 00:13:02 GMT 52.114254 1.013018 37,950 301 365 0
2022-05-20 00:12:59 GMT 52.111599 1.020316 37,925 301 365 0
2022-05-20 00:12:56 GMT 52.109482 1.026077 37,950 301 365 0
2022-05-20 00:12:54 GMT 52.108154 1.029733 37,950 301 365 0
2022-05-20 00:12:52 GMT 52.105316 1.037502 37,925 301 365 0
2022-05-20 00:12:49 GMT 52.103256 1.043015 37,925 301 365 0
2022-05-20 00:12:47 GMT 52.101498 1.047860 37,950 301 365 0
2022-05-20 00:12:45 GMT 52.099773 1.052569 37,925 301 365 0
2022-05-20 00:12:43 GMT 52.097958 1.057513 37,950 301 365 0
2022-05-20 00:12:41 GMT 52.096207 1.062317 37,950 301 365 0
2022-05-20 00:12:39 GMT 52.094887 1.065988 37,925 301 365 0
2022-05-20 00:12:37 GMT 52.093491 1.069676 37,925 301 365 0
2022-05-20 00:12:35 GMT 52.091164 1.076032 37,925 301 365 0
2022-05-20 00:12:33 GMT 52.089767 1.079799 37,950 301 365 64
2022-05-20 00:12:31 GMT 52.087692 1.085587 37,925 301 365 -128
2022-05-20 00:12:29 GMT 52.086273 1.089325 37,950 301 365 64
2022-05-20 00:12:27 GMT 52.084900 1.093140 37,950 301 365 0
2022-05-20 00:12:25 GMT 52.082565 1.099472 37,950 301 365 0
2022-05-20 00:12:23 GMT 52.080826 1.104126 37,925 301 365 0
2022-05-20 00:12:21 GMT 52.078674 1.110001 37,950 301 365 0
2022-05-20 00:12:18 GMT 52.075745 1.118011 37,950 301 365 0
2022-05-20 00:12:15 GMT 52.072216 1.127511 37,950 301 365 0
2022-05-20 00:12:13 GMT 52.072216 1.127511 37,950 301 365 0
2022-05-20 00:12:11 GMT 52.071007 1.130807 37,950 301 365 -64
2022-05-20 00:12:09 GMT 52.067001 1.141636 37,925 301 365 0
2022-05-20 00:12:07 GMT 52.067001 1.141636 37,925 301 365 0
2022-05-20 00:12:05 GMT 52.064861 1.147443 37,950 301 365 0
2022-05-20 00:12:02 GMT 52.062286 1.154404 37,925 301 365 64
2022-05-20 00:11:59 GMT 52.059677 1.161423 37,950 301 365 0
2022-05-20 00:11:56 GMT 52.057526 1.167297 37,925 302 366 0
2022-05-20 00:11:54 GMT 52.055420 1.172943 37,925 302 366 0
2022-05-20 00:11:52 GMT 52.054138 1.176453 37,925 302 366 0
2022-05-20 00:11:49 GMT 52.051361 1.183855 37,925 302 366 0
2022-05-20 00:11:47 GMT 52.049637 1.188564 37,925 302 366 0
2022-05-20 00:11:45 GMT 52.047409 1.194534 37,925 302 366 0
2022-05-20 00:11:42 GMT 52.045486 1.199722 37,950 302 366 -64
2022-05-20 00:11:40 GMT 52.043564 1.204910 37,950 302 366 -64
2022-05-20 00:11:38 GMT 52.036789 1.223092 37,950 302 367 0
2022-05-20 00:11:35 GMT 52.036789 1.223092 37,950 302 367 0
2022-05-20 00:11:32 GMT 52.035873 1.225586 37,950 302 367 0
2022-05-20 00:11:29 GMT 52.030926 1.238865 37,950 302 367 0
2022-05-20 00:11:26 GMT 52.030926 1.238865 37,950 302 367 0
2022-05-20 00:11:23 GMT 52.028137 1.246262 37,950 302 367 -64
2022-05-20 00:11:20 GMT 52.025478 1.253462 37,950 302 367 0
2022-05-20 00:11:17 GMT 52.023651 1.258240 37,950 302 368 -64
2022-05-20 00:11:15 GMT 52.021362 1.264343 37,950 302 368 -64
2022-05-20 00:11:12 GMT 52.019073 1.270523 37,950 302 367 0
2022-05-20 00:11:10 GMT 52.016876 1.276398 37,950 302 367 -64
2022-05-20 00:11:07 GMT 52.014816 1.281869 37,950 302 367 -64
2022-05-20 00:11:05 GMT 52.009872 1.295166 37,950 302 367 -64
2022-05-20 00:11:02 GMT 52.009872 1.295166 37,950 302 367 0
2022-05-20 00:10:59 GMT 52.007217 1.302261 37,950 302 368 0
2022-05-20 00:10:57 GMT 52.005974 1.305725 37,950 302 368 -64
2022-05-20 00:10:55 GMT 52.001358 1.318054 37,975 302 368 0
2022-05-20 00:10:52 GMT 52.001358 1.318054 37,975 302 368 -64
2022-05-20 00:10:50 GMT 51.999363 1.323382 37,975 302 368 -64
2022-05-20 00:10:47 GMT 51.997192 1.329117 37,975 302 369 -64
2022-05-20 00:10:45 GMT 51.995087 1.334763 37,975 302 369 -64
2022-05-20 00:10:42 GMT 51.993073 1.340179 37,975 302 369 -64
2022-05-20 00:10:40 GMT 51.990829 1.346130 37,975 302 369 -64
2022-05-20 00:10:37 GMT 51.984924 1.361923 37,975 302 369 -64
2022-05-20 00:10:34 GMT 51.984924 1.361923 37,975 302 369 -64
2022-05-20 00:10:31 GMT 51.981308 1.371613 37,975 302 369 -64
2022-05-20 00:10:29 GMT 51.981308 1.371613 37,975 302 369 -64
2022-05-20 00:10:27 GMT 51.977509 1.381760 38,000 302 369 -64
2022-05-20 00:10:25 GMT 51.977509 1.381760 38,000 302 369 -64
2022-05-20 00:10:23 GMT 51.972965 1.393930 38,000 302 369 -64
2022-05-20 00:10:20 GMT 51.972965 1.393930 38,000 302 369 -64
2022-05-20 00:10:18 GMT 51.972015 1.396408 38,000 302 369 -64
2022-05-20 00:10:16 GMT 51.969242 1.403817 38,000 302 369 -64
2022-05-20 00:10:14 GMT 51.967472 1.408604 38,000 302 370 -64
2022-05-20 00:10:11 GMT 51.965286 1.414413 38,000 302 370 -64
2022-05-20 00:10:09 GMT 51.963657 1.418727 38,000 302 371 -64
2022-05-20 00:10:07 GMT 51.959045 1.431048 38,025 302 371 -64
2022-05-20 00:10:04 GMT 51.956039 1.438980 38,025 302 371 -64
2022-05-20 00:10:01 GMT 51.956039 1.438980 38,025 302 371 -64
2022-05-20 00:09:58 GMT 51.953293 1.446304 38,025 302 371 -64
2022-05-20 00:09:55 GMT 51.950577 1.453570 38,025 302 371 -64
2022-05-20 00:09:52 GMT 51.948341 1.459455 38,025 302 372 0
2022-05-20 00:09:50 GMT 51.946243 1.465073 38,025 302 372 0
2022-05-20 00:09:48 GMT 51.945316 1.467538 38,025 302 372 0
2022-05-20 00:09:46 GMT 51.942616 1.474679 38,025 302 372 0
2022-05-20 00:09:44 GMT 51.941452 1.477740 38,025 302 372 0
2022-05-20 00:09:41 GMT 51.937225 1.489029 38,025 302 372 0
2022-05-20 00:09:38 GMT 51.936310 1.491394 38,025 302 372 0
2022-05-20 00:09:36 GMT 51.933609 1.498566 38,025 302 373 0
2022-05-20 00:09:34 GMT 51.932049 1.502694 38,025 302 373 0
2022-05-20 00:09:31 GMT 51.930092 1.507952 38,025 302 373 0
2022-05-20 00:09:29 GMT 51.927704 1.514206 38,025 302 373 0
2022-05-20 00:09:27 GMT 51.925858 1.519095 38,025 302 373 0
2022-05-20 00:09:25 GMT 51.924042 1.523882 38,025 302 373 0
2022-05-20 00:09:22 GMT 51.920883 1.532288 38,025 302 374 0
2022-05-20 00:09:19 GMT 51.918686 1.538086 38,025 302 374 0
2022-05-20 00:09:17 GMT 51.916592 1.543658 38,025 302 374 0
2022-05-20 00:09:14 GMT 51.914265 1.549857 38,025 302 374 0
2022-05-20 00:09:12 GMT 51.911957 1.555939 38,025 302 374 0
2022-05-20 00:09:09 GMT 51.908798 1.564331 38,025 302 374 0
2022-05-20 00:09:06 GMT 51.906830 1.569519 38,025 302 374 0
2022-05-20 00:09:04 GMT 51.904953 1.574419 38,025 302 374 0
2022-05-20 00:09:01 GMT 51.900604 1.586075 38,025 302 375 0
2022-05-20 00:08:59 GMT 51.900604 1.586075 38,025 302 375 0
2022-05-20 00:08:57 GMT 51.897923 1.593096 38,025 302 376 0
2022-05-20 00:08:54 GMT 51.896061 1.598118 38,025 302 376 64
2022-05-20 00:08:51 GMT 51.893646 1.604462 38,025 302 376 64
2022-05-20 00:08:49 GMT 51.891495 1.610165 38,025 302 376 64
2022-05-20 00:08:47 GMT 51.888840 1.617143 38,025 302 376 64
2022-05-20 00:08:44 GMT 51.887173 1.621552 38,000 302 376 128
2022-05-20 00:08:42 GMT 51.885216 1.626816 38,000 302 376 128
2022-05-20 00:08:40 GMT 51.883820 1.630402 38,000 302 376 128
2022-05-20 00:08:38 GMT 51.881195 1.637408 38,000 302 376 128
2022-05-20 00:08:35 GMT 51.877350 1.647644 37,975 302 376 64
2022-05-20 00:08:33 GMT 51.877350 1.647644 37,975 302 376 64
2022-05-20 00:08:30 GMT 51.874603 1.654816 37,975 302 376 128
2022-05-20 00:08:28 GMT 51.872787 1.659546 37,975 302 376 128
2022-05-20 00:08:26 GMT 51.871399 1.663315 37,975 302 376 64
2022-05-20 00:08:24 GMT 51.869019 1.669551 37,975 302 376 64
2022-05-20 00:08:21 GMT 51.864174 1.682358 37,975 302 376 64
2022-05-20 00:08:19 GMT 51.862267 1.687393 37,975 302 376 0
2022-05-20 00:08:16 GMT 51.862267 1.687393 37,975 302 376 0
2022-05-20 00:08:14 GMT 51.860413 1.692266 37,975 302 376 0
2022-05-20 00:08:12 GMT 51.857620 1.699689 37,950 302 376 0
2022-05-20 00:08:10 GMT 51.855606 1.704959 37,950 302 375 0
2022-05-20 00:08:07 GMT 51.853775 1.709710 37,975 302 376 0
2022-05-20 00:08:05 GMT 51.851990 1.714535 37,950 302 376 0
2022-05-20 00:08:03 GMT 51.850250 1.719063 37,975 302 376 0
2022-05-20 00:08:00 GMT 51.847042 1.727600 37,975 302 376 0
2022-05-20 00:07:58 GMT 51.845554 1.731415 37,975 302 376 0
2022-05-20 00:07:56 GMT 51.843830 1.735916 37,975 302 376 0
2022-05-20 00:07:54 GMT 51.841225 1.742859 37,975 302 375 0
2022-05-20 00:07:51 GMT 51.838848 1.749039 37,975 302 375 0
2022-05-20 00:07:48 GMT 51.836102 1.756210 37,975 302 375 0
2022-05-20 00:07:45 GMT 51.833820 1.762161 37,975 302 375 0
2022-05-20 00:07:43 GMT 51.831123 1.769333 37,975 302 375 0
2022-05-20 00:07:40 GMT 51.829723 1.772919 37,975 302 375 0
2022-05-20 00:07:38 GMT 51.827118 1.779785 37,975 302 375 0
2022-05-20 00:07:36 GMT 51.825397 1.784363 37,975 302 375 0
2022-05-20 00:07:33 GMT 51.822510 1.791811 37,975 302 375 0
2022-05-20 00:07:30 GMT 51.820183 1.797867 37,975 302 375 -64
2022-05-20 00:07:28 GMT 51.818253 1.803020 37,975 302 375 0
2022-05-20 00:07:26 GMT 51.816643 1.807175 37,975 302 375 0
2022-05-20 00:07:24 GMT 51.813850 1.814499 37,975 302 375 -64
2022-05-20 00:07:21 GMT 51.811478 1.820755 37,975 302 375 0
2022-05-20 00:07:18 GMT 51.809052 1.827071 37,975 302 375 0
2022-05-20 00:07:16 GMT 51.807285 1.831665 37,975 302 375 0
2022-05-20 00:07:14 GMT 51.805378 1.836700 37,975 302 375 -64
2022-05-20 00:07:12 GMT 51.802002 1.845555 37,975 302 375 -64
2022-05-20 00:07:10 GMT 51.799793 1.851425 37,975 302 375 0
2022-05-20 00:07:08 GMT 51.799793 1.851425 37,975 302 375 0
2022-05-20 00:07:05 GMT 51.795135 1.863556 37,975 302 375 0
2022-05-20 00:07:00 GMT 51.792809 1.869736 37,975 302 374 0
2022-05-20 00:06:58 GMT 51.788994 1.879730 37,975 302 374 0
2022-05-20 00:06:56 GMT 51.788994 1.879730 37,975 302 374 0
2022-05-20 00:06:54 GMT 51.787178 1.884460 37,975 302 374 0
2022-05-20 00:06:52 GMT 51.785919 1.887741 37,975 302 374 0
2022-05-20 00:06:50 GMT 51.783691 1.893583 37,975 302 374 0
2022-05-20 00:06:48 GMT 51.781494 1.899299 37,975 302 375 0
2022-05-20 00:06:46 GMT 51.780102 1.903000 37,975 302 375 0
2022-05-20 00:06:44 GMT 51.777695 1.909320 37,975 302 375 0
2022-05-20 00:06:41 GMT 51.775909 1.914071 37,975 302 375 0
2022-05-20 00:06:39 GMT 51.773346 1.920677 37,975 302 375 0
2022-05-20 00:06:36 GMT 51.770699 1.927719 37,975 302 375 0
2022-05-20 00:06:33 GMT 51.767715 1.935450 37,975 302 374 0
2022-05-20 00:06:30 GMT 51.765106 1.942353 37,975 302 374 0
2022-05-20 00:06:27 GMT 51.763435 1.946716 37,975 302 375 0
2022-05-20 00:06:25 GMT 51.760803 1.953488 37,975 302 374 0
2022-05-20 00:06:23 GMT 51.758034 1.960754 37,975 302 374 0
2022-05-20 00:06:20 GMT 51.756638 1.964400 37,975 302 375 0
2022-05-20 00:06:18 GMT 51.754349 1.970339 37,975 302 375 0
2022-05-20 00:06:16 GMT 51.752426 1.975312 37,975 302 375 0
2022-05-20 00:06:14 GMT 51.750587 1.980209 37,975 302 375 0
2022-05-20 00:06:11 GMT 51.746613 1.990530 37,975 302 375 0
2022-05-20 00:06:09 GMT 51.746613 1.990530 37,975 302 375 0
2022-05-20 00:06:06 GMT 51.743465 1.998749 37,975 302 375 0
2022-05-20 00:06:03 GMT 51.741486 2.003817 37,975 302 375 0
2022-05-20 00:06:01 GMT 51.738995 2.010345 37,975 302 375 0
2022-05-20 00:05:59 GMT 51.737133 2.015076 37,975 302 375 0
2022-05-20 00:05:56 GMT 51.734436 2.022078 37,975 302 375 0
2022-05-20 00:05:54 GMT 51.730846 2.031479 37,975 302 375 0
2022-05-20 00:05:52 GMT 51.729404 2.035217 37,975 302 375 0
2022-05-20 00:05:50 GMT 51.729404 2.035217 37,975 302 375 0
2022-05-20 00:05:48 GMT 51.728008 2.038803 37,975 302 375 0
2022-05-20 00:05:46 GMT 51.725353 2.045670 37,975 302 375 0
2022-05-20 00:05:44 GMT 51.723541 2.050476 37,975 302 375 0
2022-05-20 00:05:42 GMT 51.721207 2.056448 37,975 302 375 0
2022-05-20 00:05:39 GMT 51.718884 2.062531 37,975 302 375 0
2022-05-20 00:05:36 GMT 51.716217 2.069512 37,975 302 375 0
2022-05-20 00:05:34 GMT 51.714386 2.074263 37,975 302 375 0
2022-05-20 00:05:32 GMT 51.709015 2.088165 37,975 302 375 0
2022-05-20 00:05:29 GMT 51.709015 2.088165 37,975 302 375 0
2022-05-20 00:05:26 GMT 51.706642 2.094269 37,975 302 375 64
2022-05-20 00:05:24 GMT 51.705231 2.097943 37,975 302 375 64
2022-05-20 00:05:22 GMT 51.703400 2.102694 37,975 302 375 64
2022-05-20 00:05:20 GMT 51.701427 2.107773 37,975 302 375 0
2022-05-20 00:05:18 GMT 51.700264 2.110825 37,975 302 375 0
2022-05-20 00:05:16 GMT 51.697449 2.118060 37,975 302 375 0
2022-05-20 00:05:13 GMT 51.695068 2.124221 37,950 302 375 0
2022-05-20 00:05:11 GMT 51.693695 2.127785 37,975 302 375 0
2022-05-20 00:05:09 GMT 51.690857 2.135133 37,975 302 375 0
2022-05-20 00:05:06 GMT 51.688477 2.141295 37,975 302 375 0
2022-05-20 00:05:04 GMT 51.686829 2.145526 37,975 302 375 0
2022-05-20 00:05:02 GMT 51.684631 2.151242 37,975 302 375 0
2022-05-20 00:04:59 GMT 51.682846 2.155993 37,975 302 375 0
2022-05-20 00:04:57 GMT 51.679001 2.165940 37,975 302 375 0
2022-05-20 00:04:55 GMT 51.679001 2.165940 37,975 302 375 0
2022-05-20 00:04:52 GMT 51.676254 2.173066 37,975 302 375 0
2022-05-20 00:04:49 GMT 51.673416 2.180415 37,975 302 375 0
2022-05-20 00:04:47 GMT 51.671539 2.185287 37,975 302 375 0
2022-05-20 00:04:45 GMT 51.669662 2.190139 37,975 302 375 0
2022-05-20 00:04:42 GMT 51.666607 2.198029 37,975 302 375 0
2022-05-20 00:04:39 GMT 51.663395 2.206345 37,975 302 375 0
2022-05-20 00:04:36 GMT 51.661423 2.211444 37,975 302 375 0
2022-05-20 00:04:34 GMT 51.659672 2.216034 37,975 302 375 0
2022-05-20 00:04:31 GMT 51.657028 2.222801 37,975 302 375 0
2022-05-20 00:04:29 GMT 51.655197 2.227478 37,975 302 375 0
2022-05-20 00:04:27 GMT 51.651524 2.237091 37,975 302 375 0
2022-05-20 00:04:25 GMT 51.651524 2.237091 37,975 302 375 0
2022-05-20 00:04:23 GMT 51.650127 2.240677 37,975 302 375 0
2022-05-20 00:04:21 GMT 51.647846 2.246552 37,975 302 375 0
2022-05-20 00:04:19 GMT 51.645702 2.251968 37,975 302 375 -64
2022-05-20 00:04:17 GMT 51.642654 2.259917 37,975 302 375 -64
2022-05-20 00:04:15 GMT 51.642654 2.259917 37,975 302 375 0
2022-05-20 00:04:13 GMT 51.640732 2.264891 37,975 302 375 0
2022-05-20 00:04:11 GMT 51.638908 2.269516 38,000 302 375 0
2022-05-20 00:04:09 GMT 51.636475 2.275729 37,975 302 375 0
2022-05-20 00:04:07 GMT 51.632172 2.286864 37,975 302 375 0
2022-05-20 00:04:05 GMT 51.632172 2.286864 37,975 302 375 0
2022-05-20 00:04:02 GMT 51.629738 2.293091 37,975 302 375 0
2022-05-20 00:03:59 GMT 51.627319 2.299409 37,975 302 375 0
2022-05-20 00:03:57 GMT 51.624523 2.306595 37,975 303 375 0
2022-05-20 00:03:53 GMT 51.622513 2.311657 37,975 303 375 0
2022-05-20 00:03:51 GMT 51.620193 2.317657 37,975 303 375 0
2022-05-20 00:03:49 GMT 51.618332 2.322388 37,975 303 375 0
2022-05-20 00:03:47 GMT 51.616425 2.327347 37,975 303 375 0
2022-05-20 00:03:45 GMT 51.615120 2.330627 37,975 303 375 0
2022-05-20 00:03:43 GMT 51.613312 2.335263 37,975 303 375 0
2022-05-20 00:03:41 GMT 51.611347 2.340317 37,975 303 375 0
2022-05-20 00:03:39 GMT 51.605942 2.354118 38,000 303 375 0
2022-05-20 00:03:36 GMT 51.605942 2.354118 38,000 303 375 0
2022-05-20 00:03:34 GMT 51.604019 2.359091 38,000 303 375 0
2022-05-20 00:03:32 GMT 51.602646 2.362654 37,975 303 375 0
2022-05-20 00:03:29 GMT 51.599480 2.370758 38,000 303 375 0
2022-05-20 00:03:27 GMT 51.597523 2.375717 37,975 303 375 0
2022-05-20 00:03:25 GMT 51.596283 2.378911 37,975 302 375 0
2022-05-20 00:03:23 GMT 51.592163 2.389526 37,975 302 375 0
2022-05-20 00:03:21 GMT 51.592163 2.389526 37,975 302 375 0
2022-05-20 00:03:18 GMT 51.590424 2.393980 37,975 302 375 0
2022-05-20 00:03:16 GMT 51.587513 2.401428 37,975 302 375 0
2022-05-20 00:03:14 GMT 51.586121 2.405115 37,975 302 375 0
2022-05-20 00:03:12 GMT 51.584061 2.410311 37,975 303 376 0
2022-05-20 00:03:09 GMT 51.581680 2.416398 37,975 303 376 0
2022-05-20 00:03:07 GMT 51.577744 2.426568 37,975 303 376 0
2022-05-20 00:03:05 GMT 51.577744 2.426568 37,975 303 376 0
2022-05-20 00:03:03 GMT 51.576324 2.430131 37,975 303 376 0
2022-05-20 00:03:01 GMT 51.574013 2.436142 37,975 303 376 0
2022-05-20 00:02:59 GMT 51.572617 2.439651 37,975 303 376 0
2022-05-20 00:02:57 GMT 51.570282 2.445646 37,975 303 376 0
2022-05-20 00:02:55 GMT 51.568497 2.450174 37,975 303 376 0
2022-05-20 00:02:53 GMT 51.566391 2.455593 37,975 303 376 0
2022-05-20 00:02:50 GMT 51.563919 2.461977 37,975 303 375 0
2022-05-20 00:02:48 GMT 51.562004 2.466812 37,975 303 375 0
2022-05-20 00:02:46 GMT 51.560280 2.471237 37,975 303 375 0
2022-05-20 00:02:44 GMT 51.556511 2.480927 37,975 303 375 0
2022-05-20 00:02:42 GMT 51.556511 2.480927 37,975 303 375 0
2022-05-20 00:02:39 GMT 51.553997 2.487259 37,975 303 375 0
2022-05-20 00:02:37 GMT 51.551716 2.493210 37,975 303 375 0
2022-05-20 00:02:35 GMT 51.550041 2.497406 37,975 303 375 0
2022-05-20 00:02:33 GMT 51.548584 2.501023 37,975 303 375 0
2022-05-20 00:02:31 GMT 51.546364 2.506866 37,975 303 375 0
2022-05-20 00:02:29 GMT 51.542454 2.516708 37,975 303 375 0
2022-05-20 00:02:27 GMT 51.542454 2.516708 37,975 303 375 0
2022-05-20 00:02:25 GMT 51.541100 2.520294 37,975 303 375 0
2022-05-20 00:02:23 GMT 51.537563 2.529221 37,975 303 375 0
2022-05-20 00:02:21 GMT 51.537563 2.529221 37,975 303 375 0
2022-05-20 00:02:19 GMT 51.533386 2.539920 37,975 303 375 0
2022-05-20 00:02:17 GMT 51.533386 2.539920 37,975 303 375 0
2022-05-20 00:02:15 GMT 51.531513 2.544708 37,975 303 375 0
2022-05-20 00:02:12 GMT 51.528347 2.552719 37,975 303 375 0
2022-05-20 00:02:09 GMT 51.526253 2.558136 37,975 303 375 0
2022-05-20 00:02:07 GMT 51.523956 2.563897 37,975 303 375 0
2022-05-20 00:02:05 GMT 51.520752 2.572137 37,975 303 375 0
2022-05-20 00:02:03 GMT 51.520752 2.572137 37,975 303 375 0
2022-05-20 00:02:01 GMT 51.515869 2.584457 37,975 303 375 0
2022-05-20 00:01:58 GMT 51.515869 2.584457 37,975 303 375 0
2022-05-20 00:01:56 GMT 51.514473 2.587967 37,975 303 375 0
2022-05-20 00:01:53 GMT 51.510910 2.597079 37,975 303 375 0
2022-05-20 00:01:50 GMT 51.509026 2.601852 37,975 303 375 0
2022-05-20 00:01:48 GMT 51.506195 2.609030 37,975 303 374 0
2022-05-20 00:01:45 GMT 51.503765 2.615280 37,975 303 374 0
2022-05-20 00:01:43 GMT 51.499466 2.626178 37,975 303 375 0
2022-05-20 00:01:41 GMT 51.499466 2.626178 37,975 303 375 0
2022-05-20 00:01:38 GMT 51.497223 2.631819 37,975 303 375 0
2022-05-20 00:01:35 GMT 51.494411 2.638931 37,975 303 375 0
2022-05-20 00:01:32 GMT 51.492130 2.644806 37,975 303 375 0
2022-05-20 00:01:30 GMT 51.487568 2.656326 37,975 303 375 0
2022-05-20 00:01:28 GMT 51.487568 2.656326 37,975 303 376 0
2022-05-20 00:01:25 GMT 51.485229 2.662329 37,975 303 375 -64
2022-05-20 00:01:22 GMT 51.482864 2.668304 37,975 303 375 0
2022-05-20 00:01:20 GMT 51.481064 2.672870 37,975 303 375 -64
2022-05-20 00:01:18 GMT 51.476074 2.685563 37,975 303 375 -64
2022-05-20 00:01:15 GMT 51.476074 2.685563 37,975 303 375 -64
2022-05-20 00:01:12 GMT 51.473694 2.691498 37,975 303 375 -64
2022-05-20 00:01:10 GMT 51.471909 2.696104 38,000 303 374 -64
2022-05-20 00:01:08 GMT 51.469528 2.702191 37,975 303 374 0
2022-05-20 00:01:05 GMT 51.466644 2.709466 38,000 303 374 0
2022-05-20 00:01:02 GMT 51.464447 2.715033 37,975 303 374 0
2022-05-20 00:01:00 GMT 51.461964 2.721252 38,000 303 374 0
2022-05-20 00:00:57 GMT 51.460190 2.725871 37,975 303 374 0
2022-05-20 00:00:55 GMT 51.457397 2.732923 38,000 303 374 0
2022-05-20 00:00:52 GMT 51.455074 2.738876 38,000 303 374 0
2022-05-20 00:00:50 GMT 51.450851 2.749551 38,000 303 375 0
2022-05-20 00:00:47 GMT 51.450851 2.749551 38,000 303 375 0
2022-05-20 00:00:45 GMT 51.448242 2.756084 38,000 303 375 0
2022-05-20 00:00:42 GMT 51.445862 2.762245 38,000 303 375 0
2022-05-20 00:00:39 GMT 51.442520 2.770633 38,000 303 376 -64
2022-05-20 00:00:36 GMT 51.440643 2.775310 38,000 303 375 0
2022-05-20 00:00:34 GMT 51.438904 2.779764 38,000 303 375 0
2022-05-20 00:00:32 GMT 51.436844 2.784960 38,000 303 375 -64
2022-05-20 00:00:30 GMT 51.433044 2.794536 38,000 303 376 -64
2022-05-20 00:00:28 GMT 51.433044 2.794536 38,000 303 376 -64
2022-05-20 00:00:26 GMT 51.431396 2.798767 38,000 303 376 -64
2022-05-20 00:00:24 GMT 51.429470 2.803574 38,000 303 375 -64
2022-05-20 00:00:22 GMT 51.427185 2.809308 38,000 303 376 0
2022-05-20 00:00:19 GMT 51.423752 2.817993 38,000 303 376 0
2022-05-20 00:00:16 GMT 51.420227 2.826901 38,000 303 376 0
2022-05-20 00:00:14 GMT 51.420227 2.826901 38,000 303 376 0
2022-05-20 00:00:12 GMT 51.417973 2.832642 38,000 303 376 0
2022-05-20 00:00:09 GMT 51.414619 2.841110 38,000 303 376 0
2022-05-20 00:00:06 GMT 51.412720 2.845904 38,000 303 376 0
2022-05-20 00:00:04 GMT 51.410942 2.850494 38,000 303 376 64
2022-05-20 00:00:02 GMT 51.408798 2.855835 38,000 303 376 64
2022-05-20 00:00:00 GMT 51.406540 2.861567 38,000 303 376 0
2022-05-19 23:59:58 GMT 51.405170 2.864990 38,000 303 376 0
2022-05-19 23:59:56 GMT 51.403214 2.869949 38,000 303 376 0
2022-05-19 23:59:54 GMT 51.401443 2.874374 38,000 303 376 0
2022-05-19 23:59:52 GMT 51.399956 2.878113 38,000 303 376 0
2022-05-19 23:59:50 GMT 51.397064 2.885544 38,000 303 376 0
2022-05-19 23:59:48 GMT 51.395645 2.889033 38,000 303 376 0
2022-05-19 23:59:46 GMT 51.393112 2.895432 38,000 303 376 0
2022-05-19 23:59:43 GMT 51.391155 2.900391 38,000 303 376 0
2022-05-19 23:59:41 GMT 51.386314 2.912598 37,975 303 375 0
2022-05-19 23:59:38 GMT 51.386314 2.912598 38,000 303 375 64
2022-05-19 23:59:36 GMT 51.384842 2.916202 38,000 303 375 64
2022-05-19 23:59:34 GMT 51.382915 2.920990 37,975 303 375 0
2022-05-19 23:59:32 GMT 51.379658 2.929153 37,975 303 375 64
2022-05-19 23:59:29 GMT 51.377380 2.934908 37,975 303 375 64
2022-05-19 23:59:26 GMT 51.375458 2.939808 37,975 303 375 0
2022-05-19 23:59:24 GMT 51.370422 2.952501 37,975 303 376 0
2022-05-19 23:59:21 GMT 51.370422 2.952501 37,975 303 376 0
2022-05-19 23:59:19 GMT 51.368088 2.958292 37,975 303 376 0
2022-05-19 23:59:16 GMT 51.365662 2.964379 37,975 303 376 0
2022-05-19 23:59:14 GMT 51.361542 2.974697 37,975 303 375 0
2022-05-19 23:59:12 GMT 51.361542 2.974697 37,975 303 375 0
2022-05-19 23:59:09 GMT 51.358749 2.981749 37,975 303 375 0
2022-05-19 23:59:06 GMT 51.356941 2.986298 37,975 303 375 0
2022-05-19 23:59:04 GMT 51.354149 2.993317 37,975 303 375 0
2022-05-19 23:59:01 GMT 51.351822 2.999115 37,975 303 375 0
2022-05-19 23:58:58 GMT 51.348907 3.006468 37,975 303 375 0
2022-05-19 23:58:56 GMT 51.347443 3.010101 37,975 303 375 0
2022-05-19 23:58:54 GMT 51.345581 3.014755 37,975 303 375 0
2022-05-19 23:58:52 GMT 51.343533 3.019943 37,975 303 375 0
2022-05-19 23:58:49 GMT 51.339935 3.028886 37,975 303 375 0
2022-05-19 23:58:46 GMT 51.338085 3.033447 37,975 303 375 0
2022-05-19 23:58:44 GMT 51.336132 3.038330 37,975 303 375 0
2022-05-19 23:58:42 GMT 51.333244 3.045578 37,975 303 375 0
2022-05-19 23:58:39 GMT 51.331478 3.050003 37,975 303 375 0
2022-05-19 23:58:37 GMT 51.329243 3.055573 37,975 303 375 64
2022-05-19 23:58:35 GMT 51.326935 3.061251 37,975 303 375 0
2022-05-19 23:58:32 GMT 51.325005 3.066025 37,975 303 375 0
2022-05-19 23:58:30 GMT 51.323051 3.070984 37,975 303 375 0
2022-05-19 23:58:28 GMT 51.321190 3.075638 37,975 303 375 0
2022-05-19 23:58:26 GMT 51.318398 3.082581 37,975 303 375 64
2022-05-19 23:58:23 GMT 51.315884 3.088837 37,975 303 375 64
2022-05-19 23:58:21 GMT 51.314484 3.092346 37,975 303 375 64
2022-05-19 23:58:19 GMT 51.312252 3.097916 37,975 303 375 0
2022-05-19 23:58:16 GMT 51.308155 3.108215 37,975 303 375 64
2022-05-19 23:58:14 GMT 51.308155 3.108215 37,975 303 375 64
2022-05-19 23:58:12 GMT 51.304195 3.117981 37,950 303 375 64
2022-05-19 23:58:10 GMT 51.304195 3.117981 37,975 303 375 64
2022-05-19 23:58:08 GMT 51.302334 3.122635 37,975 303 375 64
2022-05-19 23:58:06 GMT 51.300156 3.128060 37,975 303 375 0
2022-05-19 23:58:04 GMT 51.298370 3.132514 37,950 303 375 0
2022-05-19 23:58:01 GMT 51.294979 3.140945 37,975 303 375 0
2022-05-19 23:57:58 GMT 51.293118 3.145599 37,975 303 375 0
2022-05-19 23:57:56 GMT 51.290817 3.151295 37,975 303 375 0
2022-05-19 23:57:54 GMT 51.289124 3.155526 37,975 303 375 0
2022-05-19 23:57:52 GMT 51.287811 3.158875 37,975 303 375 0
2022-05-19 23:57:50 GMT 51.285507 3.164582 37,975 303 375 0
2022-05-19 23:57:48 GMT 51.283539 3.169481 37,975 303 375 0
2022-05-19 23:57:45 GMT 51.280746 3.176459 37,975 303 375 0
2022-05-19 23:57:42 GMT 51.278320 3.182472 37,975 303 375 0
2022-05-19 23:57:40 GMT 51.275940 3.188400 37,975 303 375 0
2022-05-19 23:57:38 GMT 51.274292 3.192493 37,950 303 375 0
2022-05-19 23:57:36 GMT 51.272263 3.197479 37,950 303 375 0
2022-05-19 23:57:34 GMT 51.270401 3.202133 37,975 303 375 0
2022-05-19 23:57:32 GMT 51.265560 3.214188 37,975 303 375 0
2022-05-19 23:57:29 GMT 51.265560 3.214188 37,975 303 375 0
2022-05-19 23:57:26 GMT 51.262619 3.221518 37,950 303 375 0
2022-05-19 23:57:24 GMT 51.259872 3.228273 37,950 303 375 0
2022-05-19 23:57:21 GMT 51.258957 3.230574 37,950 303 375 0
2022-05-19 23:57:19 GMT 51.256203 3.237381 37,950 303 375 0
2022-05-19 23:57:16 GMT 51.254196 3.242377 37,950 303 375 0
2022-05-19 23:57:14 GMT 51.251862 3.248242 37,950 303 374 0
2022-05-19 23:57:11 GMT 51.249638 3.253632 37,950 303 375 0
2022-05-19 23:57:09 GMT 51.246754 3.260880 37,950 303 374 0
2022-05-19 23:57:06 GMT 51.244423 3.266678 37,950 303 374 0
2022-05-19 23:57:04 GMT 51.242111 3.272293 37,950 303 374 0
2022-05-19 23:57:01 GMT 51.240143 3.277192 37,950 303 374 0
2022-05-19 23:56:59 GMT 51.237442 3.283947 37,950 303 374 0
2022-05-19 23:56:56 GMT 51.234650 3.290710 37,950 303 374 0
2022-05-19 23:56:54 GMT 51.232864 3.295230 37,950 303 374 0
2022-05-19 23:56:52 GMT 51.231388 3.298874 37,950 303 374 0
2022-05-19 23:56:49 GMT 51.225632 3.313120 37,950 303 374 0
2022-05-19 23:56:46 GMT 51.225632 3.313120 37,950 303 374 0
2022-05-19 23:56:44 GMT 51.223572 3.318168 37,950 303 374 0
2022-05-19 23:56:42 GMT 51.221939 3.322220 37,950 303 374 0
2022-05-19 23:56:40 GMT 51.219543 3.328115 37,950 303 374 0
2022-05-19 23:56:37 GMT 51.216587 3.335419 37,975 303 374 0
2022-05-19 23:56:34 GMT 51.214256 3.341217 37,975 303 374 -64
2022-05-19 23:56:31 GMT 51.211487 3.348083 37,975 303 374 -64
2022-05-19 23:56:29 GMT 51.210068 3.351498 37,975 303 374 -64
2022-05-19 23:56:27 GMT 51.206951 3.359299 37,975 303 374 -64
2022-05-19 23:56:24 GMT 51.205032 3.364043 37,975 303 374 0
2022-05-19 23:56:22 GMT 51.203064 3.368868 37,975 303 374 0
2022-05-19 23:56:19 GMT 51.200638 3.374881 37,975 303 374 0
2022-05-19 23:56:17 GMT 51.198395 3.380449 37,975 303 374 0
2022-05-19 23:56:14 GMT 51.194916 3.388985 37,975 303 374 0
2022-05-19 23:56:11 GMT 51.193039 3.393662 37,975 303 374 0
2022-05-19 23:56:08 GMT 51.189911 3.401413 37,975 303 374 0
2022-05-19 23:56:06 GMT 51.188095 3.405910 37,975 303 374 0
2022-05-19 23:56:04 GMT 51.186127 3.410735 37,975 303 374 0
2022-05-19 23:56:02 GMT 51.184158 3.415635 37,975 303 374 0
2022-05-19 23:55:59 GMT 51.178646 3.429108 37,975 303 375 0
2022-05-19 23:55:57 GMT 51.178646 3.429108 37,975 303 375 0
2022-05-19 23:55:54 GMT 51.176926 3.433450 37,975 303 375 0
2022-05-19 23:55:51 GMT 51.174866 3.438498 37,975 303 375 0
2022-05-19 23:55:49 GMT 51.172546 3.444138 37,975 303 375 0
2022-05-19 23:55:47 GMT 51.169373 3.451934 37,975 303 375 0
2022-05-19 23:55:44 GMT 51.167221 3.457279 37,975 303 375 0
2022-05-19 23:55:41 GMT 51.165207 3.462104 37,975 303 375 0
2022-05-19 23:55:39 GMT 51.162872 3.467894 37,975 303 375 0
2022-05-19 23:55:37 GMT 51.158890 3.477618 37,975 303 375 0
2022-05-19 23:55:35 GMT 51.158890 3.477618 37,975 303 375 0
2022-05-19 23:55:33 GMT 51.157013 3.482221 37,975 303 375 0
2022-05-19 23:55:31 GMT 51.155045 3.487120 37,975 303 375 -64
2022-05-19 23:55:28 GMT 51.152985 3.492168 37,975 303 375 -64
2022-05-19 23:55:26 GMT 51.150970 3.497067 37,975 303 376 0
2022-05-19 23:55:24 GMT 51.147175 3.506393 38,000 303 375 0
2022-05-19 23:55:22 GMT 51.145157 3.511394 37,975 303 376 0
2022-05-19 23:55:20 GMT 51.145157 3.511394 37,975 303 376 0
2022-05-19 23:55:18 GMT 51.142685 3.517407 37,975 303 376 0
2022-05-19 23:55:15 GMT 51.140285 3.523331 38,000 303 376 0
2022-05-19 23:55:13 GMT 51.138889 3.526764 38,000 303 376 0
2022-05-19 23:55:11 GMT 51.137146 3.531065 38,000 303 376 0
2022-05-19 23:55:09 GMT 51.134701 3.536987 38,000 303 376 0
2022-05-19 23:55:07 GMT 51.132797 3.541680 38,000 303 376 0
2022-05-19 23:55:05 GMT 51.130508 3.547248 38,000 303 376 0
2022-05-19 23:55:01 GMT 51.126617 3.556749 38,000 303 376 0
2022-05-19 23:54:58 GMT 51.119522 3.574219 38,000 303 376 0
2022-05-19 23:54:55 GMT 51.119522 3.574219 38,000 303 376 0
2022-05-19 23:54:51 GMT 51.117737 3.578499 38,000 303 376 0
2022-05-19 23:54:49 GMT 51.115334 3.584442 38,000 303 376 0
2022-05-19 23:54:47 GMT 51.113567 3.588791 38,000 303 376 0
2022-05-19 23:54:45 GMT 51.111740 3.593346 38,000 303 376 0
2022-05-19 23:54:43 GMT 51.110168 3.597183 38,000 303 376 0
2022-05-19 23:54:41 GMT 51.107700 3.603210 38,000 303 376 0
2022-05-19 23:54:38 GMT 51.104858 3.610153 38,000 303 376 0
2022-05-19 23:54:36 GMT 51.101990 3.617174 38,000 303 376 0
2022-05-19 23:54:34 GMT 51.101990 3.617174 38,000 303 376 0
2022-05-19 23:54:32 GMT 51.100159 3.621750 38,000 303 376 0
2022-05-19 23:54:30 GMT 51.097733 3.627641 38,000 303 376 0
2022-05-19 23:54:27 GMT 51.094387 3.635864 38,000 303 376 0
2022-05-19 23:54:25 GMT 51.092926 3.639444 38,000 303 376 0
2022-05-19 23:54:23 GMT 51.091049 3.644120 38,000 303 376 0
2022-05-19 23:54:20 GMT 51.088333 3.650742 38,000 303 377 0
2022-05-19 23:54:18 GMT 51.083027 3.663712 38,000 303 377 0
2022-05-19 23:54:15 GMT 51.083027 3.663712 38,000 303 377 0
2022-05-19 23:54:11 GMT 51.080154 3.670770 38,000 303 377 0
2022-05-19 23:54:09 GMT 51.077347 3.677597 38,000 304 377 0
2022-05-19 23:54:06 GMT 51.072876 3.688585 38,000 304 377 0
2022-05-19 23:54:04 GMT 51.072876 3.688585 38,000 304 377 0
2022-05-19 23:54:01 GMT 51.069717 3.696231 38,000 304 378 0
2022-05-19 23:53:58 GMT 51.064919 3.707962 38,000 304 378 0
2022-05-19 23:53:55 GMT 51.061985 3.715134 38,000 304 378 0
2022-05-19 23:53:53 GMT 51.061985 3.715134 38,000 304 378 0
2022-05-19 23:53:50 GMT 51.060150 3.719689 38,000 304 378 0
2022-05-19 23:53:48 GMT 51.058823 3.722955 38,000 304 378 0
2022-05-19 23:53:46 GMT 51.055981 3.729782 38,000 304 378 0
2022-05-19 23:53:44 GMT 51.054119 3.734436 38,000 304 378 0
2022-05-19 23:53:41 GMT 51.050674 3.742752 38,000 304 378 0
2022-05-19 23:53:38 GMT 51.047974 3.749381 38,000 304 378 0
2022-05-19 23:53:36 GMT 51.046577 3.752747 38,000 304 378 0
2022-05-19 23:53:34 GMT 51.044357 3.758141 38,000 304 378 0
2022-05-19 23:53:30 GMT 51.040897 3.766632 38,000 304 377 0
2022-05-19 23:53:28 GMT 51.037033 3.776031 38,000 304 377 0
2022-05-19 23:53:26 GMT 51.037033 3.776031 38,000 304 377 0
2022-05-19 23:53:24 GMT 51.035080 3.780746 38,000 304 377 0
2022-05-19 23:53:22 GMT 51.031448 3.789520 38,000 304 377 0
2022-05-19 23:53:20 GMT 51.031448 3.789520 38,000 304 377 0
2022-05-19 23:53:18 GMT 51.029911 3.793259 38,000 304 378 64
2022-05-19 23:53:16 GMT 51.027466 3.799117 38,000 304 377 64
2022-05-19 23:53:14 GMT 51.025024 3.805008 38,000 304 378 64
2022-05-19 23:53:11 GMT 51.022385 3.811365 38,000 304 378 0
2022-05-19 23:53:08 GMT 51.019951 3.817215 38,000 304 378 0
2022-05-19 23:53:06 GMT 51.017624 3.822784 37,975 304 378 0
2022-05-19 23:53:04 GMT 51.016178 3.826218 38,000 304 378 0
2022-05-19 23:53:02 GMT 51.013870 3.831927 37,975 304 378 0
2022-05-19 23:53:00 GMT 51.012314 3.835565 38,000 304 378 0
2022-05-19 23:52:58 GMT 51.009010 3.843613 38,000 304 378 0
2022-05-19 23:52:55 GMT 51.006683 3.849223 38,000 304 378 0
2022-05-19 23:52:52 GMT 51.004215 3.855133 38,000 304 377 0
2022-05-19 23:52:50 GMT 51.002747 3.858725 38,000 304 377 0
2022-05-19 23:52:48 GMT 50.998489 3.869019 38,000 304 377 0
2022-05-19 23:52:46 GMT 50.998489 3.869019 38,000 304 378 0
2022-05-19 23:52:43 GMT 50.996155 3.874685 38,000 304 377 0
2022-05-19 23:52:41 GMT 50.993729 3.880401 38,000 304 377 0
2022-05-19 23:52:38 GMT 50.991440 3.885968 37,975 304 377 0
2022-05-19 23:52:36 GMT 50.988525 3.892975 37,975 304 377 64
2022-05-19 23:52:33 GMT 50.986526 3.897858 38,000 304 377 0
2022-05-19 23:52:31 GMT 50.983978 3.904007 37,975 304 376 0
2022-05-19 23:52:28 GMT 50.981823 3.909149 37,975 304 376 0
2022-05-19 23:52:25 GMT 50.978844 3.916321 37,975 304 376 0
2022-05-19 23:52:23 GMT 50.976791 3.921303 37,975 304 376 0
2022-05-19 23:52:21 GMT 50.974411 3.927018 37,975 304 376 0
2022-05-19 23:52:18 GMT 50.971527 3.933922 37,975 304 376 0
2022-05-19 23:52:15 GMT 50.966320 3.946533 37,975 304 376 0
2022-05-19 23:52:13 GMT 50.966320 3.946533 37,975 304 376 0
2022-05-19 23:52:10 GMT 50.961060 3.959198 37,975 304 376 0
2022-05-19 23:52:07 GMT 50.961060 3.959198 37,975 304 376 0
2022-05-19 23:52:04 GMT 50.956219 3.970871 37,975 304 376 0
2022-05-19 23:52:02 GMT 50.956219 3.970871 37,975 304 376 0
2022-05-19 23:51:59 GMT 50.950790 3.983880 37,975 304 376 0
2022-05-19 23:51:56 GMT 50.950790 3.983880 37,975 304 376 0
2022-05-19 23:51:54 GMT 50.948956 3.988342 37,975 304 376 0
2022-05-19 23:51:52 GMT 50.946579 3.993976 37,975 304 376 0
2022-05-19 23:51:49 GMT 50.942814 4.003067 37,975 304 376 0
2022-05-19 23:51:45 GMT 50.940308 4.009193 37,975 304 376 0
2022-05-19 23:51:43 GMT 50.937458 4.015961 37,975 304 376 0
2022-05-19 23:51:40 GMT 50.935226 4.021367 37,975 304 376 0
2022-05-19 23:51:37 GMT 50.932896 4.026947 37,950 304 376 0
2022-05-19 23:51:35 GMT 50.930832 4.031908 37,975 304 376 0
2022-05-19 23:51:33 GMT 50.928909 4.036511 37,975 304 376 0
2022-05-19 23:51:30 GMT 50.923508 4.049575 37,975 304 375 0
2022-05-19 23:51:27 GMT 50.923508 4.049575 37,975 304 375 0
2022-05-19 23:51:25 GMT 50.921127 4.055291 37,975 304 375 0
2022-05-19 23:51:23 GMT 50.919113 4.060116 37,950 304 376 0
2022-05-19 23:51:20 GMT 50.913811 4.072800 37,950 304 375 0
2022-05-19 23:51:17 GMT 50.913811 4.072800 37,950 304 375 0
2022-05-19 23:51:15 GMT 50.911343 4.078751 37,950 304 375 0
2022-05-19 23:51:12 GMT 50.905708 4.092255 37,950 304 375 0
2022-05-19 23:51:09 GMT 50.905708 4.092255 37,950 304 375 0
2022-05-19 23:51:06 GMT 50.902817 4.099237 37,950 304 375 0
2022-05-19 23:51:03 GMT 50.900311 4.105377 37,950 304 375 0
2022-05-19 23:51:00 GMT 50.897842 4.111328 37,950 304 375 0
2022-05-19 23:50:58 GMT 50.895935 4.115906 37,950 304 375 0
2022-05-19 23:50:56 GMT 50.893158 4.122620 37,950 304 375 0
2022-05-19 23:50:54 GMT 50.890320 4.129523 37,950 304 375 0
2022-05-19 23:50:52 GMT 50.888348 4.134216 37,950 304 375 0
2022-05-19 23:50:50 GMT 50.888348 4.134216 37,950 304 375 0
2022-05-19 23:50:48 GMT 50.886066 4.139709 37,950 304 375 0
2022-05-19 23:50:46 GMT 50.883690 4.145432 37,950 304 375 0
2022-05-19 23:50:43 GMT 50.880756 4.152527 37,950 304 375 0
2022-05-19 23:50:40 GMT 50.878849 4.157104 37,950 304 375 0
2022-05-19 23:50:38 GMT 50.876568 4.162598 37,950 304 375 0
2022-05-19 23:50:36 GMT 50.875031 4.166342 37,950 304 375 0
2022-05-19 23:50:34 GMT 50.872742 4.171835 37,950 304 375 0
2022-05-19 23:50:32 GMT 50.870453 4.177329 37,950 304 375 0
2022-05-19 23:50:29 GMT 50.868561 4.181747 37,950 304 375 0
2022-05-19 23:50:27 GMT 50.863628 4.193649 37,950 304 375 0
2022-05-19 23:50:24 GMT 50.861065 4.199829 37,950 304 375 0
2022-05-19 23:50:22 GMT 50.858227 4.206696 37,950 304 375 -64
2022-05-19 23:50:19 GMT 50.858227 4.206696 37,950 304 375 0
2022-05-19 23:50:16 GMT 50.854969 4.214478 37,950 304 375 0
2022-05-19 23:50:13 GMT 50.852127 4.221344 37,975 304 375 0
2022-05-19 23:50:10 GMT 50.848709 4.229439 37,950 304 375 0
2022-05-19 23:50:07 GMT 50.847198 4.233077 37,975 304 375 0
2022-05-19 23:50:05 GMT 50.845459 4.237234 37,950 304 375 0
2022-05-19 23:50:03 GMT 50.842724 4.243698 37,950 304 375 0
2022-05-19 23:50:01 GMT 50.841248 4.247255 37,950 304 375 0
2022-05-19 23:49:59 GMT 50.839745 4.250793 37,950 304 375 0
2022-05-19 23:49:57 GMT 50.837219 4.256831 37,950 304 375 0
2022-05-19 23:49:54 GMT 50.834747 4.262770 37,950 304 375 0
2022-05-19 23:49:52 GMT 50.832481 4.268112 37,950 304 375 0
2022-05-19 23:49:49 GMT 50.826965 4.281253 37,950 304 376 -64
2022-05-19 23:49:46 GMT 50.826965 4.281253 37,950 304 375 0
2022-05-19 23:49:43 GMT 50.821449 4.294357 37,950 304 375 0
2022-05-19 23:49:41 GMT 50.819309 4.299393 37,975 304 375 0
2022-05-19 23:49:38 GMT 50.816936 4.305115 37,975 304 376 -64
2022-05-19 23:49:35 GMT 50.816936 4.305115 37,975 304 376 -64
2022-05-19 23:49:33 GMT 50.814606 4.310608 37,975 304 376 -64
2022-05-19 23:49:31 GMT 50.812271 4.316142 37,975 304 376 -64
2022-05-19 23:49:29 GMT 50.810440 4.320522 37,975 304 376 -64
2022-05-19 23:49:27 GMT 50.808369 4.325409 37,975 304 376 -64
2022-05-19 23:49:24 GMT 50.803665 4.336624 37,975 304 376 -64
2022-05-19 23:49:22 GMT 50.803665 4.336624 37,975 304 376 -64
2022-05-19 23:49:20 GMT 50.801788 4.341084 37,975 304 376 -64
2022-05-19 23:49:18 GMT 50.800037 4.345322 37,975 304 376 -64
2022-05-19 23:49:16 GMT 50.798126 4.349899 37,975 304 376 -64
2022-05-19 23:49:13 GMT 50.795242 4.356766 37,975 304 376 0
2022-05-19 23:49:11 GMT 50.792679 4.362834 37,975 304 376 0
2022-05-19 23:49:08 GMT 50.786072 4.378433 38,000 304 376 -64
2022-05-19 23:49:05 GMT 50.786072 4.378433 37,975 304 376 -64
2022-05-19 23:49:02 GMT 50.784069 4.383240 38,000 304 377 -64
2022-05-19 23:48:59 GMT 50.782104 4.387925 38,000 304 377 0
2022-05-19 23:48:57 GMT 50.779129 4.395051 38,000 304 377 0
2022-05-19 23:48:54 GMT 50.775597 4.403381 38,000 304 377 0
2022-05-19 23:48:50 GMT 50.773132 4.409229 38,000 304 377 0
2022-05-19 23:48:48 GMT 50.770290 4.415970 38,000 304 378 0
2022-05-19 23:48:45 GMT 50.768417 4.420438 38,000 304 378 0
2022-05-19 23:48:42 GMT 50.765900 4.426377 38,000 304 378 0
2022-05-19 23:48:40 GMT 50.763107 4.433058 38,000 304 378 0
2022-05-19 23:48:37 GMT 50.760681 4.438773 38,000 304 378 0
2022-05-19 23:48:35 GMT 50.758232 4.444580 38,000 304 378 0
2022-05-19 23:48:32 GMT 50.756241 4.449314 38,000 304 378 0
2022-05-19 23:48:30 GMT 50.753902 4.454880 38,000 304 378 0
2022-05-19 23:48:28 GMT 50.751434 4.460746 38,000 304 378 0
2022-05-19 23:48:26 GMT 50.749527 4.465256 38,000 304 378 0
2022-05-19 23:48:23 GMT 50.746735 4.471893 38,000 304 378 0
2022-05-19 23:48:21 GMT 50.745346 4.475221 38,000 304 378 0
2022-05-19 23:48:19 GMT 50.743336 4.479904 37,975 304 379 0
2022-05-19 23:48:17 GMT 50.741333 4.484711 38,000 304 379 0
2022-05-19 23:48:15 GMT 50.739380 4.489288 38,000 304 379 0
2022-05-19 23:48:12 GMT 50.736492 4.496231 37,975 304 379 0
2022-05-19 23:48:09 GMT 50.732628 4.505386 37,975 304 379 0
2022-05-19 23:48:06 GMT 50.730068 4.511337 37,975 304 379 0
2022-05-19 23:48:03 GMT 50.724609 4.524363 38,000 304 379 0
2022-05-19 23:48:00 GMT 50.724609 4.524363 38,000 304 379 0
2022-05-19 23:47:57 GMT 50.721828 4.530869 37,975 304 379 0
2022-05-19 23:47:55 GMT 50.719940 4.535349 37,975 304 379 0
2022-05-19 23:47:53 GMT 50.717545 4.541016 37,975 304 379 0
2022-05-19 23:47:51 GMT 50.716049 4.544554 37,975 304 379 0
2022-05-19 23:47:49 GMT 50.713078 4.551620 38,000 304 379 0
2022-05-19 23:47:46 GMT 50.708084 4.563409 38,000 304 380 0
2022-05-19 23:47:43 GMT 50.708084 4.563409 38,000 304 380 0
2022-05-19 23:47:40 GMT 50.705063 4.570609 38,000 304 380 0
2022-05-19 23:47:37 GMT 50.702225 4.577216 38,000 304 380 0
2022-05-19 23:47:35 GMT 50.700256 4.581893 38,000 304 380 -64
2022-05-19 23:47:32 GMT 50.695267 4.593621 38,000 304 381 0
2022-05-19 23:47:29 GMT 50.695267 4.593621 38,000 304 381 0
2022-05-19 23:47:27 GMT 50.692314 4.600601 38,000 304 381 0
2022-05-19 23:47:24 GMT 50.689133 4.608097 38,000 304 381 0
2022-05-19 23:47:21 GMT 50.686707 4.613887 38,000 304 381 0
2022-05-19 23:47:19 GMT 50.685196 4.617301 38,000 304 381 0
2022-05-19 23:47:17 GMT 50.682678 4.623314 38,000 304 381 0
2022-05-19 23:47:15 GMT 50.680206 4.629030 38,000 304 381 0
2022-05-19 23:47:12 GMT 50.677418 4.635620 38,000 304 381 0
2022-05-19 23:47:09 GMT 50.675629 4.639868 38,000 304 381 0
2022-05-19 23:47:07 GMT 50.672623 4.646835 38,000 304 381 0
2022-05-19 23:47:05 GMT 50.670731 4.651337 38,000 304 381 0
2022-05-19 23:47:02 GMT 50.667572 4.658709 38,000 304 381 0
2022-05-19 23:46:59 GMT 50.665546 4.663399 38,000 304 381 0
2022-05-19 23:46:57 GMT 50.662949 4.669551 38,000 304 381 0
2022-05-19 23:46:55 GMT 50.661392 4.673237 38,000 304 381 0
2022-05-19 23:46:53 GMT 50.659836 4.676923 38,000 304 381 0
2022-05-19 23:46:51 GMT 50.656937 4.683665 38,000 304 381 0
2022-05-19 23:46:49 GMT 50.655304 4.687476 38,000 304 381 0
2022-05-19 23:46:46 GMT 50.653164 4.692424 38,000 304 381 0
2022-05-19 23:46:44 GMT 50.651115 4.697249 38,000 304 381 0
2022-05-19 23:46:42 GMT 50.648712 4.702871 38,000 304 381 0
2022-05-19 23:46:39 GMT 50.645782 4.709810 38,000 304 381 0
2022-05-19 23:46:37 GMT 50.643341 4.715436 38,000 304 381 0
2022-05-19 23:46:35 GMT 50.641251 4.720435 38,000 304 381 0
2022-05-19 23:46:32 GMT 50.638779 4.726145 38,000 304 381 0
2022-05-19 23:46:29 GMT 50.635941 4.732867 38,000 304 381 0
2022-05-19 23:46:27 GMT 50.633427 4.738745 38,000 304 381 0
2022-05-19 23:46:25 GMT 50.631409 4.743419 38,000 304 381 0
2022-05-19 23:46:22 GMT 50.628120 4.751142 38,000 304 381 0
2022-05-19 23:46:19 GMT 50.626022 4.755967 38,000 304 382 0
2022-05-19 23:46:16 GMT 50.623215 4.762573 38,000 304 382 64
2022-05-19 23:46:14 GMT 50.621750 4.766043 38,000 304 382 64
2022-05-19 23:46:12 GMT 50.618855 4.772817 38,000 304 382 0
2022-05-19 23:46:09 GMT 50.612663 4.787367 37,975 304 382 0
2022-05-19 23:46:06 GMT 50.612663 4.787367 37,975 304 383 0
2022-05-19 23:46:03 GMT 50.609940 4.793653 37,975 304 383 0
2022-05-19 23:46:01 GMT 50.605263 4.804663 38,000 304 383 0
2022-05-19 23:45:58 GMT 50.605263 4.804663 38,000 304 383 0
2022-05-19 23:45:55 GMT 50.601723 4.812903 37,975 304 383 0
2022-05-19 23:45:52 GMT 50.598743 4.819806 38,000 304 383 0
2022-05-19 23:45:50 GMT 50.597256 4.823295 38,000 304 383 0
2022-05-19 23:45:48 GMT 50.595428 4.827552 38,000 304 383 0
2022-05-19 23:45:45 GMT 50.592133 4.835321 38,000 304 383 0
2022-05-19 23:45:42 GMT 50.588455 4.843783 38,000 304 383 0
2022-05-19 23:45:39 GMT 50.586548 4.848296 37,975 305 383 0
2022-05-19 23:45:36 GMT 50.583984 4.854295 38,000 305 383 0
2022-05-19 23:45:34 GMT 50.581421 4.860294 38,000 305 382 0
2022-05-19 23:45:32 GMT 50.578869 4.866127 38,000 305 382 0
2022-05-19 23:45:29 GMT 50.573090 4.879592 37,975 305 383 64
2022-05-19 23:45:26 GMT 50.573090 4.879592 37,975 305 383 64
2022-05-19 23:45:23 GMT 50.570580 4.885427 37,975 305 383 64
2022-05-19 23:45:21 GMT 50.568996 4.889139 37,975 305 382 64
2022-05-19 23:45:19 GMT 50.565948 4.896144 37,975 305 382 64
2022-05-19 23:45:16 GMT 50.560246 4.909330 37,975 304 383 64
2022-05-19 23:45:13 GMT 50.560246 4.909330 37,975 305 382 0
2022-05-19 23:45:11 GMT 50.558258 4.914069 37,975 305 382 0
2022-05-19 23:45:08 GMT 50.555649 4.920068 37,975 305 382 0
2022-05-19 23:45:05 GMT 50.552307 4.927874 37,975 305 382 0
2022-05-19 23:45:02 GMT 50.549652 4.934090 37,950 305 382 0
2022-05-19 23:45:00 GMT 50.546082 4.942330 37,950 305 382 64
2022-05-19 23:44:58 GMT 50.546082 4.942330 37,950 305 382 64
2022-05-19 23:44:55 GMT 50.542603 4.950425 37,950 305 382 0
2022-05-19 23:44:52 GMT 50.539997 4.956467 37,950 305 382 0
2022-05-19 23:44:50 GMT 50.537476 4.962351 37,950 305 382 0
2022-05-19 23:44:48 GMT 50.535759 4.966340 37,950 305 382 0
2022-05-19 23:44:45 GMT 50.532688 4.973466 37,950 305 383 0
2022-05-19 23:44:43 GMT 50.530655 4.978180 37,950 305 383 0
2022-05-19 23:44:41 GMT 50.529194 4.981557 37,950 305 383 0
2022-05-19 23:44:38 GMT 50.524796 4.991768 37,950 305 383 0
2022-05-19 23:44:35 GMT 50.519886 5.003159 37,950 305 383 0
2022-05-19 23:44:32 GMT 50.519886 5.003159 37,950 305 383 0
2022-05-19 23:44:30 GMT 50.515556 5.013255 37,950 305 382 0
2022-05-19 23:44:28 GMT 50.515556 5.013255 37,950 305 382 0
2022-05-19 23:44:25 GMT 50.512527 5.020246 37,950 305 382 0
2022-05-19 23:44:22 GMT 50.508682 5.029209 37,950 305 382 0
2022-05-19 23:44:18 GMT 50.503143 5.042074 37,950 305 382 0
2022-05-19 23:44:15 GMT 50.503143 5.042074 37,950 305 382 0
2022-05-19 23:44:12 GMT 50.500671 5.047784 37,950 305 382 0
2022-05-19 23:44:10 GMT 50.498703 5.052226 37,950 305 382 0
2022-05-19 23:44:08 GMT 50.496330 5.057794 37,950 305 383 0
2022-05-19 23:44:05 GMT 50.490372 5.071636 37,950 305 383 0
2022-05-19 23:44:02 GMT 50.490372 5.071636 37,950 305 383 0
2022-05-19 23:43:59 GMT 50.487259 5.078792 37,950 305 383 0
2022-05-19 23:43:56 GMT 50.483852 5.086670 37,950 305 383 0
2022-05-19 23:43:54 GMT 50.482967 5.088748 37,950 305 383 0
2022-05-19 23:43:52 GMT 50.480408 5.094687 37,950 305 383 0
2022-05-19 23:43:49 GMT 50.477337 5.101813 37,950 305 383 64
2022-05-19 23:43:46 GMT 50.474670 5.107920 37,950 305 383 0
2022-05-19 23:43:44 GMT 50.472263 5.113468 37,950 305 383 0
2022-05-19 23:43:41 GMT 50.469284 5.120371 37,950 305 383 64
2022-05-19 23:43:35 GMT 50.459885 5.142035 37,950 305 383 0
2022-05-19 23:43:31 GMT 50.458344 5.145610 37,950 305 383 0
2022-05-19 23:43:28 GMT 50.457363 5.147911 37,950 305 383 0
2022-05-19 23:43:26 GMT 50.454803 5.153744 37,950 305 383 0
2022-05-19 23:43:24 GMT 50.452240 5.159671 37,950 305 383 0
2022-05-19 23:43:22 GMT 50.450706 5.163277 37,950 305 383 0
2022-05-19 23:43:20 GMT 50.448853 5.167477 37,950 305 383 0
2022-05-19 23:43:18 GMT 50.447388 5.170947 37,950 305 383 0
2022-05-19 23:43:16 GMT 50.444424 5.177678 37,950 305 383 0
2022-05-19 23:43:14 GMT 50.440281 5.187328 37,950 305 383 0
2022-05-19 23:43:11 GMT 50.440281 5.187328 37,950 305 383 0
2022-05-19 23:43:09 GMT 50.434433 5.200725 37,950 305 383 0
2022-05-19 23:43:06 GMT 50.434433 5.200725 37,950 305 383 0
2022-05-19 23:43:04 GMT 50.433060 5.203906 37,950 305 383 0
2022-05-19 23:43:02 GMT 50.430450 5.209905 37,950 305 383 0
2022-05-19 23:43:00 GMT 50.428921 5.213458 37,950 305 383 0
2022-05-19 23:42:58 GMT 50.426010 5.220168 37,950 305 383 0
2022-05-19 23:42:55 GMT 50.424179 5.224288 37,925 305 383 0
2022-05-19 23:42:52 GMT 50.421333 5.230828 37,950 305 383 0
2022-05-19 23:42:50 GMT 50.418774 5.236767 37,925 305 383 64
2022-05-19 23:42:48 GMT 50.416809 5.241274 37,925 305 383 64
2022-05-19 23:42:45 GMT 50.413651 5.248574 37,925 305 383 64
2022-05-19 23:42:42 GMT 50.411091 5.254434 37,925 305 383 64
2022-05-19 23:42:40 GMT 50.408936 5.259343 37,925 305 384 -64
2022-05-19 23:42:38 GMT 50.406235 5.265559 37,925 305 384 -64
2022-05-19 23:42:35 GMT 50.404808 5.268835 37,925 305 383 0
2022-05-19 23:42:33 GMT 50.402805 5.273438 37,925 305 383 0
2022-05-19 23:42:31 GMT 50.400055 5.279726 37,925 305 384 0
2022-05-19 23:42:28 GMT 50.397312 5.286057 37,925 305 384 -64
2022-05-19 23:42:26 GMT 50.394882 5.291652 37,925 305 384 -64
2022-05-19 23:42:24 GMT 50.392960 5.295988 37,925 305 384 0
2022-05-19 23:42:22 GMT 50.390888 5.300681 37,925 305 384 0
2022-05-19 23:42:20 GMT 50.388374 5.306396 37,925 305 384 -64
2022-05-19 23:42:18 GMT 50.386826 5.309938 37,950 305 384 0
2022-05-19 23:42:15 GMT 50.384308 5.315648 37,925 305 384 -64
2022-05-19 23:42:13 GMT 50.381424 5.322298 37,925 305 384 -64
2022-05-19 23:42:10 GMT 50.378880 5.328221 37,950 305 384 -64
2022-05-19 23:42:06 GMT 50.371811 5.344415 37,950 305 384 -64
2022-05-19 23:42:01 GMT 50.366962 5.355538 37,950 305 384 -64
2022-05-19 23:41:58 GMT 50.366962 5.355538 37,950 305 384 -64
2022-05-19 23:41:56 GMT 50.364578 5.360894 37,950 305 384 -64
2022-05-19 23:41:54 GMT 50.362446 5.365856 37,950 305 384 -64
2022-05-19 23:41:51 GMT 50.359325 5.372983 37,950 305 385 -64
2022-05-19 23:41:48 GMT 50.353683 5.385975 37,950 305 385 -64
2022-05-19 23:41:46 GMT 50.353683 5.385975 37,975 305 385 -64
2022-05-19 23:41:42 GMT 50.347736 5.399632 37,975 305 385 -64
2022-05-19 23:41:38 GMT 50.346619 5.402156 37,975 305 385 -64
2022-05-19 23:41:35 GMT 50.344162 5.407803 37,975 305 386 -64
2022-05-19 23:41:33 GMT 50.340729 5.415609 37,975 305 386 -64
2022-05-19 23:41:30 GMT 50.338303 5.421102 37,975 305 386 -64
2022-05-19 23:41:27 GMT 50.335693 5.427102 37,975 305 386 -64
2022-05-19 23:41:24 GMT 50.332077 5.435341 37,975 305 386 -64
2022-05-19 23:41:21 GMT 50.329468 5.441340 37,975 305 386 0
2022-05-19 23:41:18 GMT 50.324341 5.453050 37,975 305 386 0
2022-05-19 23:41:14 GMT 50.322327 5.457675 37,975 305 386 0
2022-05-19 23:41:11 GMT 50.319431 5.464214 37,975 305 386 0
2022-05-19 23:41:08 GMT 50.317009 5.469707 37,975 305 386 0
2022-05-19 23:41:06 GMT 50.314453 5.475600 37,975 305 386 0
2022-05-19 23:41:04 GMT 50.312263 5.480545 37,975 305 387 0
2022-05-19 23:41:01 GMT 50.309235 5.487448 37,975 305 387 0
2022-05-19 23:40:58 GMT 50.305790 5.495317 37,975 305 388 0
2022-05-19 23:40:55 GMT 50.301136 5.505932 38,000 305 388 0
2022-05-19 23:40:51 GMT 50.299183 5.510312 38,000 305 389 0
2022-05-19 23:40:48 GMT 50.296692 5.515932 37,975 305 389 0
2022-05-19 23:40:46 GMT 50.294266 5.521497 38,000 305 389 0
2022-05-19 23:40:43 GMT 50.291359 5.528053 38,000 305 389 0
2022-05-19 23:40:40 GMT 50.287823 5.536144 38,000 305 389 0
2022-05-19 23:40:37 GMT 50.284561 5.543568 38,000 305 391 -64
2022-05-19 23:40:34 GMT 50.281399 5.550694 37,975 305 389 0
2022-05-19 23:40:31 GMT 50.275997 5.563016 37,975 305 389 0
2022-05-19 23:40:28 GMT 50.267433 5.582465 38,000 305 390 0
2022-05-19 23:40:23 GMT 50.267433 5.582465 38,000 305 391 -64
2022-05-19 23:40:18 GMT 50.265385 5.587067 38,000 305 391 -64
2022-05-19 23:40:15 GMT 50.262405 5.593823 38,000 305 391 -64
2022-05-19 23:40:13 GMT 50.261353 5.596233 38,000 305 391 -64
2022-05-19 23:40:10 GMT 50.257736 5.604401 38,000 305 391 -64
2022-05-19 23:40:07 GMT 50.253754 5.613435 38,000 305 391 0
2022-05-19 23:40:04 GMT 50.247482 5.627602 38,000 305 392 0
2022-05-19 23:40:01 GMT 50.247482 5.627602 38,000 305 392 0
2022-05-19 23:39:58 GMT 50.243500 5.636637 38,000 305 392 0
2022-05-19 23:39:55 GMT 50.241783 5.640440 38,000 305 392 0
2022-05-19 23:39:53 GMT 50.240387 5.643576 38,000 305 392 0
2022-05-19 23:39:50 GMT 50.237778 5.649497 38,000 305 392 0
2022-05-19 23:39:48 GMT 50.234848 5.656152 38,000 305 392 0
2022-05-19 23:39:45 GMT 50.231644 5.663380 38,000 305 395 64
2022-05-19 23:39:42 GMT 50.228516 5.670430 38,000 305 393 0
2022-05-19 23:39:40 GMT 50.225815 5.676517 38,000 305 393 0
2022-05-19 23:39:37 GMT 50.223114 5.682604 38,000 305 393 0
2022-05-19 23:39:34 GMT 50.221298 5.686761 38,000 305 393 0
2022-05-19 23:39:32 GMT 50.218002 5.694098 38,000 305 393 0
2022-05-19 23:39:30 GMT 50.213341 5.704725 38,000 305 393 0
2022-05-19 23:39:27 GMT 50.213341 5.704725 38,000 305 393 0
2022-05-19 23:39:24 GMT 50.209801 5.712668 38,000 305 394 0
2022-05-19 23:39:21 GMT 50.206833 5.719323 38,000 305 394 0
2022-05-19 23:39:17 GMT 50.199978 5.734863 38,000 305 394 0
2022-05-19 23:39:10 GMT 50.196259 5.743103 38,000 305 394 64
2022-05-19 23:39:08 GMT 50.193508 5.749264 38,000 305 395 0
2022-05-19 23:39:06 GMT 50.190807 5.755351 38,000 305 395 0
2022-05-19 23:39:03 GMT 50.188435 5.760696 38,000 305 395 0
2022-05-19 23:39:00 GMT 50.185364 5.767605 38,000 305 395 0
2022-05-19 23:38:58 GMT 50.183167 5.772520 38,000 305 395 0
2022-05-19 23:38:56 GMT 50.180939 5.777547 38,000 305 395 64
2022-05-19 23:38:53 GMT 50.177818 5.784524 38,000 305 395 64
2022-05-19 23:38:50 GMT 50.174973 5.790951 38,000 305 395 64
2022-05-19 23:38:48 GMT 50.170807 5.800348 38,000 305 395 64
2022-05-19 23:38:46 GMT 50.170807 5.800348 38,000 305 395 64
2022-05-19 23:38:43 GMT 50.167530 5.807685 38,000 305 396 0
2022-05-19 23:38:40 GMT 50.164505 5.814440 38,000 305 396 0
2022-05-19 23:38:38 GMT 50.160130 5.824313 38,000 305 396 0
2022-05-19 23:38:36 GMT 50.160130 5.824313 38,000 305 396 0
2022-05-19 23:38:33 GMT 50.156891 5.831644 38,000 305 396 -64
2022-05-19 23:38:30 GMT 50.154308 5.837378 38,000 305 396 -64
2022-05-19 23:38:28 GMT 50.151611 5.843465 38,000 305 396 -64
2022-05-19 23:38:26 GMT 50.149422 5.848364 38,000 305 396 -64
2022-05-19 23:38:23 GMT 50.146591 5.854846 38,000 305 396 0
2022-05-19 23:38:20 GMT 50.143845 5.860917 38,000 305 396 0
2022-05-19 23:38:18 GMT 50.141228 5.866848 38,000 305 396 0
2022-05-19 23:38:16 GMT 50.139084 5.871686 38,000 305 396 0
2022-05-19 23:38:13 GMT 50.135689 5.879244 38,000 305 396 0
2022-05-19 23:38:10 GMT 50.133041 5.885275 38,000 305 396 0
2022-05-19 23:38:08 GMT 50.127960 5.896615 38,000 305 396 0
2022-05-19 23:38:05 GMT 50.127960 5.896615 38,000 305 396 0
2022-05-19 23:38:03 GMT 50.125305 5.902549 38,000 305 396 0
2022-05-19 23:38:00 GMT 50.119118 5.916435 38,000 305 396 0
2022-05-19 23:37:57 GMT 50.119118 5.916435 38,000 305 395 0
2022-05-19 23:37:54 GMT 50.113297 5.929499 38,000 305 395 0
2022-05-19 23:37:51 GMT 50.113297 5.929499 38,000 305 395 0
2022-05-19 23:37:49 GMT 50.108551 5.940134 38,000 305 395 0
2022-05-19 23:37:47 GMT 50.108551 5.940134 38,000 305 395 0
2022-05-19 23:37:44 GMT 50.106594 5.944494 38,000 305 395 0
2022-05-19 23:37:41 GMT 50.103474 5.951472 38,000 305 395 0
2022-05-19 23:37:39 GMT 50.099937 5.959415 38,000 305 395 0
2022-05-19 23:37:36 GMT 50.098263 5.963127 38,000 305 395 0
2022-05-19 23:37:34 GMT 50.095093 5.970202 38,000 305 395 64
2022-05-19 23:37:31 GMT 50.092392 5.976273 38,000 305 395 0
2022-05-19 23:37:29 GMT 50.087814 5.986537 38,000 305 395 0
2022-05-19 23:37:26 GMT 50.085617 5.991452 38,000 305 395 0
2022-05-19 23:37:24 GMT 50.085617 5.991452 38,000 305 395 0
2022-05-19 23:37:22 GMT 50.083458 5.996234 38,000 305 395 0
2022-05-19 23:37:19 GMT 50.080307 6.003306 38,000 305 395 0
2022-05-19 23:37:16 GMT 50.077148 6.010317 38,000 305 395 0
2022-05-19 23:37:13 GMT 50.073715 6.017978 38,000 305 395 0
2022-05-19 23:37:11 GMT 50.072193 6.021324 38,000 305 395 0
2022-05-19 23:37:09 GMT 50.068886 6.028748 38,000 305 395 0
2022-05-19 23:37:06 GMT 50.066792 6.033424 38,000 305 395 0
2022-05-19 23:37:03 GMT 50.064148 6.039300 38,000 305 395 0
2022-05-19 23:37:01 GMT 50.061485 6.045227 38,000 305 395 0
2022-05-19 23:36:59 GMT 50.059250 6.050287 38,000 305 395 0
2022-05-19 23:36:56 GMT 50.056137 6.057225 38,000 305 394 0
2022-05-19 23:36:53 GMT 50.048447 6.074355 38,000 305 394 0
2022-05-19 23:36:50 GMT 50.048447 6.074355 38,000 305 394 0
2022-05-19 23:36:46 GMT 50.045238 6.081452 38,000 305 395 0
2022-05-19 23:36:43 GMT 50.043228 6.085992 38,000 305 395 0
2022-05-19 23:36:41 GMT 50.040710 6.091558 38,000 305 394 0
2022-05-19 23:36:39 GMT 50.038673 6.096076 38,000 305 394 0
2022-05-19 23:36:36 GMT 50.032791 6.109194 38,000 305 394 64
2022-05-19 23:36:34 GMT 50.032791 6.109194 38,000 305 394 0
2022-05-19 23:36:31 GMT 50.029907 6.115626 38,000 305 394 0
2022-05-19 23:36:29 GMT 50.027893 6.120035 38,000 305 394 0
2022-05-19 23:36:26 GMT 50.024849 6.126882 38,000 305 394 0
2022-05-19 23:36:24 GMT 50.022720 6.131600 38,000 305 394 0
2022-05-19 23:36:21 GMT 50.020111 6.137382 38,000 305 394 64
2022-05-19 23:36:19 GMT 50.017914 6.142225 38,000 305 394 64
2022-05-19 23:36:16 GMT 50.014069 6.150826 37,975 305 394 64
2022-05-19 23:36:13 GMT 50.010696 6.158282 38,000 305 394 64
2022-05-19 23:36:09 GMT 50.003716 6.173797 37,975 306 393 0
2022-05-19 23:36:04 GMT 50.001343 6.178942 37,975 306 393 0
2022-05-19 23:36:01 GMT 49.998825 6.184635 37,975 305 392 0
2022-05-19 23:35:59 GMT 49.995800 6.191316 37,975 305 392 0
2022-05-19 23:35:56 GMT 49.993286 6.196883 37,975 305 392 0
2022-05-19 23:35:53 GMT 49.991043 6.201855 37,975 305 392 0
2022-05-19 23:35:51 GMT 49.988480 6.207565 37,975 305 392 0
2022-05-19 23:35:49 GMT 49.986465 6.211973 37,975 305 392 0
2022-05-19 23:35:47 GMT 49.983902 6.217756 37,975 305 392 0
2022-05-19 23:35:44 GMT 49.979599 6.227152 37,975 305 392 0
2022-05-19 23:35:41 GMT 49.978016 6.230733 37,975 306 392 0
2022-05-19 23:35:39 GMT 49.974899 6.237636 37,975 306 392 0
2022-05-19 23:35:36 GMT 49.972385 6.243129 37,975 306 392 0
2022-05-19 23:35:33 GMT 49.969406 6.249810 37,975 306 391 0
2022-05-19 23:35:31 GMT 49.966797 6.255600 37,975 306 391 0
2022-05-19 23:35:28 GMT 49.963585 6.262652 37,975 306 391 0
2022-05-19 23:35:25 GMT 49.960884 6.268591 37,975 306 391 0
2022-05-19 23:35:22 GMT 49.957901 6.275145 37,975 306 391 0
2022-05-19 23:35:19 GMT 49.955200 6.281144 37,975 306 391 0
2022-05-19 23:35:17 GMT 49.953049 6.285914 37,975 306 391 0
2022-05-19 23:35:15 GMT 49.951530 6.289227 37,975 306 391 0
2022-05-19 23:35:13 GMT 49.949341 6.294053 37,975 306 391 0
2022-05-19 23:35:10 GMT 49.946220 6.300882 37,975 306 391 0
2022-05-19 23:35:07 GMT 49.942684 6.308676 37,975 306 391 0
2022-05-19 23:35:05 GMT 49.941147 6.312091 37,975 306 391 0
2022-05-19 23:35:03 GMT 49.939224 6.316344 37,975 306 391 0
2022-05-19 23:35:01 GMT 49.936020 6.323427 37,975 306 391 0
2022-05-19 23:34:58 GMT 49.931046 6.334360 37,975 306 391 0
2022-05-19 23:34:56 GMT 49.931046 6.334360 37,975 306 391 0
2022-05-19 23:34:53 GMT 49.928577 6.339779 37,975 306 391 0
2022-05-19 23:34:51 GMT 49.925785 6.346015 37,975 306 391 0
2022-05-19 23:34:49 GMT 49.924255 6.349303 37,975 306 391 0
2022-05-19 23:34:47 GMT 49.921783 6.354796 37,975 305 390 0
2022-05-19 23:34:45 GMT 49.916660 6.366132 37,975 305 390 0
2022-05-19 23:34:42 GMT 49.913868 6.372367 37,975 305 391 0
2022-05-19 23:34:39 GMT 49.911263 6.378083 37,975 305 390 0
2022-05-19 23:34:37 GMT 49.911263 6.378083 37,975 305 390 0
2022-05-19 23:34:35 GMT 49.907913 6.385514 37,975 305 390 0
2022-05-19 23:34:33 GMT 49.905853 6.390068 37,975 305 390 0
2022-05-19 23:34:31 GMT 49.905853 6.390068 37,975 305 390 0
2022-05-19 23:34:28 GMT 49.901550 6.399753 37,975 305 390 0
2022-05-19 23:34:25 GMT 49.899017 6.405326 37,975 305 389 0
2022-05-19 23:34:23 GMT 49.897575 6.408518 37,975 305 390 0
2022-05-19 23:34:20 GMT 49.895153 6.414086 37,975 305 389 0
2022-05-19 23:34:18 GMT 49.892715 6.419485 37,975 305 390 0
2022-05-19 23:34:16 GMT 49.890636 6.424181 37,975 305 390 0
2022-05-19 23:34:14 GMT 49.888138 6.429821 37,975 305 389 0
2022-05-19 23:34:12 GMT 49.885391 6.435964 37,975 305 389 0
2022-05-19 23:34:09 GMT 49.882816 6.441848 37,975 305 388 -64
2022-05-19 23:34:06 GMT 49.879559 6.449197 37,975 305 388 -64
2022-05-19 23:34:03 GMT 49.876373 6.456419 37,975 305 388 0
2022-05-19 23:34:00 GMT 49.874359 6.461045 37,975 305 387 0
2022-05-19 23:33:58 GMT 49.872204 6.465899 37,975 305 385 0
2022-05-19 23:33:56 GMT 49.869503 6.472135 37,975 305 386 0
2022-05-19 23:33:53 GMT 49.866943 6.478074 37,975 305 385 0
2022-05-19 23:33:51 GMT 49.863968 6.484825 37,975 305 383 64
2022-05-19 23:33:48 GMT 49.862148 6.488986 37,975 305 383 64
2022-05-19 23:33:45 GMT 49.859077 6.496038 37,950 305 383 128
2022-05-19 23:33:42 GMT 49.856049 6.502967 37,950 305 383 128
2022-05-19 23:33:40 GMT 49.852234 6.511626 37,950 305 381 192
2022-05-19 23:33:38 GMT 49.852234 6.511626 37,950 305 381 192
2022-05-19 23:33:36 GMT 49.850189 6.516266 37,925 305 380 128
2022-05-19 23:33:34 GMT 49.848137 6.520905 37,925 305 381 128
2022-05-19 23:33:32 GMT 49.846180 6.525359 37,925 305 380 64
2022-05-19 23:33:30 GMT 49.843597 6.531083 37,925 305 380 0
2022-05-19 23:33:28 GMT 49.842224 6.534191 37,925 306 380 0
2022-05-19 23:33:26 GMT 49.840302 6.538383 37,925 306 380 0
2022-05-19 23:33:23 GMT 49.836319 6.547056 37,925 306 381 0
2022-05-19 23:33:20 GMT 49.834126 6.551786 37,925 307 381 0
2022-05-19 23:33:18 GMT 49.832016 6.556308 37,925 307 381 0
2022-05-19 23:33:15 GMT 49.829178 6.562235 37,925 308 382 0
2022-05-19 23:33:12 GMT 49.825378 6.570041 37,925 308 382 0
2022-05-19 23:33:09 GMT 49.821182 6.578361 37,925 309 384 -64
2022-05-19 23:33:06 GMT 49.819061 6.582545 37,925 310 384 0
2022-05-19 23:33:03 GMT 49.815582 6.589123 37,925 310 384 0
2022-05-19 23:33:00 GMT 49.810638 6.598446 37,925 299 381 0
2022-05-19 23:32:58 GMT 49.807449 6.604491 37,925 310 383 0
2022-05-19 23:32:56 GMT 49.804379 6.610206 37,925 310 384 64
2022-05-19 23:32:53 GMT 49.802700 6.613324 37,925 309 384 64
2022-05-19 23:32:49 GMT 49.799351 6.619782 37,925 307 383 64
2022-05-19 23:32:46 GMT 49.793343 6.632328 37,925 301 381 -64
2022-05-19 23:32:43 GMT 49.793343 6.632328 37,925 303 381 0
2022-05-19 23:32:41 GMT 49.791870 6.635814 37,925 302 382 -64
2022-05-19 23:32:39 GMT 49.789169 6.642536 37,925 299 381 -64
2022-05-19 23:32:36 GMT 49.784225 6.656703 37,950 295 381 -64
2022-05-19 23:32:30 GMT 49.782593 6.661946 37,950 294 381 0
2022-05-19 23:32:28 GMT 49.781067 6.667039 37,950 294 381 0
2022-05-19 23:32:26 GMT 49.778030 6.677832 37,950 294 381 -64
2022-05-19 23:32:23 GMT 49.778030 6.677832 37,950 294 381 -64
2022-05-19 23:32:21 GMT 49.775940 6.685181 37,975 294 382 -64
2022-05-19 23:32:18 GMT 49.774109 6.691686 37,975 294 383 -64
2022-05-19 23:32:16 GMT 49.772736 6.696673 37,975 294 383 -64
2022-05-19 23:32:13 GMT 49.770767 6.703590 37,950 294 383 -64
2022-05-19 23:32:11 GMT 49.768391 6.712053 37,950 294 383 -64
2022-05-19 23:32:08 GMT 49.767277 6.716061 37,975 294 384 -64
2022-05-19 23:32:06 GMT 49.765228 6.723336 37,950 294 383 -64
2022-05-19 23:32:03 GMT 49.762253 6.734041 37,975 294 384 -64
2022-05-19 23:32:01 GMT 49.762253 6.734041 37,975 294 384 -64
2022-05-19 23:31:59 GMT 49.760422 6.740546 37,975 294 384 -64
2022-05-19 23:31:55 GMT 49.755638 6.757557 37,975 294 385 0
2022-05-19 23:31:51 GMT 49.754520 6.761565 37,975 294 386 0
2022-05-19 23:31:48 GMT 49.751495 6.772403 37,975 294 385 0
2022-05-19 23:31:46 GMT 49.751495 6.772403 37,975 294 385 0
2022-05-19 23:31:44 GMT 49.749771 6.778490 37,975 294 386 0
2022-05-19 23:31:41 GMT 49.747284 6.787455 37,975 294 386 64
2022-05-19 23:31:38 GMT 49.745209 6.794895 37,975 294 387 64
2022-05-19 23:31:35 GMT 49.743027 6.802633 37,975 294 387 0
2022-05-19 23:31:32 GMT 49.741627 6.807589 37,975 294 387 0
2022-05-19 23:31:30 GMT 49.739914 6.813836 37,975 294 388 0
2022-05-19 23:31:28 GMT 49.738461 6.819021 37,975 294 390 0
2022-05-19 23:31:26 GMT 49.737293 6.823104 37,975 294 390 -64
2022-05-19 23:31:24 GMT 49.733047 6.838266 37,975 294 391 -64
2022-05-19 23:31:21 GMT 49.733047 6.838266 37,975 294 391 -64
2022-05-19 23:31:18 GMT 49.731384 6.844260 37,975 294 391 0
2022-05-19 23:31:16 GMT 49.729939 6.849382 37,975 294 391 0
2022-05-19 23:31:13 GMT 49.728172 6.855766 37,975 294 391 0
2022-05-19 23:31:11 GMT 49.726311 6.862447 37,975 294 391 0
2022-05-19 23:31:09 GMT 49.725220 6.866455 37,975 294 391 0
2022-05-19 23:31:07 GMT 49.721748 6.878852 37,975 294 391 0
2022-05-19 23:31:04 GMT 49.721748 6.878852 37,975 294 391 0
2022-05-19 23:31:01 GMT 49.719093 6.888354 37,975 294 391 0
2022-05-19 23:30:58 GMT 49.717300 6.894933 37,975 294 391 0
2022-05-19 23:30:56 GMT 49.715790 6.900281 37,975 294 391 0
2022-05-19 23:30:54 GMT 49.714005 6.906714 37,975 294 391 0
2022-05-19 23:30:51 GMT 49.710575 6.919160 37,975 294 391 0
2022-05-19 23:30:49 GMT 49.710575 6.919160 37,975 294 391 0
2022-05-19 23:30:47 GMT 49.709610 6.922615 37,975 294 391 0
2022-05-19 23:30:44 GMT 49.705261 6.938517 37,975 294 391 0
2022-05-19 23:30:41 GMT 49.702801 6.947368 37,975 294 391 0
2022-05-19 23:30:38 GMT 49.702801 6.947368 37,975 294 391 0
2022-05-19 23:30:35 GMT 49.700893 6.954271 37,975 294 391 0
2022-05-19 23:30:32 GMT 49.699078 6.960952 37,975 293 390 0
2022-05-19 23:30:30 GMT 49.697121 6.968153 37,975 293 390 0
2022-05-19 23:30:28 GMT 49.696003 6.972236 37,975 293 390 0
2022-05-19 23:30:25 GMT 49.693588 6.981089 37,975 293 390 0
2022-05-19 23:30:22 GMT 49.692032 6.986726 37,975 293 390 0
2022-05-19 23:30:20 GMT 49.690323 6.993021 37,975 293 390 0
2022-05-19 23:30:18 GMT 49.689285 6.996701 37,975 293 390 0
2022-05-19 23:30:16 GMT 49.686600 7.006605 37,975 293 390 64
2022-05-19 23:30:12 GMT 49.684830 7.012989 37,975 293 390 64
2022-05-19 23:30:10 GMT 49.683014 7.019670 37,975 293 390 0
2022-05-19 23:30:07 GMT 49.680965 7.027093 37,975 293 390 0
2022-05-19 23:30:04 GMT 49.677658 7.039273 37,975 293 390 0
2022-05-19 23:30:02 GMT 49.677658 7.039273 37,975 293 390 0
2022-05-19 23:30:00 GMT 49.676220 7.044463 37,975 293 390 0
2022-05-19 23:29:58 GMT 49.674824 7.049585 37,975 293 389 0
2022-05-19 23:29:56 GMT 49.672588 7.057751 37,975 293 389 0
2022-05-19 23:29:52 GMT 49.670818 7.064209 37,975 293 388 0
2022-05-19 23:29:50 GMT 49.669701 7.068218 37,975 293 388 0
2022-05-19 23:29:48 GMT 49.667793 7.075121 37,975 293 388 0
2022-05-19 23:29:46 GMT 49.666397 7.080327 37,975 293 387 0
2022-05-19 23:29:42 GMT 49.663464 7.090858 37,975 293 386 64
2022-05-19 23:29:39 GMT 49.661591 7.097818 37,950 294 385 128
2022-05-19 23:29:37 GMT 49.660172 7.102878 37,950 293 385 192
2022-05-19 23:29:34 GMT 49.658432 7.109238 37,950 293 384 192
2022-05-19 23:29:32 GMT 49.657085 7.114093 37,925 293 384 192
2022-05-19 23:29:29 GMT 49.654991 7.121665 37,925 293 384 128
2022-05-19 23:29:27 GMT 49.652985 7.129115 37,925 293 383 64
2022-05-19 23:29:24 GMT 49.651638 7.133987 37,950 293 383 0
2022-05-19 23:29:22 GMT 49.648102 7.146755 37,925 293 383 0
2022-05-19 23:29:19 GMT 49.648102 7.146755 37,925 293 383 0
2022-05-19 23:29:17 GMT 49.646053 7.154327 37,925 293 383 0
2022-05-19 23:29:14 GMT 49.642933 7.165610 37,925 293 383 0
2022-05-19 23:29:12 GMT 49.640945 7.173060 37,925 293 383 0
2022-05-19 23:29:09 GMT 49.639984 7.176530 37,925 293 383 0
2022-05-19 23:29:05 GMT 49.637955 7.183945 37,925 293 384 0
2022-05-19 23:29:02 GMT 49.636089 7.190774 37,925 293 384 -64
2022-05-19 23:28:59 GMT 49.633896 7.198647 37,925 293 384 0
2022-05-19 23:28:57 GMT 49.632366 7.204285 37,925 293 383 0
2022-05-19 23:28:54 GMT 49.630878 7.209852 37,925 293 383 0
2022-05-19 23:28:52 GMT 49.629135 7.216283 37,925 293 384 0
2022-05-19 23:28:49 GMT 49.627434 7.222397 37,925 293 384 0
2022-05-19 23:28:47 GMT 49.626297 7.226619 37,925 293 384 0
2022-05-19 23:28:45 GMT 49.625015 7.231389 37,925 293 385 64
2022-05-19 23:28:43 GMT 49.623287 7.237838 37,925 293 388 -64
2022-05-19 23:28:41 GMT 49.621986 7.242588 37,925 293 385 0
2022-05-19 23:28:39 GMT 49.620392 7.248591 37,925 293 385 0
2022-05-19 23:28:36 GMT 49.618286 7.256397 37,925 293 386 0
2022-05-19 23:28:34 GMT 49.617188 7.260445 37,925 293 386 0
2022-05-19 23:28:32 GMT 49.615517 7.266640 37,925 293 386 0
2022-05-19 23:28:29 GMT 49.613792 7.272949 37,925 293 386 0
2022-05-19 23:28:27 GMT 49.612305 7.278591 37,925 293 386 0
2022-05-19 23:28:25 GMT 49.611237 7.282490 37,925 293 386 0
2022-05-19 23:28:23 GMT 49.606842 7.298753 37,925 293 388 -64
2022-05-19 23:28:20 GMT 49.606842 7.298753 37,925 293 388 -64
2022-05-19 23:28:17 GMT 49.604809 7.306279 37,950 293 388 -64
2022-05-19 23:28:14 GMT 49.603271 7.311847 37,950 293 389 -64
2022-05-19 23:28:11 GMT 49.601212 7.319352 37,950 293 389 -64
2022-05-19 23:28:09 GMT 49.599964 7.324095 37,950 293 389 -64
2022-05-19 23:28:07 GMT 49.597221 7.334042 37,950 293 390 -64
2022-05-19 23:28:05 GMT 49.595360 7.340946 37,950 293 390 -64
2022-05-19 23:28:03 GMT 49.593658 7.347179 37,950 293 390 -64
2022-05-19 23:28:00 GMT 49.593658 7.347179 37,950 293 390 -64
2022-05-19 23:27:58 GMT 49.592377 7.352022 37,950 293 390 -64
2022-05-19 23:27:56 GMT 49.590683 7.358238 37,950 293 390 -64
2022-05-19 23:27:54 GMT 49.589443 7.362993 37,950 293 391 -64
2022-05-19 23:27:51 GMT 49.587955 7.368337 37,975 293 391 -64
2022-05-19 23:27:49 GMT 49.585922 7.375946 37,975 293 391 -64
2022-05-19 23:27:47 GMT 49.582973 7.386821 37,975 293 392 -128
2022-05-19 23:27:45 GMT 49.582973 7.386821 37,975 293 392 -64
2022-05-19 23:27:42 GMT 49.580460 7.396397 37,975 293 392 -64
2022-05-19 23:27:39 GMT 49.579376 7.400376 37,975 293 392 -64
2022-05-19 23:27:37 GMT 49.577530 7.407235 38,000 293 393 -64
2022-05-19 23:27:35 GMT 49.576550 7.410798 38,000 293 393 -64
2022-05-19 23:27:33 GMT 49.574688 7.417776 38,000 293 393 0
2022-05-19 23:27:30 GMT 49.572781 7.425050 38,000 293 394 -64
2022-05-19 23:27:28 GMT 49.570080 7.435146 38,000 293 394 0
2022-05-19 23:27:24 GMT 49.568390 7.441503 38,025 293 395 -64
2022-05-19 23:27:22 GMT 49.567005 7.446578 38,000 294 398 64
2022-05-19 23:27:19 GMT 49.564865 7.454595 38,000 293 396 -64
2022-05-19 23:27:16 GMT 49.563538 7.459645 38,000 293 396 -64
2022-05-19 23:27:14 GMT 49.561840 7.466027 38,000 302 401 -64
2022-05-19 23:27:11 GMT 49.559692 7.473956 38,000 293 397 0
2022-05-19 23:27:09 GMT 49.558273 7.479160 38,000 303 402 -64
2022-05-19 23:27:06 GMT 49.556488 7.485665 38,000 294 397 64
2022-05-19 23:27:04 GMT 49.552597 7.499687 38,000 294 398 64
2022-05-19 23:27:02 GMT 49.552597 7.499687 38,000 295 399 0
2022-05-19 23:26:59 GMT 49.550621 7.506260 38,000 296 399 0
2022-05-19 23:26:57 GMT 49.549576 7.509734 38,000 297 399 0
2022-05-19 23:26:55 GMT 49.547882 7.515082 38,000 298 400 0
2022-05-19 23:26:53 GMT 49.546509 7.519130 38,000 299 401 0
2022-05-19 23:26:51 GMT 49.544289 7.525486 38,000 300 400 -64
2022-05-19 23:26:49 GMT 49.542068 7.531562 38,000 302 402 -128
2022-05-19 23:26:46 GMT 49.539597 7.537922 38,000 304 402 -64
2022-05-19 23:26:43 GMT 49.534561 7.549920 38,000 304 402 -64
2022-05-19 23:26:40 GMT 49.531219 7.557148 38,025 306 403 -64
2022-05-19 23:26:38 GMT 49.531219 7.557148 38,025 306 403 0
2022-05-19 23:26:36 GMT 49.529617 7.560690 38,025 306 403 0
2022-05-19 23:26:34 GMT 49.526924 7.566388 38,025 306 403 -64
2022-05-19 23:26:32 GMT 49.524811 7.570881 38,025 306 404 -64
2022-05-19 23:26:29 GMT 49.519382 7.582348 38,025 306 405 0
2022-05-19 23:26:27 GMT 49.519382 7.582348 38,025 306 405 0
2022-05-19 23:26:25 GMT 49.517616 7.586060 38,025 306 405 0
2022-05-19 23:26:23 GMT 49.515472 7.590613 38,025 306 405 0
2022-05-19 23:26:21 GMT 49.513184 7.595528 38,025 306 406 0
2022-05-19 23:26:19 GMT 49.507515 7.607513 38,025 306 406 0
2022-05-19 23:26:16 GMT 49.507515 7.607513 38,025 306 406 0
2022-05-19 23:26:14 GMT 49.504807 7.613236 38,025 306 406 0
2022-05-19 23:26:11 GMT 49.502113 7.618944 38,025 306 407 0
2022-05-19 23:26:09 GMT 49.499458 7.624586 38,025 306 407 64
2022-05-19 23:26:07 GMT 49.497131 7.629485 38,025 306 407 0
2022-05-19 23:26:05 GMT 49.495411 7.633197 38,025 306 407 0
2022-05-19 23:26:02 GMT 49.488373 7.648075 38,025 306 408 0
2022-05-19 23:25:59 GMT 49.486267 7.652556 38,000 306 408 0
2022-05-19 23:25:57 GMT 49.486267 7.652556 38,000 306 408 0
2022-05-19 23:25:55 GMT 49.483864 7.657619 38,000 306 408 0
2022-05-19 23:25:53 GMT 49.482655 7.660143 38,025 306 409 0
2022-05-19 23:25:51 GMT 49.479443 7.666972 38,000 306 410 0
2022-05-19 23:25:48 GMT 49.475346 7.675658 38,025 307 410 0
2022-05-19 23:25:45 GMT 49.473175 7.680311 38,025 306 410 0
2022-05-19 23:25:43 GMT 49.471390 7.683997 38,000 307 410 0
2022-05-19 23:25:41 GMT 49.465103 7.697333 38,000 307 410 0
2022-05-19 23:25:38 GMT 49.465103 7.697333 38,000 307 410 0
2022-05-19 23:25:35 GMT 49.461136 7.705680 38,025 307 410 0
2022-05-19 23:25:32 GMT 49.458729 7.710769 38,000 307 411 0
2022-05-19 23:25:29 GMT 49.452393 7.724039 38,025 307 412 -64
2022-05-19 23:25:27 GMT 49.452393 7.724039 38,025 307 412 0
2022-05-19 23:25:25 GMT 49.450535 7.727917 38,025 307 412 -64
2022-05-19 23:25:23 GMT 49.448090 7.733002 38,025 307 412 0
2022-05-19 23:25:21 GMT 49.445786 7.737790 38,025 307 413 0
2022-05-19 23:25:18 GMT 49.442368 7.745000 38,025 307 412 0
2022-05-19 23:25:15 GMT 49.439175 7.751671 38,025 307 412 0
2022-05-19 23:25:13 GMT 49.437424 7.755336 38,025 307 412 0
2022-05-19 23:25:11 GMT 49.435032 7.760430 38,025 307 412 0
2022-05-19 23:25:08 GMT 49.432251 7.766178 38,025 307 413 0
2022-05-19 23:25:06 GMT 49.429001 7.773044 38,025 307 413 0
2022-05-19 23:25:04 GMT 49.427258 7.776730 38,025 307 413 0
2022-05-19 23:25:01 GMT 49.423828 7.783954 38,025 307 413 0
2022-05-19 23:24:59 GMT 49.422134 7.787476 38,025 307 413 0
2022-05-19 23:24:57 GMT 49.419392 7.793282 38,025 306 413 0
2022-05-19 23:24:55 GMT 49.416641 7.799096 38,025 306 413 0
2022-05-19 23:24:53 GMT 49.413849 7.804941 38,025 306 413 0
2022-05-19 23:24:50 GMT 49.411606 7.809730 38,025 306 413 0
2022-05-19 23:24:48 GMT 49.408310 7.816700 38,025 307 414 0
2022-05-19 23:24:45 GMT 49.405376 7.822844 38,025 307 414 0
2022-05-19 23:24:43 GMT 49.403702 7.826458 38,025 307 414 0
2022-05-19 23:24:41 GMT 49.401260 7.831491 38,025 307 414 0
2022-05-19 23:24:38 GMT 49.397369 7.839685 38,025 306 415 0
2022-05-19 23:24:35 GMT 49.393936 7.846914 38,025 306 415 -64
2022-05-19 23:24:32 GMT 49.389908 7.855436 38,025 306 415 0
2022-05-19 23:24:29 GMT 49.388294 7.858911 38,025 307 415 64
2022-05-19 23:24:27 GMT 49.382755 7.870548 38,025 307 414 0
2022-05-19 23:24:25 GMT 49.382755 7.870548 38,025 307 414 0
2022-05-19 23:24:23 GMT 49.381119 7.873958 38,025 307 414 0
2022-05-19 23:24:21 GMT 49.377678 7.881245 38,025 307 415 64
2022-05-19 23:24:18 GMT 49.374802 7.887268 38,025 307 415 0
2022-05-19 23:24:15 GMT 49.371395 7.894472 38,025 307 414 0
2022-05-19 23:24:12 GMT 49.368694 7.900182 38,025 307 415 64
2022-05-19 23:24:09 GMT 49.365005 7.907903 38,025 307 415 64
2022-05-19 23:24:06 GMT 49.362129 7.913915 38,025 307 415 64
2022-05-19 23:24:04 GMT 49.360153 7.918044 38,025 307 415 64
2022-05-19 23:24:02 GMT 49.356777 7.925046 38,000 307 415 0
2022-05-19 23:23:59 GMT 49.350861 7.937481 38,000 307 415 64
2022-05-19 23:23:56 GMT 49.350861 7.937481 38,025 307 415 64
2022-05-19 23:23:54 GMT 49.346489 7.946585 38,025 307 415 64
2022-05-19 23:23:52 GMT 49.346489 7.946585 38,000 307 415 0
2022-05-19 23:23:50 GMT 49.343170 7.953609 38,025 307 415 0
2022-05-19 23:23:48 GMT 49.341557 7.957065 38,025 307 415 0
2022-05-19 23:23:46 GMT 49.339043 7.962269 38,000 307 415 0
2022-05-19 23:23:44 GMT 49.337402 7.965722 38,000 307 415 0
2022-05-19 23:23:42 GMT 49.334618 7.971521 38,025 307 415 0
2022-05-19 23:23:39 GMT 49.331406 7.978328 38,025 307 415 0
2022-05-19 23:23:37 GMT 49.329803 7.981638 38,000 307 415 0
2022-05-19 23:23:35 GMT 49.326939 7.987639 38,000 307 415 0
2022-05-19 23:23:33 GMT 49.324173 7.993469 38,025 307 415 0
2022-05-19 23:23:31 GMT 49.322979 7.995951 38,000 307 415 0
2022-05-19 23:23:29 GMT 49.317719 8.006991 38,025 307 415 0
2022-05-19 23:23:27 GMT 49.317719 8.006991 38,025 307 415 0
2022-05-19 23:23:25 GMT 49.315811 8.010840 38,000 307 415 0
2022-05-19 23:23:22 GMT 49.311584 8.019738 38,000 307 415 0
2022-05-19 23:23:19 GMT 49.308224 8.026741 38,000 307 415 0
2022-05-19 23:23:17 GMT 49.306366 8.030654 38,025 307 415 0
2022-05-19 23:23:15 GMT 49.301567 8.040691 38,000 307 415 0
2022-05-19 23:23:13 GMT 49.301567 8.040691 38,000 307 415 0
2022-05-19 23:23:11 GMT 49.299286 8.045389 38,000 307 415 0
2022-05-19 23:23:09 GMT 49.297562 8.048931 38,025 307 415 0
2022-05-19 23:23:07 GMT 49.294785 8.054739 38,000 307 415 0
2022-05-19 23:23:05 GMT 49.292583 8.059339 38,000 307 415 64
2022-05-19 23:23:03 GMT 49.288624 8.067579 38,000 307 415 64
2022-05-19 23:23:01 GMT 49.284668 8.075891 38,000 307 415 64
2022-05-19 23:22:58 GMT 49.284668 8.075891 38,000 307 415 64
2022-05-19 23:22:56 GMT 49.282333 8.080726 38,000 307 415 64
2022-05-19 23:22:54 GMT 49.280090 8.085445 38,000 307 414 64
2022-05-19 23:22:51 GMT 49.275558 8.094881 38,000 307 414 64
2022-05-19 23:22:48 GMT 49.273773 8.098514 38,000 307 414 64
2022-05-19 23:22:46 GMT 49.271118 8.104107 38,000 307 414 64
2022-05-19 23:22:44 GMT 49.269424 8.107628 38,000 307 414 64
2022-05-19 23:22:41 GMT 49.261997 8.123016 38,000 307 414 0
2022-05-19 23:22:38 GMT 49.261997 8.123016 37,975 307 414 0
2022-05-19 23:22:36 GMT 49.259624 8.128004 37,975 307 414 0
2022-05-19 23:22:34 GMT 49.256550 8.134364 37,975 307 414 64
2022-05-19 23:22:31 GMT 49.254089 8.139390 38,000 307 414 0
2022-05-19 23:22:28 GMT 49.249989 8.147952 37,975 307 414 0
2022-05-19 23:22:26 GMT 49.246490 8.155165 37,975 307 414 0
2022-05-19 23:22:24 GMT 49.243011 8.162419 37,975 307 414 0
2022-05-19 23:22:21 GMT 49.243011 8.162419 37,975 307 413 0
2022-05-19 23:22:18 GMT 49.239559 8.169564 38,000 307 413 0
2022-05-19 23:22:14 GMT 49.234268 8.180519 37,975 307 413 64
2022-05-19 23:22:11 GMT 49.231274 8.186694 37,975 307 413 64
2022-05-19 23:22:09 GMT 49.228897 8.191609 37,975 307 413 64
2022-05-19 23:22:07 GMT 49.226669 8.196223 37,975 307 413 64
2022-05-19 23:22:04 GMT 49.222660 8.204546 37,975 307 412 0
2022-05-19 23:22:01 GMT 49.220810 8.208407 37,975 307 412 0
2022-05-19 23:21:59 GMT 49.217911 8.214376 37,975 307 412 0
2022-05-19 23:21:57 GMT 49.215729 8.218971 37,975 307 412 0
2022-05-19 23:21:54 GMT 49.212372 8.225869 37,975 307 412 64
2022-05-19 23:21:51 GMT 49.209023 8.232880 37,975 307 412 0
2022-05-19 23:21:49 GMT 49.206573 8.237915 37,975 307 412 0
2022-05-19 23:21:47 GMT 49.203781 8.243760 37,975 307 412 0
2022-05-19 23:21:44 GMT 49.200546 8.250371 37,975 307 412 64
2022-05-19 23:21:41 GMT 49.197849 8.256009 37,975 307 412 64
2022-05-19 23:21:39 GMT 49.194992 8.262000 37,975 307 411 64
2022-05-19 23:21:37 GMT 49.192680 8.266778 37,975 307 411 64
2022-05-19 23:21:34 GMT 49.186111 8.280381 37,950 307 409 64
2022-05-19 23:21:31 GMT 49.186111 8.280381 37,950 307 410 64
2022-05-19 23:21:28 GMT 49.182903 8.287088 37,950 307 410 64
2022-05-19 23:21:26 GMT 49.181168 8.290663 37,950 307 411 64
2022-05-19 23:21:24 GMT 49.175995 8.301368 37,950 307 411 0
2022-05-19 23:21:22 GMT 49.175995 8.301368 37,950 307 410 0
2022-05-19 23:21:20 GMT 49.173065 8.307425 37,950 307 410 0
2022-05-19 23:21:17 GMT 49.171371 8.310946 37,950 307 409 0
2022-05-19 23:21:15 GMT 49.166473 8.320987 37,950 307 409 0
2022-05-19 23:21:13 GMT 49.163635 8.326932 37,950 307 409 0
2022-05-19 23:21:11 GMT 49.161304 8.331684 37,950 307 409 0
2022-05-19 23:21:08 GMT 49.161304 8.331684 37,950 307 409 0
2022-05-19 23:21:06 GMT 49.158920 8.336722 37,950 307 409 0
2022-05-19 23:21:04 GMT 49.156044 8.342598 37,950 307 409 0
2022-05-19 23:21:01 GMT 49.149853 8.355392 37,950 307 409 64
2022-05-19 23:20:58 GMT 49.149853 8.355392 37,950 307 409 64
2022-05-19 23:20:56 GMT 49.146500 8.362330 37,950 307 409 64
2022-05-19 23:20:54 GMT 49.140930 8.373765 37,950 307 409 64
2022-05-19 23:20:51 GMT 49.138138 8.379540 37,950 307 408 64
2022-05-19 23:20:48 GMT 49.136353 8.383273 37,950 307 408 0
2022-05-19 23:20:46 GMT 49.133560 8.389047 37,950 307 407 0
2022-05-19 23:20:44 GMT 49.133560 8.389047 37,950 307 408 -64
2022-05-19 23:20:42 GMT 49.131790 8.392615 37,950 307 408 -64
2022-05-19 23:20:40 GMT 49.129650 8.397024 37,950 307 408 -64
2022-05-19 23:20:38 GMT 49.125229 8.406090 37,950 307 408 -64
2022-05-19 23:20:36 GMT 49.125229 8.406090 37,950 307 407 -64
2022-05-19 23:20:34 GMT 49.121887 8.412992 37,950 307 407 -64
2022-05-19 23:20:32 GMT 49.120338 8.416106 37,950 307 407 -64
2022-05-19 23:20:29 GMT 49.116806 8.423415 37,950 307 407 -64
2022-05-19 23:20:26 GMT 49.113960 8.429260 37,950 307 407 0
2022-05-19 23:20:24 GMT 49.111076 8.435259 37,950 307 407 0
2022-05-19 23:20:22 GMT 49.109070 8.439261 37,950 307 407 -64
2022-05-19 23:20:20 GMT 49.107677 8.442126 37,950 307 407 -64
2022-05-19 23:20:18 GMT 49.104263 8.449120 37,950 307 407 0
2022-05-19 23:20:16 GMT 49.102570 8.452571 37,950 307 406 0
2022-05-19 23:20:13 GMT 49.098598 8.460701 37,950 307 406 0
2022-05-19 23:20:10 GMT 49.096272 8.465544 37,950 307 406 0
2022-05-19 23:20:08 GMT 49.093662 8.470820 37,950 307 406 0
2022-05-19 23:20:06 GMT 49.091492 8.475318 37,950 307 406 0
2022-05-19 23:20:04 GMT 49.088776 8.480939 37,975 307 406 0
2022-05-19 23:20:02 GMT 49.086456 8.485600 37,950 307 406 0
2022-05-19 23:20:00 GMT 49.085220 8.488136 37,950 307 406 0
2022-05-19 23:19:57 GMT 49.077850 8.503277 37,950 307 406 -64
2022-05-19 23:19:54 GMT 49.077850 8.503277 37,975 307 406 -64
2022-05-19 23:19:52 GMT 49.075462 8.508188 37,950 307 406 -64
2022-05-19 23:19:50 GMT 49.073822 8.511517 37,975 307 406 -64
2022-05-19 23:19:47 GMT 49.070023 8.519334 37,975 307 406 -64
2022-05-19 23:19:45 GMT 49.067410 8.524740 37,975 307 406 0
2022-05-19 23:19:42 GMT 49.062614 8.534570 37,975 307 406 0
2022-05-19 23:19:38 GMT 49.059822 8.540280 37,975 307 406 -64
2022-05-19 23:19:36 GMT 49.057213 8.545556 37,975 307 406 -64
2022-05-19 23:19:34 GMT 49.054977 8.550110 37,975 307 406 0
2022-05-19 23:19:32 GMT 49.052883 8.554519 37,975 307 406 0
2022-05-19 23:19:29 GMT 49.050476 8.559406 37,975 307 406 0
2022-05-19 23:19:27 GMT 49.047638 8.565110 37,975 307 406 0
2022-05-19 23:19:25 GMT 49.042782 8.575118 37,975 307 406 0
2022-05-19 23:19:23 GMT 49.042782 8.575118 37,975 307 406 0
2022-05-19 23:19:20 GMT 49.038483 8.583914 37,975 307 406 0
2022-05-19 23:19:17 GMT 49.036697 8.587576 37,975 307 406 0
2022-05-19 23:19:14 GMT 49.032761 8.595605 37,975 307 406 0
2022-05-19 23:19:12 GMT 49.030426 8.600393 37,975 307 407 0
2022-05-19 23:19:10 GMT 49.028679 8.603957 37,975 307 407 0
2022-05-19 23:19:07 GMT 49.025162 8.611168 37,975 307 407 0
2022-05-19 23:19:05 GMT 49.022141 8.617366 37,975 307 407 0
2022-05-19 23:19:02 GMT 49.019367 8.623039 37,975 307 407 0
2022-05-19 23:19:00 GMT 49.017517 8.626803 37,975 307 407 0
2022-05-19 23:18:57 GMT 49.011639 8.638868 37,975 307 407 0
2022-05-19 23:18:55 GMT 49.011639 8.638868 37,975 307 407 0
2022-05-19 23:18:53 GMT 49.006622 8.649057 37,975 307 407 0
2022-05-19 23:18:51 GMT 49.006622 8.649057 37,975 307 407 0
2022-05-19 23:18:49 GMT 49.003864 8.654697 37,975 307 407 0
2022-05-19 23:18:46 GMT 49.001450 8.659621 37,975 307 407 0
2022-05-19 23:18:44 GMT 48.998657 8.665325 37,975 307 408 0
2022-05-19 23:18:42 GMT 48.997162 8.668430 37,975 307 408 0
2022-05-19 23:18:40 GMT 48.991390 8.680139 37,975 307 408 0
2022-05-19 23:18:37 GMT 48.991390 8.680139 37,975 307 408 0
2022-05-19 23:18:35 GMT 48.989712 8.683608 37,975 307 408 0
2022-05-19 23:18:33 GMT 48.986454 8.690186 37,975 307 408 0
2022-05-19 23:18:30 GMT 48.983597 8.696101 37,975 307 408 0
2022-05-19 23:18:27 GMT 48.979706 8.703991 37,975 307 408 0
2022-05-19 23:18:25 GMT 48.977562 8.708327 37,975 307 408 0
2022-05-19 23:18:22 GMT 48.972336 8.718989 37,975 307 408 0
2022-05-19 23:18:20 GMT 48.972336 8.718989 37,975 307 408 0
2022-05-19 23:18:17 GMT 48.968765 8.726180 37,975 307 408 64
2022-05-19 23:18:15 GMT 48.966705 8.730469 37,975 307 408 64
2022-05-19 23:18:13 GMT 48.963692 8.736516 37,975 307 408 0
2022-05-19 23:18:10 GMT 48.957500 8.749093 37,975 307 408 0
2022-05-19 23:18:07 GMT 48.957500 8.749093 37,975 307 408 0
2022-05-19 23:18:05 GMT 48.954620 8.754906 37,975 307 408 0
2022-05-19 23:18:02 GMT 48.951691 8.760892 37,975 307 408 0
2022-05-19 23:17:59 GMT 48.948441 8.767512 37,975 307 408 0
2022-05-19 23:17:56 GMT 48.945301 8.773884 37,975 307 408 0
2022-05-19 23:17:54 GMT 48.943394 8.777715 37,975 307 408 0
2022-05-19 23:17:52 GMT 48.940556 8.783497 37,975 307 408 0
2022-05-19 23:17:49 GMT 48.937683 8.789274 37,975 307 408 0
2022-05-19 23:17:47 GMT 48.934921 8.794917 37,975 307 408 0
2022-05-19 23:17:45 GMT 48.933060 8.798711 37,975 307 408 0
2022-05-19 23:17:43 GMT 48.930172 8.804530 37,975 307 408 0
2022-05-19 23:17:41 GMT 48.928436 8.808077 37,975 307 408 0
2022-05-19 23:17:38 GMT 48.924633 8.815733 37,975 307 408 0
2022-05-19 23:17:36 GMT 48.921844 8.821388 37,975 307 408 0
2022-05-19 23:17:33 GMT 48.918861 8.827442 38,000 307 408 -64
2022-05-19 23:17:31 GMT 48.917698 8.829755 37,975 307 408 0
2022-05-19 23:17:29 GMT 48.914841 8.835543 37,975 307 408 -64
2022-05-19 23:17:27 GMT 48.911739 8.841826 37,975 307 408 -64
2022-05-19 23:17:24 GMT 48.908386 8.848642 37,975 307 409 -64
2022-05-19 23:17:21 GMT 48.905918 8.853535 38,000 307 409 -64
2022-05-19 23:17:19 GMT 48.903625 8.858220 37,975 307 409 -64
2022-05-19 23:17:17 GMT 48.898178 8.869206 38,000 307 409 -64
2022-05-19 23:17:15 GMT 48.898178 8.869206 38,000 307 409 -64
2022-05-19 23:17:12 GMT 48.896027 8.873573 38,000 307 409 -64
2022-05-19 23:17:10 GMT 48.892593 8.880474 38,000 307 409 -64
2022-05-19 23:17:07 GMT 48.890415 8.884904 38,000 307 409 0
2022-05-19 23:17:05 GMT 48.887375 8.890968 38,000 307 409 0
2022-05-19 23:17:03 GMT 48.884995 8.895757 38,000 307 409 0
2022-05-19 23:17:01 GMT 48.883247 8.899359 38,000 307 409 0
2022-05-19 23:16:59 GMT 48.879616 8.906660 38,000 307 409 0
2022-05-19 23:16:56 GMT 48.877243 8.911430 38,000 307 408 0
2022-05-19 23:16:53 GMT 48.873287 8.919453 38,000 307 408 0
2022-05-19 23:16:51 GMT 48.871948 8.922096 38,000 307 408 0
2022-05-19 23:16:49 GMT 48.869568 8.926885 38,000 307 409 0
2022-05-19 23:16:46 GMT 48.864300 8.937595 38,000 307 410 0
2022-05-19 23:16:42 GMT 48.861603 8.943088 38,000 307 410 0
2022-05-19 23:16:39 GMT 48.854828 8.956674 38,000 307 410 0
2022-05-19 23:16:36 GMT 48.854828 8.956674 38,000 307 410 0
2022-05-19 23:16:33 GMT 48.850891 8.964703 38,000 307 410 0
2022-05-19 23:16:31 GMT 48.849197 8.968154 38,000 307 410 0
2022-05-19 23:16:29 GMT 48.846844 8.972867 38,000 307 410 64
2022-05-19 23:16:26 GMT 48.843384 8.979844 38,000 307 410 0
2022-05-19 23:16:23 GMT 48.839954 8.986889 38,000 307 410 64
2022-05-19 23:16:21 GMT 48.836651 8.993538 38,000 307 410 128
2022-05-19 23:16:18 GMT 48.834927 8.996935 38,000 307 410 128
2022-05-19 23:16:16 GMT 48.832226 9.002501 37,975 307 410 128
2022-05-19 23:16:14 GMT 48.827572 9.011897 37,975 307 410 128
2022-05-19 23:16:12 GMT 48.827572 9.011897 37,975 307 410 128
2022-05-19 23:16:10 GMT 48.824036 9.018980 37,975 307 410 64
2022-05-19 23:16:07 GMT 48.821754 9.023606 37,975 307 410 0
2022-05-19 23:16:05 GMT 48.818253 9.030621 37,975 307 411 0
2022-05-19 23:16:02 GMT 48.816074 9.035098 37,975 307 411 0
2022-05-19 23:15:59 GMT 48.811981 9.043227 37,975 308 412 0
2022-05-19 23:15:56 GMT 48.807926 9.051361 37,975 308 412 0
2022-05-19 23:15:53 GMT 48.803421 9.060481 37,975 308 412 0
2022-05-19 23:15:51 GMT 48.800766 9.065693 37,975 308 412 0
2022-05-19 23:15:49 GMT 48.800766 9.065693 37,975 308 412 0
2022-05-19 23:15:46 GMT 48.797218 9.072900 37,975 308 412 0
2022-05-19 23:15:43 GMT 48.793671 9.079989 37,975 308 412 -64
2022-05-19 23:15:41 GMT 48.791912 9.083525 37,975 308 412 -64
2022-05-19 23:15:39 GMT 48.789726 9.087862 37,975 308 412 -64
2022-05-19 23:15:36 GMT 48.786049 9.095234 37,975 308 412 -64
2022-05-19 23:15:34 GMT 48.784286 9.098792 37,975 308 412 -64
2022-05-19 23:15:31 GMT 48.780460 9.106510 37,975 308 411 0
2022-05-19 23:15:29 GMT 48.777622 9.112220 37,975 308 411 0
2022-05-19 23:15:26 GMT 48.773479 9.120459 37,975 308 411 64
2022-05-19 23:15:23 GMT 48.771698 9.124005 37,975 308 411 64
2022-05-19 23:15:21 GMT 48.768822 9.129856 37,975 308 411 64
2022-05-19 23:15:19 GMT 48.766727 9.133975 37,975 308 411 64
2022-05-19 23:15:17 GMT 48.761700 9.144094 37,975 308 412 64
2022-05-19 23:15:15 GMT 48.761700 9.144094 37,950 308 412 64
2022-05-19 23:15:12 GMT 48.758560 9.150414 37,950 308 412 64
2022-05-19 23:15:10 GMT 48.755741 9.156020 37,950 308 412 64
2022-05-19 23:15:07 GMT 48.753136 9.161297 37,950 308 412 64
2022-05-19 23:15:05 GMT 48.750481 9.166573 37,950 308 412 64
2022-05-19 23:15:02 GMT 48.746899 9.173729 37,950 308 412 64
2022-05-19 23:14:59 GMT 48.742893 9.181751 37,950 308 412 0
2022-05-19 23:14:56 GMT 48.739288 9.189007 37,950 308 413 -64
2022-05-19 23:14:53 GMT 48.737492 9.192521 37,950 308 412 -64
2022-05-19 23:14:51 GMT 48.734299 9.198867 37,950 308 414 0
2022-05-19 23:14:49 GMT 48.731323 9.204853 37,950 308 414 0
2022-05-19 23:14:46 GMT 48.728371 9.210735 37,950 308 414 -64
2022-05-19 23:14:44 GMT 48.726013 9.215417 37,950 308 413 -64
2022-05-19 23:14:41 GMT 48.722969 9.221505 37,950 308 413 -64
2022-05-19 23:14:39 GMT 48.719990 9.227504 37,950 308 413 -64
2022-05-19 23:14:36 GMT 48.717102 9.233286 37,975 308 414 -64
2022-05-19 23:14:33 GMT 48.713753 9.239936 37,975 308 414 -64
2022-05-19 23:14:30 GMT 48.711330 9.244778 37,975 308 414 -64
2022-05-19 23:14:27 GMT 48.706650 9.254080 37,975 308 414 -64
2022-05-19 23:14:25 GMT 48.705093 9.257210 37,975 308 414 0
2022-05-19 23:14:23 GMT 48.702812 9.261764 37,975 308 414 -64
2022-05-19 23:14:21 GMT 48.699226 9.268919 37,975 308 414 -64
2022-05-19 23:14:18 GMT 48.696899 9.273473 37,975 308 414 0
2022-05-19 23:14:16 GMT 48.694153 9.279038 37,975 308 414 0
2022-05-19 23:14:13 GMT 48.690708 9.285905 37,975 308 414 0
2022-05-19 23:14:10 GMT 48.687744 9.291828 37,975 308 414 0
2022-05-19 23:14:08 GMT 48.684471 9.298337 37,975 308 414 0
2022-05-19 23:14:05 GMT 48.682068 9.303096 37,975 308 414 0
2022-05-19 23:14:03 GMT 48.679642 9.307955 37,975 308 414 0
2022-05-19 23:14:00 GMT 48.674881 9.317490 37,975 308 415 -64
2022-05-19 23:13:57 GMT 48.671814 9.323590 37,975 308 415 0
2022-05-19 23:13:55 GMT 48.670830 9.325586 37,975 308 415 -64
2022-05-19 23:13:53 GMT 48.667896 9.331296 37,975 308 415 0
2022-05-19 23:13:51 GMT 48.664452 9.338234 37,975 308 415 0
2022-05-19 23:13:48 GMT 48.658447 9.350140 37,975 308 416 0
2022-05-19 23:13:45 GMT 48.658447 9.350140 37,975 308 416 0
2022-05-19 23:13:42 GMT 48.655060 9.356830 37,975 308 416 0
2022-05-19 23:13:40 GMT 48.649464 9.368013 37,975 308 416 0
2022-05-19 23:13:37 GMT 48.649464 9.368013 37,975 308 416 0
2022-05-19 23:13:34 GMT 48.645309 9.376197 37,975 308 416 0
2022-05-19 23:13:31 GMT 48.641830 9.383099 37,975 308 416 0
2022-05-19 23:13:28 GMT 48.639267 9.388170 37,975 308 416 0
2022-05-19 23:13:26 GMT 48.635731 9.395190 37,975 308 416 64
2022-05-19 23:13:24 GMT 48.632938 9.400755 37,975 308 416 64
2022-05-19 23:13:21 GMT 48.629517 9.407536 37,975 308 416 0
2022-05-19 23:13:18 GMT 48.627731 9.410987 37,975 308 416 0
2022-05-19 23:13:15 GMT 48.622833 9.420636 37,975 308 417 0
2022-05-19 23:13:12 GMT 48.619492 9.427326 37,975 308 416 0
2022-05-19 23:13:09 GMT 48.616039 9.434148 37,975 308 417 0
2022-05-19 23:13:06 GMT 48.612640 9.440870 37,975 308 418 0
2022-05-19 23:13:03 GMT 48.606682 9.452651 37,975 308 418 64
2022-05-19 23:13:01 GMT 48.606682 9.452651 37,975 308 418 0
2022-05-19 23:12:59 GMT 48.603981 9.458000 37,975 308 418 0
2022-05-19 23:12:56 GMT 48.598160 9.469511 37,975 308 419 -64
2022-05-19 23:12:54 GMT 48.595276 9.475202 37,975 308 419 -64
2022-05-19 23:12:51 GMT 48.595276 9.475202 37,975 308 419 -64
2022-05-19 23:12:48 GMT 48.592209 9.481342 37,975 308 419 64
2022-05-19 23:12:45 GMT 48.587921 9.489802 37,975 308 419 128
2022-05-19 23:12:43 GMT 48.582848 9.499777 37,950 308 418 128
2022-05-19 23:12:40 GMT 48.582848 9.499777 37,950 308 418 192
2022-05-19 23:12:38 GMT 48.579895 9.505709 37,950 308 418 192
2022-05-19 23:12:35 GMT 48.576889 9.511630 37,950 308 418 192
2022-05-19 23:12:33 GMT 48.570053 9.525146 37,925 308 418 0
2022-05-19 23:12:30 GMT 48.570053 9.525146 37,925 308 418 64
2022-05-19 23:12:27 GMT 48.567299 9.530640 37,925 308 418 0
2022-05-19 23:12:24 GMT 48.560177 9.544734 37,925 308 417 -64
2022-05-19 23:12:21 GMT 48.556732 9.551556 37,925 308 417 -64
2022-05-19 23:12:18 GMT 48.556732 9.551556 37,925 308 417 0
2022-05-19 23:12:15 GMT 48.553345 9.558246 37,925 308 416 0
2022-05-19 23:12:13 GMT 48.550354 9.564105 37,925 308 416 0
2022-05-19 23:12:10 GMT 48.547989 9.568881 37,925 308 416 0
2022-05-19 23:12:08 GMT 48.545139 9.574513 37,925 308 416 0
2022-05-19 23:12:06 GMT 48.542671 9.579355 37,950 308 416 0
2022-05-19 23:12:03 GMT 48.535858 9.592755 37,925 308 415 64
2022-05-19 23:12:01 GMT 48.535858 9.592755 37,925 308 415 64
2022-05-19 23:11:58 GMT 48.533066 9.598318 37,925 308 415 0
2022-05-19 23:11:55 GMT 48.529964 9.604364 37,925 308 415 0
2022-05-19 23:11:53 GMT 48.527634 9.608990 37,925 308 415 0
2022-05-19 23:11:50 GMT 48.524143 9.615856 37,925 308 415 0
2022-05-19 23:11:47 GMT 48.521027 9.621911 37,925 308 415 0
2022-05-19 23:11:45 GMT 48.517548 9.628812 37,925 308 415 0
2022-05-19 23:11:42 GMT 48.513996 9.635805 37,925 308 415 0
2022-05-19 23:11:39 GMT 48.511669 9.640358 37,925 308 415 0
2022-05-19 23:11:36 GMT 48.506966 9.649538 37,925 308 415 0
2022-05-19 23:11:33 GMT 48.502625 9.658109 37,925 308 415 0
2022-05-19 23:11:30 GMT 48.500610 9.662053 37,950 308 415 -64
2022-05-19 23:11:27 GMT 48.497658 9.667896 37,950 308 415 -64
2022-05-19 23:11:25 GMT 48.495392 9.672335 37,950 308 415 -64
2022-05-19 23:11:23 GMT 48.491867 9.679166 37,925 308 415 -64
2022-05-19 23:11:20 GMT 48.485737 9.691242 37,950 308 415 0
2022-05-19 23:11:17 GMT 48.485737 9.691242 37,950 308 415 0
2022-05-19 23:11:15 GMT 48.482944 9.696663 37,925 308 414 0
2022-05-19 23:11:13 GMT 48.480061 9.702373 37,950 308 414 0
2022-05-19 23:11:10 GMT 48.474060 9.714168 37,950 308 414 0
2022-05-19 23:11:07 GMT 48.474060 9.714168 37,950 308 414 0
2022-05-19 23:11:05 GMT 48.471214 9.719792 37,925 308 415 0
2022-05-19 23:11:02 GMT 48.467880 9.726281 37,925 308 415 0
2022-05-19 23:10:59 GMT 48.463394 9.735115 37,925 308 415 0
2022-05-19 23:10:56 GMT 48.460739 9.740225 37,925 308 415 0
2022-05-19 23:10:53 GMT 48.452873 9.755715 37,925 308 415 0
2022-05-19 23:10:50 GMT 48.452873 9.755715 37,925 308 415 0
2022-05-19 23:10:47 GMT 48.450119 9.761071 37,925 308 415 0
2022-05-19 23:10:44 GMT 48.446541 9.768074 37,925 308 415 0
2022-05-19 23:10:42 GMT 48.440506 9.779804 37,925 308 415 0
2022-05-19 23:10:39 GMT 48.437485 9.785790 37,925 308 415 0
2022-05-19 23:10:36 GMT 48.437485 9.785790 37,925 308 415 0
2022-05-19 23:10:34 GMT 48.435471 9.789663 37,925 308 416 0
2022-05-19 23:10:30 GMT 48.426384 9.807394 37,925 308 416 0
2022-05-19 23:10:27 GMT 48.426384 9.807394 37,925 308 416 0
2022-05-19 23:10:24 GMT 48.423203 9.813749 37,925 308 416 0
2022-05-19 23:10:22 GMT 48.420193 9.819609 37,925 308 416 -64
2022-05-19 23:10:19 GMT 48.417892 9.824031 37,925 308 416 -64
2022-05-19 23:10:16 GMT 48.414558 9.830595 37,925 308 416 -64
2022-05-19 23:10:13 GMT 48.410233 9.839052 37,950 308 416 -64
2022-05-19 23:10:09 GMT 48.405212 9.848750 37,925 308 417 0
2022-05-19 23:10:06 GMT 48.402130 9.854881 37,925 308 417 -64
2022-05-19 23:10:03 GMT 48.399124 9.860722 37,950 308 417 0
2022-05-19 23:10:00 GMT 48.395096 9.868469 37,950 308 417 -64
2022-05-19 23:09:58 GMT 48.389748 9.878877 37,950 308 417 -64
2022-05-19 23:09:55 GMT 48.389748 9.878877 37,925 308 417 0
2022-05-19 23:09:52 GMT 48.385208 9.887695 37,950 308 417 0
2022-05-19 23:09:49 GMT 48.381649 9.894706 37,950 308 417 -64
2022-05-19 23:09:46 GMT 48.378574 9.900633 37,975 308 417 -128
2022-05-19 23:09:43 GMT 48.374405 9.908823 37,950 308 417 -64
2022-05-19 23:09:40 GMT 48.371796 9.913823 37,950 308 417 -128
2022-05-19 23:09:38 GMT 48.369732 9.917835 37,975 308 417 -128
2022-05-19 23:09:36 GMT 48.367264 9.922678 37,975 308 417 -128
2022-05-19 23:09:33 GMT 48.362961 9.931007 37,975 308 417 -128
2022-05-19 23:09:30 GMT 48.359489 9.937784 37,975 308 417 -64
2022-05-19 23:09:27 GMT 48.356598 9.943472 37,975 308 417 -64
2022-05-19 23:09:24 GMT 48.353302 9.949881 37,975 308 417 -64
2022-05-19 23:09:22 GMT 48.347851 9.960552 38,000 308 417 -64
2022-05-19 23:09:20 GMT 48.347851 9.960552 38,000 308 417 -64
2022-05-19 23:09:17 GMT 48.345478 9.965106 38,000 308 418 -128
2022-05-19 23:09:14 GMT 48.341846 9.972189 38,000 308 418 -128
2022-05-19 23:09:12 GMT 48.338772 9.978188 38,000 308 418 -64
2022-05-19 23:09:09 GMT 48.331184 9.992860 38,025 308 418 -64
2022-05-19 23:09:05 GMT 48.331184 9.992860 38,025 308 418 -64
2022-05-19 23:09:03 GMT 48.328346 9.998354 38,025 308 418 -64
2022-05-19 23:09:00 GMT 48.324646 10.005517 38,025 308 418 0
2022-05-19 23:08:58 GMT 48.321503 10.011581 38,025 308 419 64
2022-05-19 23:08:54 GMT 48.317642 10.019038 38,025 308 419 64
2022-05-19 23:08:51 GMT 48.314117 10.025940 38,025 308 419 64
2022-05-19 23:08:49 GMT 48.308075 10.037631 38,000 308 419 128
2022-05-19 23:08:46 GMT 48.308075 10.037631 38,000 308 420 64
2022-05-19 23:08:43 GMT 48.305695 10.042208 38,000 308 420 64
2022-05-19 23:08:41 GMT 48.301758 10.049814 38,000 308 421 0
2022-05-19 23:08:38 GMT 48.298325 10.056434 38,000 308 421 0
2022-05-19 23:08:35 GMT 48.294113 10.064533 38,000 308 421 64
2022-05-19 23:08:32 GMT 48.291046 10.070519 38,000 308 421 64
2022-05-19 23:08:29 GMT 48.287338 10.077632 38,000 308 422 64
2022-05-19 23:08:26 GMT 48.284027 10.084004 38,000 308 422 64
2022-05-19 23:08:24 GMT 48.281479 10.088970 38,000 308 422 64
2022-05-19 23:08:21 GMT 48.278442 10.094845 37,975 308 422 64
2022-05-19 23:08:18 GMT 48.271503 10.108217 37,975 308 422 64
2022-05-19 23:08:15 GMT 48.271503 10.108217 37,975 308 422 64
2022-05-19 23:08:12 GMT 48.266708 10.117469 37,975 308 422 0
2022-05-19 23:08:09 GMT 48.263214 10.124253 37,975 308 422 64
2022-05-19 23:08:06 GMT 48.260193 10.130045 37,975 308 422 0
2022-05-19 23:08:03 GMT 48.257217 10.135803 37,975 308 422 0
2022-05-19 23:08:00 GMT 48.253208 10.143561 37,975 308 424 0
2022-05-19 23:07:57 GMT 48.248840 10.152001 37,975 308 424 0
2022-05-19 23:07:55 GMT 48.243439 10.162424 37,975 308 424 64
2022-05-19 23:07:52 GMT 48.243439 10.162424 37,975 308 424 0
2022-05-19 23:07:50 GMT 48.241608 10.165875 37,975 308 424 -64
2022-05-19 23:07:48 GMT 48.238129 10.172636 37,975 308 424 -64
2022-05-19 23:07:45 GMT 48.234558 10.179537 37,975 308 424 -64
2022-05-19 23:07:42 GMT 48.231007 10.186422 37,975 308 424 -64
2022-05-19 23:07:39 GMT 48.228443 10.191265 37,975 308 424 -64
2022-05-19 23:07:36 GMT 48.223415 10.201022 37,975 308 424 -64
2022-05-19 23:07:33 GMT 48.220688 10.206228 38,000 308 424 -64
2022-05-19 23:07:31 GMT 48.219086 10.209335 38,000 308 424 -64
2022-05-19 23:07:29 GMT 48.215736 10.215840 38,000 308 424 -128
2022-05-19 23:07:26 GMT 48.211407 10.224152 38,000 308 424 -128
2022-05-19 23:07:23 GMT 48.209591 10.227621 38,000 308 424 -128
2022-05-19 23:07:21 GMT 48.205868 10.234777 38,000 308 424 -128
2022-05-19 23:07:19 GMT 48.203541 10.239186 38,025 308 424 -128
2022-05-19 23:07:16 GMT 48.200188 10.245691 38,025 308 424 -128
2022-05-19 23:07:13 GMT 48.195923 10.253906 38,025 308 424 -64
2022-05-19 23:07:10 GMT 48.193951 10.257761 38,025 308 424 -64
2022-05-19 23:07:08 GMT 48.190247 10.264822 38,025 308 424 -64
2022-05-19 23:07:05 GMT 48.186733 10.271639 38,025 308 424 0
2022-05-19 23:07:02 GMT 48.183475 10.277855 38,025 308 424 0
2022-05-19 23:06:59 GMT 48.177017 10.290246 38,025 308 424 0
2022-05-19 23:06:57 GMT 48.177017 10.290246 38,025 308 424 64
2022-05-19 23:06:55 GMT 48.170254 10.303297 38,025 308 425 0
2022-05-19 23:06:52 GMT 48.170254 10.303297 38,025 308 424 128
2022-05-19 23:06:49 GMT 48.167770 10.308063 38,025 308 424 64
2022-05-19 23:06:47 GMT 48.164886 10.313556 38,025 308 424 64
2022-05-19 23:06:44 GMT 48.161362 10.320317 38,025 308 425 0
2022-05-19 23:06:41 GMT 48.158524 10.325740 38,000 308 425 64
2022-05-19 23:06:38 GMT 48.152889 10.336656 38,025 308 426 0
2022-05-19 23:06:35 GMT 48.151108 10.339989 38,025 308 426 0
2022-05-19 23:06:32 GMT 48.146698 10.348487 38,000 308 426 0
2022-05-19 23:06:29 GMT 48.140415 10.360530 38,000 308 426 0
2022-05-19 23:06:27 GMT 48.140415 10.360530 38,000 308 426 64
2022-05-19 23:06:24 GMT 48.138062 10.364983 38,000 308 426 0
2022-05-19 23:06:21 GMT 48.131104 10.378348 38,000 309 425 0
2022-05-19 23:06:18 GMT 48.131104 10.378348 38,000 309 425 0
2022-05-19 23:06:16 GMT 48.127102 10.385953 38,000 309 425 0
2022-05-19 23:06:13 GMT 48.124008 10.391830 38,000 309 425 0
2022-05-19 23:06:10 GMT 48.120987 10.397598 38,025 309 425 0
2022-05-19 23:06:07 GMT 48.117004 10.405289 38,025 309 425 0
2022-05-19 23:06:05 GMT 48.113342 10.412224 38,025 309 425 0
2022-05-19 23:06:02 GMT 48.110321 10.417992 38,025 309 425 0
2022-05-19 23:05:59 GMT 48.106934 10.424446 38,025 309 425 0
2022-05-19 23:05:56 GMT 48.100052 10.437505 38,025 309 425 -64
2022-05-19 23:05:53 GMT 48.096561 10.444195 38,025 309 425 64
2022-05-19 23:05:50 GMT 48.096561 10.444195 38,025 309 425 0
2022-05-19 23:05:48 GMT 48.094002 10.449054 38,000 309 425 0
2022-05-19 23:05:45 GMT 48.090370 10.456027 38,000 309 425 64
2022-05-19 23:05:42 GMT 48.086739 10.462928 38,000 309 425 64
2022-05-19 23:05:39 GMT 48.082504 10.471027 38,000 309 425 64
2022-05-19 23:05:36 GMT 48.079617 10.476591 38,000 309 425 0
2022-05-19 23:05:33 GMT 48.074776 10.485816 38,000 309 425 64
2022-05-19 23:05:30 GMT 48.072216 10.490676 38,000 309 425 64
2022-05-19 23:05:28 GMT 48.070358 10.494209 38,000 309 425 64
2022-05-19 23:05:26 GMT 48.067200 10.500252 38,000 309 425 64
2022-05-19 23:05:23 GMT 48.059967 10.514122 38,000 309 425 0
2022-05-19 23:05:20 GMT 48.059967 10.514122 38,000 309 425 0
2022-05-19 23:05:18 GMT 48.056992 10.519761 37,975 309 425 64
2022-05-19 23:05:15 GMT 48.054523 10.524480 37,975 309 425 64
2022-05-19 23:05:12 GMT 48.050766 10.531631 37,975 309 424 0
2022-05-19 23:05:09 GMT 48.047310 10.538213 37,975 309 424 0
2022-05-19 23:05:07 GMT 48.043911 10.544621 37,975 309 424 0
2022-05-19 23:05:04 GMT 48.040100 10.551888 38,000 309 424 0
2022-05-19 23:05:01 GMT 48.037537 10.556694 37,975 309 424 0
2022-05-19 23:04:58 GMT 48.033920 10.563560 37,975 309 424 0
2022-05-19 23:04:55 GMT 48.029526 10.571946 37,975 309 423 0
2022-05-19 23:04:52 GMT 48.026459 10.577843 37,975 309 423 0
2022-05-19 23:04:49 GMT 48.023071 10.584229 37,975 309 423 0
2022-05-19 23:04:47 GMT 48.020508 10.589035 37,975 309 423 0
2022-05-19 23:04:44 GMT 48.016956 10.595821 37,975 309 423 0
2022-05-19 23:04:41 GMT 48.012489 10.604342 37,975 309 423 0
2022-05-19 23:04:38 GMT 48.005600 10.617371 37,975 309 423 0
2022-05-19 23:04:35 GMT 48.003845 10.620689 37,975 308 422 0
2022-05-19 23:04:33 GMT 48.003845 10.620689 37,975 309 422 0
2022-05-19 23:04:31 GMT 48.000523 10.626948 37,975 309 422 0
2022-05-19 23:04:28 GMT 47.996979 10.633667 37,975 309 422 0
2022-05-19 23:04:25 GMT 47.993587 10.640118 37,975 308 422 0
2022-05-19 23:04:22 GMT 47.990143 10.646597 37,975 309 421 0
2022-05-19 23:04:19 GMT 47.985855 10.654678 37,975 309 421 0
2022-05-19 23:04:17 GMT 47.983475 10.659210 37,975 309 424 0
2022-05-19 23:04:13 GMT 47.979668 10.666387 37,975 309 421 0
2022-05-19 23:04:11 GMT 47.972580 10.679741 37,975 309 422 0
2022-05-19 23:04:08 GMT 47.972580 10.679741 37,975 309 422 0
2022-05-19 23:04:05 GMT 47.969467 10.685646 37,975 309 422 0
2022-05-19 23:04:02 GMT 47.965073 10.693886 37,975 309 424 -64
2022-05-19 23:03:59 GMT 47.958664 10.706039 37,975 309 423 0
2022-05-19 23:03:56 GMT 47.954624 10.713642 37,975 309 423 0
2022-05-19 23:03:53 GMT 47.954624 10.713642 37,975 309 423 0
2022-05-19 23:03:50 GMT 47.950993 10.720543 37,975 309 423 64
2022-05-19 23:03:47 GMT 47.947906 10.726364 37,975 309 423 64
2022-05-19 23:03:44 GMT 47.943729 10.734276 37,975 309 423 0
2022-05-19 23:03:41 GMT 47.940765 10.739822 37,975 309 423 0
2022-05-19 23:03:38 GMT 47.934586 10.751495 37,975 309 424 0
2022-05-19 23:03:35 GMT 47.932838 10.754841 37,975 309 424 -64
2022-05-19 23:03:33 GMT 47.928555 10.762869 37,975 309 424 -64
2022-05-19 23:03:31 GMT 47.928555 10.762869 37,975 309 422 0
2022-05-19 23:03:28 GMT 47.924923 10.769700 37,975 309 424 0
2022-05-19 23:03:26 GMT 47.923107 10.773151 37,975 309 424 0
2022-05-19 23:03:23 GMT 47.918266 10.782306 37,975 309 424 0
2022-05-19 23:03:20 GMT 47.913891 10.790546 37,975 309 424 0
2022-05-19 23:03:17 GMT 47.907280 10.803011 37,975 309 422 0
2022-05-19 23:03:14 GMT 47.907280 10.803011 37,975 309 422 0
2022-05-19 23:03:11 GMT 47.903603 10.809913 37,975 309 422 0
2022-05-19 23:03:08 GMT 47.900436 10.815829 37,975 309 422 0
2022-05-19 23:03:06 GMT 47.898697 10.819130 37,925 309 418 192
2022-05-19 23:03:03 GMT 47.894806 10.826408 37,975 309 422 0
2022-05-19 23:03:00 GMT 47.890823 10.833961 37,975 309 422 0
2022-05-19 23:02:57 GMT 47.882328 10.849985 37,975 309 420 64
2022-05-19 23:02:54 GMT 47.882328 10.849985 37,975 309 419 64
2022-05-19 23:02:51 GMT 47.879162 10.855830 37,975 309 419 128
2022-05-19 23:02:48 GMT 47.876278 10.861253 37,950 309 419 192
2022-05-19 23:02:46 GMT 47.873703 10.866096 37,950 309 418 256
2022-05-19 23:02:43 GMT 47.869949 10.873100 37,950 309 417 192
2022-05-19 23:02:41 GMT 47.864319 10.883675 37,925 309 417 128
2022-05-19 23:02:38 GMT 47.861286 10.889353 37,925 309 417 64
2022-05-19 23:02:36 GMT 47.861286 10.889353 37,925 309 417 0
2022-05-19 23:02:33 GMT 47.858028 10.895409 37,925 309 417 0
2022-05-19 23:02:31 GMT 47.852325 10.906059 37,925 309 417 0
2022-05-19 23:02:28 GMT 47.849880 10.910691 37,925 309 417 0
2022-05-19 23:02:26 GMT 47.849880 10.910691 37,925 309 417 0
2022-05-19 23:02:23 GMT 47.844852 10.920058 37,925 309 416 -64
2022-05-19 23:02:20 GMT 47.842571 10.924354 37,925 309 416 -64
2022-05-19 23:02:17 GMT 47.839645 10.929817 37,925 309 416 -64
2022-05-19 23:02:15 GMT 47.836941 10.934847 37,925 309 416 0
2022-05-19 23:02:12 GMT 47.828522 10.950623 37,925 309 416 0
2022-05-19 23:02:09 GMT 47.828522 10.950623 37,925 309 416 0
2022-05-19 23:02:06 GMT 47.825409 10.956459 37,925 309 416 0
2022-05-19 23:02:03 GMT 47.822296 10.962296 37,925 309 416 0
2022-05-19 23:02:00 GMT 47.818413 10.969567 37,925 309 416 0
2022-05-19 23:01:57 GMT 47.810963 10.983370 37,925 309 416 0
2022-05-19 23:01:54 GMT 47.810963 10.983370 37,925 309 416 -64
2022-05-19 23:01:51 GMT 47.804028 10.996399 37,950 309 416 -64
2022-05-19 23:01:48 GMT 47.804028 10.996399 37,925 309 416 -64
2022-05-19 23:01:46 GMT 47.801140 11.001751 37,950 309 416 -64
2022-05-19 23:01:42 GMT 47.797695 11.008230 37,950 309 416 -64
2022-05-19 23:01:40 GMT 47.793880 11.015414 37,950 309 416 -64
2022-05-19 23:01:37 GMT 47.790939 11.020866 37,950 309 416 -64
2022-05-19 23:01:34 GMT 47.787460 11.027321 37,950 309 416 -64
2022-05-19 23:01:31 GMT 47.783825 11.034147 37,950 309 417 -128
2022-05-19 23:01:28 GMT 47.779495 11.042175 37,950 309 417 -128
2022-05-19 23:01:25 GMT 47.775909 11.048936 37,975 309 417 -128
2022-05-19 23:01:22 GMT 47.770706 11.058632 37,975 309 417 -128
2022-05-19 23:01:20 GMT 47.770706 11.058632 37,975 309 417 -64
2022-05-19 23:01:17 GMT 47.767822 11.063988 37,975 309 417 -64
2022-05-19 23:01:15 GMT 47.765388 11.068585 37,975 309 417 0
2022-05-19 23:01:12 GMT 47.761597 11.075661 37,975 308 417 0
2022-05-19 23:01:10 GMT 47.759079 11.080399 37,975 309 417 64
2022-05-19 23:01:07 GMT 47.755798 11.086543 37,975 309 417 0
2022-05-19 23:01:05 GMT 47.752682 11.092318 37,975 309 419 -64
2022-05-19 23:01:02 GMT 47.745758 11.105255 37,975 309 419 -128
2022-05-19 23:00:59 GMT 47.745758 11.105255 38,000 309 419 -192
2022-05-19 23:00:56 GMT 47.742142 11.111984 38,000 309 419 -192
2022-05-19 23:00:53 GMT 47.736900 11.121756 38,000 309 419 -128
2022-05-19 23:00:50 GMT 47.734039 11.127022 38,025 309 418 -128
2022-05-19 23:00:47 GMT 47.730927 11.132858 38,025 309 419 -64
2022-05-19 23:00:45 GMT 47.728958 11.136497 38,025 309 420 -64
2022-05-19 23:00:42 GMT 47.725166 11.143588 38,025 309 420 0
2022-05-19 23:00:39 GMT 47.721588 11.150230 38,025 309 421 0
2022-05-19 23:00:36 GMT 47.717834 11.157166 38,025 309 421 0
2022-05-19 23:00:33 GMT 47.714310 11.163757 38,025 309 421 0
2022-05-19 23:00:30 GMT 47.711288 11.169388 38,025 309 421 -64
2022-05-19 23:00:27 GMT 47.706360 11.178518 38,025 309 421 -64
2022-05-19 23:00:24 GMT 47.703140 11.184494 38,025 309 421 0
2022-05-19 23:00:21 GMT 47.699749 11.190843 38,025 309 421 0
2022-05-19 23:00:18 GMT 47.692535 11.204224 38,025 309 421 0
2022-05-19 23:00:15 GMT 47.692535 11.204224 38,025 309 421 0
2022-05-19 23:00:12 GMT 47.688160 11.212323 38,025 309 423 64
2022-05-19 23:00:09 GMT 47.683502 11.220914 38,025 309 422 0
2022-05-19 23:00:06 GMT 47.682434 11.222957 38,025 309 422 64
2022-05-19 23:00:04 GMT 47.679428 11.228508 38,025 309 423 64
2022-05-19 23:00:01 GMT 47.671280 11.243614 38,025 309 424 64
2022-05-19 22:59:58 GMT 47.671280 11.243614 38,025 309 424 0
2022-05-19 22:59:55 GMT 47.666931 11.251690 38,025 309 424 0
2022-05-19 22:59:52 GMT 47.664230 11.256620 38,025 309 424 0
2022-05-19 22:59:49 GMT 47.660461 11.263662 38,025 309 424 0
2022-05-19 22:59:46 GMT 47.655991 11.271904 38,025 309 424 0
2022-05-19 22:59:43 GMT 47.652733 11.277888 38,025 309 424 64
2022-05-19 22:59:40 GMT 47.650219 11.282536 38,025 309 424 128
2022-05-19 22:59:37 GMT 47.645966 11.290443 38,000 309 424 128
2022-05-19 22:59:35 GMT 47.642956 11.295988 38,000 309 424 192
2022-05-19 22:59:32 GMT 47.639187 11.303030 38,000 309 424 192
2022-05-19 22:59:29 GMT 47.636112 11.308664 37,975 309 424 128
2022-05-19 22:59:26 GMT 47.633274 11.313876 37,975 309 424 128
2022-05-19 22:59:24 GMT 47.629440 11.320999 37,975 309 424 128
2022-05-19 22:59:21 GMT 47.626896 11.325637 37,975 309 424 128
2022-05-19 22:59:19 GMT 47.623810 11.331436 37,950 309 424 128
2022-05-19 22:59:16 GMT 47.620697 11.337067 37,950 309 424 64
2022-05-19 22:59:14 GMT 47.617821 11.342398 37,950 309 424 64
2022-05-19 22:59:11 GMT 47.614140 11.349159 37,950 309 424 64
2022-05-19 22:59:09 GMT 47.611267 11.354507 37,950 309 424 0
2022-05-19 22:59:06 GMT 47.606094 11.363983 37,950 309 424 64
2022-05-19 22:59:04 GMT 47.606094 11.363983 37,950 309 424 64
2022-05-19 22:59:01 GMT 47.602131 11.371343 37,950 309 424 64
2022-05-19 22:58:58 GMT 47.597336 11.380146 37,925 309 424 64
2022-05-19 22:58:55 GMT 47.594925 11.384514 37,925 309 423 64
2022-05-19 22:58:53 GMT 47.591843 11.390287 37,950 309 423 64
2022-05-19 22:58:50 GMT 47.588165 11.397048 37,950 309 423 0
2022-05-19 22:58:47 GMT 47.583740 11.405217 37,950 309 423 0
2022-05-19 22:58:44 GMT 47.581413 11.409443 37,950 309 423 0
2022-05-19 22:58:41 GMT 47.572769 11.425301 37,925 309 422 -64
2022-05-19 22:58:38 GMT 47.572769 11.425301 37,925 309 423 -64
2022-05-19 22:58:35 GMT 47.567276 11.435463 37,950 309 423 -64
2022-05-19 22:58:33 GMT 47.567276 11.435463 37,950 309 422 -64
2022-05-19 22:58:30 GMT 47.564751 11.440078 37,950 309 422 -64
2022-05-19 22:58:28 GMT 47.561584 11.445923 37,950 309 422 0
2022-05-19 22:58:25 GMT 47.557907 11.452613 37,950 309 422 64
2022-05-19 22:58:23 GMT 47.555576 11.456909 37,950 309 422 64
2022-05-19 22:58:20 GMT 47.550690 11.465853 37,950 309 422 0
2022-05-19 22:58:17 GMT 47.547989 11.470783 37,950 309 422 0
2022-05-19 22:58:14 GMT 47.543846 11.478459 37,925 309 422 0
2022-05-19 22:58:11 GMT 47.539703 11.486065 37,950 309 422 -64
2022-05-19 22:58:08 GMT 47.536102 11.492661 37,950 309 422 -128
2022-05-19 22:58:05 GMT 47.533466 11.497545 37,950 309 422 -128
2022-05-19 22:58:03 GMT 47.531067 11.501862 37,950 309 422 -128
2022-05-19 22:58:00 GMT 47.527634 11.508179 37,975 309 422 -128
2022-05-19 22:57:58 GMT 47.525299 11.512436 37,975 309 421 -64
2022-05-19 22:57:55 GMT 47.520988 11.520362 37,975 309 421 -64
2022-05-19 22:57:53 GMT 47.518059 11.525715 37,975 309 421 -64
2022-05-19 22:57:50 GMT 47.514816 11.531662 37,975 309 421 -64
2022-05-19 22:57:48 GMT 47.512936 11.535152 37,975 309 421 -64
2022-05-19 22:57:45 GMT 47.508362 11.543541 37,975 309 421 -64
2022-05-19 22:57:43 GMT 47.505066 11.549583 37,975 309 421 0
2022-05-19 22:57:40 GMT 47.502640 11.554047 37,975 309 421 0
2022-05-19 22:57:37 GMT 47.498924 11.560857 37,975 309 421 0
2022-05-19 22:57:34 GMT 47.491241 11.574942 37,975 309 421 0
2022-05-19 22:57:31 GMT 47.491241 11.574942 37,975 309 421 0
2022-05-19 22:57:28 GMT 47.487099 11.582548 37,975 309 421 64
2022-05-19 22:57:25 GMT 47.484772 11.586844 37,975 309 421 64
2022-05-19 22:57:22 GMT 47.480942 11.593872 37,975 309 421 64
2022-05-19 22:57:19 GMT 47.477875 11.599434 37,975 310 422 0
2022-05-19 22:57:16 GMT 47.473709 11.607056 37,975 309 421 0
2022-05-19 22:57:14 GMT 47.471786 11.610626 37,975 309 421 0
2022-05-19 22:57:12 GMT 47.468124 11.617355 37,975 309 421 0
2022-05-19 22:57:09 GMT 47.465733 11.621704 37,975 309 421 0
2022-05-19 22:57:06 GMT 47.460892 11.630539 37,975 309 421 0
2022-05-19 22:57:03 GMT 47.456654 11.638254 37,975 309 421 0
2022-05-19 22:57:00 GMT 47.454327 11.642480 37,975 309 421 64
2022-05-19 22:56:57 GMT 47.450417 11.649592 37,975 309 421 64
2022-05-19 22:56:54 GMT 47.446648 11.656565 37,975 309 421 0
2022-05-19 22:56:52 GMT 47.444180 11.661001 37,950 309 421 64
2022-05-19 22:56:49 GMT 47.435612 11.676636 37,950 309 421 0
2022-05-19 22:56:46 GMT 47.435612 11.676636 37,975 309 421 0
2022-05-19 22:56:43 GMT 47.432373 11.682518 37,950 309 421 0
2022-05-19 22:56:40 GMT 47.429981 11.686918 37,975 309 421 0
2022-05-19 22:56:37 GMT 47.426304 11.693608 37,975 309 422 0
2022-05-19 22:56:34 GMT 47.421707 11.702019 37,975 309 422 0
2022-05-19 22:56:32 GMT 47.419785 11.705589 37,950 309 422 0
2022-05-19 22:56:29 GMT 47.416580 11.711357 37,975 309 422 0
2022-05-19 22:56:26 GMT 47.412243 11.719313 37,975 309 422 0
2022-05-19 22:56:24 GMT 47.409256 11.724815 38,000 310 424 -128
2022-05-19 22:56:22 GMT 47.407883 11.727219 37,975 309 421 0
2022-05-19 22:56:19 GMT 47.404053 11.734314 37,975 309 422 0
2022-05-19 22:56:16 GMT 47.400047 11.741709 37,975 309 422 0
2022-05-19 22:56:12 GMT 47.393875 11.752968 37,975 309 421 -64
2022-05-19 22:56:09 GMT 47.391907 11.756538 37,975 309 421 -64
2022-05-19 22:56:06 GMT 47.387524 11.764456 37,975 309 421 -64
2022-05-19 22:56:02 GMT 47.382339 11.773911 37,975 310 422 0
2022-05-19 22:55:59 GMT 47.379192 11.779597 37,975 310 422 0
2022-05-19 22:55:56 GMT 47.376026 11.785443 37,975 310 422 0
2022-05-19 22:55:53 GMT 47.372406 11.791969 37,975 310 422 0
2022-05-19 22:55:51 GMT 47.364807 11.805771 37,975 310 422 0
2022-05-19 22:55:48 GMT 47.362839 11.809341 37,975 310 422 0
2022-05-19 22:55:45 GMT 47.362839 11.809341 37,975 310 422 -64
2022-05-19 22:55:43 GMT 47.360458 11.813599 38,000 310 422 -64
2022-05-19 22:55:41 GMT 47.357162 11.819572 38,000 310 422 -64
2022-05-19 22:55:38 GMT 47.354008 11.825303 37,975 310 422 -64
2022-05-19 22:55:35 GMT 47.348003 11.836149 38,000 310 422 64
2022-05-19 22:55:33 GMT 47.348003 11.836149 38,000 310 422 -64
2022-05-19 22:55:31 GMT 47.344929 11.841783 38,000 310 422 0
2022-05-19 22:55:28 GMT 47.341782 11.847450 38,000 310 422 0
2022-05-19 22:55:25 GMT 47.337807 11.854671 38,000 310 422 0
2022-05-19 22:55:23 GMT 47.335281 11.859192 38,000 310 424 -64
2022-05-19 22:55:21 GMT 47.332809 11.863655 38,000 310 422 64
2022-05-19 22:55:18 GMT 47.329193 11.870235 37,975 310 422 64
2022-05-19 22:55:15 GMT 47.324203 11.879242 37,975 310 422 64
2022-05-19 22:55:12 GMT 47.321136 11.884804 38,000 310 422 64
2022-05-19 22:55:09 GMT 47.318256 11.890024 37,975 310 422 0
2022-05-19 22:55:07 GMT 47.315697 11.894743 37,975 310 422 0
2022-05-19 22:55:04 GMT 47.311363 11.902489 38,000 310 423 0
2022-05-19 22:55:01 GMT 47.307037 11.910306 38,000 310 423 -64
2022-05-19 22:54:58 GMT 47.304016 11.915771 38,000 310 423 0
2022-05-19 22:54:54 GMT 47.299210 11.924492 37,975 310 423 0
2022-05-19 22:54:51 GMT 47.294838 11.932420 38,000 310 422 0
2022-05-19 22:54:48 GMT 47.290974 11.939322 37,975 310 424 -128
2022-05-19 22:54:45 GMT 47.288361 11.944130 38,000 310 423 0
2022-05-19 22:54:42 GMT 47.285019 11.950104 38,000 310 424 0
2022-05-19 22:54:40 GMT 47.281712 11.956012 38,000 310 423 0
2022-05-19 22:54:37 GMT 47.277290 11.964041 38,000 310 423 0
2022-05-19 22:54:33 GMT 47.270279 11.976608 38,000 310 424 0
2022-05-19 22:54:31 GMT 47.270279 11.976608 37,975 310 423 0
2022-05-19 22:54:28 GMT 47.263275 11.989183 37,975 310 424 0
2022-05-19 22:54:25 GMT 47.263275 11.989183 37,975 310 424 0
2022-05-19 22:54:22 GMT 47.259384 11.996178 37,975 310 424 0
2022-05-19 22:54:19 GMT 47.256203 12.001859 37,975 310 424 0
2022-05-19 22:54:17 GMT 47.254257 12.005310 37,975 310 424 -128
2022-05-19 22:54:14 GMT 47.249870 12.013198 37,975 310 424 -64
2022-05-19 22:54:11 GMT 47.245331 12.021309 38,000 310 424 -64
2022-05-19 22:54:08 GMT 47.241852 12.027557 38,000 310 424 -128
2022-05-19 22:54:05 GMT 47.238136 12.034114 38,000 310 424 -128
2022-05-19 22:54:02 GMT 47.234985 12.039780 38,000 310 424 -128
2022-05-19 22:53:59 GMT 47.230923 12.047002 38,000 310 424 -128
2022-05-19 22:53:57 GMT 47.228500 12.051227 38,000 310 423 -64
2022-05-19 22:53:54 GMT 47.224960 12.057495 38,025 310 423 -64
2022-05-19 22:53:51 GMT 47.219925 12.066353 38,025 310 423 64
2022-05-19 22:53:48 GMT 47.217316 12.070953 38,000 310 423 64
2022-05-19 22:53:45 GMT 47.213654 12.077496 38,000 309 423 64
2022-05-19 22:53:42 GMT 47.208393 12.087003 38,000 308 424 0
2022-05-19 22:53:38 GMT 47.205364 12.092778 38,000 307 423 0
2022-05-19 22:53:35 GMT 47.201431 12.100822 38,000 305 424 0
2022-05-19 22:53:33 GMT 47.200245 12.103342 38,000 303 423 0
2022-05-19 22:53:30 GMT 47.195728 12.113413 38,000 302 422 0
2022-05-19 22:53:27 GMT 47.194016 12.117371 38,000 302 423 0
2022-05-19 22:53:25 GMT 47.190811 12.125267 38,000 300 423 64
2022-05-19 22:53:22 GMT 47.188004 12.132639 38,000 299 422 64
2022-05-19 22:53:19 GMT 47.184448 12.142021 38,000 299 423 0
2022-05-19 22:53:16 GMT 47.183395 12.144768 38,000 299 423 0
2022-05-19 22:53:14 GMT 47.181484 12.149963 38,000 299 423 0
2022-05-19 22:53:12 GMT 47.178738 12.157217 38,000 299 423 0
2022-05-19 22:53:10 GMT 47.177296 12.160950 38,000 299 423 0
2022-05-19 22:53:07 GMT 47.174423 12.168663 38,000 299 423 0
2022-05-19 22:53:03 GMT 47.167465 12.187271 38,000 299 422 64
2022-05-19 22:53:00 GMT 47.167465 12.187271 38,000 299 422 64
2022-05-19 22:52:57 GMT 47.164536 12.195030 37,975 299 422 64
2022-05-19 22:52:54 GMT 47.162201 12.201279 37,975 299 422 64
2022-05-19 22:52:52 GMT 47.159866 12.207596 37,975 299 422 64
2022-05-19 22:52:50 GMT 47.157990 12.212608 37,975 299 422 64
2022-05-19 22:52:47 GMT 47.155228 12.220036 37,975 299 422 64
2022-05-19 22:52:44 GMT 47.152531 12.227290 37,975 299 422 64
2022-05-19 22:52:41 GMT 47.148605 12.237740 37,975 299 423 64
2022-05-19 22:52:38 GMT 47.143890 12.250305 37,975 299 423 64
2022-05-19 22:52:35 GMT 47.143890 12.250305 37,950 299 423 0
2022-05-19 22:52:32 GMT 47.141098 12.257858 37,975 299 423 0
2022-05-19 22:52:30 GMT 47.139633 12.261728 37,975 299 422 -64
2022-05-19 22:52:27 GMT 47.136189 12.270743 37,975 299 422 -64
2022-05-19 22:52:23 GMT 47.132835 12.279616 37,975 299 422 -64
2022-05-19 22:52:20 GMT 47.130043 12.287011 37,975 299 422 0
2022-05-19 22:52:17 GMT 47.126999 12.295212 37,975 299 422 -64
2022-05-19 22:52:14 GMT 47.124435 12.301941 37,975 299 422 -64
2022-05-19 22:52:11 GMT 47.121990 12.308279 37,975 300 422 0
2022-05-19 22:52:09 GMT 47.119057 12.316026 37,975 300 422 0
2022-05-19 22:52:06 GMT 47.117294 12.320686 37,975 300 422 0
2022-05-19 22:52:04 GMT 47.114731 12.327415 37,975 300 423 0
2022-05-19 22:52:02 GMT 47.112774 12.332505 37,975 300 422 -64
2022-05-19 22:51:59 GMT 47.109604 12.340874 37,975 300 422 -64
2022-05-19 22:51:56 GMT 47.107269 12.346848 37,975 300 422 -64
2022-05-19 22:51:53 GMT 47.103695 12.356168 37,975 300 422 -64
2022-05-19 22:51:50 GMT 47.100346 12.364901 37,975 300 422 0
2022-05-19 22:51:46 GMT 47.097702 12.371773 37,975 300 422 0
2022-05-19 22:51:43 GMT 47.092754 12.384550 38,000 300 422 -64
2022-05-19 22:51:41 GMT 47.089870 12.392015 38,000 300 421 -64
2022-05-19 22:51:38 GMT 47.089870 12.392015 38,000 300 422 -64
2022-05-19 22:51:35 GMT 47.088055 12.396733 38,000 300 422 -64
2022-05-19 22:51:33 GMT 47.084984 12.404691 38,000 300 422 -64
2022-05-19 22:51:30 GMT 47.081535 12.413635 38,000 300 421 -64
2022-05-19 22:51:27 GMT 47.075684 12.428970 38,000 300 421 -64
2022-05-19 22:51:24 GMT 47.075684 12.428970 38,000 300 421 -64
2022-05-19 22:51:21 GMT 47.071609 12.439682 38,000 300 420 -64
2022-05-19 22:51:19 GMT 47.071609 12.439682 38,000 300 420 0
2022-05-19 22:51:16 GMT 47.069107 12.446242 38,000 300 420 0
2022-05-19 22:51:13 GMT 47.065842 12.454857 38,000 300 421 0
2022-05-19 22:51:10 GMT 47.063782 12.460350 38,000 300 421 0
2022-05-19 22:51:08 GMT 47.061192 12.467158 38,000 300 421 0
2022-05-19 22:51:05 GMT 47.058472 12.474220 38,000 300 421 128
2022-05-19 22:51:02 GMT 47.055561 12.481807 38,000 300 421 0
2022-05-19 22:50:59 GMT 47.052719 12.489272 38,000 300 421 0
2022-05-19 22:50:56 GMT 47.049957 12.496605 38,000 300 421 0
2022-05-19 22:50:52 GMT 47.046158 12.506561 38,000 300 421 0
2022-05-19 22:50:49 GMT 47.043736 12.512864 38,000 300 421 0
2022-05-19 22:50:46 GMT 47.039886 12.522903 38,000 300 421 64
2022-05-19 22:50:43 GMT 47.037048 12.530388 38,000 300 421 64
2022-05-19 22:50:40 GMT 47.034752 12.536457 37,975 300 421 64
2022-05-19 22:50:37 GMT 47.032059 12.543571 37,975 300 421 64
2022-05-19 22:50:34 GMT 47.029259 12.550894 37,975 300 421 64
2022-05-19 22:50:31 GMT 47.026234 12.558852 37,975 300 421 64
2022-05-19 22:50:29 GMT 47.024277 12.563965 37,975 300 421 64
2022-05-19 22:50:26 GMT 47.020706 12.573372 37,975 300 421 64
2022-05-19 22:50:23 GMT 47.018646 12.578712 37,975 300 420 64
2022-05-19 22:50:20 GMT 47.015247 12.587656 37,975 300 420 64
2022-05-19 22:50:16 GMT 47.012405 12.595051 37,950 300 420 64
2022-05-19 22:50:14 GMT 47.010406 12.600262 37,950 300 420 64
2022-05-19 22:50:11 GMT 47.007145 12.608643 37,975 300 420 -64
2022-05-19 22:50:08 GMT 47.001434 12.623360 37,975 300 418 0
2022-05-19 22:50:05 GMT 47.001434 12.623360 37,950 300 419 0
2022-05-19 22:50:02 GMT 46.999420 12.628510 37,950 300 419 0
2022-05-19 22:49:59 GMT 46.995182 12.639489 37,950 300 418 64
2022-05-19 22:49:56 GMT 46.993088 12.644912 37,950 300 418 64
2022-05-19 22:49:54 GMT 46.988022 12.658104 37,950 300 418 64
2022-05-19 22:49:51 GMT 46.988022 12.658104 37,950 300 418 0
2022-05-19 22:49:49 GMT 46.986511 12.662018 37,950 300 417 0
2022-05-19 22:49:46 GMT 46.983765 12.669159 37,950 300 418 0
2022-05-19 22:49:43 GMT 46.979679 12.679561 37,950 300 418 0
2022-05-19 22:49:40 GMT 46.978317 12.683167 37,950 300 418 0
2022-05-19 22:49:38 GMT 46.976048 12.688927 37,950 300 418 0
2022-05-19 22:49:35 GMT 46.973236 12.696144 37,950 300 418 0
2022-05-19 22:49:33 GMT 46.970718 12.702530 37,950 300 418 0
2022-05-19 22:49:30 GMT 46.968369 12.708505 37,950 300 418 0
2022-05-19 22:49:27 GMT 46.965530 12.715759 37,950 300 417 0
2022-05-19 22:49:24 GMT 46.962982 12.722443 37,950 300 417 64
2022-05-19 22:49:21 GMT 46.956665 12.738579 37,950 300 417 0
2022-05-19 22:49:18 GMT 46.956665 12.738579 37,950 300 417 0
2022-05-19 22:49:15 GMT 46.954170 12.745056 37,950 300 417 0
2022-05-19 22:49:13 GMT 46.951656 12.751465 37,950 300 417 0
2022-05-19 22:49:10 GMT 46.948105 12.760620 37,950 300 417 64
2022-05-19 22:49:07 GMT 46.946117 12.765691 37,950 300 417 64
2022-05-19 22:49:04 GMT 46.943207 12.773117 37,950 300 417 64
2022-05-19 22:49:01 GMT 46.940109 12.781114 37,950 300 417 64
2022-05-19 22:48:58 GMT 46.934338 12.796044 37,950 300 418 0
2022-05-19 22:48:55 GMT 46.934338 12.796044 37,950 300 418 0
2022-05-19 22:48:52 GMT 46.929016 12.809647 37,925 300 418 0
2022-05-19 22:48:50 GMT 46.927231 12.814316 37,950 300 418 0
2022-05-19 22:48:47 GMT 46.927231 12.814316 37,950 300 418 0
2022-05-19 22:48:44 GMT 46.924438 12.821388 37,950 300 418 0
2022-05-19 22:48:41 GMT 46.921051 12.830246 37,950 300 418 0
2022-05-19 22:48:38 GMT 46.919128 12.835121 37,950 300 417 -64
2022-05-19 22:48:35 GMT 46.913910 12.848648 37,950 300 417 -64
2022-05-19 22:48:33 GMT 46.913910 12.848648 37,950 300 417 -128
2022-05-19 22:48:30 GMT 46.911110 12.855835 37,950 300 417 -128
2022-05-19 22:48:27 GMT 46.905945 12.869247 37,975 300 417 -64
2022-05-19 22:48:24 GMT 46.905945 12.869247 37,975 300 417 -64
2022-05-19 22:48:22 GMT 46.903519 12.875633 37,950 300 417 0
2022-05-19 22:48:19 GMT 46.899719 12.885384 37,950 300 417 0
2022-05-19 22:48:16 GMT 46.898075 12.889709 37,975 300 417 0
2022-05-19 22:48:13 GMT 46.894863 12.898020 37,975 300 416 0
2022-05-19 22:48:09 GMT 46.889229 12.912739 37,975 300 416 0
2022-05-19 22:48:07 GMT 46.889229 12.912739 37,950 300 417 0
2022-05-19 22:48:04 GMT 46.886353 12.920265 37,975 300 417 0
2022-05-19 22:48:00 GMT 46.879990 12.936951 37,950 300 417 0
2022-05-19 22:47:57 GMT 46.879990 12.936951 37,950 300 417 0
2022-05-19 22:47:54 GMT 46.873810 12.953156 37,950 300 417 0
2022-05-19 22:47:51 GMT 46.873810 12.953156 37,950 300 417 0
2022-05-19 22:47:48 GMT 46.871292 12.959816 37,950 300 418 -64
2022-05-19 22:47:45 GMT 46.868362 12.967438 37,950 300 418 -64
2022-05-19 22:47:42 GMT 46.862972 12.981651 37,950 299 418 64
2022-05-19 22:47:39 GMT 46.861111 12.986595 37,950 299 418 64
2022-05-19 22:47:37 GMT 46.861111 12.986595 37,950 300 418 64
2022-05-19 22:47:34 GMT 46.857666 12.995659 37,950 300 418 0
2022-05-19 22:47:30 GMT 46.854538 13.003927 37,950 300 418 0
2022-05-19 22:47:27 GMT 46.851383 13.012207 37,950 300 419 0
2022-05-19 22:47:24 GMT 46.849289 13.017632 37,950 300 419 0
2022-05-19 22:47:22 GMT 46.846497 13.024979 37,950 300 418 0
2022-05-19 22:47:19 GMT 46.841980 13.036514 37,950 300 418 0
2022-05-19 22:47:16 GMT 46.838562 13.045193 37,950 302 419 -64
2022-05-19 22:47:13 GMT 46.838562 13.045193 37,950 302 419 -64
2022-05-19 22:47:10 GMT 46.835632 13.052227 37,950 303 419 -64
2022-05-19 22:47:07 GMT 46.832382 13.059931 37,975 303 419 -64
2022-05-19 22:47:04 GMT 46.829178 13.067299 37,975 304 419 -64
2022-05-19 22:47:02 GMT 46.826897 13.072357 37,975 304 419 0
2022-05-19 22:46:59 GMT 46.822941 13.081078 37,975 305 419 -64
2022-05-19 22:46:56 GMT 46.820801 13.085655 37,975 305 419 0
2022-05-19 22:46:53 GMT 46.817871 13.091885 37,975 305 419 -64
2022-05-19 22:46:50 GMT 46.814896 13.098249 37,975 305 419 -64
2022-05-19 22:46:48 GMT 46.812286 13.103809 37,975 305 419 -64
2022-05-19 22:46:45 GMT 46.804504 13.120355 37,975 305 419 -64
2022-05-19 22:46:42 GMT 46.801804 13.126053 37,975 305 419 0
2022-05-19 22:46:39 GMT 46.799698 13.130605 37,975 305 419 64
2022-05-19 22:46:37 GMT 46.799698 13.130605 37,975 305 419 64
2022-05-19 22:46:34 GMT 46.796356 13.137657 37,975 305 419 64
2022-05-19 22:46:31 GMT 46.793564 13.143601 37,975 305 419 64
2022-05-19 22:46:28 GMT 46.790352 13.150497 37,975 305 419 64
2022-05-19 22:46:26 GMT 46.784904 13.162102 37,975 305 420 64
2022-05-19 22:46:23 GMT 46.782253 13.167732 37,975 305 420 64
2022-05-19 22:46:20 GMT 46.782253 13.167732 37,975 305 420 64
2022-05-19 22:46:17 GMT 46.777878 13.177071 37,975 305 421 0
2022-05-19 22:46:14 GMT 46.775036 13.183113 37,975 305 421 0
2022-05-19 22:46:12 GMT 46.772781 13.187881 37,950 305 421 0
2022-05-19 22:46:09 GMT 46.769127 13.195747 37,950 305 421 0
2022-05-19 22:46:06 GMT 46.765137 13.204294 37,975 305 421 0
2022-05-19 22:46:03 GMT 46.763535 13.207777 37,975 305 421 0
2022-05-19 22:46:01 GMT 46.760010 13.215280 37,950 305 421 0
2022-05-19 22:45:58 GMT 46.756786 13.222183 37,975 305 421 -64
2022-05-19 22:45:55 GMT 46.754601 13.226852 37,975 305 421 -64
2022-05-19 22:45:52 GMT 46.750038 13.236740 37,975 305 421 -64
2022-05-19 22:45:49 GMT 46.746597 13.244086 37,975 305 421 -64
2022-05-19 22:45:46 GMT 46.744308 13.249043 37,975 304 422 -64
2022-05-19 22:45:43 GMT 46.741470 13.255139 37,975 304 423 0
2022-05-19 22:45:40 GMT 46.737610 13.263519 37,975 304 421 -64
2022-05-19 22:45:37 GMT 46.734283 13.270680 37,975 304 422 -64
2022-05-19 22:45:34 GMT 46.731720 13.276308 37,975 304 422 -64
2022-05-19 22:45:32 GMT 46.728973 13.282203 37,975 304 422 -64
2022-05-19 22:45:29 GMT 46.724670 13.291648 38,000 304 422 -64
2022-05-19 22:45:26 GMT 46.722382 13.296539 38,000 304 422 -64
2022-05-19 22:45:23 GMT 46.719173 13.303551 38,000 304 423 0
2022-05-19 22:45:20 GMT 46.716057 13.310349 38,000 304 422 -64
2022-05-19 22:45:17 GMT 46.712311 13.318444 38,000 304 422 0
2022-05-19 22:45:14 GMT 46.709473 13.324607 38,000 304 422 0
2022-05-19 22:45:12 GMT 46.706791 13.330399 38,000 304 422 0
2022-05-19 22:45:09 GMT 46.704185 13.336029 38,000 304 422 0
2022-05-19 22:45:07 GMT 46.701111 13.342621 38,000 304 422 0
2022-05-19 22:45:04 GMT 46.698898 13.347451 38,000 304 422 0
2022-05-19 22:45:01 GMT 46.695648 13.354485 38,000 304 423 0
2022-05-19 22:44:58 GMT 46.691620 13.363260 38,000 304 423 64
2022-05-19 22:44:56 GMT 46.689381 13.368095 38,000 304 423 64
2022-05-19 22:44:53 GMT 46.685852 13.375788 38,000 304 424 0
2022-05-19 22:44:50 GMT 46.683014 13.381951 38,000 304 424 0
2022-05-19 22:44:47 GMT 46.680267 13.387846 38,000 304 424 0
2022-05-19 22:44:44 GMT 46.676067 13.396935 38,000 304 425 0
2022-05-19 22:44:41 GMT 46.674500 13.400373 38,000 304 425 0
2022-05-19 22:44:38 GMT 46.670109 13.409981 38,000 304 425 0
2022-05-19 22:44:35 GMT 46.667034 13.416641 38,000 304 425 0
2022-05-19 22:44:32 GMT 46.663055 13.425293 37,975 304 425 64
2022-05-19 22:44:29 GMT 46.660446 13.430987 38,000 304 425 64
2022-05-19 22:44:26 GMT 46.656509 13.439562 37,975 304 426 64
2022-05-19 22:44:23 GMT 46.653721 13.445618 37,975 304 426 64
2022-05-19 22:44:21 GMT 46.650513 13.452558 37,975 304 426 64
2022-05-19 22:44:17 GMT 46.647717 13.458664 37,975 304 426 0
2022-05-19 22:44:15 GMT 46.645706 13.463008 37,975 304 426 0
2022-05-19 22:44:12 GMT 46.641945 13.471230 37,975 304 426 0
2022-05-19 22:44:09 GMT 46.638062 13.479689 37,975 304 426 0
2022-05-19 22:44:06 GMT 46.635773 13.484646 37,975 304 426 0
2022-05-19 22:44:03 GMT 46.631657 13.493546 37,975 304 426 0
2022-05-19 22:44:00 GMT 46.629318 13.498647 37,975 304 426 0
2022-05-19 22:43:56 GMT 46.624672 13.508789 37,975 304 426 0
2022-05-19 22:43:53 GMT 46.621414 13.515930 37,975 304 426 0
2022-05-19 22:43:51 GMT 46.619785 13.519501 37,975 304 426 0
2022-05-19 22:43:48 GMT 46.615768 13.528189 37,975 304 426 0
2022-05-19 22:43:45 GMT 46.612663 13.534950 37,975 304 426 0
2022-05-19 22:43:42 GMT 46.608379 13.544357 37,975 304 426 0
2022-05-19 22:43:39 GMT 46.606796 13.547791 37,975 304 427 0
2022-05-19 22:43:36 GMT 46.601677 13.558983 37,975 304 427 0
2022-05-19 22:43:33 GMT 46.599068 13.564682 37,975 304 427 0
2022-05-19 22:43:30 GMT 46.596138 13.571136 37,975 304 427 0
2022-05-19 22:43:26 GMT 46.592377 13.579370 37,975 304 427 -64
2022-05-19 22:43:23 GMT 46.586548 13.592148 37,975 304 426 0
2022-05-19 22:43:21 GMT 46.586548 13.592148 37,975 304 426 0
2022-05-19 22:43:18 GMT 46.581940 13.602280 37,975 304 426 0
2022-05-19 22:43:15 GMT 46.579880 13.606835 37,975 304 426 0
2022-05-19 22:43:12 GMT 46.576817 13.613571 37,975 304 426 0
2022-05-19 22:43:09 GMT 46.573650 13.620506 37,975 304 426 0
2022-05-19 22:43:06 GMT 46.569649 13.629364 37,975 304 426 0
2022-05-19 22:43:03 GMT 46.566971 13.635172 37,975 304 427 0
2022-05-19 22:43:01 GMT 46.565460 13.638522 37,975 304 427 0
2022-05-19 22:42:59 GMT 46.562992 13.643852 37,975 304 426 0
2022-05-19 22:42:56 GMT 46.559082 13.652435 37,975 304 426 0
2022-05-19 22:42:53 GMT 46.555820 13.659645 38,000 304 427 0
2022-05-19 22:42:50 GMT 46.553448 13.664864 37,975 304 427 0
2022-05-19 22:42:47 GMT 46.549576 13.673356 37,975 304 426 0
2022-05-19 22:42:43 GMT 46.545441 13.682579 38,000 304 427 0
2022-05-19 22:42:41 GMT 46.542137 13.689857 37,975 304 427 0
2022-05-19 22:42:38 GMT 46.539963 13.694592 37,975 304 427 0
2022-05-19 22:42:35 GMT 46.533615 13.708603 37,975 304 426 0
2022-05-19 22:42:32 GMT 46.533615 13.708603 37,975 304 426 0
2022-05-19 22:42:29 GMT 46.527420 13.722326 37,975 304 426 0
2022-05-19 22:42:26 GMT 46.527420 13.722326 37,975 304 426 0
2022-05-19 22:42:23 GMT 46.523468 13.731056 37,975 304 427 0
2022-05-19 22:42:21 GMT 46.518631 13.741686 37,975 304 427 -64
2022-05-19 22:42:18 GMT 46.518631 13.741686 37,975 304 427 -64
2022-05-19 22:42:15 GMT 46.514809 13.750214 38,000 304 427 -64
2022-05-19 22:42:12 GMT 46.511536 13.757495 38,000 304 427 -64
2022-05-19 22:42:09 GMT 46.507736 13.765869 38,000 304 427 -64
2022-05-19 22:42:06 GMT 46.505638 13.770538 38,000 304 427 0
2022-05-19 22:42:03 GMT 46.501923 13.778798 38,000 304 427 0
2022-05-19 22:42:01 GMT 46.499863 13.783353 38,000 304 427 0
2022-05-19 22:41:58 GMT 46.496468 13.790932 38,000 304 427 0
2022-05-19 22:41:55 GMT 46.493042 13.798426 38,000 304 427 0
2022-05-19 22:41:52 GMT 46.490089 13.805008 38,000 304 427 0
2022-05-19 22:41:49 GMT 46.483387 13.819839 38,000 304 427 0
2022-05-19 22:41:46 GMT 46.483387 13.819839 38,000 304 427 0
2022-05-19 22:41:43 GMT 46.480175 13.827049 38,000 304 427 0
2022-05-19 22:41:41 GMT 46.478455 13.830894 38,000 304 427 0
2022-05-19 22:41:38 GMT 46.474823 13.838888 38,000 303 427 0
2022-05-19 22:41:34 GMT 46.471237 13.846962 38,000 303 427 0
2022-05-19 22:41:32 GMT 46.468395 13.853142 38,000 303 427 0
2022-05-19 22:41:29 GMT 46.465092 13.860626 38,000 303 427 0
2022-05-19 22:41:26 GMT 46.462326 13.866689 38,000 303 428 0
2022-05-19 22:41:23 GMT 46.458389 13.875458 38,000 303 427 0
2022-05-19 22:41:21 GMT 46.457291 13.878010 38,000 303 427 0
2022-05-19 22:41:18 GMT 46.453079 13.887389 38,000 303 427 -64
2022-05-19 22:41:15 GMT 46.448868 13.896767 38,000 303 427 0
2022-05-19 22:41:12 GMT 46.446075 13.902997 38,000 303 427 -64
2022-05-19 22:41:08 GMT 46.442230 13.911572 38,000 303 427 0
2022-05-19 22:41:05 GMT 46.439713 13.917132 38,000 303 427 0
2022-05-19 22:41:02 GMT 46.435959 13.925506 38,000 303 427 0
2022-05-19 22:40:59 GMT 46.432552 13.933067 38,000 303 427 0
2022-05-19 22:40:56 GMT 46.428864 13.941315 38,000 303 428 0
2022-05-19 22:40:53 GMT 46.426392 13.946876 38,000 303 428 0
2022-05-19 22:40:51 GMT 46.423336 13.953735 38,000 303 428 0
2022-05-19 22:40:48 GMT 46.420578 13.959805 38,000 303 428 64
2022-05-19 22:40:45 GMT 46.417980 13.965752 38,000 303 428 64
2022-05-19 22:40:42 GMT 46.413979 13.974609 38,000 303 428 64
2022-05-19 22:40:39 GMT 46.410625 13.982162 38,000 303 428 64
2022-05-19 22:40:35 GMT 46.407120 13.990151 38,000 303 428 0
2022-05-19 22:40:32 GMT 46.404388 13.996307 38,000 303 428 0
2022-05-19 22:40:30 GMT 46.401733 14.002350 38,000 303 428 0
2022-05-19 22:40:27 GMT 46.398197 14.010246 38,000 303 428 0
2022-05-19 22:40:24 GMT 46.396053 14.015121 38,000 303 428 0
2022-05-19 22:40:21 GMT 46.392376 14.023567 38,000 303 428 0
2022-05-19 22:40:18 GMT 46.388744 14.031738 38,000 303 428 0
2022-05-19 22:40:15 GMT 46.385513 14.039121 38,000 303 427 0
2022-05-19 22:40:12 GMT 46.382370 14.046227 38,000 303 428 0
2022-05-19 22:40:07 GMT 46.377548 14.057208 38,000 303 428 0
2022-05-19 22:40:04 GMT 46.370590 14.073006 38,000 303 427 0
2022-05-19 22:40:01 GMT 46.367519 14.080009 38,000 303 428 0
2022-05-19 22:39:58 GMT 46.367519 14.080009 38,000 303 428 0
2022-05-19 22:39:55 GMT 46.361206 14.094320 38,000 303 428 0
2022-05-19 22:39:51 GMT 46.361206 14.094320 38,000 303 428 0
2022-05-19 22:39:48 GMT 46.357864 14.101823 38,000 303 427 0
2022-05-19 22:39:45 GMT 46.352646 14.113613 38,000 303 428 0
2022-05-19 22:39:41 GMT 46.349361 14.120934 38,000 303 428 0
2022-05-19 22:39:38 GMT 46.346012 14.128487 38,000 303 427 0
2022-05-19 22:39:35 GMT 46.343266 14.134598 38,000 303 427 0
2022-05-19 22:39:32 GMT 46.339958 14.142014 38,000 303 427 0
2022-05-19 22:39:30 GMT 46.337910 14.146545 38,000 303 427 64
2022-05-19 22:39:27 GMT 46.334419 14.154373 38,000 303 426 0
2022-05-19 22:39:24 GMT 46.331131 14.161779 38,000 303 427 64
2022-05-19 22:39:21 GMT 46.328274 14.168106 38,000 303 426 64
2022-05-19 22:39:18 GMT 46.321701 14.182814 37,975 303 426 64
2022-05-19 22:39:15 GMT 46.318451 14.190147 37,975 303 426 64
2022-05-19 22:39:12 GMT 46.318451 14.190147 37,975 303 426 64
2022-05-19 22:39:10 GMT 46.316391 14.194805 37,975 303 426 64
2022-05-19 22:39:07 GMT 46.313240 14.201889 37,975 303 426 64
2022-05-19 22:39:04 GMT 46.310074 14.208940 37,975 303 426 0
2022-05-19 22:39:01 GMT 46.307327 14.215170 37,975 303 426 0
2022-05-19 22:38:58 GMT 46.302670 14.225578 37,975 303 426 0
2022-05-19 22:38:55 GMT 46.300507 14.230510 37,975 303 426 64
2022-05-19 22:38:52 GMT 46.294617 14.243774 37,975 303 426 0
2022-05-19 22:38:50 GMT 46.294617 14.243774 37,975 303 426 0
2022-05-19 22:38:45 GMT 46.289978 14.254158 37,975 303 426 64
2022-05-19 22:38:42 GMT 46.286938 14.261009 37,975 303 426 0
2022-05-19 22:38:40 GMT 46.283772 14.268150 37,975 303 426 64
2022-05-19 22:38:37 GMT 46.279999 14.276665 37,975 303 426 64
2022-05-19 22:38:33 GMT 46.276649 14.284149 37,975 303 426 64
2022-05-19 22:38:30 GMT 46.273853 14.290398 37,975 303 426 64
2022-05-19 22:38:27 GMT 46.271015 14.296783 37,975 303 424 0
2022-05-19 22:38:24 GMT 46.267136 14.305539 37,975 303 425 0
2022-05-19 22:38:21 GMT 46.265030 14.310295 37,975 303 425 0
2022-05-19 22:38:19 GMT 46.262146 14.316793 37,975 303 424 0
2022-05-19 22:38:15 GMT 46.257294 14.327713 37,950 303 424 0
2022-05-19 22:38:11 GMT 46.251068 14.341780 37,975 303 424 0
2022-05-19 22:38:08 GMT 46.251068 14.341780 37,975 303 424 64
2022-05-19 22:38:04 GMT 46.243225 14.359612 37,950 303 424 0
2022-05-19 22:38:01 GMT 46.243225 14.359612 37,950 303 424 64
2022-05-19 22:37:59 GMT 46.240479 14.365791 37,950 303 424 0
2022-05-19 22:37:54 GMT 46.236282 14.375208 37,950 303 424 0
2022-05-19 22:37:51 GMT 46.232620 14.383515 37,950 303 424 0
2022-05-19 22:37:48 GMT 46.229965 14.389477 37,950 303 424 0
2022-05-19 22:37:44 GMT 46.221996 14.407402 37,950 303 424 0
2022-05-19 22:37:41 GMT 46.221996 14.407402 37,950 303 424 0
2022-05-19 22:37:39 GMT 46.220413 14.410973 37,950 303 423 0
2022-05-19 22:37:36 GMT 46.216316 14.420242 37,950 303 423 0
2022-05-19 22:37:33 GMT 46.213570 14.426491 37,950 303 423 0
2022-05-19 22:37:30 GMT 46.211384 14.431435 37,950 303 423 0
2022-05-19 22:37:27 GMT 46.208221 14.438715 37,950 303 423 0
2022-05-19 22:37:24 GMT 46.204494 14.447159 37,950 303 423 -64
2022-05-19 22:37:21 GMT 46.200954 14.455261 37,950 303 423 -64
2022-05-19 22:37:18 GMT 46.198021 14.461922 37,950 303 423 0
2022-05-19 22:37:14 GMT 46.193573 14.472076 37,950 303 422 0
2022-05-19 22:37:10 GMT 46.190434 14.479362 37,975 302 422 0
2022-05-19 22:37:07 GMT 46.182426 14.497696 37,975 302 423 0
2022-05-19 22:37:04 GMT 46.182426 14.497696 37,975 302 423 0
2022-05-19 22:37:01 GMT 46.180069 14.503092 37,975 302 423 -64
2022-05-19 22:36:58 GMT 46.176453 14.511399 37,975 302 423 -64
2022-05-19 22:36:54 GMT 46.173157 14.519036 37,975 302 422 0
2022-05-19 22:36:51 GMT 46.170044 14.526203 37,975 302 422 0
2022-05-19 22:36:49 GMT 46.168137 14.530655 37,975 302 422 0
2022-05-19 22:36:46 GMT 46.165573 14.536560 37,975 302 423 -64
2022-05-19 22:36:43 GMT 46.160828 14.547615 37,975 302 422 -64
2022-05-19 22:36:40 GMT 46.158871 14.552147 37,975 302 422 -64
2022-05-19 22:36:36 GMT 46.155334 14.560249 37,975 302 423 -64
2022-05-19 22:36:33 GMT 46.151424 14.569313 37,975 302 423 0
2022-05-19 22:36:30 GMT 46.148254 14.576580 38,000 302 423 0
2022-05-19 22:36:27 GMT 46.145653 14.582634 38,000 302 423 0
2022-05-19 22:36:24 GMT 46.142345 14.590324 37,975 302 423 0
2022-05-19 22:36:21 GMT 46.139053 14.597816 38,000 303 422 0
2022-05-19 22:36:19 GMT 46.136261 14.604247 38,000 303 422 0
2022-05-19 22:36:16 GMT 46.134151 14.609138 37,975 303 422 64
2022-05-19 22:36:13 GMT 46.130997 14.616372 37,975 303 422 0
2022-05-19 22:36:10 GMT 46.127586 14.624107 37,975 303 422 0
2022-05-19 22:36:07 GMT 46.123444 14.633652 37,975 303 422 0
2022-05-19 22:36:03 GMT 46.120377 14.640622 37,975 303 422 0
2022-05-19 22:36:00 GMT 46.117264 14.647790 37,975 303 422 0
2022-05-19 22:35:58 GMT 46.115112 14.652672 37,975 303 422 0
2022-05-19 22:35:55 GMT 46.112598 14.658371 37,975 303 422 0
2022-05-19 22:35:52 GMT 46.108383 14.668021 37,975 303 422 0
2022-05-19 22:35:49 GMT 46.106266 14.672928 37,975 303 422 0
2022-05-19 22:35:46 GMT 46.102661 14.681084 37,975 303 422 0
2022-05-19 22:35:43 GMT 46.099098 14.689339 37,975 303 423 0
2022-05-19 22:35:40 GMT 46.095474 14.697563 37,975 303 423 0
2022-05-19 22:35:35 GMT 46.088020 14.714539 37,975 303 423 0
2022-05-19 22:35:32 GMT 46.088020 14.714539 37,975 303 422 64
2022-05-19 22:35:29 GMT 46.084808 14.721886 37,975 303 422 64
2022-05-19 22:35:25 GMT 46.080757 14.731155 37,975 303 422 64
2022-05-19 22:35:22 GMT 46.078056 14.737335 37,975 303 423 0
2022-05-19 22:35:19 GMT 46.074875 14.744590 37,975 303 422 0
2022-05-19 22:35:16 GMT 46.070618 14.754371 37,975 303 422 0
2022-05-19 22:35:12 GMT 46.067688 14.761003 37,975 303 422 0
2022-05-19 22:35:09 GMT 46.063614 14.770314 37,975 303 422 -64
2022-05-19 22:35:05 GMT 46.056152 14.787397 37,975 303 422 0
2022-05-19 22:35:02 GMT 46.056152 14.787397 37,975 303 422 0
2022-05-19 22:34:59 GMT 46.050777 14.799683 37,975 303 422 0
2022-05-19 22:34:56 GMT 46.050777 14.799683 37,975 303 422 0
2022-05-19 22:34:53 GMT 46.047237 14.807716 37,975 303 422 0
2022-05-19 22:34:50 GMT 46.044159 14.814729 37,975 303 422 0
2022-05-19 22:34:48 GMT 46.039307 14.825916 37,975 303 422 0
2022-05-19 22:34:45 GMT 46.039307 14.825916 37,975 303 422 0
2022-05-19 22:34:42 GMT 46.035694 14.834084 37,975 303 423 0
2022-05-19 22:34:39 GMT 46.032211 14.842060 37,975 302 423 64
2022-05-19 22:34:36 GMT 46.029739 14.847755 37,975 302 423 64
2022-05-19 22:34:33 GMT 46.026897 14.854340 37,975 302 423 64
2022-05-19 22:34:30 GMT 46.023357 14.862373 37,975 302 423 0
2022-05-19 22:34:26 GMT 46.019577 14.871067 37,975 302 423 0
2022-05-19 22:34:23 GMT 46.016933 14.877136 37,975 302 423 0
2022-05-19 22:34:20 GMT 46.013302 14.885513 37,975 302 424 0
2022-05-19 22:34:16 GMT 46.008362 14.896791 37,975 302 424 0
2022-05-19 22:34:13 GMT 46.005016 14.904602 37,975 302 424 0
2022-05-19 22:34:10 GMT 46.002876 14.909615 37,975 302 423 0
2022-05-19 22:34:08 GMT 46.000214 14.915682 37,975 302 423 0
2022-05-19 22:34:05 GMT 45.998219 14.920326 37,975 302 423 0
2022-05-19 22:34:02 GMT 45.993622 14.930889 37,975 302 423 0
2022-05-19 22:33:59 GMT 45.989094 14.941269 37,975 302 423 0
2022-05-19 22:33:57 GMT 45.987045 14.946007 37,975 302 423 0
2022-05-19 22:33:51 GMT 45.983368 14.954469 37,975 302 423 0
2022-05-19 22:33:48 GMT 45.980808 14.960289 37,975 302 423 0
2022-05-19 22:33:46 GMT 45.978836 14.964920 37,975 302 423 0
2022-05-19 22:33:43 GMT 45.974579 14.974700 37,975 302 424 0
2022-05-19 22:33:39 GMT 45.971466 14.981868 37,975 302 424 0
2022-05-19 22:33:37 GMT 45.968426 14.988853 37,975 302 424 0
2022-05-19 22:33:34 GMT 45.966331 14.993660 37,975 302 424 0
2022-05-19 22:33:31 GMT 45.962330 15.002930 37,975 302 424 0
2022-05-19 22:33:28 GMT 45.959244 15.009937 37,975 302 424 0
2022-05-19 22:33:25 GMT 45.955997 15.017487 37,975 302 424 0
2022-05-19 22:33:22 GMT 45.950829 15.029366 37,975 302 424 0
2022-05-19 22:33:19 GMT 45.948128 15.035614 37,975 302 424 64
2022-05-19 22:33:17 GMT 45.948128 15.035614 37,975 302 424 0
2022-05-19 22:33:14 GMT 45.945511 15.041690 37,975 302 424 0
2022-05-19 22:33:11 GMT 45.941799 15.050102 37,975 303 424 0
2022-05-19 22:33:08 GMT 45.939240 15.056076 37,975 303 424 0
2022-05-19 22:33:05 GMT 45.935623 15.064333 37,975 303 424 0
2022-05-19 22:33:02 GMT 45.932674 15.071114 37,975 303 424 0
2022-05-19 22:32:59 GMT 45.929398 15.078601 37,975 302 424 0
2022-05-19 22:32:56 GMT 45.925320 15.088005 37,975 302 424 0
2022-05-19 22:32:53 GMT 45.923130 15.093018 37,975 302 424 0
2022-05-19 22:32:49 GMT 45.918289 15.104279 37,975 302 424 0
2022-05-19 22:32:44 GMT 45.910843 15.121445 37,975 302 424 0
2022-05-19 22:32:41 GMT 45.910843 15.121445 37,975 302 424 0
2022-05-19 22:32:38 GMT 45.908142 15.127625 37,975 302 424 0
2022-05-19 22:32:34 GMT 45.903812 15.137650 37,975 302 424 0
2022-05-19 22:32:31 GMT 45.900879 15.144452 37,975 302 424 0
2022-05-19 22:32:28 GMT 45.897434 15.152481 37,950 302 425 0
2022-05-19 22:32:25 GMT 45.890167 15.169373 37,950 302 425 0
2022-05-19 22:32:21 GMT 45.890167 15.169373 37,975 302 425 0
2022-05-19 22:32:18 GMT 45.887238 15.176170 37,975 302 425 0
2022-05-19 22:32:14 GMT 45.883610 15.184547 37,975 302 424 0
2022-05-19 22:32:11 GMT 45.880024 15.192924 37,975 302 425 0
2022-05-19 22:32:08 GMT 45.876801 15.200456 37,975 302 425 0
2022-05-19 22:32:05 GMT 45.873554 15.208031 37,975 302 425 0
2022-05-19 22:32:02 GMT 45.870255 15.215796 37,975 302 425 0
2022-05-19 22:31:59 GMT 45.867130 15.223137 37,975 302 424 0
2022-05-19 22:31:56 GMT 45.864487 15.229261 37,975 302 424 0
2022-05-19 22:31:52 GMT 45.860657 15.238243 37,975 302 424 0
2022-05-19 22:31:49 GMT 45.857121 15.246689 37,975 302 425 0
2022-05-19 22:31:46 GMT 45.854187 15.253512 37,975 302 425 0
2022-05-19 22:31:42 GMT 45.849438 15.264679 37,975 302 425 0
2022-05-19 22:31:39 GMT 45.847458 15.269388 37,975 302 425 0
2022-05-19 22:31:37 GMT 45.845482 15.274086 37,975 302 425 0
2022-05-19 22:31:33 GMT 45.840225 15.286471 37,975 302 425 0
2022-05-19 22:31:29 GMT 45.832672 15.304290 37,975 302 425 0
2022-05-19 22:31:26 GMT 45.832672 15.304290 37,975 302 425 0
2022-05-19 22:31:23 GMT 45.831188 15.307732 37,975 302 425 0
2022-05-19 22:31:20 GMT 45.828213 15.314667 37,975 304 425 0
2022-05-19 22:31:17 GMT 45.824951 15.322014 37,975 304 425 0
2022-05-19 22:31:14 GMT 45.817383 15.338254 37,975 305 425 0
2022-05-19 22:31:11 GMT 45.817383 15.338254 37,975 306 424 0
2022-05-19 22:31:08 GMT 45.814941 15.343231 37,975 307 424 0
2022-05-19 22:31:05 GMT 45.811432 15.350178 38,000 309 423 0
2022-05-19 22:31:02 GMT 45.807774 15.357239 37,975 308 424 0
2022-05-19 22:30:58 GMT 45.802376 15.367264 37,975 309 423 0
2022-05-19 22:30:55 GMT 45.798935 15.373490 37,975 309 424 0
2022-05-19 22:30:52 GMT 45.795410 15.379922 37,975 309 424 0
2022-05-19 22:30:49 GMT 45.788635 15.392248 37,975 309 424 0
2022-05-19 22:30:46 GMT 45.788635 15.392248 37,975 309 424 0
2022-05-19 22:30:43 GMT 45.783615 15.401390 37,975 309 424 0
2022-05-19 22:30:39 GMT 45.779888 15.408188 38,000 309 424 0
2022-05-19 22:30:37 GMT 45.776917 15.413617 38,000 309 424 0
2022-05-19 22:30:34 GMT 45.773327 15.420135 37,975 309 424 0
2022-05-19 22:30:31 GMT 45.771046 15.424324 38,000 309 424 0
2022-05-19 22:30:28 GMT 45.767075 15.431437 37,975 309 424 0
2022-05-19 22:30:25 GMT 45.758881 15.446442 38,000 309 424 0
2022-05-19 22:30:22 GMT 45.758881 15.446442 38,000 309 424 0
2022-05-19 22:30:18 GMT 45.754623 15.454213 38,000 309 424 0
2022-05-19 22:30:16 GMT 45.752144 15.458725 37,975 309 425 0
2022-05-19 22:30:12 GMT 45.747345 15.467410 38,000 309 425 0
2022-05-19 22:30:09 GMT 45.740971 15.478981 38,000 309 425 0
2022-05-19 22:30:07 GMT 45.740971 15.478981 38,000 309 425 0
2022-05-19 22:30:04 GMT 45.737343 15.485641 38,000 309 425 0
2022-05-19 22:30:01 GMT 45.734116 15.491460 38,000 309 425 0
2022-05-19 22:29:58 GMT 45.730362 15.498293 38,000 309 425 0
2022-05-19 22:29:56 GMT 45.727005 15.504318 38,000 309 425 0
2022-05-19 22:29:51 GMT 45.718254 15.520248 38,000 309 425 64
2022-05-19 22:29:48 GMT 45.718254 15.520248 37,975 309 425 64
2022-05-19 22:29:45 GMT 45.715027 15.526093 37,975 309 425 64
2022-05-19 22:29:41 GMT 45.708290 15.538307 37,975 309 426 64
2022-05-19 22:29:38 GMT 45.704754 15.544693 37,975 309 426 64
2022-05-19 22:29:35 GMT 45.702713 15.548334 37,975 309 426 0
2022-05-19 22:29:32 GMT 45.698517 15.555954 37,975 309 426 0
2022-05-19 22:29:29 GMT 45.694279 15.563713 37,975 309 426 0
2022-05-19 22:29:26 GMT 45.690601 15.570305 37,975 309 426 0
2022-05-19 22:29:23 GMT 45.686920 15.577006 37,975 309 426 0
2022-05-19 22:29:19 GMT 45.680923 15.587858 37,975 309 426 0
2022-05-19 22:29:15 GMT 45.677856 15.593351 37,975 309 426 -64
2022-05-19 22:29:12 GMT 45.674332 15.599782 37,975 309 426 -64
2022-05-19 22:29:09 GMT 45.670578 15.606615 37,975 309 426 -64
2022-05-19 22:29:07 GMT 45.668674 15.609993 37,975 309 426 0
2022-05-19 22:29:05 GMT 45.665451 15.615860 37,975 309 426 0
2022-05-19 22:29:02 GMT 45.662067 15.621941 37,975 309 426 0
2022-05-19 22:28:59 GMT 45.658295 15.628738 37,975 309 426 0
2022-05-19 22:28:57 GMT 45.656296 15.632406 37,975 309 426 0
2022-05-19 22:28:54 GMT 45.652569 15.639107 37,975 309 426 0
2022-05-19 22:28:51 GMT 45.648239 15.646943 37,975 309 426 0
2022-05-19 22:28:48 GMT 45.642380 15.657527 37,975 309 426 0
2022-05-19 22:28:46 GMT 45.642380 15.657527 37,975 309 426 0
2022-05-19 22:28:43 GMT 45.639397 15.662933 37,975 309 426 0
2022-05-19 22:28:40 GMT 45.635559 15.669853 37,975 309 426 0
2022-05-19 22:28:37 GMT 45.631855 15.676529 37,975 309 425 0
2022-05-19 22:28:35 GMT 45.628235 15.683050 37,975 309 426 0
2022-05-19 22:28:32 GMT 45.626221 15.686691 37,975 309 426 0
2022-05-19 22:28:29 GMT 45.621239 15.695755 37,975 309 426 0
2022-05-19 22:28:27 GMT 45.619720 15.698458 37,975 309 426 0
2022-05-19 22:28:25 GMT 45.617752 15.702009 37,975 309 426 0
2022-05-19 22:28:22 GMT 45.612953 15.710724 37,975 309 426 0
2022-05-19 22:28:19 GMT 45.608505 15.718756 37,975 309 426 0
2022-05-19 22:28:16 GMT 45.605576 15.724048 37,975 309 426 0
2022-05-19 22:28:12 GMT 45.600246 15.733589 37,975 309 426 0
2022-05-19 22:28:09 GMT 45.596878 15.739657 37,975 309 426 0
2022-05-19 22:28:07 GMT 45.595123 15.742859 37,975 309 426 0
2022-05-19 22:28:05 GMT 45.592712 15.747093 37,975 309 426 0
2022-05-19 22:28:02 GMT 45.588608 15.754463 37,975 309 426 0
2022-05-19 22:27:59 GMT 45.581345 15.767509 37,975 309 426 64
2022-05-19 22:27:56 GMT 45.581345 15.767509 37,975 309 426 64
2022-05-19 22:27:53 GMT 45.578293 15.773018 37,975 309 426 64
2022-05-19 22:27:50 GMT 45.574409 15.779869 37,975 309 426 0
2022-05-19 22:27:47 GMT 45.570465 15.787019 37,975 309 426 0
2022-05-19 22:27:45 GMT 45.562363 15.801488 37,975 309 426 0
2022-05-19 22:27:41 GMT 45.559746 15.806236 37,975 309 426 0
2022-05-19 22:27:38 GMT 45.559746 15.806236 37,950 309 426 0
2022-05-19 22:27:36 GMT 45.555882 15.813171 37,975 309 426 0
2022-05-19 22:27:33 GMT 45.553436 15.817566 37,975 309 426 0
2022-05-19 22:27:30 GMT 45.550369 15.822992 37,975 309 426 0
2022-05-19 22:27:27 GMT 45.546013 15.830830 37,975 309 426 0
2022-05-19 22:27:25 GMT 45.544098 15.834176 37,975 309 426 0
2022-05-19 22:27:22 GMT 45.539402 15.842620 37,975 309 426 -64
2022-05-19 22:27:18 GMT 45.534374 15.851597 37,975 309 426 -64
2022-05-19 22:27:15 GMT 45.530090 15.859301 37,975 309 426 -64
2022-05-19 22:27:12 GMT 45.527069 15.864650 37,975 309 426 -64
2022-05-19 22:27:08 GMT 45.522224 15.873301 37,975 309 426 0
2022-05-19 22:27:06 GMT 45.521011 15.875512 37,975 309 426 0
2022-05-19 22:27:04 GMT 45.518543 15.879933 37,975 309 426 0
2022-05-19 22:27:01 GMT 45.514263 15.887570 37,975 309 426 0
2022-05-19 22:26:58 GMT 45.510490 15.894336 37,975 309 426 0
2022-05-19 22:26:56 GMT 45.508537 15.897887 37,975 309 426 0
2022-05-19 22:26:54 GMT 45.505695 15.902911 37,975 309 426 0
2022-05-19 22:26:51 GMT 45.501984 15.909576 37,975 309 426 0
2022-05-19 22:26:48 GMT 45.496292 15.919792 37,975 309 426 0
2022-05-19 22:26:46 GMT 45.493149 15.925402 37,975 309 426 0
2022-05-19 22:26:44 GMT 45.493149 15.925402 37,975 309 426 0
2022-05-19 22:26:41 GMT 45.489449 15.932051 37,975 309 426 0
2022-05-19 22:26:38 GMT 45.485962 15.938350 37,975 309 426 0
2022-05-19 22:26:36 GMT 45.483719 15.942274 37,975 309 426 0
2022-05-19 22:26:34 GMT 45.480976 15.947191 37,975 309 426 0
2022-05-19 22:26:31 GMT 45.473557 15.960454 37,975 309 426 0
2022-05-19 22:26:28 GMT 45.469757 15.967255 37,975 309 426 0
2022-05-19 22:26:26 GMT 45.469757 15.967255 37,975 309 426 0
2022-05-19 22:26:23 GMT 45.468521 15.969478 37,975 309 426 0
2022-05-19 22:26:20 GMT 45.463566 15.978341 37,975 309 426 0
2022-05-19 22:26:17 GMT 45.460632 15.983567 37,975 309 426 0
2022-05-19 22:26:15 GMT 45.457626 15.988966 37,975 309 426 0
2022-05-19 22:26:12 GMT 45.453690 15.995963 37,975 309 426 0
2022-05-19 22:26:09 GMT 45.450027 16.002567 37,975 309 426 0
2022-05-19 22:26:06 GMT 45.446621 16.008554 37,975 309 426 0
2022-05-19 22:26:04 GMT 45.443550 16.014048 37,975 309 426 -64
2022-05-19 22:26:00 GMT 45.438446 16.023102 37,975 309 426 -64
2022-05-19 22:25:57 GMT 45.433685 16.031670 38,000 309 426 0
2022-05-19 22:25:55 GMT 45.433685 16.031670 38,000 309 426 0
2022-05-19 22:25:53 GMT 45.427212 16.043188 37,975 309 426 0
2022-05-19 22:25:50 GMT 45.424000 16.048882 37,975 309 426 0
2022-05-19 22:25:47 GMT 45.424000 16.048882 37,975 309 426 0
2022-05-19 22:25:45 GMT 45.421532 16.053236 37,975 309 426 0
2022-05-19 22:25:43 GMT 45.418365 16.058929 37,975 309 426 0
2022-05-19 22:25:40 GMT 45.415192 16.064497 38,000 309 426 0
2022-05-19 22:25:37 GMT 45.411758 16.070578 38,000 309 426 0
2022-05-19 22:25:35 GMT 45.406170 16.080568 38,000 309 426 0
2022-05-19 22:25:33 GMT 45.406170 16.080568 37,975 309 426 0
2022-05-19 22:25:30 GMT 45.402817 16.086464 38,000 309 426 -64
2022-05-19 22:25:27 GMT 45.399445 16.092485 37,975 309 426 -64
2022-05-19 22:25:25 GMT 45.396973 16.096802 38,000 309 426 -64
2022-05-19 22:25:23 GMT 45.394066 16.101938 37,975 309 426 -64
2022-05-19 22:25:20 GMT 45.389874 16.109373 38,000 309 426 0
2022-05-19 22:25:17 GMT 45.386570 16.115335 38,000 309 426 0
2022-05-19 22:25:15 GMT 45.384155 16.119558 38,000 309 426 0
2022-05-19 22:25:13 GMT 45.377380 16.131592 38,000 309 426 0
2022-05-19 22:25:10 GMT 45.377380 16.131592 38,000 309 426 0
2022-05-19 22:25:07 GMT 45.374233 16.137175 38,000 309 426 0
2022-05-19 22:25:03 GMT 45.368694 16.146955 38,000 309 426 0
2022-05-19 22:24:59 GMT 45.360855 16.160824 38,000 309 426 0
2022-05-19 22:24:56 GMT 45.360855 16.160824 38,000 309 426 0
2022-05-19 22:24:54 GMT 45.357880 16.166056 38,000 309 425 0
2022-05-19 22:24:51 GMT 45.350677 16.178843 37,975 309 426 0
2022-05-19 22:24:48 GMT 45.350677 16.178843 37,975 309 427 0
2022-05-19 22:24:45 GMT 45.347374 16.184736 38,000 309 427 0
2022-05-19 22:24:43 GMT 45.343510 16.191504 37,975 309 427 0
2022-05-19 22:24:40 GMT 45.336479 16.203962 38,000 309 427 0
2022-05-19 22:24:37 GMT 45.336479 16.203962 38,000 309 427 0
2022-05-19 22:24:35 GMT 45.334663 16.207247 37,975 309 427 0
2022-05-19 22:24:32 GMT 45.330940 16.213812 37,975 309 427 0
2022-05-19 22:24:28 GMT 45.322495 16.228767 38,000 309 427 0
2022-05-19 22:24:25 GMT 45.322495 16.228767 38,000 309 427 0
2022-05-19 22:24:22 GMT 45.318695 16.235571 38,000 309 427 0
2022-05-19 22:24:19 GMT 45.311714 16.247908 38,000 309 427 0
2022-05-19 22:24:16 GMT 45.311714 16.247908 37,975 309 427 -64
2022-05-19 22:24:13 GMT 45.307289 16.255747 38,000 309 427 -64
2022-05-19 22:24:10 GMT 45.303772 16.261990 38,000 309 427 0
2022-05-19 22:24:07 GMT 45.297653 16.272762 38,000 309 427 0
2022-05-19 22:24:05 GMT 45.293655 16.279907 38,000 309 427 0
2022-05-19 22:24:02 GMT 45.293655 16.279907 38,000 309 426 0
2022-05-19 22:23:58 GMT 45.288940 16.288212 38,000 309 426 0
2022-05-19 22:23:55 GMT 45.284805 16.295471 38,000 309 426 0
2022-05-19 22:23:52 GMT 45.281433 16.301489 38,000 309 426 64
2022-05-19 22:23:48 GMT 45.276627 16.309990 37,975 309 426 64
2022-05-19 22:23:45 GMT 45.272610 16.317108 37,975 309 427 0
2022-05-19 22:23:41 GMT 45.267673 16.325817 37,975 309 427 0
2022-05-19 22:23:38 GMT 45.263260 16.333530 37,975 309 427 0
2022-05-19 22:23:34 GMT 45.259388 16.340422 37,975 309 427 0
2022-05-19 22:23:32 GMT 45.257446 16.343798 37,975 309 427 0
2022-05-19 22:23:29 GMT 45.253429 16.350872 37,975 309 427 0
2022-05-19 22:23:26 GMT 45.250259 16.356419 37,975 309 427 0
2022-05-19 22:23:24 GMT 45.247192 16.361847 37,975 309 427 0
2022-05-19 22:23:21 GMT 45.243191 16.368959 37,975 309 427 0
2022-05-19 22:23:18 GMT 45.239929 16.374586 37,975 309 427 0
2022-05-19 22:23:15 GMT 45.235657 16.382118 37,975 309 427 0
2022-05-19 22:23:11 GMT 45.229477 16.392975 37,975 309 427 0
2022-05-19 22:23:07 GMT 45.225685 16.399572 37,975 309 426 0
2022-05-19 22:23:04 GMT 45.222794 16.404680 37,975 309 426 0
2022-05-19 22:23:02 GMT 45.219494 16.410425 37,975 309 426 0
2022-05-19 22:22:59 GMT 45.215164 16.418062 37,975 309 426 0
2022-05-19 22:22:56 GMT 45.212696 16.422350 37,975 309 426 0
2022-05-19 22:22:54 GMT 45.210159 16.426849 37,975 309 426 0
2022-05-19 22:22:52 GMT 45.207253 16.431929 37,975 309 426 0
2022-05-19 22:22:49 GMT 45.203526 16.438427 37,975 309 426 0
2022-05-19 22:22:46 GMT 45.200592 16.443525 37,975 309 425 0
2022-05-19 22:22:42 GMT 45.190842 16.460592 37,975 309 424 0
2022-05-19 22:22:39 GMT 45.190842 16.460592 37,975 309 425 0
2022-05-19 22:22:36 GMT 45.188095 16.465366 37,975 309 425 0
2022-05-19 22:22:34 GMT 45.185417 16.470047 37,975 309 425 0
2022-05-19 22:22:31 GMT 45.182281 16.475569 37,975 309 425 0
2022-05-19 22:22:28 GMT 45.173313 16.491282 37,950 309 425 64
2022-05-19 22:22:24 GMT 45.173313 16.491282 37,950 309 425 64
2022-05-19 22:22:21 GMT 45.164284 16.507025 37,950 309 425 0
2022-05-19 22:22:17 GMT 45.164284 16.507025 37,950 309 425 0
2022-05-19 22:22:14 GMT 45.160492 16.513628 37,950 309 425 0
2022-05-19 22:22:11 GMT 45.157288 16.519253 37,950 309 425 0
2022-05-19 22:22:08 GMT 45.152271 16.528061 37,950 309 425 0
2022-05-19 22:22:05 GMT 45.149734 16.532461 37,950 309 425 0
2022-05-19 22:22:02 GMT 45.145660 16.539591 37,950 309 425 0
2022-05-19 22:21:59 GMT 45.142494 16.545141 37,950 309 425 0
2022-05-19 22:21:56 GMT 45.136211 16.556129 37,950 309 425 0
2022-05-19 22:21:53 GMT 45.134815 16.558540 37,950 309 425 0
2022-05-19 22:21:49 GMT 45.130161 16.566713 37,950 309 425 0
2022-05-19 22:21:46 GMT 45.125381 16.575033 37,950 309 425 0
2022-05-19 22:21:44 GMT 45.123276 16.578695 37,950 309 425 0
2022-05-19 22:21:42 GMT 45.120804 16.583012 37,950 309 425 0
2022-05-19 22:21:39 GMT 45.111958 16.598467 37,950 309 425 0
2022-05-19 22:21:35 GMT 45.108810 16.603939 37,950 309 425 0
2022-05-19 22:21:30 GMT 45.105812 16.609251 37,950 309 425 -64
2022-05-19 22:21:27 GMT 45.101856 16.616152 37,950 309 425 0
2022-05-19 22:21:24 GMT 45.098038 16.622850 37,950 309 425 0
2022-05-19 22:21:21 GMT 45.094620 16.628723 37,950 309 425 0
2022-05-19 22:21:18 GMT 45.090775 16.635460 37,950 309 424 0
2022-05-19 22:21:14 GMT 45.085655 16.644354 37,950 309 424 0
2022-05-19 22:21:10 GMT 45.081161 16.652266 37,975 309 424 0
2022-05-19 22:21:07 GMT 45.077415 16.658825 37,975 309 424 -64
2022-05-19 22:21:04 GMT 45.073883 16.664951 37,975 310 425 -64
2022-05-19 22:21:01 GMT 45.070713 16.670412 37,975 310 425 -64
2022-05-19 22:20:59 GMT 45.067638 16.675838 37,975 310 425 0
2022-05-19 22:20:56 GMT 45.064568 16.681198 37,975 309 424 0
2022-05-19 22:20:53 GMT 45.060791 16.687775 37,975 309 424 0
2022-05-19 22:20:49 GMT 45.054558 16.698616 37,975 310 425 -64
2022-05-19 22:20:46 GMT 45.051441 16.704042 37,975 310 425 -64
2022-05-19 22:20:43 GMT 45.048523 16.709093 37,975 310 425 -64
2022-05-19 22:20:39 GMT 45.043015 16.718645 37,975 310 425 -64
2022-05-19 22:20:36 GMT 45.037941 16.727421 37,975 310 425 -64
2022-05-19 22:20:33 GMT 45.036026 16.730740 37,975 310 425 -64
2022-05-19 22:20:30 GMT 45.028908 16.743097 37,975 310 425 -64
2022-05-19 22:20:27 GMT 45.028908 16.743097 37,975 310 425 -64
2022-05-19 22:20:24 GMT 45.023556 16.752342 38,000 310 425 -64
2022-05-19 22:20:21 GMT 45.019596 16.759174 38,000 310 425 -64
2022-05-19 22:20:18 GMT 45.016575 16.764467 38,000 310 424 -64
2022-05-19 22:20:15 GMT 45.013458 16.769844 38,000 310 425 0
2022-05-19 22:20:13 GMT 45.010483 16.775011 38,000 310 425 0
2022-05-19 22:20:08 GMT 45.004375 16.785637 38,000 310 424 0
2022-05-19 22:20:05 GMT 45.001190 16.791098 38,000 310 425 0
2022-05-19 22:20:03 GMT 44.997345 16.797770 38,000 310 425 0
2022-05-19 22:20:00 GMT 44.994095 16.803328 38,000 310 425 0
2022-05-19 22:19:57 GMT 44.990971 16.808813 38,000 310 424 0
2022-05-19 22:19:54 GMT 44.987339 16.815044 38,000 310 425 0
2022-05-19 22:19:52 GMT 44.978539 16.830252 38,000 310 425 0
2022-05-19 22:19:48 GMT 44.978539 16.830252 38,000 310 424 0
2022-05-19 22:19:43 GMT 44.973633 16.838772 38,000 310 425 0
2022-05-19 22:19:37 GMT 44.965736 16.852425 38,000 310 424 0
2022-05-19 22:19:34 GMT 44.962479 16.857985 38,000 310 425 0
2022-05-19 22:19:31 GMT 44.958244 16.865286 38,000 310 425 0
2022-05-19 22:19:29 GMT 44.955826 16.869440 38,000 310 425 0
2022-05-19 22:19:26 GMT 44.952934 16.874397 38,000 310 424 0
2022-05-19 22:19:23 GMT 44.947815 16.883307 38,000 310 426 0
2022-05-19 22:19:18 GMT 44.943298 16.891079 38,000 310 426 0
2022-05-19 22:19:15 GMT 44.937435 16.901127 38,000 310 426 0
2022-05-19 22:19:12 GMT 44.930923 16.912407 38,000 310 426 0
2022-05-19 22:19:09 GMT 44.930923 16.912407 38,000 310 426 0
2022-05-19 22:19:06 GMT 44.923691 16.924896 38,000 310 427 0
2022-05-19 22:19:03 GMT 44.923691 16.924896 38,000 310 427 0
2022-05-19 22:18:59 GMT 44.918106 16.934574 38,000 310 427 0
2022-05-19 22:18:55 GMT 44.913345 16.942749 38,000 310 427 0
2022-05-19 22:18:53 GMT 44.911377 16.946150 38,000 310 427 0
2022-05-19 22:18:50 GMT 44.908806 16.950565 38,000 310 427 0
2022-05-19 22:18:46 GMT 44.903275 16.960144 38,000 310 426 0
2022-05-19 22:18:42 GMT 44.896980 16.970997 38,000 310 427 0
2022-05-19 22:18:39 GMT 44.893936 16.976231 38,000 310 427 0
2022-05-19 22:18:36 GMT 44.890137 16.982855 38,000 310 427 0
2022-05-19 22:18:31 GMT 44.883957 16.993429 38,000 310 427 0
2022-05-19 22:18:26 GMT 44.877663 17.004356 38,000 310 427 0
2022-05-19 22:18:22 GMT 44.872467 17.013245 38,000 310 426 0
2022-05-19 22:18:20 GMT 44.870304 17.016951 38,000 310 426 0
2022-05-19 22:18:16 GMT 44.865005 17.026127 38,000 310 427 0
2022-05-19 22:18:12 GMT 44.860611 17.033583 38,000 310 427 0
2022-05-19 22:18:09 GMT 44.854805 17.043547 37,975 310 427 0
2022-05-19 22:18:06 GMT 44.848427 17.054533 38,000 310 427 0
2022-05-19 22:18:03 GMT 44.848427 17.054533 37,975 310 427 0
2022-05-19 22:18:00 GMT 44.845634 17.059221 37,975 310 427 0
2022-05-19 22:17:56 GMT 44.839256 17.070141 37,975 310 427 0
2022-05-19 22:17:53 GMT 44.835571 17.076481 37,975 310 427 0
2022-05-19 22:17:50 GMT 44.832878 17.081060 37,975 310 427 0
2022-05-19 22:17:45 GMT 44.826828 17.091457 37,975 310 427 64
2022-05-19 22:17:42 GMT 44.822433 17.098976 37,975 310 427 64
2022-05-19 22:17:40 GMT 44.820496 17.102297 37,975 310 427 0
2022-05-19 22:17:35 GMT 44.814056 17.113298 37,975 310 427 0
2022-05-19 22:17:31 GMT 44.809231 17.121590 37,975 310 426 0
2022-05-19 22:17:28 GMT 44.804947 17.128927 37,975 310 425 0
2022-05-19 22:17:24 GMT 44.799820 17.137756 37,975 310 426 0
2022-05-19 22:17:21 GMT 44.796894 17.142757 37,975 310 426 0
2022-05-19 22:17:17 GMT 44.792145 17.150864 37,975 310 426 0
2022-05-19 22:17:14 GMT 44.788330 17.157440 37,975 310 426 0
2022-05-19 22:17:11 GMT 44.783844 17.165157 37,975 310 426 0
2022-05-19 22:17:08 GMT 44.779297 17.172903 37,975 310 426 0
2022-05-19 22:17:04 GMT 44.771347 17.186541 37,975 310 426 0
2022-05-19 22:17:01 GMT 44.771347 17.186541 37,975 310 425 0
2022-05-19 22:16:59 GMT 44.768234 17.191837 37,975 310 425 0
2022-05-19 22:16:56 GMT 44.765564 17.196484 37,975 310 425 0
2022-05-19 22:16:53 GMT 44.761597 17.203152 37,975 310 425 0
2022-05-19 22:16:50 GMT 44.757248 17.210672 37,975 310 425 0
2022-05-19 22:16:46 GMT 44.752296 17.219061 37,975 310 425 0
2022-05-19 22:16:43 GMT 44.748505 17.225582 37,975 310 425 0
2022-05-19 22:16:40 GMT 44.745529 17.230682 37,975 310 424 0
2022-05-19 22:16:35 GMT 44.738525 17.242584 37,975 310 424 0
2022-05-19 22:16:31 GMT 44.734177 17.250038 37,975 310 424 0
2022-05-19 22:16:28 GMT 44.729252 17.258450 37,975 310 424 0
2022-05-19 22:16:24 GMT 44.725479 17.264814 37,975 310 424 0
2022-05-19 22:16:20 GMT 44.719940 17.274302 37,975 310 424 0
2022-05-19 22:16:15 GMT 44.714123 17.284174 37,975 310 424 0
2022-05-19 22:16:12 GMT 44.710556 17.290192 37,975 310 424 0
2022-05-19 22:16:09 GMT 44.705372 17.299046 37,975 310 424 0
2022-05-19 22:16:04 GMT 44.700249 17.307755 37,975 310 424 0
2022-05-19 22:16:00 GMT 44.695129 17.316397 37,975 310 424 0
2022-05-19 22:15:57 GMT 44.690891 17.323631 37,975 310 424 0
2022-05-19 22:15:54 GMT 44.687401 17.329594 37,975 310 424 0
2022-05-19 22:15:51 GMT 44.683456 17.336229 37,975 310 424 0
2022-05-19 22:15:48 GMT 44.680344 17.341528 37,975 310 424 0
2022-05-19 22:15:46 GMT 44.677094 17.347019 37,975 310 424 0
2022-05-19 22:15:43 GMT 44.674553 17.351364 37,975 310 424 -64
2022-05-19 22:15:40 GMT 44.670036 17.359001 38,000 310 424 0
2022-05-19 22:15:38 GMT 44.668121 17.362322 38,000 310 424 0
2022-05-19 22:15:35 GMT 44.664543 17.368313 38,000 310 424 0
2022-05-19 22:15:32 GMT 44.660961 17.374475 38,000 310 424 0
2022-05-19 22:15:30 GMT 44.657501 17.380306 38,000 310 424 0
2022-05-19 22:15:26 GMT 44.652649 17.388544 38,000 310 424 0
2022-05-19 22:15:22 GMT 44.648483 17.395645 38,000 310 424 0
2022-05-19 22:15:19 GMT 44.644016 17.403282 38,000 310 424 0
2022-05-19 22:15:16 GMT 44.637177 17.414768 38,000 310 424 0
2022-05-19 22:15:13 GMT 44.637177 17.414768 38,000 310 424 0
2022-05-19 22:15:10 GMT 44.633121 17.421637 38,000 310 424 0
2022-05-19 22:15:05 GMT 44.626884 17.432220 38,000 310 424 0
2022-05-19 22:15:02 GMT 44.622929 17.438988 38,000 310 423 0
2022-05-19 22:14:59 GMT 44.619736 17.444326 38,000 310 423 0
2022-05-19 22:14:55 GMT 44.615059 17.452251 38,000 310 423 0
2022-05-19 22:14:52 GMT 44.610489 17.459957 38,000 310 423 0
2022-05-19 22:14:49 GMT 44.600739 17.476437 37,975 310 423 0
2022-05-19 22:14:45 GMT 44.600739 17.476437 37,975 310 423 0
2022-05-19 22:14:41 GMT 44.597626 17.481733 37,975 310 423 0
2022-05-19 22:14:39 GMT 44.594063 17.487757 37,975 310 423 0
2022-05-19 22:14:35 GMT 44.589455 17.495527 38,000 310 423 0
2022-05-19 22:14:32 GMT 44.585266 17.502594 37,975 310 423 0
2022-05-19 22:14:29 GMT 44.575790 17.518616 37,975 310 423 0
2022-05-19 22:14:24 GMT 44.575790 17.518616 37,975 310 423 0
2022-05-19 22:14:21 GMT 44.572090 17.524868 38,000 310 423 0
2022-05-19 22:14:19 GMT 44.569576 17.529087 38,000 310 423 0
2022-05-19 22:14:15 GMT 44.564083 17.538334 38,000 310 423 0
2022-05-19 22:14:12 GMT 44.560410 17.544577 37,975 310 423 0
2022-05-19 22:14:09 GMT 44.555191 17.553406 37,975 310 423 0
2022-05-19 22:14:05 GMT 44.551376 17.559837 37,975 310 423 0
2022-05-19 22:14:01 GMT 44.545883 17.569080 37,975 310 423 0
2022-05-19 22:13:57 GMT 44.541962 17.575771 37,975 310 423 0
2022-05-19 22:13:52 GMT 44.534897 17.587706 37,975 310 423 64
2022-05-19 22:13:49 GMT 44.531406 17.593599 37,975 310 423 64
2022-05-19 22:13:44 GMT 44.525116 17.604218 37,975 310 423 64
2022-05-19 22:13:40 GMT 44.522003 17.609514 37,975 310 423 64
2022-05-19 22:13:38 GMT 44.518089 17.616108 37,975 310 423 64
2022-05-19 22:13:34 GMT 44.513111 17.624550 37,975 310 423 64
2022-05-19 22:13:29 GMT 44.506439 17.635803 37,975 310 423 0
2022-05-19 22:13:25 GMT 44.502728 17.642033 37,975 310 423 0
2022-05-19 22:13:21 GMT 44.497375 17.651077 37,975 310 423 0
2022-05-19 22:13:17 GMT 44.492489 17.659250 37,975 310 423 0
2022-05-19 22:13:13 GMT 44.487076 17.668434 37,975 310 423 0
2022-05-19 22:13:10 GMT 44.483826 17.673862 37,975 310 423 0
2022-05-19 22:13:08 GMT 44.480072 17.680141 37,975 310 423 0
2022-05-19 22:13:03 GMT 44.472931 17.692108 37,950 310 423 0
2022-05-19 22:13:00 GMT 44.471054 17.695248 37,950 310 423 0
2022-05-19 22:12:57 GMT 44.467163 17.701788 37,975 310 423 0
2022-05-19 22:12:53 GMT 44.462090 17.710230 37,950 310 423 0
2022-05-19 22:12:50 GMT 44.458225 17.716726 37,950 310 423 0
2022-05-19 22:12:47 GMT 44.454163 17.723562 37,950 310 423 0
2022-05-19 22:12:44 GMT 44.449612 17.731197 37,950 310 423 0
2022-05-19 22:12:41 GMT 44.446426 17.736576 37,950 310 423 0
2022-05-19 22:12:37 GMT 44.441746 17.744394 37,950 310 423 0
2022-05-19 22:12:33 GMT 44.432556 17.759792 37,950 310 423 0
2022-05-19 22:12:30 GMT 44.432556 17.759792 37,950 310 422 0
2022-05-19 22:12:27 GMT 44.429169 17.765482 37,950 310 423 0
2022-05-19 22:12:23 GMT 44.419922 17.780914 37,950 310 422 0
2022-05-19 22:12:20 GMT 44.419922 17.780914 37,950 310 422 0
2022-05-19 22:12:17 GMT 44.416096 17.787334 37,950 310 422 0
2022-05-19 22:12:11 GMT 44.408741 17.799660 37,950 310 422 0
2022-05-19 22:12:08 GMT 44.405621 17.804886 37,950 310 422 0
2022-05-19 22:12:06 GMT 44.403107 17.809038 37,950 310 422 0
2022-05-19 22:12:01 GMT 44.396164 17.820608 37,950 310 422 0
2022-05-19 22:11:58 GMT 44.392864 17.826120 37,950 310 421 0
2022-05-19 22:11:56 GMT 44.390533 17.830027 37,950 310 421 0
2022-05-19 22:11:51 GMT 44.384113 17.840792 37,950 310 421 -64
2022-05-19 22:11:46 GMT 44.377899 17.851084 37,950 310 421 0
2022-05-19 22:11:40 GMT 44.365448 17.871944 37,950 310 421 -64
2022-05-19 22:11:36 GMT 44.365448 17.871944 37,950 310 421 0
2022-05-19 22:11:30 GMT 44.358444 17.883650 37,950 310 421 -64
2022-05-19 22:11:26 GMT 44.352676 17.893263 37,975 310 422 0
2022-05-19 22:11:21 GMT 44.346500 17.903561 37,975 310 422 0
2022-05-19 22:11:17 GMT 44.342285 17.910526 37,975 310 422 0
2022-05-19 22:11:11 GMT 44.333817 17.924717 37,950 310 422 0
2022-05-19 22:11:08 GMT 44.330933 17.929491 37,975 310 422 0
2022-05-19 22:11:05 GMT 44.326622 17.936722 37,950 310 422 0
2022-05-19 22:11:00 GMT 44.320770 17.946363 37,975 310 422 0
2022-05-19 22:10:57 GMT 44.316010 17.954275 37,975 310 422 0
2022-05-19 22:10:55 GMT 44.314133 17.957415 37,950 310 422 0
2022-05-19 22:10:50 GMT 44.308640 17.966570 37,975 310 422 0
2022-05-19 22:10:47 GMT 44.304886 17.972849 37,975 310 422 -64
2022-05-19 22:10:43 GMT 44.298340 17.983704 37,975 310 422 -64
2022-05-19 22:10:40 GMT 44.295013 17.989174 37,975 311 423 -64
2022-05-19 22:10:36 GMT 44.291615 17.994802 37,975 311 423 -64
2022-05-19 22:10:34 GMT 44.288544 17.999922 37,975 311 423 -64
2022-05-19 22:10:30 GMT 44.283142 18.008881 38,000 311 423 -64
2022-05-19 22:10:28 GMT 44.281094 18.012354 38,000 311 423 -64
2022-05-19 22:10:24 GMT 44.275459 18.021730 38,000 311 423 -64
2022-05-19 22:10:19 GMT 44.269226 18.032030 38,000 311 423 0
2022-05-19 22:10:16 GMT 44.266068 18.037262 38,000 311 423 0
2022-05-19 22:10:14 GMT 44.257957 18.050671 38,000 311 423 0
2022-05-19 22:10:10 GMT 44.252884 18.059105 38,000 311 423 0
2022-05-19 22:10:06 GMT 44.252884 18.059105 38,000 311 423 0
2022-05-19 22:10:03 GMT 44.249065 18.065475 38,000 310 423 0
2022-05-19 22:10:00 GMT 44.245529 18.071304 38,000 311 424 0
2022-05-19 22:09:57 GMT 44.241165 18.078526 38,000 311 424 -64
2022-05-19 22:09:53 GMT 44.237274 18.084999 38,000 311 424 -64
2022-05-19 22:09:49 GMT 44.231964 18.093763 38,000 311 424 0
2022-05-19 22:09:46 GMT 44.227886 18.100512 38,000 311 424 0
2022-05-19 22:09:43 GMT 44.223835 18.107210 38,000 311 424 0
2022-05-19 22:09:40 GMT 44.220062 18.113441 38,000 311 424 0
2022-05-19 22:09:37 GMT 44.216152 18.119940 38,000 311 424 0
2022-05-19 22:09:33 GMT 44.211079 18.128244 38,000 311 424 0
2022-05-19 22:09:30 GMT 44.207542 18.134073 38,000 311 424 0
2022-05-19 22:09:27 GMT 44.203583 18.140717 38,000 311 425 0
2022-05-19 22:09:20 GMT 44.194786 18.155174 38,000 311 425 0
2022-05-19 22:09:17 GMT 44.190735 18.161903 38,000 311 425 0
2022-05-19 22:09:10 GMT 44.181931 18.176369 38,000 311 425 0
2022-05-19 22:09:07 GMT 44.178131 18.182692 38,000 311 425 0
2022-05-19 22:09:03 GMT 44.172256 18.192377 38,000 311 425 0
2022-05-19 22:09:00 GMT 44.167412 18.200357 38,000 311 426 0
2022-05-19 22:08:50 GMT 44.156570 18.218206 38,000 311 425 0
2022-05-19 22:08:47 GMT 44.151817 18.225990 38,000 311 426 0
2022-05-19 22:08:40 GMT 44.143616 18.239475 38,000 311 426 0
2022-05-19 22:08:38 GMT 44.141556 18.242798 38,000 311 426 0
2022-05-19 22:08:35 GMT 44.137573 18.249403 38,000 311 425 0
2022-05-19 22:08:29 GMT 44.129517 18.262728 38,000 311 425 64
2022-05-19 22:08:22 GMT 44.120953 18.276802 38,000 311 426 0
2022-05-19 22:08:17 GMT 44.115051 18.286552 37,975 311 426 64
2022-05-19 22:08:12 GMT 44.107590 18.298880 37,975 311 426 64
2022-05-19 22:08:08 GMT 44.103683 18.305250 37,975 311 426 64
2022-05-19 22:07:59 GMT 44.091625 18.325130 37,950 311 426 64
2022-05-19 22:07:56 GMT 44.088463 18.330296 37,950 311 426 64
2022-05-19 22:07:51 GMT 44.082138 18.340652 37,950 311 426 64
2022-05-19 22:07:48 GMT 44.077972 18.347551 37,950 311 426 64
2022-05-19 22:07:43 GMT 44.072617 18.356302 37,950 311 426 0
2022-05-19 22:07:39 GMT 44.066303 18.366655 37,950 311 427 0
2022-05-19 22:07:29 GMT 44.050552 18.392391 37,950 311 426 -64
2022-05-19 22:07:22 GMT 44.045166 18.401249 37,950 311 425 0
2022-05-19 22:07:18 GMT 44.040047 18.409620 37,975 311 425 0
2022-05-19 22:07:14 GMT 44.035538 18.416983 37,975 311 425 0
2022-05-19 22:07:09 GMT 44.028305 18.428799 37,975 311 424 0
2022-05-19 22:07:06 GMT 44.025105 18.434143 37,975 311 424 0
2022-05-19 22:06:58 GMT 44.014481 18.451410 37,975 311 424 -64
2022-05-19 22:06:52 GMT 44.007385 18.463036 37,975 311 424 -64
2022-05-19 22:06:49 GMT 44.002525 18.471025 37,975 311 424 -64
2022-05-19 22:06:46 GMT 43.999283 18.476257 37,975 311 424 -64
2022-05-19 22:06:39 GMT 43.989899 18.491587 37,975 311 423 -64
2022-05-19 22:06:37 GMT 43.987518 18.495546 37,975 311 424 -64
2022-05-19 22:06:28 GMT 43.975899 18.514448 38,000 311 424 -64
2022-05-19 22:06:26 GMT 43.972641 18.519691 38,000 311 424 0
2022-05-19 22:06:22 GMT 43.969147 18.525434 38,000 311 424 0
2022-05-19 22:06:18 GMT 43.964539 18.532976 38,000 311 424 0
2022-05-19 22:06:15 GMT 43.953320 18.551266 38,000 311 424 0
2022-05-19 22:06:10 GMT 43.953320 18.551266 38,000 311 424 0
2022-05-19 22:06:07 GMT 43.948990 18.558262 38,000 311 424 0
2022-05-19 22:06:03 GMT 43.944523 18.565521 38,000 311 424 0
2022-05-19 22:06:00 GMT 43.939960 18.572975 38,000 311 424 0
2022-05-19 22:05:56 GMT 43.936981 18.577818 38,000 311 424 0
2022-05-19 22:05:54 GMT 43.933044 18.584204 38,000 311 425 0
2022-05-19 22:05:49 GMT 43.926739 18.594490 38,000 311 424 0
2022-05-19 22:05:45 GMT 43.922333 18.601578 38,000 311 425 0
2022-05-19 22:05:38 GMT 43.910168 18.621368 37,975 311 425 0
2022-05-19 22:05:36 GMT 43.910168 18.621368 37,975 311 425 0
2022-05-19 22:05:33 GMT 43.906860 18.626732 38,000 311 425 0
2022-05-19 22:05:28 GMT 43.899902 18.638050 38,000 311 425 0
2022-05-19 22:05:26 GMT 43.896606 18.643415 37,975 311 425 0
2022-05-19 22:05:23 GMT 43.894104 18.647461 38,000 311 425 0
2022-05-19 22:05:17 GMT 43.885075 18.662109 38,000 311 425 0
2022-05-19 22:05:14 GMT 43.881489 18.667931 38,000 311 425 0
2022-05-19 22:05:09 GMT 43.874878 18.678654 38,000 311 425 0
2022-05-19 22:05:06 GMT 43.872459 18.682577 38,000 311 425 0
2022-05-19 22:05:03 GMT 43.867905 18.689917 38,000 311 425 0
2022-05-19 22:04:57 GMT 43.861240 18.700823 38,000 311 425 0
2022-05-19 22:04:54 GMT 43.857605 18.706715 38,000 311 425 0
2022-05-19 22:04:47 GMT 43.847122 18.723640 37,975 311 425 0
2022-05-19 22:04:44 GMT 43.844696 18.727537 38,000 311 425 64
2022-05-19 22:04:35 GMT 43.831352 18.749149 37,975 311 425 0
2022-05-19 22:04:27 GMT 43.822861 18.762859 37,975 311 426 0
2022-05-19 22:04:23 GMT 43.817780 18.771164 37,975 311 426 0
2022-05-19 22:04:18 GMT 43.810406 18.783024 37,975 311 425 0
2022-05-19 22:04:16 GMT 43.807610 18.787537 37,975 311 425 0
2022-05-19 22:04:13 GMT 43.802864 18.795189 37,975 311 425 0
2022-05-19 22:04:05 GMT 43.794250 18.809105 37,975 311 425 0
2022-05-19 22:04:02 GMT 43.790955 18.814470 37,975 311 425 0
2022-05-19 22:03:57 GMT 43.784103 18.825531 37,975 311 425 0
2022-05-19 22:03:53 GMT 43.779354 18.833117 37,975 311 425 0
2022-05-19 22:03:47 GMT 43.771225 18.846216 37,975 311 425 0
2022-05-19 22:03:44 GMT 43.766647 18.853624 37,975 311 425 0
2022-05-19 22:03:36 GMT 43.757893 18.867777 37,975 311 424 0
2022-05-19 22:03:33 GMT 43.753426 18.874969 37,975 311 424 0
2022-05-19 22:03:27 GMT 43.745651 18.887526 37,975 311 424 0
2022-05-19 22:03:24 GMT 43.740391 18.895962 37,975 311 424 0
2022-05-19 22:03:20 GMT 43.737671 18.900381 37,975 311 423 0
2022-05-19 22:03:16 GMT 43.731453 18.910349 37,975 311 425 0
2022-05-19 22:03:13 GMT 43.727554 18.916670 37,975 311 425 0
2022-05-19 22:03:05 GMT 43.718079 18.931871 37,975 311 425 0
2022-05-19 22:03:03 GMT 43.715652 18.935766 37,975 311 424 0
2022-05-19 22:02:59 GMT 43.710297 18.944389 37,975 311 424 0
2022-05-19 22:02:56 GMT 43.706268 18.950893 37,975 311 424 0
2022-05-19 22:02:52 GMT 43.701145 18.959066 37,975 311 424 0
2022-05-19 22:02:47 GMT 43.694778 18.969236 37,975 311 424 0
2022-05-19 22:02:42 GMT 43.687729 18.980543 37,975 311 424 -64
2022-05-19 22:02:37 GMT 43.681229 18.991018 37,975 311 424 -64
2022-05-19 22:02:35 GMT 43.675095 19.000854 37,975 311 424 0
2022-05-19 22:02:27 GMT 43.668465 19.011383 37,975 311 423 0
2022-05-19 22:02:24 GMT 43.664841 19.017206 37,975 311 423 0
2022-05-19 22:02:16 GMT 43.654827 19.033291 37,975 311 423 0
2022-05-19 22:02:13 GMT 43.651615 19.038391 37,975 311 424 0
2022-05-19 22:02:07 GMT 43.642731 19.052591 38,000 311 424 0
2022-05-19 22:02:04 GMT 43.638794 19.058981 37,975 311 424 0
2022-05-19 22:02:01 GMT 43.635647 19.063959 37,975 311 424 0
2022-05-19 22:01:56 GMT 43.630154 19.072788 38,000 311 424 0
2022-05-19 22:01:52 GMT 43.624287 19.082207 38,000 311 424 0
2022-05-19 22:01:46 GMT 43.617260 19.093454 37,975 311 424 0
2022-05-19 22:01:41 GMT 43.603851 19.114967 37,975 311 424 0
2022-05-19 22:01:35 GMT 43.603851 19.114967 38,000 311 424 0
2022-05-19 22:01:31 GMT 43.598221 19.123993 37,975 311 424 0
2022-05-19 22:01:25 GMT 43.590538 19.136288 37,975 311 424 0
2022-05-19 22:01:22 GMT 43.584824 19.145401 37,975 311 425 64
2022-05-19 22:01:15 GMT 43.577366 19.157345 37,975 311 424 0
2022-05-19 22:01:11 GMT 43.572418 19.165201 37,975 311 424 0
2022-05-19 22:01:08 GMT 43.568474 19.171404 37,975 311 424 0
2022-05-19 22:01:02 GMT 43.555710 19.191774 37,975 311 424 -64
2022-05-19 22:00:58 GMT 43.555710 19.191774 37,975 311 424 0
2022-05-19 22:00:50 GMT 43.545319 19.208317 37,975 311 424 0
2022-05-19 22:00:45 GMT 43.538166 19.219601 37,975 311 425 0
2022-05-19 22:00:39 GMT 43.529182 19.233921 38,000 311 424 0
2022-05-19 22:00:35 GMT 43.524853 19.240852 38,000 311 424 0
2022-05-19 22:00:28 GMT 43.516239 19.254520 38,000 311 425 0
2022-05-19 22:00:23 GMT 43.510048 19.264330 38,000 311 425 0
2022-05-19 22:00:20 GMT 43.505302 19.271851 38,000 311 425 64
2022-05-19 22:00:15 GMT 43.499680 19.280750 37,975 311 424 64
2022-05-19 22:00:11 GMT 43.495525 19.287415 37,975 311 424 64
2022-05-19 22:00:08 GMT 43.491577 19.293653 37,975 311 425 0
2022-05-19 22:00:05 GMT 43.487091 19.300743 37,975 311 425 0
2022-05-19 22:00:01 GMT 43.482330 19.308344 37,975 311 426 0
2022-05-19 21:59:56 GMT 43.474808 19.320244 37,975 311 426 0
2022-05-19 21:59:54 GMT 43.473587 19.322205 37,975 311 426 0
2022-05-19 21:59:50 GMT 43.468246 19.330641 37,975 311 426 0
2022-05-19 21:59:45 GMT 43.460815 19.342388 37,975 311 426 0
2022-05-19 21:59:35 GMT 43.447994 19.362749 37,975 311 426 0
2022-05-19 21:59:25 GMT 43.434959 19.383284 37,975 311 425 0
2022-05-19 21:59:20 GMT 43.428768 19.393093 37,975 311 425 0
2022-05-19 21:59:15 GMT 43.421787 19.404079 37,975 311 425 0
2022-05-19 21:59:09 GMT 43.414478 19.415718 37,975 311 425 0
2022-05-19 21:59:04 GMT 43.408356 19.425362 37,975 311 425 0
2022-05-19 21:58:58 GMT 43.400837 19.437300 37,975 311 425 0
2022-05-19 21:58:55 GMT 43.396183 19.444624 37,975 311 425 0
2022-05-19 21:58:51 GMT 43.390503 19.453583 37,975 311 426 0
2022-05-19 21:58:48 GMT 43.388035 19.457441 37,975 311 426 0
2022-05-19 21:58:43 GMT 43.381393 19.467901 37,975 311 426 0
2022-05-19 21:58:37 GMT 43.363861 19.495623 37,975 312 423 0
2022-05-19 21:58:30 GMT 43.363861 19.495623 37,975 311 426 0
2022-05-19 21:58:27 GMT 43.361362 19.499620 37,975 311 426 0
2022-05-19 21:58:23 GMT 43.355263 19.509233 37,975 311 426 0
2022-05-19 21:58:20 GMT 43.351456 19.515232 37,975 311 425 0
2022-05-19 21:58:17 GMT 43.348389 19.520086 37,975 311 425 64
2022-05-19 21:58:12 GMT 43.341293 19.531263 37,975 311 425 64
2022-05-19 21:58:07 GMT 43.334976 19.541229 37,975 311 425 0
2022-05-19 21:58:04 GMT 43.330776 19.547817 37,975 311 425 0
2022-05-19 21:58:00 GMT 43.325409 19.556238 37,975 311 425 0
2022-05-19 21:57:54 GMT 43.317509 19.568743 37,975 311 425 -64
2022-05-19 21:57:51 GMT 43.313461 19.575083 37,975 311 425 0
2022-05-19 21:57:49 GMT 43.311356 19.578339 37,975 312 424 0
2022-05-19 21:57:46 GMT 43.307316 19.584764 37,975 312 423 0
2022-05-19 21:57:43 GMT 43.303391 19.590923 37,975 312 424 0
2022-05-19 21:57:41 GMT 43.300610 19.595293 37,975 311 423 0
2022-05-19 21:57:39 GMT 43.299213 19.597517 37,975 311 423 0
2022-05-19 21:57:36 GMT 43.295349 19.603598 37,975 311 423 0
2022-05-19 21:57:32 GMT 43.289108 19.613405 37,975 312 423 64
2022-05-19 21:57:29 GMT 43.285713 19.618706 37,975 312 423 64
2022-05-19 21:57:26 GMT 43.281784 19.624903 37,975 312 423 64
2022-05-19 21:57:23 GMT 43.278778 19.629625 37,975 312 423 64
2022-05-19 21:57:21 GMT 43.274773 19.635902 37,975 312 423 0
2022-05-19 21:57:19 GMT 43.272865 19.638912 37,975 312 423 0
2022-05-19 21:57:16 GMT 43.269058 19.644896 37,950 312 423 0
2022-05-19 21:57:13 GMT 43.265717 19.650133 37,950 312 423 0
2022-05-19 21:57:08 GMT 43.258896 19.660801 37,975 312 423 0
2022-05-19 21:57:03 GMT 43.253033 19.670040 37,975 312 423 -64
2022-05-19 21:57:00 GMT 43.248322 19.677408 37,975 312 423 -64
2022-05-19 21:56:53 GMT 43.239349 19.691423 37,975 312 423 0
2022-05-19 21:56:51 GMT 43.235413 19.697529 37,975 312 423 0
2022-05-19 21:56:48 GMT 43.232784 19.701626 37,975 312 422 0
2022-05-19 21:56:43 GMT 43.226944 19.710814 37,975 312 421 0
2022-05-19 21:56:38 GMT 43.220123 19.721416 37,975 312 422 0
2022-05-19 21:56:35 GMT 43.216679 19.726736 37,975 312 422 0
2022-05-19 21:56:32 GMT 43.212891 19.732658 37,975 312 422 64
2022-05-19 21:56:28 GMT 43.207554 19.740993 37,975 312 423 64
2022-05-19 21:56:23 GMT 43.200943 19.751373 37,950 312 423 0
2022-05-19 21:56:19 GMT 43.195541 19.759806 37,950 312 423 0
2022-05-19 21:56:13 GMT 43.187489 19.772383 37,950 312 423 0
2022-05-19 21:56:10 GMT 43.182552 19.780033 37,950 312 423 0
2022-05-19 21:56:02 GMT 43.174034 19.793308 37,950 312 423 64
2022-05-19 21:55:59 GMT 43.170170 19.799391 37,950 312 423 0
2022-05-19 21:55:53 GMT 43.161484 19.812948 37,950 312 423 0
2022-05-19 21:55:49 GMT 43.156952 19.819975 37,950 312 424 0
2022-05-19 21:55:46 GMT 43.152901 19.826332 37,950 312 424 0
2022-05-19 21:55:41 GMT 43.148106 19.833788 37,950 312 424 0
2022-05-19 21:55:36 GMT 43.140152 19.846163 37,950 312 423 0
2022-05-19 21:55:33 GMT 43.136673 19.851528 37,950 312 423 0
2022-05-19 21:55:29 GMT 43.129944 19.862003 37,950 312 423 0
2022-05-19 21:55:25 GMT 43.126690 19.867140 37,950 312 423 0
2022-05-19 21:55:22 GMT 43.122345 19.873819 37,950 312 423 0
2022-05-19 21:55:18 GMT 43.117149 19.881985 37,950 312 423 -64
2022-05-19 21:55:15 GMT 43.113327 19.887873 37,975 312 423 -64
2022-05-19 21:55:11 GMT 43.108768 19.894999 37,975 312 423 -64
2022-05-19 21:55:06 GMT 43.100903 19.907291 37,975 312 423 -64
2022-05-19 21:55:01 GMT 43.096012 19.914944 37,975 312 423 -64
2022-05-19 21:54:56 GMT 43.088890 19.925995 37,975 312 423 -64
2022-05-19 21:54:51 GMT 43.082840 19.935411 37,975 312 423 0
2022-05-19 21:54:42 GMT 43.070526 19.954620 37,975 312 424 0
2022-05-19 21:54:36 GMT 43.063194 19.966017 38,000 312 425 -64
2022-05-19 21:54:31 GMT 43.056519 19.976402 38,000 312 425 -64
2022-05-19 21:54:21 GMT 43.044014 19.995836 38,000 312 425 -64
2022-05-19 21:54:11 GMT 43.030235 20.017221 38,000 312 426 0
2022-05-19 21:54:07 GMT 43.024090 20.026703 38,000 312 426 0
2022-05-19 21:54:01 GMT 43.017105 20.037466 38,000 312 427 0
2022-05-19 21:53:55 GMT 43.009918 20.048580 38,000 312 427 0
2022-05-19 21:53:52 GMT 43.005283 20.055738 38,000 312 427 0
2022-05-19 21:53:50 GMT 43.003468 20.058617 38,000 312 427 0
2022-05-19 21:53:45 GMT 42.997238 20.068190 38,000 312 427 0
2022-05-19 21:53:40 GMT 42.989967 20.079411 38,000 312 428 64
2022-05-19 21:53:35 GMT 42.983734 20.089075 38,000 312 429 64
2022-05-19 21:53:30 GMT 42.976776 20.099808 37,975 312 429 64
2022-05-19 21:53:26 GMT 42.969955 20.110346 37,975 312 430 64
2022-05-19 21:53:19 GMT 42.963135 20.120886 37,975 312 431 0
2022-05-19 21:53:15 GMT 42.956730 20.130747 37,975 312 431 0
2022-05-19 21:53:11 GMT 42.952560 20.137173 37,975 312 430 0
2022-05-19 21:53:09 GMT 42.949265 20.142220 37,975 312 430 0
2022-05-19 21:53:04 GMT 42.942020 20.153307 37,975 312 430 0
2022-05-19 21:53:01 GMT 42.939331 20.157421 37,975 312 430 0
2022-05-19 21:52:59 GMT 42.936108 20.162397 37,975 312 429 0
2022-05-19 21:52:54 GMT 42.928986 20.173319 37,975 312 428 0
2022-05-19 21:52:51 GMT 42.925781 20.178244 38,000 312 429 0
2022-05-19 21:52:49 GMT 42.922485 20.183290 37,975 312 429 0
2022-05-19 21:52:44 GMT 42.915802 20.193638 37,975 312 428 0
2022-05-19 21:52:41 GMT 42.912971 20.197971 38,000 312 429 0
2022-05-19 21:52:38 GMT 42.908936 20.204113 37,975 312 429 0
2022-05-19 21:52:31 GMT 42.899654 20.218309 38,000 312 429 0
2022-05-19 21:52:28 GMT 42.895699 20.224392 37,975 312 429 -64
2022-05-19 21:52:24 GMT 42.889984 20.233175 38,000 312 429 -64
2022-05-19 21:52:20 GMT 42.885361 20.240202 38,000 312 429 -64
2022-05-19 21:52:18 GMT 42.881927 20.245440 38,000 312 429 0
2022-05-19 21:52:10 GMT 42.872543 20.259747 38,000 312 429 0
2022-05-19 21:52:08 GMT 42.868465 20.265917 38,000 312 429 0
2022-05-19 21:52:04 GMT 42.861996 20.275791 37,975 312 429 0
2022-05-19 21:52:00 GMT 42.858765 20.280762 38,000 312 429 0
2022-05-19 21:51:57 GMT 42.854595 20.287106 37,975 312 429 0
2022-05-19 21:51:53 GMT 42.848831 20.295835 38,000 312 429 0
2022-05-19 21:51:50 GMT 42.845608 20.300774 37,975 312 430 0
2022-05-19 21:51:47 GMT 42.840813 20.308031 37,975 312 430 0
2022-05-19 21:51:41 GMT 42.833084 20.319853 38,000 312 430 0
2022-05-19 21:51:37 GMT 42.819122 20.340996 37,975 312 431 64
2022-05-19 21:51:31 GMT 42.819122 20.340996 37,975 312 431 64
2022-05-19 21:51:26 GMT 42.812851 20.350449 37,975 312 431 64
2022-05-19 21:51:21 GMT 42.805801 20.361162 37,975 312 431 64
2022-05-19 21:51:15 GMT 42.798889 20.371649 37,975 312 431 0
2022-05-19 21:51:11 GMT 42.792770 20.380789 37,975 312 432 0
2022-05-19 21:51:05 GMT 42.785522 20.391811 37,975 312 432 0
2022-05-19 21:51:01 GMT 42.779320 20.401228 37,975 312 433 0
2022-05-19 21:50:54 GMT 42.770782 20.414408 37,975 312 433 0
2022-05-19 21:50:51 GMT 42.766159 20.421585 37,975 311 433 0
2022-05-19 21:50:45 GMT 42.759109 20.432760 37,975 311 434 0
2022-05-19 21:50:40 GMT 42.752106 20.443933 37,975 311 434 0
2022-05-19 21:50:36 GMT 42.746078 20.453669 37,975 311 434 0
2022-05-19 21:50:31 GMT 42.739887 20.463633 37,975 311 434 -64
2022-05-19 21:50:25 GMT 42.732346 20.475769 37,975 311 434 -64
2022-05-19 21:50:21 GMT 42.727039 20.484264 37,975 311 432 0
2022-05-19 21:50:14 GMT 42.718369 20.498304 37,975 311 432 0
2022-05-19 21:50:11 GMT 42.714340 20.504732 37,975 311 433 0
2022-05-19 21:50:05 GMT 42.706512 20.517286 37,975 311 433 0
2022-05-19 21:49:59 GMT 42.700378 20.527081 37,975 311 433 0
2022-05-19 21:49:53 GMT 42.692230 20.540190 37,975 311 433 0
2022-05-19 21:49:50 GMT 42.687424 20.547804 37,975 311 433 0
2022-05-19 21:49:43 GMT 42.679276 20.560850 37,975 311 432 -64
2022-05-19 21:49:40 GMT 42.674103 20.569153 37,975 311 432 -64
2022-05-19 21:49:33 GMT 42.665127 20.583525 37,975 311 432 0
2022-05-19 21:49:29 GMT 42.660187 20.591438 38,000 311 430 0
2022-05-19 21:49:23 GMT 42.652313 20.604048 38,000 311 430 0
2022-05-19 21:49:20 GMT 42.646912 20.612661 37,975 311 430 0
2022-05-19 21:49:13 GMT 42.640137 20.623585 37,975 311 430 64
2022-05-19 21:49:09 GMT 42.634827 20.632074 37,975 311 432 64
2022-05-19 21:49:03 GMT 42.626724 20.645058 37,975 311 432 0
2022-05-19 21:48:59 GMT 42.621601 20.653212 37,975 311 432 0
2022-05-19 21:48:53 GMT 42.613827 20.665604 37,975 311 433 0
2022-05-19 21:48:49 GMT 42.609375 20.672710 37,975 311 433 0
2022-05-19 21:48:47 GMT 42.606052 20.677931 37,975 311 433 0
2022-05-19 21:48:42 GMT 42.599625 20.688129 37,975 311 433 0
2022-05-19 21:48:39 GMT 42.594505 20.696325 37,975 311 433 0
2022-05-19 21:48:32 GMT 42.586807 20.708605 37,975 311 432 64
2022-05-19 21:48:28 GMT 42.581425 20.717150 37,975 311 432 64
2022-05-19 21:48:23 GMT 42.574493 20.728205 37,975 311 432 0
2022-05-19 21:48:19 GMT 42.567764 20.738878 37,950 311 432 0
2022-05-19 21:48:11 GMT 42.559753 20.751677 37,950 311 432 0
2022-05-19 21:48:08 GMT 42.556053 20.757517 37,950 311 432 0
2022-05-19 21:48:06 GMT 42.553665 20.761351 37,950 311 432 0
2022-05-19 21:48:02 GMT 42.547676 20.770931 37,950 311 431 0
2022-05-19 21:47:58 GMT 42.541809 20.780266 37,975 311 431 0
2022-05-19 21:47:52 GMT 42.535152 20.790859 37,975 311 431 64
2022-05-19 21:47:49 GMT 42.531288 20.797054 37,950 311 431 64
2022-05-19 21:47:47 GMT 42.528820 20.800953 37,950 311 431 64
2022-05-19 21:47:39 GMT 42.518394 20.817623 37,950 311 431 64
2022-05-19 21:47:35 GMT 42.513504 20.825415 37,950 311 431 0
2022-05-19 21:47:29 GMT 42.505497 20.838190 37,950 311 431 0
2022-05-19 21:47:26 GMT 42.501774 20.844130 37,950 311 431 -64
2022-05-19 21:47:19 GMT 42.492416 20.859041 37,950 311 430 -64
2022-05-19 21:47:16 GMT 42.487885 20.866158 37,975 311 430 -64
2022-05-19 21:47:09 GMT 42.479782 20.879080 37,975 311 429 0
2022-05-19 21:47:06 GMT 42.475613 20.885712 37,950 311 427 64
2022-05-19 21:46:59 GMT 42.467045 20.899319 37,950 311 427 0
2022-05-19 21:46:56 GMT 42.462387 20.906733 37,950 311 427 0
2022-05-19 21:46:48 GMT 42.453552 20.920778 37,950 311 428 0
2022-05-19 21:46:45 GMT 42.449570 20.927082 37,950 311 428 0
2022-05-19 21:46:39 GMT 42.441303 20.940132 37,975 311 427 -64
2022-05-19 21:46:36 GMT 42.435390 20.949524 37,975 311 427 0
2022-05-19 21:46:28 GMT 42.427917 20.961351 37,975 311 427 -64
2022-05-19 21:46:25 GMT 42.422928 20.969280 37,975 311 427 -64
2022-05-19 21:46:18 GMT 42.414257 20.982929 37,975 311 426 -64
2022-05-19 21:46:14 GMT 42.408855 20.991425 37,975 311 426 0
2022-05-19 21:46:08 GMT 42.401455 21.003178 37,975 311 426 -64
2022-05-19 21:46:04 GMT 42.396149 21.011480 37,975 311 428 -64
2022-05-19 21:45:58 GMT 42.388699 21.023169 38,000 311 427 -64
2022-05-19 21:45:54 GMT 42.381996 21.033709 38,000 311 427 -64
2022-05-19 21:45:47 GMT 42.374222 21.045843 38,000 311 428 -64
2022-05-19 21:45:44 GMT 42.370148 21.052238 38,000 311 428 0
2022-05-19 21:45:37 GMT 42.361359 21.065971 38,000 311 428 -64
2022-05-19 21:45:34 GMT 42.357323 21.072351 38,000 311 428 0
2022-05-19 21:45:28 GMT 42.349689 21.084297 38,000 311 429 0
2022-05-19 21:45:25 GMT 42.345779 21.090364 38,000 311 429 0
2022-05-19 21:45:21 GMT 42.340439 21.098806 38,000 311 430 0
2022-05-19 21:45:17 GMT 42.333710 21.109356 38,000 311 431 0
2022-05-19 21:45:15 GMT 42.333710 21.109356 38,000 311 431 64
2022-05-19 21:45:12 GMT 42.327904 21.118469 38,000 311 431 64
2022-05-19 21:45:07 GMT 42.322735 21.126581 38,000 311 431 0
2022-05-19 21:45:05 GMT 42.319847 21.131117 38,000 311 431 0
2022-05-19 21:45:02 GMT 42.315903 21.137321 38,000 311 432 0
2022-05-19 21:44:58 GMT 42.310257 21.146254 38,000 311 433 64
2022-05-19 21:44:56 GMT 42.308956 21.148298 38,000 311 433 64
2022-05-19 21:44:53 GMT 42.303680 21.156609 38,000 311 433 64
2022-05-19 21:44:46 GMT 42.295532 21.169594 37,975 311 434 64
2022-05-19 21:44:42 GMT 42.290379 21.177679 38,000 311 434 64
2022-05-19 21:44:38 GMT 42.284515 21.186941 38,000 311 435 0
2022-05-19 21:44:33 GMT 42.277439 21.198055 38,000 311 436 0
2022-05-19 21:44:28 GMT 42.271385 21.207510 38,000 311 436 0
2022-05-19 21:44:25 GMT 42.268158 21.212540 38,000 311 436 0
2022-05-19 21:44:22 GMT 42.264172 21.218815 38,000 311 436 0
2022-05-19 21:44:18 GMT 42.257629 21.229019 37,975 311 435 64
2022-05-19 21:44:15 GMT 42.255157 21.232889 37,975 311 435 0
2022-05-19 21:44:11 GMT 42.249695 21.241426 37,975 311 435 0
2022-05-19 21:44:07 GMT 42.244434 21.249603 37,975 311 435 0
2022-05-19 21:44:02 GMT 42.237080 21.261101 37,975 311 435 0
2022-05-19 21:43:58 GMT 42.233093 21.267408 37,975 311 435 0
2022-05-19 21:43:55 GMT 42.229073 21.273684 37,975 311 435 0
2022-05-19 21:43:52 GMT 42.222649 21.283710 37,975 311 434 0
2022-05-19 21:43:48 GMT 42.218830 21.289652 37,975 311 434 0
2022-05-19 21:43:42 GMT 42.211475 21.301085 37,975 311 433 0
2022-05-19 21:43:40 GMT 42.209427 21.304300 37,975 311 435 0
2022-05-19 21:43:37 GMT 42.205330 21.310730 37,975 311 433 0
2022-05-19 21:43:33 GMT 42.199928 21.319160 38,000 311 433 0
2022-05-19 21:43:30 GMT 42.196297 21.324846 37,975 311 433 0
2022-05-19 21:43:27 GMT 42.191757 21.331953 37,975 311 433 0
2022-05-19 21:43:20 GMT 42.183029 21.345541 37,975 311 434 0
2022-05-19 21:43:17 GMT 42.178703 21.352312 37,975 311 434 0
2022-05-19 21:43:11 GMT 42.170013 21.365911 37,975 311 433 0
2022-05-19 21:43:06 GMT 42.164970 21.373774 37,975 311 433 64
2022-05-19 21:43:00 GMT 42.156555 21.386948 37,975 311 433 64
2022-05-19 21:42:57 GMT 42.151840 21.394314 37,975 311 433 0
2022-05-19 21:42:52 GMT 42.146484 21.402678 37,975 311 433 -64
2022-05-19 21:42:49 GMT 42.142181 21.409420 37,975 311 434 0
2022-05-19 21:42:46 GMT 42.138157 21.415674 37,975 311 434 -64
2022-05-19 21:42:40 GMT 42.129913 21.428514 37,975 311 433 0
2022-05-19 21:42:37 GMT 42.125957 21.434647 37,975 311 433 0
2022-05-19 21:42:30 GMT 42.116180 21.449806 37,975 311 432 0
2022-05-19 21:42:27 GMT 42.112381 21.455675 37,975 311 432 0
2022-05-19 21:42:19 GMT 42.102448 21.471155 37,975 311 433 -64
2022-05-19 21:42:15 GMT 42.097141 21.479357 37,975 311 433 -64
2022-05-19 21:42:09 GMT 42.089413 21.491365 37,975 311 432 0
2022-05-19 21:42:06 GMT 42.086334 21.496124 37,975 311 432 0
2022-05-19 21:42:04 GMT 42.082809 21.501617 37,975 311 431 0
2022-05-19 21:41:58 GMT 42.075073 21.513540 37,975 311 431 64
2022-05-19 21:41:55 GMT 42.070328 21.520939 37,975 311 431 64
2022-05-19 21:41:49 GMT 42.062321 21.533266 37,975 311 431 0
2022-05-19 21:41:44 GMT 42.057106 21.541315 37,975 311 431 0
2022-05-19 21:41:40 GMT 42.052231 21.548935 37,975 311 431 0
2022-05-19 21:41:36 GMT 42.046680 21.557539 37,975 311 431 64
2022-05-19 21:41:34 GMT 42.043488 21.562542 37,975 311 430 64
2022-05-19 21:41:30 GMT 42.038860 21.569675 37,975 311 430 64
2022-05-19 21:41:26 GMT 42.033413 21.578171 37,975 311 430 64
2022-05-19 21:41:23 GMT 42.029781 21.583855 37,975 311 430 0
2022-05-19 21:41:15 GMT 42.019073 21.600334 37,975 311 429 -64
2022-05-19 21:41:12 GMT 42.015244 21.606300 37,975 311 429 -64
2022-05-19 21:41:06 GMT 42.007015 21.619114 37,975 311 428 -64
2022-05-19 21:41:04 GMT 42.003620 21.624287 37,975 311 428 -64
2022-05-19 21:40:55 GMT 41.993683 21.639696 37,975 311 428 0
2022-05-19 21:40:52 GMT 41.989700 21.645813 37,975 311 427 0
2022-05-19 21:40:46 GMT 41.981041 21.659227 37,975 311 427 0
2022-05-19 21:40:42 GMT 41.976105 21.666828 37,975 311 427 0
2022-05-19 21:40:38 GMT 41.970200 21.675901 37,975 311 427 0
2022-05-19 21:40:34 GMT 41.966721 21.681332 37,975 311 427 0
2022-05-19 21:40:30 GMT 41.961273 21.689695 37,975 311 427 0
2022-05-19 21:40:25 GMT 41.954880 21.699594 37,975 311 427 0
2022-05-19 21:40:22 GMT 41.950241 21.706675 37,975 312 426 0
2022-05-19 21:40:17 GMT 41.943333 21.717352 37,975 312 426 64
2022-05-19 21:40:14 GMT 41.940632 21.721567 37,975 312 426 64
2022-05-19 21:40:08 GMT 41.932938 21.733454 37,975 311 426 64
2022-05-19 21:40:04 GMT 41.927834 21.741304 37,975 311 426 64
2022-05-19 21:40:02 GMT 41.924561 21.746374 37,975 311 427 0
2022-05-19 21:39:55 GMT 41.915401 21.760468 37,975 311 427 0
2022-05-19 21:39:52 GMT 41.911240 21.766975 37,975 311 428 64
2022-05-19 21:39:45 GMT 41.902321 21.780716 37,950 311 428 64
2022-05-19 21:39:41 GMT 41.897095 21.788822 37,950 312 429 0
2022-05-19 21:39:35 GMT 41.889332 21.800772 37,950 311 430 64
2022-05-19 21:39:31 GMT 41.884964 21.807487 37,950 311 430 64
2022-05-19 21:39:24 GMT 41.874893 21.822968 37,950 312 430 0
2022-05-19 21:39:20 GMT 41.869453 21.831303 37,950 312 430 0
2022-05-19 21:39:14 GMT 41.861774 21.843121 37,950 312 429 -64
2022-05-19 21:39:10 GMT 41.856560 21.851105 37,950 312 428 0
2022-05-19 21:39:05 GMT 41.849854 21.861420 37,950 312 428 -64
2022-05-19 21:39:00 GMT 41.843582 21.870970 37,950 312 428 -64
2022-05-19 21:38:54 GMT 41.835663 21.883142 37,950 312 428 0
2022-05-19 21:38:50 GMT 41.830631 21.890835 37,950 312 428 64
2022-05-19 21:38:43 GMT 41.821701 21.904491 37,950 312 428 64
2022-05-19 21:38:40 GMT 41.817535 21.910858 37,950 312 427 64
2022-05-19 21:38:34 GMT 41.810120 21.922157 37,950 312 427 -64
2022-05-19 21:38:30 GMT 41.804562 21.930563 37,950 312 427 0
2022-05-19 21:38:22 GMT 41.793110 21.948002 37,950 312 428 64
2022-05-19 21:38:19 GMT 41.791153 21.951002 37,950 312 428 64
2022-05-19 21:38:13 GMT 41.782608 21.964043 37,950 312 428 0
2022-05-19 21:38:09 GMT 41.770298 21.982876 37,950 312 428 64
2022-05-19 21:38:04 GMT 41.770298 21.982876 37,950 312 428 0
2022-05-19 21:37:57 GMT 41.761871 21.995752 37,950 312 428 64
2022-05-19 21:37:54 GMT 41.756836 22.003492 37,950 312 428 0
2022-05-19 21:37:52 GMT 41.755447 22.005615 37,950 312 428 0
2022-05-19 21:37:47 GMT 41.738937 22.030834 37,925 312 429 0
2022-05-19 21:37:41 GMT 41.738937 22.030834 37,925 312 429 0
2022-05-19 21:37:36 GMT 41.735001 22.036825 37,950 312 429 0
2022-05-19 21:37:33 GMT 41.728401 22.046879 37,925 312 429 0
2022-05-19 21:37:26 GMT 41.719509 22.060419 37,925 312 429 0
2022-05-19 21:37:23 GMT 41.717556 22.063421 37,925 312 429 0
2022-05-19 21:37:13 GMT 41.704891 22.082775 37,925 312 429 -64
2022-05-19 21:37:11 GMT 41.702042 22.087013 37,950 312 429 0
2022-05-19 21:37:06 GMT 41.695721 22.096701 37,950 312 428 0
2022-05-19 21:37:02 GMT 41.689133 22.106739 37,950 312 428 0
2022-05-19 21:36:56 GMT 41.682407 22.116947 37,950 312 428 -64
2022-05-19 21:36:53 GMT 41.678078 22.123528 37,950 312 428 -128
2022-05-19 21:36:49 GMT 41.673515 22.130424 37,975 312 428 -192
2022-05-19 21:36:46 GMT 41.669468 22.136621 37,975 312 428 -192
2022-05-19 21:36:43 GMT 41.664997 22.143328 37,975 312 427 -128
2022-05-19 21:36:36 GMT 41.656036 22.156927 37,975 312 425 0
2022-05-19 21:36:33 GMT 41.652145 22.162794 37,975 312 425 0
2022-05-19 21:36:29 GMT 41.647400 22.170027 38,000 312 426 -64
2022-05-19 21:36:26 GMT 41.643173 22.176403 38,000 312 426 -64
2022-05-19 21:36:23 GMT 41.639069 22.182610 38,000 312 426 -64
2022-05-19 21:36:16 GMT 41.629486 22.197126 38,000 312 427 -64
2022-05-19 21:36:13 GMT 41.625549 22.203056 38,000 312 428 -64
2022-05-19 21:36:10 GMT 41.621750 22.208799 38,000 312 429 -128
2022-05-19 21:36:06 GMT 41.616531 22.216789 38,025 312 430 -64
2022-05-19 21:36:03 GMT 41.612534 22.222788 38,025 312 430 -64
2022-05-19 21:35:59 GMT 41.607330 22.230648 38,025 312 430 0
2022-05-19 21:35:56 GMT 41.603317 22.236712 38,025 312 431 -64
2022-05-19 21:35:53 GMT 41.599266 22.242907 38,025 312 431 -64
2022-05-19 21:35:49 GMT 41.594696 22.249748 38,025 312 432 0
2022-05-19 21:35:43 GMT 41.585812 22.263220 38,025 312 432 0
2022-05-19 21:35:40 GMT 41.583019 22.267435 38,025 312 432 0
2022-05-19 21:35:36 GMT 41.576752 22.276903 38,025 312 432 0
2022-05-19 21:35:33 GMT 41.572540 22.283333 38,025 312 432 0
2022-05-19 21:35:29 GMT 41.568283 22.289762 38,025 312 434 0
2022-05-19 21:35:23 GMT 41.559540 22.302996 38,025 312 434 64
2022-05-19 21:35:18 GMT 41.553646 22.311892 38,025 312 435 128
2022-05-19 21:35:15 GMT 41.549919 22.317513 38,025 312 437 0
2022-05-19 21:35:12 GMT 41.545715 22.323908 38,025 312 437 0
2022-05-19 21:35:09 GMT 41.541634 22.330030 38,025 312 437 0
2022-05-19 21:35:03 GMT 41.530609 22.346691 38,025 312 437 0
2022-05-19 21:34:57 GMT 41.525433 22.354431 38,000 312 437 64
2022-05-19 21:34:54 GMT 41.515091 22.370098 38,000 312 438 0
2022-05-19 21:34:50 GMT 41.515091 22.370098 38,000 312 438 0
2022-05-19 21:34:47 GMT 41.511932 22.374870 38,000 312 439 0
2022-05-19 21:34:42 GMT 41.505463 22.384581 38,000 312 439 64
2022-05-19 21:34:37 GMT 41.498566 22.395006 38,000 312 439 0
2022-05-19 21:34:32 GMT 41.492203 22.404556 38,000 312 440 64
2022-05-19 21:34:29 GMT 41.487446 22.411791 37,975 312 442 64
2022-05-19 21:34:26 GMT 41.484146 22.416729 37,975 312 442 64
2022-05-19 21:34:21 GMT 41.477718 22.426416 37,975 312 442 64
2022-05-19 21:34:18 GMT 41.467010 22.442450 37,975 312 442 0
2022-05-19 21:34:15 GMT 41.467010 22.442450 37,975 312 442 0
2022-05-19 21:34:12 GMT 41.465103 22.445324 37,975 312 442 0
2022-05-19 21:34:08 GMT 41.459282 22.454075 37,975 312 442 -64
2022-05-19 21:34:03 GMT 41.453091 22.463400 37,975 312 441 0
2022-05-19 21:33:59 GMT 41.445694 22.474468 37,975 312 440 64
2022-05-19 21:33:56 GMT 41.443542 22.477715 37,975 312 439 64
2022-05-19 21:33:51 GMT 41.436333 22.488567 37,975 312 439 64
2022-05-19 21:33:48 GMT 41.432236 22.494757 37,950 312 439 64
2022-05-19 21:33:44 GMT 41.427429 22.501999 37,950 312 439 64
2022-05-19 21:33:41 GMT 41.422787 22.509007 37,950 312 439 0
2022-05-19 21:33:37 GMT 41.418179 22.515905 37,950 312 440 64
2022-05-19 21:33:32 GMT 41.410858 22.526903 37,950 312 439 64
2022-05-19 21:33:27 GMT 41.404446 22.536535 37,950 312 439 0
2022-05-19 21:33:22 GMT 41.397217 22.547379 37,950 312 439 -64
2022-05-19 21:33:18 GMT 41.390991 22.556721 37,950 312 439 -64
2022-05-19 21:33:12 GMT 41.383484 22.567932 37,950 312 438 64
2022-05-19 21:33:10 GMT 41.380920 22.571777 37,950 312 438 64
2022-05-19 21:33:06 GMT 41.370071 22.588074 37,950 312 438 -64
2022-05-19 21:33:02 GMT 41.370071 22.588074 37,950 312 438 0
2022-05-19 21:32:57 GMT 41.363384 22.598003 37,975 312 439 -128
2022-05-19 21:32:52 GMT 41.356339 22.608582 37,950 312 439 0
2022-05-19 21:32:49 GMT 41.353146 22.613297 37,950 312 439 0
2022-05-19 21:32:46 GMT 41.342903 22.628590 37,975 312 439 -128
2022-05-19 21:32:42 GMT 41.342903 22.628590 37,950 312 438 -64
2022-05-19 21:32:37 GMT 41.335781 22.639202 37,950 312 437 -64
2022-05-19 21:32:32 GMT 41.329590 22.648439 37,975 312 436 -128
2022-05-19 21:32:29 GMT 41.325584 22.654432 37,975 312 435 -64
2022-05-19 21:32:26 GMT 41.321732 22.660156 37,975 312 435 -64
2022-05-19 21:32:22 GMT 41.315948 22.668852 37,975 312 434 0
2022-05-19 21:32:16 GMT 41.308502 22.679964 37,975 312 433 0
2022-05-19 21:32:11 GMT 41.302277 22.689209 38,000 312 433 -64
2022-05-19 21:32:05 GMT 41.294449 22.700989 38,000 312 434 -64
2022-05-19 21:32:01 GMT 41.288956 22.709106 38,000 312 434 0
2022-05-19 21:31:57 GMT 41.283325 22.717468 38,000 312 435 64
2022-05-19 21:31:54 GMT 41.279984 22.722473 38,000 312 434 64
2022-05-19 21:31:51 GMT 41.275494 22.729090 38,000 312 435 0
2022-05-19 21:31:46 GMT 41.267303 22.741262 38,000 312 436 64
2022-05-19 21:31:41 GMT 41.261902 22.749189 38,000 312 436 64
2022-05-19 21:31:37 GMT 41.256409 22.757263 37,975 313 437 64
2022-05-19 21:31:34 GMT 41.252453 22.763109 37,975 313 438 64
2022-05-19 21:31:31 GMT 41.248493 22.768915 37,975 313 438 0
2022-05-19 21:31:25 GMT 41.239792 22.781651 37,975 313 438 64
2022-05-19 21:31:21 GMT 41.234665 22.789062 37,975 313 439 0
2022-05-19 21:31:17 GMT 41.228756 22.797754 37,975 313 439 -64
2022-05-19 21:31:14 GMT 41.225170 22.802874 37,975 313 440 -64
2022-05-19 21:31:11 GMT 41.220936 22.809053 38,000 313 440 -64
2022-05-19 21:31:05 GMT 41.211067 22.823347 37,975 313 439 0
2022-05-19 21:31:01 GMT 41.207153 22.829041 37,975 313 439 0
2022-05-19 21:30:54 GMT 41.197586 22.842957 37,975 313 439 0
2022-05-19 21:30:50 GMT 41.191517 22.851875 37,975 312 439 0
2022-05-19 21:30:43 GMT 41.182297 22.865482 37,975 312 439 0
2022-05-19 21:30:39 GMT 41.177811 22.872253 37,975 312 440 -64
2022-05-19 21:30:33 GMT 41.169662 22.884644 38,000 311 440 -64
2022-05-19 21:30:24 GMT 41.156708 22.905090 37,975 310 441 64
2022-05-19 21:30:19 GMT 41.150391 22.915283 37,975 310 441 64
2022-05-19 21:30:13 GMT 41.143478 22.926331 37,975 310 441 64
2022-05-19 21:30:03 GMT 41.130157 22.947693 37,975 310 442 -64
2022-05-19 21:29:54 GMT 41.119263 22.965149 37,975 310 443 -64
2022-05-19 21:29:50 GMT 41.112934 22.975285 37,975 310 442 -64
2022-05-19 21:29:42 GMT 41.103378 22.990601 37,975 310 442 64
2022-05-19 21:29:38 GMT 41.098598 22.998194 37,975 310 442 64
2022-05-19 21:29:32 GMT 41.089474 23.012798 37,975 310 443 -64
2022-05-19 21:29:29 GMT 41.085609 23.019104 37,975 310 443 -64
2022-05-19 21:29:20 GMT 41.074081 23.037598 37,975 310 442 -64
2022-05-19 21:29:13 GMT 41.065475 23.051331 38,000 310 441 64
2022-05-19 21:29:10 GMT 41.061260 23.058119 38,000 310 442 0
2022-05-19 21:29:08 GMT 41.058472 23.062622 38,000 310 442 0
2022-05-19 21:29:00 GMT 41.048309 23.078857 37,975 310 442 0
2022-05-19 21:28:58 GMT 41.045700 23.083008 37,975 310 442 64
2022-05-19 21:28:52 GMT 41.038589 23.094385 37,975 310 443 0
2022-05-19 21:28:49 GMT 41.034210 23.101379 37,975 310 443 0
2022-05-19 21:28:42 GMT 41.024780 23.116394 37,975 310 443 0
2022-05-19 21:28:39 GMT 41.020752 23.122864 37,975 310 443 0
2022-05-19 21:28:30 GMT 41.003632 23.150146 37,975 310 443 64
2022-05-19 21:28:26 GMT 41.003632 23.150146 37,975 310 444 64
2022-05-19 21:28:20 GMT 40.993481 23.166296 37,975 310 444 64
2022-05-19 21:28:15 GMT 40.989433 23.172789 37,975 310 444 64
2022-05-19 21:28:10 GMT 40.982300 23.184204 37,950 310 446 0
2022-05-19 21:28:08 GMT 40.980469 23.187134 37,950 310 446 0
2022-05-19 21:27:59 GMT 40.967274 23.208244 37,950 310 446 0
2022-05-19 21:27:50 GMT 40.956242 23.225847 37,950 310 446 64
2022-05-19 21:27:46 GMT 40.951630 23.233150 37,950 310 446 64
2022-05-19 21:27:40 GMT 40.942657 23.247559 37,950 310 446 64
2022-05-19 21:27:36 GMT 40.938129 23.254747 37,925 310 446 64
2022-05-19 21:27:29 GMT 40.929520 23.268494 37,925 310 446 0
2022-05-19 21:27:26 GMT 40.925003 23.275723 37,950 310 445 0
2022-05-19 21:27:19 GMT 40.916344 23.289516 37,950 310 445 -128
2022-05-19 21:27:16 GMT 40.912388 23.295759 37,950 310 444 -64
2022-05-19 21:27:09 GMT 40.902985 23.310804 37,950 310 443 -64
2022-05-19 21:27:06 GMT 40.898792 23.317419 37,950 310 443 -64
2022-05-19 21:26:59 GMT 40.889206 23.332588 37,975 310 441 -64
2022-05-19 21:26:56 GMT 40.885574 23.338394 37,975 310 441 -64
2022-05-19 21:26:49 GMT 40.876308 23.353064 37,975 310 440 -64
2022-05-19 21:26:46 GMT 40.872398 23.359243 37,975 310 440 0
2022-05-19 21:26:38 GMT 40.862732 23.374634 37,975 310 440 0
2022-05-19 21:26:35 GMT 40.858841 23.380798 37,975 310 440 0
2022-05-19 21:26:28 GMT 40.849457 23.395691 37,975 310 440 0
2022-05-19 21:26:25 GMT 40.845657 23.401672 37,975 310 440 0
2022-05-19 21:26:18 GMT 40.836365 23.416321 37,975 310 441 -64
2022-05-19 21:26:15 GMT 40.832413 23.422602 38,000 310 441 -64
2022-05-19 21:26:08 GMT 40.822906 23.437622 38,000 310 442 0
2022-05-19 21:26:04 GMT 40.818771 23.444138 37,975 310 443 0
2022-05-19 21:25:58 GMT 40.809460 23.458807 37,975 310 443 0
2022-05-19 21:25:54 GMT 40.805328 23.465332 37,975 310 443 0
2022-05-19 21:25:51 GMT 40.800751 23.472595 37,975 310 443 64
2022-05-19 21:25:47 GMT 40.795959 23.480156 37,975 310 443 64
2022-05-19 21:25:44 GMT 40.792328 23.485840 37,975 310 443 64
2022-05-19 21:25:40 GMT 40.786884 23.494389 37,975 310 443 64
2022-05-19 21:25:37 GMT 40.782135 23.501879 37,975 310 444 64
2022-05-19 21:25:34 GMT 40.778599 23.507496 37,975 310 444 0
2022-05-19 21:25:31 GMT 40.774612 23.513794 37,975 310 445 0
2022-05-19 21:25:27 GMT 40.768867 23.522852 37,975 310 445 -64
2022-05-19 21:25:24 GMT 40.765503 23.528198 37,975 310 445 -64
2022-05-19 21:25:16 GMT 40.754902 23.544950 38,000 310 445 -64
2022-05-19 21:25:13 GMT 40.751644 23.550131 38,000 310 445 -64
2022-05-19 21:25:08 GMT 40.744995 23.560608 38,000 310 443 -64
2022-05-19 21:25:06 GMT 40.741913 23.565487 38,000 310 443 0
2022-05-19 21:25:03 GMT 40.737957 23.571730 38,000 310 443 -64
2022-05-19 21:24:58 GMT 40.731308 23.582153 38,000 310 442 -64
2022-05-19 21:24:56 GMT 40.728645 23.586397 38,025 310 443 0
2022-05-19 21:24:53 GMT 40.724594 23.592829 38,025 310 443 0
2022-05-19 21:24:47 GMT 40.717438 23.604126 38,025 310 443 64
2022-05-19 21:24:43 GMT 40.711376 23.613739 38,000 310 443 64
2022-05-19 21:24:38 GMT 40.705463 23.623102 38,000 310 443 64
2022-05-19 21:24:35 GMT 40.701050 23.630005 38,000 310 443 0
2022-05-19 21:24:32 GMT 40.697826 23.635086 38,000 310 443 0
2022-05-19 21:24:26 GMT 40.688461 23.649902 37,975 310 444 64
2022-05-19 21:24:22 GMT 40.684387 23.656372 37,975 310 444 64
2022-05-19 21:24:17 GMT 40.677719 23.666798 37,975 310 445 64
2022-05-19 21:24:14 GMT 40.673203 23.673853 37,975 310 445 64
2022-05-19 21:24:12 GMT 40.671295 23.676819 37,975 310 445 64
2022-05-19 21:24:05 GMT 40.657513 23.698446 37,975 310 445 0
2022-05-19 21:24:02 GMT 40.657513 23.698446 37,975 310 445 0
2022-05-19 21:23:57 GMT 40.651276 23.708183 37,975 310 445 64
2022-05-19 21:23:55 GMT 40.648041 23.713257 37,975 310 445 0
2022-05-19 21:23:52 GMT 40.644432 23.718983 37,950 310 445 0
2022-05-19 21:23:48 GMT 40.638615 23.728098 37,975 310 445 0
2022-05-19 21:23:45 GMT 40.633255 23.736450 37,975 310 445 -64
2022-05-19 21:23:41 GMT 40.630421 23.740892 37,975 310 445 -64
2022-05-19 21:23:34 GMT 40.616592 23.762512 37,975 310 445 -64
2022-05-19 21:23:31 GMT 40.616592 23.762512 37,975 310 445 -64
2022-05-19 21:23:24 GMT 40.603561 23.782904 37,975 311 444 0
2022-05-19 21:23:21 GMT 40.603561 23.782904 37,975 311 444 0
2022-05-19 21:23:14 GMT 40.593704 23.798218 37,975 311 443 -64
2022-05-19 21:23:11 GMT 40.589783 23.804314 37,975 311 443 0
2022-05-19 21:23:03 GMT 40.579788 23.819824 37,975 311 443 64
2022-05-19 21:23:00 GMT 40.576492 23.824951 37,975 311 443 64
2022-05-19 21:22:54 GMT 40.566784 23.840082 37,975 311 444 0
2022-05-19 21:22:51 GMT 40.563400 23.845337 37,975 311 444 0
2022-05-19 21:22:43 GMT 40.552780 23.861816 37,975 311 444 0
2022-05-19 21:22:40 GMT 40.549347 23.867188 37,975 311 444 0
2022-05-19 21:22:33 GMT 40.539879 23.881968 37,975 311 444 0
2022-05-19 21:22:30 GMT 40.536392 23.887390 37,975 311 444 0
2022-05-19 21:22:20 GMT 40.522652 23.908747 37,975 311 445 0
2022-05-19 21:22:13 GMT 40.512459 23.924665 38,000 310 445 -64
2022-05-19 21:22:10 GMT 40.509064 23.929932 38,000 310 445 -64
2022-05-19 21:22:00 GMT 40.495930 23.950506 38,000 310 445 0
2022-05-19 21:21:49 GMT 40.482101 23.972107 38,000 311 445 -64
2022-05-19 21:21:42 GMT 40.472095 23.987711 38,000 311 445 0
2022-05-19 21:21:39 GMT 40.468605 23.993017 38,000 311 446 -64
2022-05-19 21:21:32 GMT 40.457710 24.009933 38,025 311 446 -64
2022-05-19 21:21:29 GMT 40.454918 24.014303 38,025 311 446 -64
2022-05-19 21:21:22 GMT 40.445251 24.029236 38,025 311 446 0
2022-05-19 21:21:19 GMT 40.441681 24.034790 38,025 311 446 0
2022-05-19 21:21:11 GMT 40.430851 24.051632 38,025 311 446 -64
2022-05-19 21:21:08 GMT 40.427582 24.056702 38,025 311 446 -64
2022-05-19 21:21:01 GMT 40.417557 24.072144 38,025 311 446 0
2022-05-19 21:20:58 GMT 40.414185 24.077412 38,025 311 446 0
2022-05-19 21:20:52 GMT 40.404099 24.092957 38,025 311 446 0
2022-05-19 21:20:48 GMT 40.400894 24.097900 38,025 311 446 0
2022-05-19 21:20:41 GMT 40.391556 24.112366 38,025 311 446 0
2022-05-19 21:20:38 GMT 40.386749 24.119812 38,025 311 446 0
2022-05-19 21:20:32 GMT 40.377411 24.134216 38,025 311 446 0
2022-05-19 21:20:28 GMT 40.373360 24.140520 38,000 311 446 64
2022-05-19 21:20:20 GMT 40.362698 24.157000 38,000 311 446 64
2022-05-19 21:20:17 GMT 40.359627 24.161745 38,000 311 446 64
2022-05-19 21:20:10 GMT 40.349243 24.177851 38,000 311 446 64
2022-05-19 21:20:07 GMT 40.346031 24.182781 38,000 311 446 64
2022-05-19 21:20:00 GMT 40.335232 24.199448 38,000 311 446 64
2022-05-19 21:19:57 GMT 40.332581 24.203568 37,975 311 445 64
2022-05-19 21:19:50 GMT 40.323715 24.217224 37,975 311 446 0
2022-05-19 21:19:47 GMT 40.318707 24.224977 37,975 311 446 0
2022-05-19 21:19:39 GMT 40.307831 24.241699 37,975 311 445 0
2022-05-19 21:19:36 GMT 40.304043 24.247513 37,975 311 445 0
2022-05-19 21:19:28 GMT 40.294144 24.262817 37,975 311 444 0
2022-05-19 21:19:25 GMT 40.290115 24.268921 37,975 311 444 64
2022-05-19 21:19:19 GMT 40.280960 24.283081 37,975 311 444 64
2022-05-19 21:19:16 GMT 40.277554 24.288275 37,975 311 444 0
2022-05-19 21:19:08 GMT 40.267082 24.304441 37,975 311 444 0
2022-05-19 21:19:05 GMT 40.263866 24.309374 37,975 311 443 0
2022-05-19 21:18:58 GMT 40.253723 24.324951 37,975 311 443 0
2022-05-19 21:18:55 GMT 40.249832 24.330872 37,975 311 444 0
2022-05-19 21:18:49 GMT 40.241150 24.344206 37,975 311 442 64
2022-05-19 21:18:46 GMT 40.237846 24.349323 37,975 311 442 64
2022-05-19 21:18:43 GMT 40.231384 24.359131 37,975 311 442 64
2022-05-19 21:18:40 GMT 40.228676 24.363306 37,975 311 442 64
2022-05-19 21:18:37 GMT 40.226021 24.367365 37,975 311 442 64
2022-05-19 21:18:31 GMT 40.214336 24.385279 37,975 311 442 0
2022-05-19 21:18:28 GMT 40.212708 24.387817 37,975 311 442 -64
2022-05-19 21:18:23 GMT 40.208084 24.394897 37,975 311 442 -64
2022-05-19 21:18:17 GMT 40.199341 24.408325 37,975 311 441 -64
2022-05-19 21:18:14 GMT 40.195854 24.413681 37,975 311 441 -64
2022-05-19 21:18:10 GMT 40.189041 24.424133 38,000 311 441 -128
2022-05-19 21:18:06 GMT 40.185516 24.429626 38,000 311 441 -128
2022-05-19 21:18:03 GMT 40.181473 24.435780 38,000 311 441 -64
2022-05-19 21:18:00 GMT 40.172699 24.449280 38,000 311 441 -128
2022-05-19 21:17:57 GMT 40.172699 24.449280 38,000 311 441 -128
2022-05-19 21:17:53 GMT 40.167938 24.456543 38,025 311 440 -128
2022-05-19 21:17:50 GMT 40.163502 24.463306 38,025 311 440 -64
2022-05-19 21:17:47 GMT 40.158966 24.470276 38,025 311 440 -64
2022-05-19 21:17:43 GMT 40.154797 24.476603 38,025 311 439 -64
2022-05-19 21:17:37 GMT 40.146515 24.489197 38,025 311 439 0
2022-05-19 21:17:34 GMT 40.143158 24.494331 38,025 311 439 0
2022-05-19 21:17:30 GMT 40.132080 24.511248 38,025 311 439 0
2022-05-19 21:17:27 GMT 40.129623 24.515015 38,025 311 439 64
2022-05-19 21:17:24 GMT 40.129623 24.515015 38,025 311 439 64
2022-05-19 21:17:19 GMT 40.116764 24.534594 38,025 311 439 64
2022-05-19 21:17:15 GMT 40.116764 24.534594 38,025 311 439 0
2022-05-19 21:17:12 GMT 40.113972 24.538837 38,025 311 439 0
2022-05-19 21:17:09 GMT 40.109642 24.545456 38,025 311 439 0
2022-05-19 21:17:06 GMT 40.104401 24.553406 38,025 311 439 0
2022-05-19 21:17:02 GMT 40.100830 24.558838 38,025 311 439 64
2022-05-19 21:16:58 GMT 40.095932 24.566284 38,025 311 439 64
2022-05-19 21:16:55 GMT 40.086823 24.580139 38,000 311 439 64
2022-05-19 21:16:52 GMT 40.086823 24.580139 38,000 311 439 64
2022-05-19 21:16:48 GMT 40.082199 24.587219 38,000 311 439 64
2022-05-19 21:16:44 GMT 40.076309 24.596142 38,000 311 439 0
2022-05-19 21:16:41 GMT 40.073517 24.600386 38,000 311 439 0
2022-05-19 21:16:37 GMT 40.066315 24.611328 38,000 311 438 0
2022-05-19 21:16:33 GMT 40.055878 24.627136 38,000 311 438 0
2022-05-19 21:16:29 GMT 40.055878 24.627136 38,000 311 438 0
2022-05-19 21:16:25 GMT 40.051117 24.634338 38,000 311 438 0
2022-05-19 21:16:22 GMT 40.048378 24.638464 38,000 311 438 0
2022-05-19 21:16:18 GMT 40.042561 24.647264 38,000 311 438 64
2022-05-19 21:16:13 GMT 40.034367 24.659687 38,000 311 437 64
2022-05-19 21:16:08 GMT 40.029053 24.667786 37,975 311 437 64
2022-05-19 21:16:03 GMT 40.022495 24.677666 37,975 311 437 0
2022-05-19 21:16:00 GMT 40.018818 24.683283 37,975 311 437 0
2022-05-19 21:15:55 GMT 40.010624 24.695642 37,975 311 437 0
2022-05-19 21:15:52 GMT 40.007950 24.699768 37,975 311 437 0
2022-05-19 21:15:48 GMT 40.002480 24.708065 37,975 311 436 0
2022-05-19 21:15:44 GMT 39.997215 24.715992 37,975 311 436 0
2022-05-19 21:15:41 GMT 39.993347 24.721924 37,975 311 436 0
2022-05-19 21:15:37 GMT 39.988907 24.728699 37,975 311 436 0
2022-05-19 21:15:32 GMT 39.980968 24.740774 37,975 311 436 0
2022-05-19 21:15:28 GMT 39.975815 24.748657 37,975 311 436 0
2022-05-19 21:15:24 GMT 39.971661 24.754944 37,975 311 436 0
2022-05-19 21:15:21 GMT 39.967163 24.761780 37,975 311 435 0
2022-05-19 21:15:17 GMT 39.962311 24.769165 37,975 311 435 -64
2022-05-19 21:15:13 GMT 39.953156 24.783081 37,975 311 435 -64
2022-05-19 21:15:10 GMT 39.953156 24.783081 37,975 311 435 -64
2022-05-19 21:15:07 GMT 39.949036 24.789339 37,975 311 435 -64
2022-05-19 21:15:03 GMT 39.942032 24.799988 37,975 311 435 0
2022-05-19 21:15:00 GMT 39.940567 24.802185 37,975 311 435 0
2022-05-19 21:14:57 GMT 39.935394 24.809999 37,975 311 434 0
2022-05-19 21:14:51 GMT 39.927063 24.822735 37,975 311 434 128
2022-05-19 21:14:47 GMT 39.922455 24.829651 37,950 311 433 192
2022-05-19 21:14:43 GMT 39.914017 24.842417 37,950 311 433 192
2022-05-19 21:14:40 GMT 39.914017 24.842417 37,925 311 433 128
2022-05-19 21:14:36 GMT 39.908936 24.850119 37,925 311 433 0
2022-05-19 21:14:30 GMT 39.900970 24.862181 37,925 311 433 0
2022-05-19 21:14:27 GMT 39.895641 24.870178 37,925 311 433 0
2022-05-19 21:14:20 GMT 39.886795 24.883606 37,925 311 433 0
2022-05-19 21:14:16 GMT 39.882095 24.890747 37,925 311 433 0
2022-05-19 21:14:09 GMT 39.872551 24.905151 37,925 311 433 0
2022-05-19 21:14:06 GMT 39.868874 24.910706 37,925 311 433 -64
2022-05-19 21:14:00 GMT 39.860306 24.923706 37,925 311 433 0
2022-05-19 21:13:56 GMT 39.856339 24.929710 37,925 311 433 0
2022-05-19 21:13:49 GMT 39.846760 24.944275 37,925 311 433 0
2022-05-19 21:13:46 GMT 39.842789 24.950310 37,925 311 433 0
2022-05-19 21:13:41 GMT 39.836704 24.959473 37,925 311 433 -64
2022-05-19 21:13:38 GMT 39.832657 24.965576 37,925 311 433 0
2022-05-19 21:13:35 GMT 39.829468 24.970430 37,925 311 433 0
2022-05-19 21:13:31 GMT 39.823158 24.979980 37,950 311 433 -64
2022-05-19 21:13:28 GMT 39.818893 24.986374 37,950 311 433 -64
2022-05-19 21:13:25 GMT 39.816360 24.990234 37,950 311 433 -64
2022-05-19 21:13:21 GMT 39.809509 25.000584 37,950 311 433 -64
2022-05-19 21:13:17 GMT 39.806213 25.005615 37,950 311 433 -64
2022-05-19 21:13:13 GMT 39.800861 25.013733 37,950 311 433 -64
2022-05-19 21:13:08 GMT 39.792801 25.025841 37,950 311 433 0
2022-05-19 21:13:03 GMT 39.788197 25.032837 37,950 311 433 64
2022-05-19 21:12:58 GMT 39.776512 25.050415 37,950 311 434 0
2022-05-19 21:12:55 GMT 39.776512 25.050415 37,950 311 433 -64
2022-05-19 21:12:50 GMT 39.769592 25.060711 37,950 311 435 -128
2022-05-19 21:12:47 GMT 39.765572 25.066711 37,950 311 435 -128
2022-05-19 21:12:44 GMT 39.762772 25.070980 37,975 311 435 -128
2022-05-19 21:12:40 GMT 39.756042 25.081011 37,975 311 435 -64
2022-05-19 21:12:37 GMT 39.751610 25.087585 37,975 312 435 -192
2022-05-19 21:12:34 GMT 39.749512 25.090759 37,975 312 435 -128
2022-05-19 21:12:27 GMT 39.739689 25.105286 38,000 312 435 -64
2022-05-19 21:12:24 GMT 39.735596 25.111389 38,000 312 435 0
2022-05-19 21:12:19 GMT 39.724327 25.128113 38,000 312 436 0
2022-05-19 21:12:16 GMT 39.724327 25.128113 38,000 312 437 0
2022-05-19 21:12:13 GMT 39.721710 25.131943 38,000 312 437 -64
2022-05-19 21:12:07 GMT 39.713745 25.143764 38,025 312 437 0
2022-05-19 21:12:04 GMT 39.702866 25.159851 38,025 312 438 0
2022-05-19 21:11:59 GMT 39.702866 25.159851 38,000 312 438 0
2022-05-19 21:11:57 GMT 39.700287 25.163708 38,025 311 438 -64
2022-05-19 21:11:53 GMT 39.694839 25.171827 38,025 311 438 -64
2022-05-19 21:11:50 GMT 39.690811 25.177917 38,025 311 438 -64
2022-05-19 21:11:48 GMT 39.688110 25.181885 38,025 311 438 0
2022-05-19 21:11:45 GMT 39.683167 25.189322 38,025 311 439 -64
2022-05-19 21:11:42 GMT 39.680428 25.193420 38,025 311 439 -64
2022-05-19 21:11:37 GMT 39.672981 25.204590 38,025 311 440 0
2022-05-19 21:11:32 GMT 39.666695 25.213928 38,025 311 440 -64
2022-05-19 21:11:28 GMT 39.660645 25.222998 38,025 311 440 0
2022-05-19 21:11:25 GMT 39.657478 25.227661 38,025 311 440 0
2022-05-19 21:11:22 GMT 39.653549 25.233566 38,025 312 441 0
2022-05-19 21:11:17 GMT 39.645905 25.244909 38,025 312 441 0
2022-05-19 21:11:12 GMT 39.640068 25.253601 38,025 311 442 64
2022-05-19 21:11:06 GMT 39.632629 25.264673 38,000 311 442 128
2022-05-19 21:11:03 GMT 39.624298 25.277033 38,000 311 443 128
2022-05-19 21:10:56 GMT 39.618191 25.286194 38,000 311 443 128
2022-05-19 21:10:53 GMT 39.613449 25.293274 38,000 311 443 128
2022-05-19 21:10:46 GMT 39.605621 25.304916 37,975 312 444 64
2022-05-19 21:10:42 GMT 39.599304 25.314291 38,000 312 444 0
2022-05-19 21:10:35 GMT 39.590721 25.327026 38,000 312 444 0
2022-05-19 21:10:30 GMT 39.584015 25.336981 38,000 312 444 0
2022-05-19 21:10:25 GMT 39.576527 25.348083 37,975 312 444 64
2022-05-19 21:10:20 GMT 39.570614 25.356934 37,975 311 445 128
2022-05-19 21:10:16 GMT 39.560394 25.372028 37,975 311 445 128
2022-05-19 21:10:10 GMT 39.557007 25.377045 37,950 311 445 128
2022-05-19 21:10:05 GMT 39.550362 25.386963 37,950 311 445 0
2022-05-19 21:10:01 GMT 39.543640 25.396929 37,950 311 445 64
2022-05-19 21:09:56 GMT 39.526520 25.422422 37,950 311 445 0
2022-05-19 21:09:48 GMT 39.526520 25.422422 37,950 311 445 0
2022-05-19 21:09:45 GMT 39.522385 25.428528 37,950 311 445 64
2022-05-19 21:09:41 GMT 39.515579 25.438663 37,950 311 444 64
2022-05-19 21:09:32 GMT 39.504272 25.455502 37,925 311 445 128
2022-05-19 21:09:30 GMT 39.502182 25.458618 37,950 311 445 128
2022-05-19 21:09:24 GMT 39.494595 25.469788 37,925 311 445 0
2022-05-19 21:09:20 GMT 39.487701 25.480042 37,925 312 445 0
2022-05-19 21:09:14 GMT 39.481232 25.489624 37,925 312 445 0
2022-05-19 21:09:07 GMT 39.470856 25.504940 37,925 312 445 -64
2022-05-19 21:09:04 GMT 39.466965 25.510733 37,925 312 445 0
2022-05-19 21:08:58 GMT 39.458748 25.522827 37,925 312 445 0
2022-05-19 21:08:53 GMT 39.452927 25.531372 37,925 312 445 0
2022-05-19 21:08:50 GMT 39.448425 25.538078 37,925 312 445 0
2022-05-19 21:08:46 GMT 39.442291 25.547033 37,925 312 445 -64
2022-05-19 21:08:43 GMT 39.439381 25.551331 37,950 312 445 -64
2022-05-19 21:08:37 GMT 39.431488 25.563036 37,950 312 444 -64
2022-05-19 21:08:32 GMT 39.424438 25.573366 37,950 312 444 -192
2022-05-19 21:08:25 GMT 39.414551 25.587934 37,975 312 443 -128
2022-05-19 21:08:23 GMT 39.411804 25.591934 37,975 312 444 -64
2022-05-19 21:08:16 GMT 39.402325 25.605957 38,000 312 444 -64
2022-05-19 21:08:12 GMT 39.397110 25.613668 38,000 311 443 -64
2022-05-19 21:08:06 GMT 39.388916 25.625849 38,000 312 444 0
2022-05-19 21:08:03 GMT 39.384293 25.632656 38,000 312 444 64
2022-05-19 21:07:56 GMT 39.375607 25.645508 38,000 312 444 0
2022-05-19 21:07:53 GMT 39.370205 25.653503 37,975 312 444 128
2022-05-19 21:07:46 GMT 39.361771 25.666033 37,975 312 445 64
2022-05-19 21:07:42 GMT 39.356564 25.673706 37,975 312 445 64
2022-05-19 21:07:36 GMT 39.348083 25.686214 37,975 312 446 64
2022-05-19 21:07:32 GMT 39.342552 25.694336 37,950 312 446 64
2022-05-19 21:07:26 GMT 39.334126 25.706726 37,950 312 446 -64
2022-05-19 21:07:21 GMT 39.327843 25.715942 37,975 312 446 -128
2022-05-19 21:07:16 GMT 39.319416 25.728333 37,975 312 445 -128
2022-05-19 21:07:12 GMT 39.314529 25.735474 37,975 312 445 -128
2022-05-19 21:07:05 GMT 39.306015 25.747953 38,000 312 445 -64
2022-05-19 21:07:01 GMT 39.300156 25.756552 38,000 312 445 -64
2022-05-19 21:06:56 GMT 39.291733 25.768909 38,000 312 446 -64
2022-05-19 21:06:50 GMT 39.285461 25.778046 38,000 312 445 0
2022-05-19 21:06:44 GMT 39.276402 25.791260 38,000 312 445 0
2022-05-19 21:06:41 GMT 39.272919 25.796316 38,000 312 445 0
2022-05-19 21:06:37 GMT 39.267372 25.804382 38,000 312 445 64
2022-05-19 21:06:33 GMT 39.263134 25.810547 38,000 312 445 64
2022-05-19 21:06:30 GMT 39.256668 25.819962 37,975 312 446 0
2022-05-19 21:06:24 GMT 39.248936 25.831177 37,975 312 446 64
2022-05-19 21:06:19 GMT 39.243771 25.838745 37,975 312 446 0
2022-05-19 21:06:11 GMT 39.232224 25.855606 38,000 312 445 -64
2022-05-19 21:06:03 GMT 39.220585 25.872620 38,000 312 446 -64
2022-05-19 21:06:00 GMT 39.217117 25.877699 38,000 312 446 -64
2022-05-19 21:05:52 GMT 39.206223 25.893641 38,000 312 445 64
2022-05-19 21:05:49 GMT 39.201546 25.900513 38,000 312 445 0
2022-05-19 21:05:43 GMT 39.194050 25.911438 38,000 312 445 64
2022-05-19 21:05:38 GMT 39.187534 25.920959 37,975 312 445 0
2022-05-19 21:05:30 GMT 39.176834 25.936571 38,000 312 444 0
2022-05-19 21:05:27 GMT 39.173195 25.941833 37,975 312 443 -64
2022-05-19 21:05:22 GMT 39.165886 25.952576 38,000 312 445 0
2022-05-19 21:05:19 GMT 39.158432 25.963381 38,000 312 445 0
2022-05-19 21:05:07 GMT 39.141075 25.988647 38,000 312 444 -64
2022-05-19 21:04:59 GMT 39.133804 25.999266 38,000 312 444 0
2022-05-19 21:04:55 GMT 39.124783 26.012451 38,000 312 444 -64
2022-05-19 21:04:50 GMT 39.117645 26.022850 38,000 312 444 -64
2022-05-19 21:04:41 GMT 39.109932 26.033997 38,000 312 444 -128
2022-05-19 21:04:37 GMT 39.105240 26.040821 38,000 312 443 -64
2022-05-19 21:04:30 GMT 39.095360 26.055115 38,025 312 443 0
2022-05-19 21:04:27 GMT 39.081116 26.075867 38,025 312 443 0
2022-05-19 21:04:20 GMT 39.081116 26.075867 38,025 312 443 64
2022-05-19 21:04:17 GMT 39.076126 26.083036 38,025 312 443 64
2022-05-19 21:04:08 GMT 39.065552 26.098381 38,000 312 442 64
2022-05-19 21:04:05 GMT 39.060791 26.105307 38,000 312 442 64
2022-05-19 21:04:01 GMT 39.056168 26.111994 38,000 312 442 64
2022-05-19 21:03:58 GMT 39.051453 26.118860 38,000 312 442 64
2022-05-19 21:03:55 GMT 39.048065 26.123756 38,000 312 442 64
2022-05-19 21:03:51 GMT 39.041870 26.132690 38,000 312 442 0
2022-05-19 21:03:47 GMT 39.035156 26.142445 38,000 312 442 64
2022-05-19 21:03:44 GMT 39.028465 26.152161 37,975 312 441 64
2022-05-19 21:03:41 GMT 39.028465 26.152161 38,000 312 441 64
2022-05-19 21:03:35 GMT 39.021065 26.162964 38,000 312 441 0
2022-05-19 21:03:29 GMT 39.012039 26.176003 37,975 312 440 0
2022-05-19 21:03:26 GMT 39.006725 26.183777 37,975 312 440 0
2022-05-19 21:03:18 GMT 38.996998 26.197876 37,975 312 440 0
2022-05-19 21:03:15 GMT 38.992947 26.203735 37,975 312 439 0
2022-05-19 21:03:09 GMT 38.985901 26.213976 37,975 312 439 0
2022-05-19 21:03:05 GMT 38.979492 26.223206 37,975 312 439 0
2022-05-19 21:02:59 GMT 38.972031 26.234037 37,975 312 438 0
2022-05-19 21:02:55 GMT 38.965107 26.244019 37,975 312 437 64
2022-05-19 21:02:50 GMT 38.955231 26.258280 37,975 312 437 64
2022-05-19 21:02:44 GMT 38.951614 26.263474 37,975 312 437 0
2022-05-19 21:02:37 GMT 38.940536 26.279358 37,975 312 438 -64
2022-05-19 21:02:34 GMT 38.937607 26.283655 37,975 312 438 -64
2022-05-19 21:02:23 GMT 38.921860 26.306152 37,975 312 436 0
2022-05-19 21:02:17 GMT 38.915623 26.314941 37,975 313 436 -64
2022-05-19 21:02:11 GMT 38.903519 26.332214 37,975 313 434 64
2022-05-19 21:02:05 GMT 38.899429 26.338051 37,975 313 434 64
2022-05-19 21:02:02 GMT 38.895046 26.344238 37,975 313 434 0
2022-05-19 21:01:52 GMT 38.882290 26.362366 38,000 312 434 -192
2022-05-19 21:01:44 GMT 38.862946 26.390175 38,000 312 436 -128
2022-05-19 21:01:35 GMT 38.859573 26.395142 38,025 312 437 0
2022-05-19 21:01:28 GMT 38.844257 26.417542 38,025 312 437 64
2022-05-19 21:01:23 GMT 38.841373 26.421570 38,025 314 438 0
2022-05-19 21:01:19 GMT 38.837585 26.426777 38,025 314 438 0
2022-05-19 21:01:15 GMT 38.830170 26.436390 38,025 316 439 0
2022-05-19 21:01:12 GMT 38.825542 26.442078 38,025 317 440 0
2022-05-19 21:01:03 GMT 38.811813 26.458183 38,025 319 441 -64
2022-05-19 21:00:59 GMT 38.808319 26.462036 38,025 319 442 0
2022-05-19 21:00:54 GMT 38.799637 26.471796 38,025 319 442 0
2022-05-19 21:00:51 GMT 38.794281 26.477827 38,025 319 442 0
2022-05-19 21:00:42 GMT 38.779831 26.493958 38,025 319 443 64
2022-05-19 21:00:39 GMT 38.777363 26.496704 38,025 319 443 64
2022-05-19 21:00:33 GMT 38.767307 26.507935 38,000 319 444 128
2022-05-19 21:00:29 GMT 38.762047 26.513794 38,000 319 444 64
2022-05-19 21:00:24 GMT 38.752598 26.524353 38,000 320 445 0
2022-05-19 21:00:20 GMT 38.745209 26.532520 38,000 320 445 0
2022-05-19 21:00:13 GMT 38.736584 26.542114 38,000 320 445 -64
2022-05-19 21:00:08 GMT 38.724564 26.555449 38,000 320 445 -64
2022-05-19 21:00:03 GMT 38.720428 26.560059 38,000 320 445 -64
2022-05-19 20:59:58 GMT 38.714127 26.567032 38,025 319 445 0
2022-05-19 20:59:52 GMT 38.705017 26.577242 38,000 319 444 64
2022-05-19 20:59:49 GMT 38.697338 26.585754 38,000 319 444 128
2022-05-19 20:59:43 GMT 38.688766 26.595392 38,000 319 445 64
2022-05-19 20:59:38 GMT 38.681946 26.602976 38,000 319 445 64
2022-05-19 20:59:32 GMT 38.673294 26.612648 37,975 319 445 64
2022-05-19 20:59:28 GMT 38.666241 26.620544 37,975 319 445 0
2022-05-19 20:59:25 GMT 38.661850 26.625486 37,975 319 445 0
2022-05-19 20:59:22 GMT 38.657181 26.630621 37,975 319 445 0
2022-05-19 20:59:18 GMT 38.649391 26.639343 37,975 319 444 0
2022-05-19 20:59:15 GMT 38.646271 26.642822 37,975 319 444 0
2022-05-19 20:59:10 GMT 38.637657 26.652466 37,975 319 443 64
2022-05-19 20:59:06 GMT 38.632919 26.657728 37,975 319 442 64
2022-05-19 20:59:02 GMT 38.625137 26.666443 37,950 319 442 64
2022-05-19 20:58:59 GMT 38.621880 26.670044 37,950 319 442 64
2022-05-19 20:58:54 GMT 38.613266 26.679688 37,950 319 443 64
2022-05-19 20:58:50 GMT 38.603676 26.690369 37,950 319 443 64
2022-05-19 20:58:47 GMT 38.602001 26.692261 37,950 319 443 64
2022-05-19 20:58:44 GMT 38.599068 26.695496 37,950 319 443 64
2022-05-19 20:58:41 GMT 38.594131 26.701050 37,950 319 442 64
2022-05-19 20:58:38 GMT 38.590130 26.705505 37,925 319 442 0
2022-05-19 20:58:33 GMT 38.583389 26.712957 37,925 319 442 0
2022-05-19 20:58:29 GMT 38.574783 26.722570 37,925 319 442 0
2022-05-19 20:58:26 GMT 38.570858 26.726929 37,925 319 442 0
2022-05-19 20:58:24 GMT 38.568066 26.730042 37,925 319 442 64
2022-05-19 20:58:21 GMT 38.562744 26.735947 37,925 319 442 64
2022-05-19 20:58:17 GMT 38.557800 26.741379 37,925 319 442 64
2022-05-19 20:58:14 GMT 38.552582 26.747231 37,925 319 442 64
2022-05-19 20:58:11 GMT 38.546837 26.753662 37,925 319 442 0
2022-05-19 20:58:08 GMT 38.543060 26.757858 37,925 319 441 -64
2022-05-19 20:58:05 GMT 38.536037 26.765625 37,925 319 441 0
2022-05-19 20:58:00 GMT 38.531204 26.770994 37,925 319 441 0
2022-05-19 20:57:55 GMT 38.522209 26.781006 37,925 319 440 -64
2022-05-19 20:57:50 GMT 38.516064 26.787842 37,925 319 440 -64
2022-05-19 20:57:48 GMT 38.511108 26.793385 37,925 319 440 -64
2022-05-19 20:57:45 GMT 38.507641 26.797241 37,950 319 440 -64
2022-05-19 20:57:41 GMT 38.495773 26.810522 37,950 319 440 0
2022-05-19 20:57:37 GMT 38.495773 26.810522 37,950 319 440 0
2022-05-19 20:57:33 GMT 38.489574 26.817444 37,950 319 440 -64
2022-05-19 20:57:30 GMT 38.484222 26.823364 37,950 319 440 -64
2022-05-19 20:57:25 GMT 38.477196 26.831238 37,950 319 440 -64
2022-05-19 20:57:22 GMT 38.473251 26.835539 37,950 319 440 -64
2022-05-19 20:57:19 GMT 38.467896 26.841511 37,950 319 440 -64
2022-05-19 20:57:15 GMT 38.461227 26.848877 37,950 320 439 0
2022-05-19 20:57:13 GMT 38.454288 26.856506 37,950 320 440 -64
2022-05-19 20:57:10 GMT 38.451920 26.859184 37,950 320 440 -64
2022-05-19 20:57:05 GMT 38.446144 26.865540 37,975 320 440 -64
2022-05-19 20:57:02 GMT 38.441437 26.870708 37,975 320 440 -64
2022-05-19 20:56:59 GMT 38.437134 26.875425 37,975 320 440 -64
2022-05-19 20:56:56 GMT 38.426239 26.887486 37,975 320 440 -64
2022-05-19 20:56:52 GMT 38.426239 26.887486 37,975 320 440 -64
2022-05-19 20:56:49 GMT 38.420975 26.893276 37,975 320 440 -64
2022-05-19 20:56:46 GMT 38.417267 26.897339 38,000 320 440 -64
2022-05-19 20:56:43 GMT 38.412437 26.902649 38,000 320 441 -64
2022-05-19 20:56:39 GMT 38.406326 26.909374 38,000 320 441 0
2022-05-19 20:56:36 GMT 38.400848 26.915369 38,000 320 441 0
2022-05-19 20:56:33 GMT 38.396759 26.919834 38,000 320 441 -64
2022-05-19 20:56:31 GMT 38.393585 26.923311 38,000 320 441 -64
2022-05-19 20:56:26 GMT 38.381390 26.936686 38,000 320 441 0
2022-05-19 20:56:23 GMT 38.381390 26.936686 38,000 320 441 0
2022-05-19 20:56:20 GMT 38.378082 26.940348 38,000 320 441 -64
2022-05-19 20:56:16 GMT 38.369843 26.949463 38,000 320 442 0
2022-05-19 20:56:11 GMT 38.363049 26.956926 38,000 320 441 0
2022-05-19 20:56:08 GMT 38.358170 26.962261 38,000 320 442 0
2022-05-19 20:56:05 GMT 38.353683 26.967228 38,000 319 442 0
2022-05-19 20:56:02 GMT 38.349976 26.971319 38,000 319 442 -64
2022-05-19 20:56:00 GMT 38.346382 26.975317 38,000 319 442 0
2022-05-19 20:55:57 GMT 38.340794 26.981466 38,000 319 442 0
2022-05-19 20:55:55 GMT 38.338577 26.983940 38,025 319 442 -64
2022-05-19 20:55:52 GMT 38.334595 26.988382 38,025 319 442 -128
2022-05-19 20:55:50 GMT 38.330505 26.992931 38,025 319 442 -128
2022-05-19 20:55:46 GMT 38.325573 26.998425 38,025 319 442 -64
2022-05-19 20:55:42 GMT 38.319214 27.005564 38,025 319 442 -64
2022-05-19 20:55:36 GMT 38.309467 27.016516 38,025 319 442 0
2022-05-19 20:55:32 GMT 38.303509 27.023203 38,025 319 442 64
2022-05-19 20:55:29 GMT 38.298981 27.028296 38,025 319 442 64
2022-05-19 20:55:25 GMT 38.291153 27.037062 38,025 319 443 0
2022-05-19 20:55:22 GMT 38.288223 27.040335 38,025 319 443 0
2022-05-19 20:55:20 GMT 38.283535 27.045593 38,025 319 443 0
2022-05-19 20:55:16 GMT 38.278790 27.050966 38,025 319 443 0
2022-05-19 20:55:12 GMT 38.272705 27.057749 38,025 319 444 0
2022-05-19 20:55:06 GMT 38.262959 27.068701 38,025 319 443 0
2022-05-19 20:55:02 GMT 38.256729 27.075689 38,025 319 443 0
2022-05-19 20:54:58 GMT 38.251923 27.081007 38,025 319 443 64
2022-05-19 20:54:55 GMT 38.247227 27.086254 38,025 319 444 0
2022-05-19 20:54:52 GMT 38.241219 27.092941 38,025 319 443 0
2022-05-19 20:54:46 GMT 38.232376 27.102861 38,000 319 443 64
2022-05-19 20:54:44 GMT 38.228603 27.107094 38,000 319 443 64
2022-05-19 20:54:41 GMT 38.225464 27.110577 38,000 319 443 64
2022-05-19 20:54:36 GMT 38.216595 27.120466 38,000 319 443 128
2022-05-19 20:54:32 GMT 38.210121 27.127691 38,000 319 443 128
2022-05-19 20:54:28 GMT 38.205517 27.132828 37,975 319 443 64
2022-05-19 20:54:25 GMT 38.199974 27.139036 37,975 319 444 128
2022-05-19 20:54:21 GMT 38.193691 27.146141 37,975 319 444 64
2022-05-19 20:54:18 GMT 38.188522 27.151892 37,975 319 444 0
2022-05-19 20:54:13 GMT 38.181427 27.159781 37,975 319 444 0
2022-05-19 20:54:10 GMT 38.177582 27.164104 37,975 319 444 64
2022-05-19 20:54:06 GMT 38.170074 27.172520 37,975 319 444 64
2022-05-19 20:54:03 GMT 38.164734 27.178505 37,975 319 444 64
2022-05-19 20:54:00 GMT 38.162201 27.181286 37,950 319 444 64
2022-05-19 20:53:55 GMT 38.153378 27.191221 37,950 319 443 0
2022-05-19 20:53:51 GMT 38.147369 27.197908 37,950 319 443 0
2022-05-19 20:53:48 GMT 38.142715 27.203045 37,950 319 442 0
2022-05-19 20:53:43 GMT 38.135502 27.211105 37,950 319 442 64
2022-05-19 20:53:40 GMT 38.131496 27.215584 37,950 319 442 64
2022-05-19 20:53:37 GMT 38.125679 27.222092 37,950 319 442 64
2022-05-19 20:53:34 GMT 38.121780 27.226460 37,950 319 442 0
2022-05-19 20:53:31 GMT 38.117020 27.231775 37,950 319 442 0
2022-05-19 20:53:27 GMT 38.111385 27.238033 37,950 319 442 -64
2022-05-19 20:53:24 GMT 38.106033 27.244003 37,950 319 442 0
2022-05-19 20:53:20 GMT 38.100906 27.249775 37,950 319 442 -64
2022-05-19 20:53:16 GMT 38.094589 27.256788 37,950 319 441 -64
2022-05-19 20:53:13 GMT 38.089321 27.262693 37,950 319 441 -64
2022-05-19 20:53:09 GMT 38.083782 27.268843 37,950 319 441 0
2022-05-19 20:53:05 GMT 38.078339 27.274904 37,950 319 441 0
2022-05-19 20:53:02 GMT 38.073761 27.280046 37,950 319 441 0
2022-05-19 20:52:56 GMT 38.062729 27.292318 37,950 319 440 -64
2022-05-19 20:52:52 GMT 38.057831 27.297752 37,950 319 440 0
2022-05-19 20:52:49 GMT 38.053940 27.302099 37,950 319 440 0
2022-05-19 20:52:46 GMT 38.049332 27.307175 37,975 319 440 0
2022-05-19 20:52:43 GMT 38.043274 27.313940 37,975 319 440 0
2022-05-19 20:52:40 GMT 38.034531 27.323641 37,975 319 440 0
2022-05-19 20:52:37 GMT 38.034531 27.323641 37,975 319 440 0
2022-05-19 20:52:32 GMT 38.026886 27.332113 37,975 319 440 -64
2022-05-19 20:52:28 GMT 38.020294 27.339418 37,975 319 440 -64
2022-05-19 20:52:23 GMT 38.011623 27.349031 37,975 319 440 -64
2022-05-19 20:52:20 GMT 38.008484 27.352509 37,975 319 440 -64
2022-05-19 20:52:10 GMT 37.993095 27.369631 37,975 319 440 -64
2022-05-19 20:52:05 GMT 37.986282 27.377171 37,975 319 440 -64
2022-05-19 20:52:02 GMT 37.980606 27.383480 37,975 319 440 -64
2022-05-19 20:51:57 GMT 37.973171 27.391722 38,000 319 440 -64
2022-05-19 20:51:53 GMT 37.966965 27.398617 38,000 319 440 -64
2022-05-19 20:51:50 GMT 37.956509 27.410233 38,000 319 440 -64
2022-05-19 20:51:46 GMT 37.956509 27.410233 38,000 319 440 0
2022-05-19 20:51:40 GMT 37.948219 27.419428 38,000 319 440 64
2022-05-19 20:51:37 GMT 37.942795 27.425440 38,000 319 440 64
2022-05-19 20:51:32 GMT 37.934830 27.434263 38,000 319 440 64
2022-05-19 20:51:29 GMT 37.929794 27.439875 38,000 319 440 64
2022-05-19 20:51:27 GMT 37.926727 27.443262 37,975 319 440 64
2022-05-19 20:51:20 GMT 37.916985 27.453999 37,975 319 440 0
2022-05-19 20:51:17 GMT 37.910839 27.460806 37,975 319 440 0
2022-05-19 20:51:10 GMT 37.901760 27.470776 37,975 319 440 64
2022-05-19 20:51:06 GMT 37.895554 27.477625 37,975 319 440 64
2022-05-19 20:51:01 GMT 37.886353 27.487793 37,975 319 440 -64
2022-05-19 20:50:58 GMT 37.883240 27.491182 37,975 319 441 -64
2022-05-19 20:50:56 GMT 37.880253 27.494480 37,975 319 440 0
2022-05-19 20:50:51 GMT 37.871037 27.504690 37,975 319 440 0
2022-05-19 20:50:48 GMT 37.867966 27.508034 37,975 319 441 0
2022-05-19 20:50:46 GMT 37.864380 27.512045 37,975 319 441 -64
2022-05-19 20:50:39 GMT 37.854465 27.522961 37,975 319 441 0
2022-05-19 20:50:36 GMT 37.840897 27.537991 37,975 319 441 -64
2022-05-19 20:50:32 GMT 37.840897 27.537991 38,000 319 441 -64
2022-05-19 20:50:29 GMT 37.837753 27.541471 38,000 319 441 0
2022-05-19 20:50:27 GMT 37.835423 27.543978 38,000 319 441 0
2022-05-19 20:50:25 GMT 37.832958 27.546724 38,000 319 441 0
2022-05-19 20:50:19 GMT 37.822632 27.558151 37,975 319 441 0
2022-05-19 20:50:16 GMT 37.817780 27.563503 37,975 319 440 64
2022-05-19 20:50:10 GMT 37.807678 27.574669 37,975 319 441 64
2022-05-19 20:50:04 GMT 37.799812 27.583326 37,975 319 440 64
2022-05-19 20:49:57 GMT 37.788452 27.595865 37,975 319 440 64
2022-05-19 20:49:53 GMT 37.783707 27.601061 37,975 319 440 64
2022-05-19 20:49:48 GMT 37.776260 27.609285 37,975 319 440 64
2022-05-19 20:49:44 GMT 37.769165 27.617058 37,975 319 441 64
2022-05-19 20:49:37 GMT 37.756657 27.630854 37,975 319 441 0
2022-05-19 20:49:33 GMT 37.752731 27.635174 37,975 319 441 -64
2022-05-19 20:49:28 GMT 37.744858 27.643764 37,975 319 441 0
2022-05-19 20:49:24 GMT 37.738541 27.650719 37,975 319 440 0
2022-05-19 20:49:17 GMT 37.727921 27.662405 37,975 319 440 0
2022-05-19 20:49:14 GMT 37.723160 27.667606 37,975 319 440 64
2022-05-19 20:49:10 GMT 37.717552 27.673784 37,975 319 440 64
2022-05-19 20:49:08 GMT 37.709129 27.683100 37,950 319 440 64
2022-05-19 20:49:05 GMT 37.702797 27.690025 37,950 319 440 64
2022-05-19 20:48:58 GMT 37.698376 27.694921 37,950 319 440 64
2022-05-19 20:48:56 GMT 37.694595 27.699045 37,950 319 440 64
2022-05-19 20:48:51 GMT 37.688324 27.705942 37,950 319 440 64
2022-05-19 20:48:45 GMT 37.678406 27.716833 37,950 319 440 0
2022-05-19 20:48:37 GMT 37.666252 27.730209 37,925 319 440 0
2022-05-19 20:48:34 GMT 37.661407 27.735512 37,950 319 440 0
2022-05-19 20:48:30 GMT 37.656006 27.741413 37,925 319 440 0
2022-05-19 20:48:26 GMT 37.649170 27.748898 37,925 319 440 0
2022-05-19 20:48:22 GMT 37.642776 27.755905 37,925 319 440 0
2022-05-19 20:48:16 GMT 37.634274 27.765257 37,925 320 440 0
2022-05-19 20:48:13 GMT 37.627716 27.772387 37,925 320 440 0
2022-05-19 20:48:08 GMT 37.620483 27.780275 37,925 319 440 0
2022-05-19 20:48:06 GMT 37.618259 27.782692 37,925 319 440 0
2022-05-19 20:48:02 GMT 37.612114 27.789438 37,925 319 440 0
2022-05-19 20:47:56 GMT 37.603176 27.799171 37,925 319 440 0
2022-05-19 20:47:53 GMT 37.598892 27.803888 37,925 319 440 -64
2022-05-19 20:47:50 GMT 37.594345 27.808851 37,925 319 440 -64
2022-05-19 20:47:45 GMT 37.586975 27.816916 37,950 319 440 -64
2022-05-19 20:47:42 GMT 37.580597 27.823891 37,950 319 440 0
2022-05-19 20:47:38 GMT 37.570999 27.834389 37,950 319 440 -64
2022-05-19 20:47:35 GMT 37.570999 27.834389 37,950 319 440 -64
2022-05-19 20:47:31 GMT 37.565186 27.840816 37,950 319 440 -64
2022-05-19 20:47:23 GMT 37.551636 27.855543 37,950 319 440 -64
2022-05-19 20:47:21 GMT 37.549267 27.858164 37,950 319 440 -64
2022-05-19 20:47:16 GMT 37.536255 27.872314 37,975 320 440 0
2022-05-19 20:47:13 GMT 37.533115 27.875778 37,975 320 440 0
2022-05-19 20:47:10 GMT 37.533115 27.875778 37,950 320 440 0
2022-05-19 20:47:06 GMT 37.524178 27.885509 37,950 320 440 0
2022-05-19 20:47:03 GMT 37.520966 27.889032 37,950 320 440 0
2022-05-19 20:47:00 GMT 37.508766 27.902227 37,950 320 441 -64
2022-05-19 20:46:55 GMT 37.508766 27.902227 37,950 320 440 0
2022-05-19 20:46:52 GMT 37.505447 27.905857 37,950 320 441 -64
2022-05-19 20:46:49 GMT 37.499504 27.912319 37,950 320 441 -64
2022-05-19 20:46:45 GMT 37.493271 27.919123 37,975 320 441 -64
2022-05-19 20:46:42 GMT 37.488564 27.924200 37,975 320 441 -64
2022-05-19 20:46:40 GMT 37.486313 27.926662 37,975 320 440 -64
2022-05-19 20:46:34 GMT 37.477203 27.936539 37,975 319 441 -64
2022-05-19 20:46:31 GMT 37.472691 27.941517 38,000 319 441 -64
2022-05-19 20:46:29 GMT 37.469650 27.944777 38,000 319 441 -64
2022-05-19 20:46:24 GMT 37.461563 27.953636 38,000 320 442 -64
2022-05-19 20:46:21 GMT 37.457794 27.957750 38,000 320 442 -64
2022-05-19 20:46:19 GMT 37.453171 27.962835 38,000 320 442 -64
2022-05-19 20:46:12 GMT 37.443501 27.973341 38,000 320 443 -64
2022-05-19 20:46:09 GMT 37.438019 27.979315 38,000 320 443 -64
2022-05-19 20:46:05 GMT 37.426712 27.991587 38,000 320 443 0
2022-05-19 20:46:02 GMT 37.426712 27.991587 38,000 320 443 0
2022-05-19 20:45:59 GMT 37.422737 27.995911 38,025 320 443 0
2022-05-19 20:45:53 GMT 37.413429 28.006001 38,000 320 443 0
2022-05-19 20:45:51 GMT 37.410873 28.008766 38,000 320 444 0
2022-05-19 20:45:48 GMT 37.405243 28.014845 38,000 320 444 0
2022-05-19 20:45:44 GMT 37.399277 28.021345 38,000 320 444 -64
2022-05-19 20:45:42 GMT 37.396343 28.024511 38,000 320 444 -64
2022-05-19 20:45:39 GMT 37.390572 28.030781 38,000 320 444 0
2022-05-19 20:45:35 GMT 37.385193 28.036583 38,000 320 445 0
2022-05-19 20:45:28 GMT 37.374371 28.048334 38,000 320 445 0
2022-05-19 20:45:22 GMT 37.365280 28.058205 38,000 320 445 0
2022-05-19 20:45:18 GMT 37.359375 28.064634 38,000 320 445 0
2022-05-19 20:45:14 GMT 37.353050 28.071501 38,000 320 445 0
2022-05-19 20:45:11 GMT 37.346558 28.078543 38,000 320 445 0
2022-05-19 20:45:03 GMT 37.334244 28.091925 38,000 320 446 0
2022-05-19 20:44:59 GMT 37.330353 28.096132 38,000 320 447 0
2022-05-19 20:44:55 GMT 37.321884 28.105307 38,000 320 446 64
2022-05-19 20:44:52 GMT 37.318771 28.108696 38,000 320 446 64
2022-05-19 20:44:49 GMT 37.314880 28.112904 38,000 320 446 64
2022-05-19 20:44:47 GMT 37.310486 28.117638 38,000 320 446 64
2022-05-19 20:44:42 GMT 37.302383 28.126461 38,000 320 446 64
2022-05-19 20:44:37 GMT 37.294628 28.134851 38,000 320 446 64
2022-05-19 20:44:30 GMT 37.282757 28.147690 37,975 320 447 0
2022-05-19 20:44:26 GMT 37.278305 28.152525 37,975 320 447 0
2022-05-19 20:44:22 GMT 37.270615 28.160822 37,975 320 447 0
2022-05-19 20:44:19 GMT 37.266541 28.165205 37,975 320 447 0
2022-05-19 20:44:16 GMT 37.262554 28.169542 37,975 320 447 0
2022-05-19 20:44:10 GMT 37.252357 28.180529 37,975 320 447 0
2022-05-19 20:44:07 GMT 37.247471 28.185783 37,975 320 447 64
2022-05-19 20:43:59 GMT 37.234863 28.199390 37,975 320 447 64
2022-05-19 20:43:56 GMT 37.230515 28.204124 37,975 320 447 64
2022-05-19 20:43:49 GMT 37.218513 28.217010 37,975 320 447 0
2022-05-19 20:43:46 GMT 37.213814 28.222086 37,975 320 447 0
2022-05-19 20:43:39 GMT 37.204689 28.231878 37,975 320 447 -64
2022-05-19 20:43:35 GMT 37.197937 28.239162 37,975 320 447 -128
2022-05-19 20:43:29 GMT 37.185974 28.252045 38,000 320 446 -128
2022-05-19 20:43:25 GMT 37.182297 28.256001 38,000 320 445 -128
2022-05-19 20:43:19 GMT 37.172752 28.266331 38,000 319 446 -64
2022-05-19 20:43:17 GMT 37.169819 28.269554 38,000 319 446 -64
2022-05-19 20:43:14 GMT 37.165119 28.274630 38,000 319 446 -64
2022-05-19 20:43:08 GMT 37.156090 28.284422 38,025 319 446 -64
2022-05-19 20:43:05 GMT 37.150642 28.290333 38,025 320 445 0
2022-05-19 20:42:59 GMT 37.141750 28.300005 38,025 319 446 0
2022-05-19 20:42:57 GMT 37.139095 28.302872 38,025 320 445 0
2022-05-19 20:42:49 GMT 37.126156 28.316902 38,025 319 446 0
2022-05-19 20:42:47 GMT 37.122711 28.320604 38,025 319 446 64
2022-05-19 20:42:43 GMT 37.116470 28.327351 38,025 320 445 0
2022-05-19 20:42:39 GMT 37.110489 28.333857 38,025 320 445 0
2022-05-19 20:42:34 GMT 37.102524 28.342506 38,025 320 446 0
2022-05-19 20:42:28 GMT 37.093918 28.351740 38,025 320 446 0
2022-05-19 20:42:24 GMT 37.086731 28.359510 38,025 320 446 0
2022-05-19 20:42:20 GMT 37.082062 28.364536 38,025 320 446 0
2022-05-19 20:42:16 GMT 37.072899 28.374342 38,025 320 446 0
2022-05-19 20:42:08 GMT 37.061874 28.386160 38,025 320 445 0
2022-05-19 20:42:05 GMT 37.057159 28.391243 38,025 320 445 0
2022-05-19 20:41:58 GMT 37.046036 28.403107 38,000 320 445 64
2022-05-19 20:41:55 GMT 37.042034 28.407360 38,000 320 445 64
2022-05-19 20:41:48 GMT 37.030441 28.419720 38,000 320 445 0
2022-05-19 20:41:45 GMT 37.026627 28.423794 38,000 320 445 0
2022-05-19 20:41:37 GMT 37.013214 28.438169 38,000 320 445 0
2022-05-19 20:41:32 GMT 37.005772 28.446112 38,000 320 444 0
2022-05-19 20:41:27 GMT 36.998135 28.454290 38,000 320 444 0
2022-05-19 20:41:22 GMT 36.990097 28.462889 38,000 320 443 0
2022-05-19 20:41:17 GMT 36.981750 28.471786 38,000 320 443 0
2022-05-19 20:41:11 GMT 36.973183 28.480982 38,000 320 443 0
2022-05-19 20:41:07 GMT 36.966152 28.488443 38,000 320 443 0
2022-05-19 20:41:04 GMT 36.962494 28.492340 38,000 320 442 0
2022-05-19 20:41:00 GMT 36.956516 28.498774 38,000 320 442 0
2022-05-19 20:40:57 GMT 36.951862 28.503731 38,000 320 441 64
2022-05-19 20:40:54 GMT 36.946926 28.509104 38,000 320 442 0
2022-05-19 20:40:51 GMT 36.942169 28.514137 38,000 320 442 0
2022-05-19 20:40:46 GMT 36.935429 28.521402 38,000 320 442 0
2022-05-19 20:40:44 GMT 36.930725 28.526468 37,975 320 441 0
2022-05-19 20:40:41 GMT 36.925919 28.531610 38,000 320 441 0
2022-05-19 20:40:36 GMT 36.917862 28.540260 37,975 320 441 0
2022-05-19 20:40:33 GMT 36.913273 28.545109 37,975 320 441 64
2022-05-19 20:40:27 GMT 36.904678 28.554285 37,975 320 441 64
2022-05-19 20:40:24 GMT 36.899414 28.559895 37,975 320 440 64
2022-05-19 20:40:15 GMT 36.886784 28.573351 37,975 320 440 64
2022-05-19 20:40:11 GMT 36.871674 28.589405 37,950 320 439 0
2022-05-19 20:40:06 GMT 36.871674 28.589405 37,950 320 439 0
2022-05-19 20:40:03 GMT 36.866867 28.594490 37,950 320 439 64
2022-05-19 20:39:56 GMT 36.852100 28.610130 37,950 320 438 64
2022-05-19 20:39:53 GMT 36.852100 28.610130 37,950 320 438 0
2022-05-19 20:39:47 GMT 36.842606 28.620186 37,950 320 438 0
2022-05-19 20:39:45 GMT 36.839439 28.623533 37,950 320 438 0
2022-05-19 20:39:42 GMT 36.834869 28.628368 37,950 320 437 0
2022-05-19 20:39:37 GMT 36.826450 28.637266 37,950 320 437 0
2022-05-19 20:39:32 GMT 36.819515 28.644571 37,950 320 437 -64
2022-05-19 20:39:28 GMT 36.813229 28.651293 37,950 320 436 -64
2022-05-19 20:39:25 GMT 36.808365 28.656406 37,950 320 436 0
2022-05-19 20:39:22 GMT 36.802479 28.662687 37,950 320 436 0
2022-05-19 20:39:16 GMT 36.795586 28.669992 37,950 320 435 0
2022-05-19 20:39:12 GMT 36.788452 28.677578 37,950 320 435 0
2022-05-19 20:39:06 GMT 36.780350 28.686218 37,950 320 434 64
2022-05-19 20:39:02 GMT 36.773163 28.693886 37,950 320 434 64
2022-05-19 20:38:54 GMT 36.761513 28.706282 37,950 320 434 0
2022-05-19 20:38:51 GMT 36.756901 28.711132 37,950 320 434 0
2022-05-19 20:38:45 GMT 36.748337 28.720190 37,950 320 434 0
2022-05-19 20:38:43 GMT 36.745125 28.723639 37,950 320 434 0
2022-05-19 20:38:39 GMT 36.739304 28.729774 37,950 320 434 0
2022-05-19 20:38:36 GMT 36.733810 28.735619 37,950 320 433 0
2022-05-19 20:38:33 GMT 36.729904 28.739719 37,950 320 434 0
2022-05-19 20:38:25 GMT 36.717407 28.752995 37,950 320 434 -64
2022-05-19 20:38:23 GMT 36.714260 28.756306 37,950 320 434 -64
2022-05-19 20:38:15 GMT 36.702118 28.769188 37,975 320 433 -64
2022-05-19 20:38:13 GMT 36.698387 28.773134 37,975 320 433 -64
2022-05-19 20:38:05 GMT 36.686840 28.785465 37,975 320 433 0
2022-05-19 20:38:03 GMT 36.683121 28.789444 37,975 320 433 0
2022-05-19 20:37:54 GMT 36.670166 28.803177 37,975 320 433 -64
2022-05-19 20:37:52 GMT 36.667057 28.806503 37,975 320 433 -64
2022-05-19 20:37:45 GMT 36.655651 28.818659 37,975 320 433 0
2022-05-19 20:37:42 GMT 36.651764 28.822746 37,975 320 432 0
2022-05-19 20:37:34 GMT 36.639404 28.835850 37,975 320 432 0
2022-05-19 20:37:32 GMT 36.636383 28.839054 37,975 320 432 0
2022-05-19 20:37:25 GMT 36.624939 28.851185 37,975 320 433 0
2022-05-19 20:37:21 GMT 36.620361 28.856049 37,975 320 433 0
2022-05-19 20:37:15 GMT 36.610153 28.866863 37,975 320 433 0
2022-05-19 20:37:11 GMT 36.605095 28.872305 37,975 320 433 0
2022-05-19 20:37:04 GMT 36.594223 28.883858 37,975 320 433 64
2022-05-19 20:37:01 GMT 36.589733 28.888609 37,975 320 433 64
2022-05-19 20:36:54 GMT 36.573853 28.905487 37,975 320 433 64
2022-05-19 20:36:51 GMT 36.573853 28.905487 37,975 320 433 64
2022-05-19 20:36:44 GMT 36.562965 28.917068 37,975 320 433 0
2022-05-19 20:36:41 GMT 36.558403 28.921919 37,975 320 433 0
2022-05-19 20:36:33 GMT 36.547211 28.933811 37,975 320 432 -64
2022-05-19 20:36:30 GMT 36.542221 28.939133 37,975 320 432 -64
2022-05-19 20:36:23 GMT 36.531235 28.950748 37,975 320 432 0
2022-05-19 20:36:20 GMT 36.527298 28.954926 37,975 320 432 0
2022-05-19 20:36:13 GMT 36.516037 28.966770 37,975 320 431 0
2022-05-19 20:36:10 GMT 36.511322 28.971806 37,975 320 431 0
2022-05-19 20:36:03 GMT 36.500702 28.983021 37,975 320 431 0
2022-05-19 20:36:00 GMT 36.496124 28.987885 37,975 320 431 0
2022-05-19 20:35:52 GMT 36.484058 29.000633 37,975 320 431 0
2022-05-19 20:35:49 GMT 36.480427 29.004492 37,975 320 431 0
2022-05-19 20:35:43 GMT 36.470352 29.015179 37,975 320 431 0
2022-05-19 20:35:39 GMT 36.465179 29.020615 37,975 320 431 0
2022-05-19 20:35:33 GMT 36.454971 29.031372 37,950 320 431 0
2022-05-19 20:35:29 GMT 36.449612 29.037041 37,975 320 431 64
2022-05-19 20:35:23 GMT 36.439880 29.047325 37,950 320 431 64
2022-05-19 20:35:19 GMT 36.433868 29.053631 37,950 320 431 64
2022-05-19 20:35:13 GMT 36.424484 29.063587 37,950 320 431 64
2022-05-19 20:35:08 GMT 36.418186 29.070232 37,950 320 430 0
2022-05-19 20:35:01 GMT 36.406410 29.082739 37,950 320 430 0
2022-05-19 20:34:58 GMT 36.402454 29.086946 37,950 320 430 0
2022-05-19 20:34:53 GMT 36.394180 29.095688 37,950 320 431 -64
2022-05-19 20:34:48 GMT 36.387604 29.102667 37,950 320 431 -64
2022-05-19 20:34:42 GMT 36.378201 29.112541 37,975 320 430 -64
2022-05-19 20:34:38 GMT 36.371964 29.119087 37,975 320 430 0
2022-05-19 20:34:31 GMT 36.361954 29.129606 37,975 320 430 0
2022-05-19 20:34:27 GMT 36.356319 29.135508 37,975 320 430 0
2022-05-19 20:34:22 GMT 36.348267 29.143982 37,975 320 429 0
2022-05-19 20:34:17 GMT 36.340584 29.152105 37,975 320 429 0
2022-05-19 20:34:12 GMT 36.333206 29.159832 37,975 320 430 0
2022-05-19 20:34:06 GMT 36.324245 29.169344 37,975 320 430 0
2022-05-19 20:34:01 GMT 36.315994 29.178085 37,975 320 430 0
2022-05-19 20:33:57 GMT 36.309952 29.184494 37,975 320 430 0
2022-05-19 20:33:52 GMT 36.301529 29.193361 37,975 320 430 0
2022-05-19 20:33:46 GMT 36.293987 29.201368 37,975 320 430 0
2022-05-19 20:33:42 GMT 36.286469 29.209270 37,975 320 430 0
2022-05-19 20:33:36 GMT 36.278812 29.217321 37,975 320 430 0
2022-05-19 20:33:32 GMT 36.271221 29.225269 37,975 320 431 0
2022-05-19 20:33:27 GMT 36.264313 29.232559 37,975 320 431 0
2022-05-19 20:33:21 GMT 36.255859 29.241398 37,975 320 432 0
2022-05-19 20:33:18 GMT 36.250366 29.247126 37,975 320 431 0
2022-05-19 20:33:11 GMT 36.240589 29.257294 37,975 320 432 64
2022-05-19 20:33:07 GMT 36.233704 29.264421 37,975 320 432 64
2022-05-19 20:33:01 GMT 36.224949 29.273479 37,975 321 433 64
2022-05-19 20:32:57 GMT 36.218060 29.280609 37,950 320 432 0
2022-05-19 20:32:49 GMT 36.207458 29.291725 37,975 319 430 0
2022-05-19 20:32:46 GMT 36.202835 29.296818 37,975 318 430 0
2022-05-19 20:32:41 GMT 36.194321 29.306431 37,975 317 428 0
2022-05-19 20:32:34 GMT 36.184204 29.318504 37,975 316 427 0
2022-05-19 20:32:31 GMT 36.179626 29.324169 37,975 314 426 0
2022-05-19 20:32:26 GMT 36.173584 29.331894 37,975 313 424 0
2022-05-19 20:32:19 GMT 36.164017 29.344769 37,975 312 424 0
2022-05-19 20:32:10 GMT 36.153072 29.360203 37,975 311 423 0
2022-05-19 20:32:03 GMT 36.143715 29.373526 37,975 311 424 -64
2022-05-19 20:31:59 GMT 36.138687 29.380655 37,975 311 424 -64
2022-05-19 20:31:50 GMT 36.127098 29.397135 38,000 312 424 -64
2022-05-19 20:31:40 GMT 36.114120 29.415493 38,000 312 424 0
2022-05-19 20:31:36 GMT 36.108524 29.423431 38,000 311 425 0
2022-05-19 20:31:29 GMT 36.099957 29.435530 38,000 311 425 -64
2022-05-19 20:31:24 GMT 36.092739 29.445755 38,000 311 425 0
2022-05-19 20:31:20 GMT 36.087616 29.452972 38,000 312 425 0
2022-05-19 20:31:16 GMT 36.082352 29.460468 38,000 312 425 0
2022-05-19 20:31:10 GMT 36.074432 29.471626 38,000 312 425 -64
2022-05-19 20:31:00 GMT 36.061550 29.489819 38,025 312 425 0
2022-05-19 20:30:49 GMT 36.047104 29.510250 38,000 312 425 0
2022-05-19 20:30:42 GMT 36.039459 29.521008 38,000 312 426 0
2022-05-19 20:30:37 GMT 36.032829 29.530491 38,000 312 426 0
2022-05-19 20:30:32 GMT 36.025940 29.540192 38,000 312 426 0
2022-05-19 20:30:28 GMT 36.021194 29.546871 38,000 312 426 64
2022-05-19 20:30:24 GMT 36.016800 29.553108 38,000 312 426 0
2022-05-19 20:30:19 GMT 36.008717 29.564560 38,000 312 426 0
2022-05-19 20:30:14 GMT 36.002792 29.572906 38,000 312 426 0
2022-05-19 20:30:09 GMT 35.996063 29.582462 38,000 312 427 0
2022-05-19 20:30:04 GMT 35.990421 29.590448 38,000 312 427 0
2022-05-19 20:30:01 GMT 35.985947 29.596767 38,000 312 427 0
2022-05-19 20:29:57 GMT 35.980225 29.604836 38,000 312 427 0
2022-05-19 20:29:48 GMT 35.968643 29.621143 38,000 312 427 0
2022-05-19 20:29:41 GMT 35.959602 29.633867 38,000 312 427 0
2022-05-19 20:29:38 GMT 35.955597 29.639536 38,000 312 427 0
2022-05-19 20:29:28 GMT 35.942688 29.657764 38,000 312 426 0
2022-05-19 20:29:18 GMT 35.929668 29.676119 38,000 312 425 0
2022-05-19 20:29:10 GMT 35.919891 29.689922 38,000 312 425 0
2022-05-19 20:29:07 GMT 35.915222 29.696503 38,000 312 425 0
2022-05-19 20:28:57 GMT 35.901970 29.715271 38,000 311 425 0
2022-05-19 20:28:47 GMT 35.890053 29.732042 38,000 311 425 0
2022-05-19 20:28:36 GMT 35.875854 29.752087 38,000 312 424 0
2022-05-19 20:28:27 GMT 35.864182 29.768600 37,975 312 424 64
2022-05-19 20:28:17 GMT 35.851181 29.786911 37,975 312 423 0
2022-05-19 20:28:07 GMT 35.838593 29.804535 37,975 312 424 0
2022-05-19 20:27:57 GMT 35.824905 29.823704 37,975 312 423 0
2022-05-19 20:27:47 GMT 35.812180 29.841442 37,975 312 423 0
2022-05-19 20:27:36 GMT 35.798584 29.860382 37,975 312 423 0
2022-05-19 20:27:26 GMT 35.785675 29.878407 37,975 312 422 0
2022-05-19 20:27:22 GMT 35.781075 29.884798 37,975 312 422 0
2022-05-19 20:27:13 GMT 35.768372 29.902496 37,975 312 421 0
2022-05-19 20:27:07 GMT 35.759903 29.914398 37,975 312 421 0
2022-05-19 20:26:56 GMT 35.746208 29.933537 37,975 312 421 0
2022-05-19 20:26:45 GMT 35.733398 29.951420 37,975 312 420 0
2022-05-19 20:26:34 GMT 35.718925 29.971638 37,975 312 420 0
2022-05-19 20:26:29 GMT 35.711990 29.981279 37,975 312 420 0
2022-05-19 20:26:25 GMT 35.706963 29.988293 37,975 312 421 0
2022-05-19 20:26:23 GMT 35.703472 29.993143 37,975 312 422 0
2022-05-19 20:26:15 GMT 35.693558 30.006992 37,975 312 423 0
2022-05-19 20:26:04 GMT 35.679451 30.026688 37,975 312 423 0
2022-05-19 20:25:56 GMT 35.668839 30.041531 37,975 312 421 -64
2022-05-19 20:25:53 GMT 35.666275 30.045153 37,975 312 423 0
2022-05-19 20:25:41 GMT 35.650028 30.067827 37,975 312 421 0
2022-05-19 20:25:34 GMT 35.640976 30.080509 37,975 312 420 0
2022-05-19 20:25:24 GMT 35.628151 30.098272 37,975 312 420 0
2022-05-19 20:25:14 GMT 35.615067 30.116272 37,975 312 419 0
2022-05-19 20:25:04 GMT 35.602203 30.133781 37,975 313 419 0
2022-05-19 20:24:53 GMT 35.588379 30.152435 37,975 313 419 64
2022-05-19 20:24:43 GMT 35.575150 30.170116 37,925 313 419 448
2022-05-19 20:24:34 GMT 35.562092 30.187567 37,850 313 419 512
2022-05-19 20:24:23 GMT 35.548779 30.205507 37,750 312 418 512
2022-05-19 20:24:12 GMT 35.534637 30.225163 37,650 311 417 448
2022-05-19 20:24:02 GMT 35.522461 30.243130 37,600 309 413 384
2022-05-19 20:23:53 GMT 35.511631 30.260204 37,525 308 413 448
2022-05-19 20:23:51 GMT 35.509964 30.262928 37,525 308 413 448
2022-05-19 20:23:42 GMT 35.498966 30.280424 37,450 308 412 576
2022-05-19 20:23:34 GMT 35.489960 30.294743 37,350 308 412 640
2022-05-19 20:23:32 GMT 35.486771 30.299885 37,325 308 412 640
2022-05-19 20:23:22 GMT 35.475174 30.318260 37,250 308 412 320
2022-05-19 20:23:15 GMT 35.467079 30.331148 37,225 308 410 128
2022-05-19 20:23:11 GMT 35.462330 30.338688 37,225 308 411 128
2022-05-19 20:23:05 GMT 35.456497 30.347958 37,225 308 410 128
2022-05-19 20:23:01 GMT 35.450912 30.356770 37,200 308 409 320
2022-05-19 20:22:59 GMT 35.448692 30.360367 37,175 308 409 384
2022-05-19 20:22:52 GMT 35.440220 30.373692 37,125 308 408 576
2022-05-19 20:22:48 GMT 35.436077 30.380295 37,100 308 408 576
2022-05-19 20:22:45 GMT 35.432117 30.386490 37,050 308 408 576
2022-05-19 20:22:41 GMT 35.428673 30.391981 37,025 308 408 576
2022-05-19 20:22:35 GMT 35.421131 30.403845 36,950 308 409 768
2022-05-19 20:22:31 GMT 35.416763 30.410728 36,925 308 409 768
2022-05-19 20:22:28 GMT 35.413124 30.416468 36,875 308 409 384
2022-05-19 20:22:21 GMT 35.404884 30.429499 36,800 308 409 512
2022-05-19 20:22:15 GMT 35.397766 30.440769 36,750 308 409 384
2022-05-19 20:22:10 GMT 35.392178 30.449602 36,700 308 409 512
2022-05-19 20:22:00 GMT 35.380508 30.468006 36,475 308 410 1216
2022-05-19 20:21:56 GMT 35.375835 30.475431 36,475 308 410 1216
2022-05-19 20:21:51 GMT 35.370110 30.484489 36,300 308 412 1344
2022-05-19 20:21:48 GMT 35.366852 30.489632 36,300 308 412 1344
2022-05-19 20:21:41 GMT 35.359264 30.501671 36,150 308 415 1152
2022-05-19 20:21:39 GMT 35.356144 30.506697 36,125 308 415 1024
2022-05-19 20:21:30 GMT 35.345032 30.524311 36,000 308 415 448
2022-05-19 20:21:22 GMT 35.331844 30.545149 35,950 308 414 384
2022-05-19 20:21:18 GMT 35.331844 30.545149 35,950 308 414 384
2022-05-19 20:21:12 GMT 35.324158 30.557213 35,900 308 413 576
2022-05-19 20:21:09 GMT 35.321278 30.561745 35,825 308 413 640
2022-05-19 20:21:06 GMT 35.317795 30.567169 35,825 308 413 640
2022-05-19 20:20:59 GMT 35.309006 30.580959 35,700 308 413 1152
2022-05-19 20:20:52 GMT 35.300858 30.593662 35,575 308 414 1344
2022-05-19 20:20:49 GMT 35.296700 30.600254 35,475 308 416 1344
2022-05-19 20:20:47 GMT 35.295456 30.602188 35,475 308 418 1280
2022-05-19 20:20:39 GMT 35.285152 30.618195 35,275 308 418 1280
2022-05-19 20:20:36 GMT 35.282135 30.622959 35,225 308 418 1152
2022-05-19 20:20:32 GMT 35.277237 30.630627 35,150 308 419 1088
2022-05-19 20:20:29 GMT 35.273003 30.637245 35,100 308 419 960
2022-05-19 20:20:21 GMT 35.264297 30.650921 34,975 308 419 704
2022-05-19 20:20:16 GMT 35.258339 30.660271 34,925 308 419 704
2022-05-19 20:20:14 GMT 35.255825 30.664186 34,900 308 419 640
2022-05-19 20:20:10 GMT 35.250916 30.671940 34,850 308 419 704
2022-05-19 20:20:06 GMT 35.246796 30.678387 34,825 308 419 704
2022-05-19 20:20:04 GMT 35.243912 30.682983 34,775 308 418 640
2022-05-19 20:19:58 GMT 35.236633 30.694313 34,725 308 418 704
2022-05-19 20:19:53 GMT 35.231480 30.702463 34,675 308 417 704
2022-05-19 20:19:49 GMT 35.226265 30.710621 34,625 308 417 640
2022-05-19 20:19:44 GMT 35.219559 30.721136 34,550 308 417 768
2022-05-19 20:19:39 GMT 35.214626 30.728817 34,475 308 417 1024
2022-05-19 20:19:36 GMT 35.210342 30.735512 34,425 308 417 1152
2022-05-19 20:19:34 GMT 35.208023 30.739130 34,375 308 417 1216
2022-05-19 20:19:30 GMT 35.203083 30.746841 34,300 308 418 1216
2022-05-19 20:19:25 GMT 35.197960 30.754852 34,200 309 418 1408
2022-05-19 20:19:23 GMT 35.190701 30.766182 34,000 308 419 1664
2022-05-19 20:19:19 GMT 35.190701 30.766182 34,025 308 420 1728
2022-05-19 20:19:12 GMT 35.182388 30.779207 33,850 308 422 1472
2022-05-19 20:19:10 GMT 35.178829 30.784779 33,775 308 422 1152
2022-05-19 20:19:07 GMT 35.175476 30.790043 33,750 308 422 896
2022-05-19 20:19:03 GMT 35.170544 30.797768 33,700 308 422 448
2022-05-19 20:18:58 GMT 35.166351 30.804348 33,675 308 421 256
2022-05-19 20:18:55 GMT 35.161514 30.811941 33,650 308 420 192
2022-05-19 20:18:53 GMT 35.158485 30.816708 33,650 308 419 192
2022-05-19 20:18:49 GMT 35.154900 30.822315 33,650 309 418 256
2022-05-19 20:18:43 GMT 35.146801 30.834961 33,600 309 416 512
2022-05-19 20:18:38 GMT 35.142517 30.841656 33,575 309 416 640
2022-05-19 20:18:35 GMT 35.138855 30.847256 33,525 309 415 832
2022-05-19 20:18:32 GMT 35.134232 30.854429 33,475 309 415 1024
2022-05-19 20:18:28 GMT 35.129902 30.861168 33,400 309 415 1088
2022-05-19 20:18:22 GMT 35.122604 30.872536 33,275 309 415 1088
2022-05-19 20:18:19 GMT 35.119034 30.878029 33,225 309 415 1088
2022-05-19 20:18:16 GMT 35.115005 30.884228 33,175 309 415 1088
2022-05-19 20:18:12 GMT 35.110256 30.891609 33,100 309 416 1152
2022-05-19 20:18:09 GMT 35.107086 30.896469 33,050 309 416 1088
2022-05-19 20:18:06 GMT 35.102463 30.903700 32,975 309 416 1024
2022-05-19 20:18:01 GMT 35.097408 30.911522 32,925 308 416 896
2022-05-19 20:17:55 GMT 35.089417 30.923935 32,825 309 415 768
2022-05-19 20:17:50 GMT 35.084980 30.930862 32,775 309 413 768
2022-05-19 20:17:45 GMT 35.078659 30.940695 32,700 309 413 768
2022-05-19 20:17:41 GMT 35.073486 30.948767 32,650 309 412 832
2022-05-19 20:17:33 GMT 35.065155 30.961716 32,550 308 411 960
2022-05-19 20:17:30 GMT 35.060806 30.968496 32,475 308 411 1088
2022-05-19 20:17:23 GMT 35.052383 30.981613 32,350 308 411 1088
2022-05-19 20:17:21 GMT 35.049911 30.985481 32,300 308 411 1024
2022-05-19 20:17:15 GMT 35.043083 30.996151 32,225 309 410 1024
2022-05-19 20:17:11 GMT 35.037773 31.004333 32,150 309 410 1024
2022-05-19 20:17:04 GMT 35.030960 31.014965 32,025 308 409 1024
2022-05-19 20:17:01 GMT 35.026321 31.022129 31,975 309 408 1024
2022-05-19 20:16:50 GMT 35.014126 31.041126 31,800 309 407 896
2022-05-19 20:16:45 GMT 35.007660 31.051174 31,725 309 406 960
2022-05-19 20:16:40 GMT 35.002441 31.059246 31,650 308 406 960
2022-05-19 20:16:32 GMT 34.992805 31.074257 31,525 309 404 1024
2022-05-19 20:16:30 GMT 34.990383 31.078033 31,475 309 403 1024
2022-05-19 20:16:24 GMT 34.984085 31.087776 31,375 309 403 1024
2022-05-19 20:16:14 GMT 34.972275 31.106014 31,175 309 401 1408
2022-05-19 20:16:09 GMT 34.965958 31.115692 31,050 309 402 1472
2022-05-19 20:16:03 GMT 34.959732 31.125219 30,925 309 402 1472
2022-05-19 20:16:00 GMT 34.955608 31.131535 30,825 309 401 1408
2022-05-19 20:15:56 GMT 34.951492 31.137775 30,750 309 401 1280
2022-05-19 20:15:53 GMT 34.947739 31.143438 30,700 309 401 1280
2022-05-19 20:15:46 GMT 34.939877 31.155338 30,525 309 402 1344
2022-05-19 20:15:42 GMT 34.936157 31.160870 30,450 309 401 1472
2022-05-19 20:15:36 GMT 34.928604 31.172304 30,275 309 401 1472
2022-05-19 20:15:32 GMT 34.924793 31.178226 30,225 307 398 1344
2022-05-19 20:15:27 GMT 34.918785 31.188755 30,100 300 392 1280
2022-05-19 20:15:23 GMT 34.915295 31.195965 30,025 297 391 1216
2022-05-19 20:15:18 GMT 34.910614 31.207729 29,925 292 386 1088
2022-05-19 20:15:13 GMT 34.907730 31.217035 29,825 288 384 1088
2022-05-19 20:15:06 GMT 34.904205 31.231216 29,700 286 381 1216
2022-05-19 20:15:03 GMT 34.902866 31.237335 29,625 285 379 1280
2022-05-19 20:14:58 GMT 34.900352 31.248665 29,500 285 379 1344
2022-05-19 20:14:55 GMT 34.899078 31.254534 29,450 285 378 1472
2022-05-19 20:14:52 GMT 34.897934 31.259691 29,375 285 378 1472
2022-05-19 20:14:47 GMT 34.895416 31.271095 29,250 285 378 1536
2022-05-19 20:14:45 GMT 34.894501 31.275330 29,200 285 378 1536
2022-05-19 20:14:42 GMT 34.893463 31.280193 29,125 285 378 1536
2022-05-19 20:14:36 GMT 34.890995 31.291695 29,000 285 378 1408
2022-05-19 20:14:34 GMT 34.889690 31.297646 28,925 285 378 1344
2022-05-19 20:14:32 GMT 34.888962 31.301058 28,900 285 377 1344
2022-05-19 20:14:26 GMT 34.886581 31.311932 28,800 285 376 1152
2022-05-19 20:14:22 GMT 34.884525 31.321278 28,700 285 375 1088
2022-05-19 20:14:17 GMT 34.882198 31.331863 28,600 285 375 1088
2022-05-19 20:14:14 GMT 34.880859 31.338053 28,550 285 374 1216
2022-05-19 20:14:11 GMT 34.879776 31.342850 28,500 285 374 1344
2022-05-19 20:14:07 GMT 34.877728 31.352406 28,375 285 373 1600
2022-05-19 20:14:04 GMT 34.876377 31.358471 28,300 285 373 1664
2022-05-19 20:14:01 GMT 34.875305 31.363392 28,225 285 373 1600
2022-05-19 20:13:56 GMT 34.872940 31.374432 28,075 285 372 1472
2022-05-19 20:13:54 GMT 34.872047 31.378555 28,050 285 372 1280
2022-05-19 20:13:50 GMT 34.870560 31.385809 27,975 285 371 1088
2022-05-19 20:13:46 GMT 34.868546 31.395058 27,900 285 369 960
2022-05-19 20:13:44 GMT 34.867672 31.399212 27,850 285 369 1024
2022-05-19 20:13:40 GMT 34.866276 31.405849 27,800 285 368 1344
2022-05-19 20:13:36 GMT 34.864323 31.414833 27,675 285 367 1728
2022-05-19 20:13:34 GMT 34.863392 31.419239 27,600 285 367 2048
2022-05-19 20:13:29 GMT 34.861496 31.428129 27,450 285 368 2304
2022-05-19 20:13:26 GMT 34.860039 31.434860 27,300 285 369 2304
2022-05-19 20:13:23 GMT 34.858749 31.440966 27,200 285 369 2304
2022-05-19 20:13:21 GMT 34.857651 31.446234 27,100 285 370 2496
2022-05-19 20:13:15 GMT 34.855408 31.456884 26,875 284 372 2624
2022-05-19 20:13:13 GMT 34.854218 31.462669 26,725 284 371 2688
2022-05-19 20:13:08 GMT 34.852386 31.471907 26,525 284 374 2688
2022-05-19 20:13:06 GMT 34.851746 31.475212 26,450 284 373 2624
2022-05-19 20:13:03 GMT 34.850510 31.481546 26,325 283 374 2496
2022-05-19 20:12:56 GMT 34.847855 31.495729 26,075 283 376 2112
2022-05-19 20:12:53 GMT 34.846493 31.503067 25,950 283 376 1984
2022-05-19 20:12:46 GMT 34.843918 31.516916 25,725 283 374 1920
2022-05-19 20:12:43 GMT 34.842999 31.522007 25,650 283 374 1984
2022-05-19 20:12:37 GMT 34.840580 31.535339 25,425 283 374 2112
2022-05-19 20:12:35 GMT 34.840027 31.538328 25,375 283 373 2048
2022-05-19 20:12:33 GMT 34.839275 31.542549 25,300 283 373 1792
2022-05-19 20:12:25 GMT 34.836227 31.558788 25,125 284 371 1216
2022-05-19 20:12:23 GMT 34.835403 31.563047 25,075 285 369 960
2022-05-19 20:12:16 GMT 34.832245 31.577679 24,975 288 366 576
2022-05-19 20:12:12 GMT 34.830383 31.584835 24,925 291 365 704
2022-05-19 20:12:06 GMT 34.826149 31.597538 24,800 297 363 1600
2022-05-19 20:12:02 GMT 34.824005 31.602959 24,725 298 363 1728
2022-05-19 20:11:56 GMT 34.818607 31.614647 24,500 301 363 2112
2022-05-19 20:11:53 GMT 34.815720 31.620655 24,375 301 363 2240
2022-05-19 20:11:45 GMT 34.809265 31.633900 24,100 301 363 2112
2022-05-19 20:11:43 GMT 34.807156 31.638165 24,000 301 362 2048
2022-05-19 20:11:36 GMT 34.800980 31.650883 23,775 301 360 1920
2022-05-19 20:11:33 GMT 34.798553 31.655983 23,675 301 360 1984
2022-05-19 20:11:23 GMT 34.791275 31.670950 23,300 301 358 1984
2022-05-19 20:11:18 GMT 34.785965 31.681881 23,275 301 358 1984
2022-05-19 20:11:14 GMT 34.783413 31.687145 23,075 301 356 2112
2022-05-19 20:11:08 GMT 34.777679 31.698919 22,850 301 355 1984
2022-05-19 20:11:05 GMT 34.775314 31.703854 22,750 301 353 1920
2022-05-19 20:11:02 GMT 34.772690 31.709232 22,650 301 353 1920
2022-05-19 20:10:55 GMT 34.766747 31.721478 22,425 301 351 2048
2022-05-19 20:10:53 GMT 34.764954 31.725096 22,350 301 350 2048
2022-05-19 20:10:44 GMT 34.758133 31.739166 22,050 301 348 2176
2022-05-19 20:10:38 GMT 34.753052 31.749592 21,800 301 347 2304
2022-05-19 20:10:34 GMT 34.749893 31.756149 21,650 301 347 2432
2022-05-19 20:10:32 GMT 34.748127 31.759758 21,575 301 347 2496
2022-05-19 20:10:24 GMT 34.741657 31.772976 21,225 301 346 2496
2022-05-19 20:10:14 GMT 34.733463 31.789684 20,850 301 344 2112
2022-05-19 20:10:04 GMT 34.725311 31.806316 20,475 301 342 2432
2022-05-19 20:09:52 GMT 34.715820 31.825447 20,075 302 340 2496
2022-05-19 20:09:50 GMT 34.714096 31.828880 20,075 302 340 2496
2022-05-19 20:09:48 GMT 34.712540 31.832102 19,825 302 340 2496
2022-05-19 20:09:43 GMT 34.708511 31.840153 19,600 302 338 2496
2022-05-19 20:09:38 GMT 34.704506 31.848106 19,400 302 337 2304
2022-05-19 20:09:33 GMT 34.700272 31.856651 19,200 302 336 2304
2022-05-19 20:09:28 GMT 34.696152 31.864891 19,000 301 335 2368
2022-05-19 20:09:23 GMT 34.692310 31.872711 18,825 301 333 2368
2022-05-19 20:09:18 GMT 34.688507 31.880754 18,625 298 331 2176
2022-05-19 20:09:13 GMT 34.685188 31.889362 18,450 291 327 2176
2022-05-19 20:09:08 GMT 34.682907 31.897602 18,250 283 323 2496
2022-05-19 20:09:02 GMT 34.681183 31.908501 18,000 275 319 2624
2022-05-19 20:08:58 GMT 34.680771 31.915956 17,800 270 319 2752
2022-05-19 20:08:53 GMT 34.681046 31.925812 17,550 265 317 2880
2022-05-19 20:08:45 GMT 34.682098 31.938377 17,225 264 314 2688
2022-05-19 20:08:43 GMT 34.682396 31.942177 17,125 264 314 2880
2022-05-19 20:08:38 GMT 34.683277 31.952190 16,825 264 314 3392
2022-05-19 20:08:33 GMT 34.684021 31.960911 16,550 265 316 3264
2022-05-19 20:08:28 GMT 34.684814 31.969643 16,275 265 316 2880
2022-05-19 20:08:23 GMT 34.685577 31.978399 16,075 265 315 2368
2022-05-19 20:08:18 GMT 34.686310 31.986807 15,900 264 310 2304
2022-05-19 20:08:08 GMT 34.687889 32.004662 15,500 264 307 2624
2022-05-19 20:08:02 GMT 34.688599 32.012981 15,275 264 307 2624
2022-05-19 20:07:52 GMT 34.690155 32.030640 14,800 264 305 2816
2022-05-19 20:07:43 GMT 34.691528 32.046616 14,325 264 304 3200
2022-05-19 20:07:32 GMT 34.693130 32.064945 13,750 264 303 3200
2022-05-19 20:07:30 GMT 34.693451 32.068474 13,650 264 303 3200
2022-05-19 20:07:27 GMT 34.693893 32.073669 13,475 265 303 3072
2022-05-19 20:07:23 GMT 34.694458 32.080528 13,300 265 302 2880
2022-05-19 20:07:13 GMT 34.695942 32.097416 12,800 265 299 2944
2022-05-19 20:07:06 GMT 34.696964 32.109489 12,450 265 298 2944
2022-05-19 20:07:03 GMT 34.697388 32.114216 12,325 265 297 2944
2022-05-19 20:06:56 GMT 34.698303 32.125145 12,000 264 295 2816
2022-05-19 20:06:53 GMT 34.698807 32.130749 11,850 264 293 2752
2022-05-19 20:06:47 GMT 34.699677 32.140896 11,575 264 291 2880
2022-05-19 20:06:42 GMT 34.700317 32.148285 11,350 265 290 2944
2022-05-19 20:06:35 GMT 34.701324 32.159504 11,025 265 287 2560
2022-05-19 20:06:33 GMT 34.701691 32.163708 10,925 265 278 1408
2022-05-19 20:06:25 GMT 34.702644 32.175179 10,725 265 279 1472
2022-05-19 20:06:15 GMT 34.703949 32.189713 10,475 264 266 2048
2022-05-19 20:06:05 GMT 34.705261 32.205299 9,950 265 263 3456
2022-05-19 20:05:55 GMT 34.706497 32.219818 9,375 265 262 3520
2022-05-19 20:05:45 GMT 34.707825 32.234783 8,725 265 263 3968
2022-05-19 20:05:36 GMT 34.709023 32.248878 8,100 264 266 3712
2022-05-19 20:05:24 GMT 34.710510 32.266388 7,450 265 265 3200
2022-05-19 20:05:14 GMT 34.711678 32.279949 6,950 265 262 3264
2022-05-19 20:05:04 GMT 34.712997 32.294647 6,350 264 262 3968
2022-05-19 20:04:54 GMT 34.714283 32.309475 5,625 264 266 4096

Making use of Plane Finder data

You are free to use the raw flight data, aircraft information and images provided in this report for your own purposes provided the data is correctly attributed to Plane Finder. We ask that you please credit Plane Finder and link to planefinder.net in close proximity to the content.

Optionally one of the following logos (no smaller then 150x24px) can be used and must link to planefinder.net

Embedding the Plane Finder map

You are welcome to embed the Plane Finder playback map on your website to offer visitors a more interactive experience. We suggest using the following HTML code:

<iframe src="//planefinder.net/data/report/U21974-G-UZLM-7700-squawk-2022-05-20/map" width="800" height="600" seamless="seamless"></iframe>

Where our data comes from

Plane Finder has a global network of data feeds and antenna radars that receive data broadcast directly from aircraft. The primary technologies used are ADS-B and MLAT. We also show feeds from the FAA and a FLARM glider feed.

Click here to find out more about the Plane Finder network.

How we collect our data